<?xml version='1.0' encoding='UTF-8'?><gpx version="1.1" creator="JPX - https://github.com/jenetics/jpx" xmlns="http://www.topografix.com/GPX/1/1"><trk><trkseg><trkpt lat="44.3293115" lon="8.4494622"><ele>218.00000000000003</ele><time>2026-05-01T08:24:43.939Z</time></trkpt><trkpt lat="44.3293311" lon="8.4495837"><ele>218.0</ele><time>2026-05-01T08:24:45.939Z</time></trkpt><trkpt lat="44.3293287" lon="8.4496879"><ele>218.0</ele><time>2026-05-01T08:24:46.939Z</time></trkpt><trkpt lat="44.3293699" lon="8.4498406"><ele>218.0</ele><time>2026-05-01T08:24:48.938Z</time></trkpt><trkpt lat="44.3293764" lon="8.4499335"><ele>218.00000000000003</ele><time>2026-05-01T08:24:49.939Z</time></trkpt><trkpt lat="44.3293782" lon="8.4500711"><ele>218.0</ele><time>2026-05-01T08:24:51.939Z</time></trkpt><trkpt lat="44.3293885" lon="8.4502321"><ele>218.16666666666669</ele><time>2026-05-01T08:24:53.938Z</time></trkpt><trkpt lat="44.3294233" lon="8.4503607"><ele>218.33333333333334</ele><time>2026-05-01T08:24:55.939Z</time></trkpt><trkpt lat="44.3294621" lon="8.4504946"><ele>218.5</ele><time>2026-05-01T08:24:57.938Z</time></trkpt><trkpt lat="44.3294805" lon="8.4505935"><ele>218.66666666666669</ele><time>2026-05-01T08:24:59.938Z</time></trkpt><trkpt lat="44.3295126" lon="8.4506821"><ele>218.83333333333334</ele><time>2026-05-01T08:25:01.939Z</time></trkpt><trkpt lat="44.3295394" lon="8.4508125"><ele>219.0</ele><time>2026-05-01T08:25:03.938Z</time></trkpt><trkpt lat="44.3295482" lon="8.4509465"><ele>219.0</ele><time>2026-05-01T08:25:05.939Z</time></trkpt><trkpt lat="44.3295661" lon="8.4510618"><ele>218.99999999999997</ele><time>2026-05-01T08:25:13.938Z</time></trkpt><trkpt lat="44.3295785" lon="8.4511978"><ele>218.99999999999997</ele><time>2026-05-01T08:25:15.939Z</time></trkpt><trkpt lat="44.3295943" lon="8.4513566"><ele>219.0</ele><time>2026-05-01T08:25:17.938Z</time></trkpt><trkpt lat="44.3296161" lon="8.4514973"><ele>219.0</ele><time>2026-05-01T08:25:19.939Z</time></trkpt><trkpt lat="44.3296455" lon="8.4516099"><ele>219.16666666666666</ele><time>2026-05-01T08:25:21.938Z</time></trkpt><trkpt lat="44.3297022" lon="8.4517164"><ele>219.33333333333331</ele><time>2026-05-01T08:25:23.939Z</time></trkpt><trkpt lat="44.3297455" lon="8.451782"><ele>219.5</ele><time>2026-05-01T08:25:25.939Z</time></trkpt><trkpt lat="44.3298253" lon="8.4517961"><ele>219.66666666666666</ele><time>2026-05-01T08:25:30.938Z</time></trkpt><trkpt lat="44.3298833" lon="8.4516592"><ele>219.83333333333331</ele><time>2026-05-01T08:25:32.939Z</time></trkpt><trkpt lat="44.3299104" lon="8.4515514"><ele>220.0</ele><time>2026-05-01T08:25:33.938Z</time></trkpt><trkpt lat="44.3299308" lon="8.4514423"><ele>227.0</ele><time>2026-05-01T08:25:34.939Z</time></trkpt><trkpt lat="44.3299573" lon="8.4513144"><ele>234.0</ele><time>2026-05-01T08:25:35.939Z</time></trkpt><trkpt lat="44.3299908" lon="8.4511522"><ele>241.0</ele><time>2026-05-01T08:25:36.937Z</time></trkpt><trkpt lat="44.3300243" lon="8.4509773"><ele>248.0</ele><time>2026-05-01T08:25:37.938Z</time></trkpt><trkpt lat="44.3300596" lon="8.4508179"><ele>248.2</ele><time>2026-05-01T08:25:38.939Z</time></trkpt><trkpt lat="44.3300817" lon="8.4506732"><ele>248.4</ele><time>2026-05-01T08:25:39.937Z</time></trkpt><trkpt lat="44.3301026" lon="8.4505296"><ele>248.59999999999997</ele><time>2026-05-01T08:25:40.937Z</time></trkpt><trkpt lat="44.3301282" lon="8.4503917"><ele>248.79999999999998</ele><time>2026-05-01T08:25:41.939Z</time></trkpt><trkpt lat="44.3301515" lon="8.4502609"><ele>249.0</ele><time>2026-05-01T08:25:42.937Z</time></trkpt><trkpt lat="44.3301801" lon="8.4501273"><ele>249.0</ele><time>2026-05-01T08:25:43.939Z</time></trkpt><trkpt lat="44.3302153" lon="8.4499954"><ele>248.99999999999997</ele><time>2026-05-01T08:25:44.938Z</time></trkpt><trkpt lat="44.3302515" lon="8.4498581"><ele>248.99999999999997</ele><time>2026-05-01T08:25:45.938Z</time></trkpt><trkpt lat="44.3302769" lon="8.4497096"><ele>249.0</ele><time>2026-05-01T08:25:46.938Z</time></trkpt><trkpt lat="44.3302869" lon="8.4495589"><ele>249.0</ele><time>2026-05-01T08:25:47.939Z</time></trkpt><trkpt lat="44.3302852" lon="8.4494169"><ele>249.0</ele><time>2026-05-01T08:25:48.939Z</time></trkpt><trkpt lat="44.3302754" lon="8.449277"><ele>248.99999999999997</ele><time>2026-05-01T08:25:49.938Z</time></trkpt><trkpt lat="44.3302677" lon="8.449138"><ele>248.99999999999997</ele><time>2026-05-01T08:25:50.937Z</time></trkpt><trkpt lat="44.3302667" lon="8.4489972"><ele>249.0</ele><time>2026-05-01T08:25:51.938Z</time></trkpt><trkpt lat="44.3302708" lon="8.448868"><ele>249.0</ele><time>2026-05-01T08:25:52.938Z</time></trkpt><trkpt lat="44.3302776" lon="8.4487378"><ele>248.75</ele><time>2026-05-01T08:25:53.939Z</time></trkpt><trkpt lat="44.3302957" lon="8.4485947"><ele>248.5</ele><time>2026-05-01T08:25:54.939Z</time></trkpt><trkpt lat="44.3303342" lon="8.4484397"><ele>248.25</ele><time>2026-05-01T08:25:55.938Z</time></trkpt><trkpt lat="44.3303888" lon="8.4482838"><ele>248.0</ele><time>2026-05-01T08:25:56.939Z</time></trkpt><trkpt lat="44.330457" lon="8.4481219"><ele>248.0</ele><time>2026-05-01T08:25:57.938Z</time></trkpt><trkpt lat="44.330528" lon="8.447991"><ele>248.0</ele><time>2026-05-01T08:25:58.938Z</time></trkpt><trkpt lat="44.3305896" lon="8.4478844"><ele>248.0</ele><time>2026-05-01T08:25:59.938Z</time></trkpt><trkpt lat="44.3306403" lon="8.4477772"><ele>248.0</ele><time>2026-05-01T08:26:00.939Z</time></trkpt><trkpt lat="44.330678" lon="8.4476407"><ele>248.0</ele><time>2026-05-01T08:26:01.939Z</time></trkpt><trkpt lat="44.3306997" lon="8.4474906"><ele>252.60000000000002</ele><time>2026-05-01T08:26:02.938Z</time></trkpt><trkpt lat="44.3307193" lon="8.447339"><ele>257.20000000000005</ele><time>2026-05-01T08:26:03.939Z</time></trkpt><trkpt lat="44.3307436" lon="8.447208"><ele>261.8</ele><time>2026-05-01T08:26:04.938Z</time></trkpt><trkpt lat="44.3307596" lon="8.4470867"><ele>266.40000000000003</ele><time>2026-05-01T08:26:05.939Z</time></trkpt><trkpt lat="44.3307565" lon="8.4469658"><ele>271.0</ele><time>2026-05-01T08:26:06.938Z</time></trkpt><trkpt lat="44.3307296" lon="8.4468378"><ele>271.16666666666663</ele><time>2026-05-01T08:26:07.94Z</time></trkpt><trkpt lat="44.3306807" lon="8.4467258"><ele>271.3333333333333</ele><time>2026-05-01T08:26:08.937Z</time></trkpt><trkpt lat="44.3306368" lon="8.4466244"><ele>271.5</ele><time>2026-05-01T08:26:09.938Z</time></trkpt><trkpt lat="44.3305976" lon="8.4465262"><ele>271.6666666666667</ele><time>2026-05-01T08:26:10.937Z</time></trkpt><trkpt lat="44.3306276" lon="8.4464236"><ele>271.83333333333337</ele><time>2026-05-01T08:26:11.939Z</time></trkpt><trkpt lat="44.3306571" lon="8.446322"><ele>272.0</ele><time>2026-05-01T08:26:12.938Z</time></trkpt><trkpt lat="44.3307077" lon="8.4462032"><ele>271.25</ele><time>2026-05-01T08:26:13.939Z</time></trkpt><trkpt lat="44.3307798" lon="8.4460652"><ele>270.5</ele><time>2026-05-01T08:26:14.938Z</time></trkpt><trkpt lat="44.3308808" lon="8.4459158"><ele>269.75</ele><time>2026-05-01T08:26:15.938Z</time></trkpt><trkpt lat="44.3309956" lon="8.4457528"><ele>269.0</ele><time>2026-05-01T08:26:16.939Z</time></trkpt><trkpt lat="44.3311023" lon="8.4456102"><ele>269.0</ele><time>2026-05-01T08:26:17.937Z</time></trkpt><trkpt lat="44.331186" lon="8.4454956"><ele>269.0</ele><time>2026-05-01T08:26:18.938Z</time></trkpt><trkpt lat="44.3312555" lon="8.445403"><ele>269.0</ele><time>2026-05-01T08:26:19.938Z</time></trkpt><trkpt lat="44.3313104" lon="8.4453203"><ele>269.0</ele><time>2026-05-01T08:26:20.938Z</time></trkpt><trkpt lat="44.3313465" lon="8.4452408"><ele>269.0</ele><time>2026-05-01T08:26:21.937Z</time></trkpt><trkpt lat="44.3313658" lon="8.4451374"><ele>269.0</ele><time>2026-05-01T08:26:22.938Z</time></trkpt><trkpt lat="44.3313676" lon="8.4450185"><ele>268.0</ele><time>2026-05-01T08:26:23.938Z</time></trkpt><trkpt lat="44.3313653" lon="8.4448968"><ele>267.0</ele><time>2026-05-01T08:26:24.938Z</time></trkpt><trkpt lat="44.3313724" lon="8.4447858"><ele>266.0</ele><time>2026-05-01T08:26:25.937Z</time></trkpt><trkpt lat="44.3314044" lon="8.4446766"><ele>265.0</ele><time>2026-05-01T08:26:26.937Z</time></trkpt><trkpt lat="44.3314594" lon="8.4445661"><ele>264.0</ele><time>2026-05-01T08:26:27.939Z</time></trkpt><trkpt lat="44.3315317" lon="8.4444601"><ele>269.59999999999997</ele><time>2026-05-01T08:26:28.938Z</time></trkpt><trkpt lat="44.3315942" lon="8.4443535"><ele>275.2</ele><time>2026-05-01T08:26:29.937Z</time></trkpt><trkpt lat="44.3316345" lon="8.4442493"><ele>280.79999999999995</ele><time>2026-05-01T08:26:30.938Z</time></trkpt><trkpt lat="44.3316425" lon="8.4441163"><ele>286.4</ele><time>2026-05-01T08:26:31.938Z</time></trkpt><trkpt lat="44.3316421" lon="8.4439676"><ele>292.0</ele><time>2026-05-01T08:26:32.939Z</time></trkpt><trkpt lat="44.3316455" lon="8.4437989"><ele>292.0</ele><time>2026-05-01T08:26:33.938Z</time></trkpt><trkpt lat="44.3316493" lon="8.4436129"><ele>292.0</ele><time>2026-05-01T08:26:34.939Z</time></trkpt><trkpt lat="44.331651" lon="8.4433994"><ele>292.0</ele><time>2026-05-01T08:26:35.938Z</time></trkpt><trkpt lat="44.3316472" lon="8.4432116"><ele>292.0</ele><time>2026-05-01T08:26:36.938Z</time></trkpt><trkpt lat="44.3316494" lon="8.4430428"><ele>294.2</ele><time>2026-05-01T08:26:37.937Z</time></trkpt><trkpt lat="44.331656" lon="8.4428866"><ele>296.4</ele><time>2026-05-01T08:26:38.937Z</time></trkpt><trkpt lat="44.3316723" lon="8.4427458"><ele>298.6</ele><time>2026-05-01T08:26:39.937Z</time></trkpt><trkpt lat="44.331693" lon="8.442612"><ele>300.8</ele><time>2026-05-01T08:26:40.938Z</time></trkpt><trkpt lat="44.3317237" lon="8.4424817"><ele>303.0</ele><time>2026-05-01T08:26:41.938Z</time></trkpt><trkpt lat="44.3317746" lon="8.4423805"><ele>303.0</ele><time>2026-05-01T08:26:42.938Z</time></trkpt><trkpt lat="44.3318282" lon="8.442305"><ele>303.0</ele><time>2026-05-01T08:26:43.938Z</time></trkpt><trkpt lat="44.3318869" lon="8.4421981"><ele>303.0</ele><time>2026-05-01T08:26:45.939Z</time></trkpt><trkpt lat="44.3318425" lon="8.4420875"><ele>303.0</ele><time>2026-05-01T08:26:47.938Z</time></trkpt><trkpt lat="44.331776" lon="8.4419933"><ele>303.0</ele><time>2026-05-01T08:26:49.939Z</time></trkpt><trkpt lat="44.3317519" lon="8.4418333"><ele>303.8333333333333</ele><time>2026-05-01T08:26:51.938Z</time></trkpt><trkpt lat="44.331743" lon="8.4417045"><ele>304.6666666666667</ele><time>2026-05-01T08:26:52.938Z</time></trkpt><trkpt lat="44.3317441" lon="8.4415858"><ele>305.5</ele><time>2026-05-01T08:26:53.938Z</time></trkpt><trkpt lat="44.3317529" lon="8.4414652"><ele>306.33333333333337</ele><time>2026-05-01T08:26:54.937Z</time></trkpt><trkpt lat="44.3317903" lon="8.4413526"><ele>307.1666666666667</ele><time>2026-05-01T08:26:55.937Z</time></trkpt><trkpt lat="44.3318284" lon="8.4412536"><ele>308.0</ele><time>2026-05-01T08:26:56.938Z</time></trkpt><trkpt lat="44.3318589" lon="8.4411752"><ele>308.0</ele><time>2026-05-01T08:26:57.939Z</time></trkpt><trkpt lat="44.3319255" lon="8.4411099"><ele>308.0</ele><time>2026-05-01T08:26:59.939Z</time></trkpt><trkpt lat="44.3319687" lon="8.4411919"><ele>308.0</ele><time>2026-05-01T08:27:01.937Z</time></trkpt><trkpt lat="44.3319755" lon="8.4412828"><ele>308.0</ele><time>2026-05-01T08:27:02.937Z</time></trkpt><trkpt lat="44.3319753" lon="8.4413939"><ele>308.0</ele><time>2026-05-01T08:27:03.938Z</time></trkpt><trkpt lat="44.3319863" lon="8.4414808"><ele>308.0</ele><time>2026-05-01T08:27:04.938Z</time></trkpt><trkpt lat="44.3320316" lon="8.4416184"><ele>308.0</ele><time>2026-05-01T08:27:06.939Z</time></trkpt><trkpt lat="44.3321367" lon="8.4417109"><ele>308.0</ele><time>2026-05-01T08:27:08.938Z</time></trkpt><trkpt lat="44.3322063" lon="8.4417215"><ele>308.0</ele><time>2026-05-01T08:27:09.937Z</time></trkpt><trkpt lat="44.3322873" lon="8.441722"><ele>308.0</ele><time>2026-05-01T08:27:10.938Z</time></trkpt><trkpt lat="44.3323535" lon="8.4417245"><ele>308.0</ele><time>2026-05-01T08:27:11.939Z</time></trkpt><trkpt lat="44.3324704" lon="8.4417407"><ele>312.0</ele><time>2026-05-01T08:27:13.937Z</time></trkpt><trkpt lat="44.3325539" lon="8.4418451"><ele>316.0</ele><time>2026-05-01T08:27:15.938Z</time></trkpt><trkpt lat="44.3325606" lon="8.4420242"><ele>320.0</ele><time>2026-05-01T08:27:17.939Z</time></trkpt><trkpt lat="44.3325479" lon="8.4421277"><ele>324.0</ele><time>2026-05-01T08:27:18.939Z</time></trkpt><trkpt lat="44.3325261" lon="8.4422269"><ele>328.0</ele><time>2026-05-01T08:27:19.939Z</time></trkpt><trkpt lat="44.3325077" lon="8.4423111"><ele>328.0</ele><time>2026-05-01T08:27:20.938Z</time></trkpt><trkpt lat="44.3324904" lon="8.4424292"><ele>328.0</ele><time>2026-05-01T08:27:22.939Z</time></trkpt><trkpt lat="44.3325499" lon="8.4424925"><ele>328.0</ele><time>2026-05-01T08:27:24.938Z</time></trkpt><trkpt lat="44.332648" lon="8.4424685"><ele>328.0</ele><time>2026-05-01T08:27:26.938Z</time></trkpt><trkpt lat="44.3326949" lon="8.4424034"><ele>328.0</ele><time>2026-05-01T08:27:27.937Z</time></trkpt><trkpt lat="44.3327355" lon="8.4423083"><ele>328.0</ele><time>2026-05-01T08:27:28.938Z</time></trkpt><trkpt lat="44.332772" lon="8.4422029"><ele>328.0</ele><time>2026-05-01T08:27:29.938Z</time></trkpt><trkpt lat="44.3328068" lon="8.4421042"><ele>328.0</ele><time>2026-05-01T08:27:30.937Z</time></trkpt><trkpt lat="44.3328474" lon="8.4419622"><ele>328.0</ele><time>2026-05-01T08:27:32.938Z</time></trkpt><trkpt lat="44.3328026" lon="8.442082"><ele>328.0</ele><time>2026-05-01T08:28:51.938Z</time></trkpt><trkpt lat="44.3327726" lon="8.4421639"><ele>328.0</ele><time>2026-05-01T08:28:53.938Z</time></trkpt><trkpt lat="44.3327441" lon="8.4422531"><ele>328.0</ele><time>2026-05-01T08:28:55.938Z</time></trkpt><trkpt lat="44.3327103" lon="8.4423443"><ele>328.0</ele><time>2026-05-01T08:28:57.938Z</time></trkpt><trkpt lat="44.3326607" lon="8.4424202"><ele>328.0</ele><time>2026-05-01T08:28:59.938Z</time></trkpt><trkpt lat="44.3325983" lon="8.4424614"><ele>328.0</ele><time>2026-05-01T08:29:01.937Z</time></trkpt><trkpt lat="44.3325136" lon="8.4424371"><ele>328.0</ele><time>2026-05-01T08:29:04.938Z</time></trkpt><trkpt lat="44.3325176" lon="8.4423118"><ele>328.0</ele><time>2026-05-01T08:29:07.938Z</time></trkpt><trkpt lat="44.3325358" lon="8.4422034"><ele>328.0</ele><time>2026-05-01T08:29:09.937Z</time></trkpt><trkpt lat="44.3325522" lon="8.4420842"><ele>328.8333333333333</ele><time>2026-05-01T08:29:11.939Z</time></trkpt><trkpt lat="44.33257" lon="8.4419719"><ele>329.66666666666663</ele><time>2026-05-01T08:29:13.938Z</time></trkpt><trkpt lat="44.3325653" lon="8.4418727"><ele>330.5</ele><time>2026-05-01T08:29:15.937Z</time></trkpt><trkpt lat="44.3325226" lon="8.4417856"><ele>331.3333333333333</ele><time>2026-05-01T08:29:17.937Z</time></trkpt><trkpt lat="44.332457" lon="8.4417331"><ele>332.1666666666667</ele><time>2026-05-01T08:29:19.937Z</time></trkpt><trkpt lat="44.3323846" lon="8.4417097"><ele>333.0</ele><time>2026-05-01T08:29:21.937Z</time></trkpt><trkpt lat="44.3322788" lon="8.441705"><ele>328.0</ele><time>2026-05-01T08:29:23.938Z</time></trkpt><trkpt lat="44.3321629" lon="8.4416935"><ele>323.0</ele><time>2026-05-01T08:29:25.937Z</time></trkpt><trkpt lat="44.3320703" lon="8.4416274"><ele>318.0</ele><time>2026-05-01T08:29:27.938Z</time></trkpt><trkpt lat="44.3320037" lon="8.4415072"><ele>313.0</ele><time>2026-05-01T08:29:29.94Z</time></trkpt><trkpt lat="44.3319836" lon="8.4413543"><ele>308.0</ele><time>2026-05-01T08:29:31.938Z</time></trkpt><trkpt lat="44.3319704" lon="8.4412149"><ele>308.0</ele><time>2026-05-01T08:29:33.939Z</time></trkpt><trkpt lat="44.3319552" lon="8.4411243"><ele>308.0</ele><time>2026-05-01T08:29:35.939Z</time></trkpt><trkpt lat="44.331885" lon="8.441093"><ele>308.0</ele><time>2026-05-01T08:29:38.938Z</time></trkpt><trkpt lat="44.3318368" lon="8.4411526"><ele>308.0</ele><time>2026-05-01T08:29:40.937Z</time></trkpt><trkpt lat="44.3317857" lon="8.4412875"><ele>308.0</ele><time>2026-05-01T08:29:42.937Z</time></trkpt><trkpt lat="44.3317268" lon="8.4414188"><ele>308.0</ele><time>2026-05-01T08:29:44.937Z</time></trkpt><trkpt lat="44.3316989" lon="8.4415429"><ele>308.0</ele><time>2026-05-01T08:29:46.939Z</time></trkpt><trkpt lat="44.3317169" lon="8.4417031"><ele>308.0</ele><time>2026-05-01T08:29:48.939Z</time></trkpt><trkpt lat="44.3317316" lon="8.4418334"><ele>308.0</ele><time>2026-05-01T08:29:50.938Z</time></trkpt><trkpt lat="44.3317543" lon="8.4419428"><ele>308.0</ele><time>2026-05-01T08:29:54.938Z</time></trkpt><trkpt lat="44.3316869" lon="8.4419683"><ele>308.0</ele><time>2026-05-01T08:29:58.937Z</time></trkpt><trkpt lat="44.3316794" lon="8.4418697"><ele>308.0</ele><time>2026-05-01T08:30:01.938Z</time></trkpt><trkpt lat="44.3316684" lon="8.4417085"><ele>308.0</ele><time>2026-05-01T08:30:03.939Z</time></trkpt><trkpt lat="44.3316527" lon="8.4415611"><ele>308.0</ele><time>2026-05-01T08:30:05.937Z</time></trkpt><trkpt lat="44.3316457" lon="8.4414278"><ele>308.0</ele><time>2026-05-01T08:30:07.938Z</time></trkpt><trkpt lat="44.3316547" lon="8.4412866"><ele>308.0</ele><time>2026-05-01T08:30:09.939Z</time></trkpt><trkpt lat="44.331689" lon="8.4411697"><ele>308.0</ele><time>2026-05-01T08:30:11.938Z</time></trkpt><trkpt lat="44.3317208" lon="8.4410488"><ele>308.0</ele><time>2026-05-01T08:30:13.937Z</time></trkpt><trkpt lat="44.3317126" lon="8.4409191"><ele>308.0</ele><time>2026-05-01T08:30:15.937Z</time></trkpt><trkpt lat="44.3316915" lon="8.4407542"><ele>308.0</ele><time>2026-05-01T08:30:17.938Z</time></trkpt><trkpt lat="44.3316871" lon="8.4406597"><ele>308.0</ele><time>2026-05-01T08:30:18.938Z</time></trkpt><trkpt lat="44.3317007" lon="8.4405606"><ele>308.0</ele><time>2026-05-01T08:30:19.938Z</time></trkpt><trkpt lat="44.3317227" lon="8.4404688"><ele>308.0</ele><time>2026-05-01T08:30:20.938Z</time></trkpt><trkpt lat="44.3317797" lon="8.4403369"><ele>309.6</ele><time>2026-05-01T08:30:22.939Z</time></trkpt><trkpt lat="44.3318496" lon="8.4401961"><ele>311.20000000000005</ele><time>2026-05-01T08:30:24.938Z</time></trkpt><trkpt lat="44.3318969" lon="8.4400824"><ele>312.8</ele><time>2026-05-01T08:30:26.938Z</time></trkpt><trkpt lat="44.3318818" lon="8.4399682"><ele>314.40000000000003</ele><time>2026-05-01T08:30:28.939Z</time></trkpt><trkpt lat="44.3318235" lon="8.4398899"><ele>316.0</ele><time>2026-05-01T08:30:30.938Z</time></trkpt><trkpt lat="44.3317952" lon="8.4397807"><ele>316.0</ele><time>2026-05-01T08:30:32.938Z</time></trkpt><trkpt lat="44.3317763" lon="8.4396953"><ele>316.0</ele><time>2026-05-01T08:30:33.937Z</time></trkpt><trkpt lat="44.3317496" lon="8.4396124"><ele>316.0</ele><time>2026-05-01T08:30:34.937Z</time></trkpt><trkpt lat="44.3316734" lon="8.4395108"><ele>316.0</ele><time>2026-05-01T08:30:36.937Z</time></trkpt><trkpt lat="44.3315936" lon="8.4394328"><ele>316.0</ele><time>2026-05-01T08:30:38.937Z</time></trkpt><trkpt lat="44.3315813" lon="8.4393329"><ele>316.0</ele><time>2026-05-01T08:30:41.938Z</time></trkpt><trkpt lat="44.3316512" lon="8.4392933"><ele>316.66666666666663</ele><time>2026-05-01T08:30:44.939Z</time></trkpt><trkpt lat="44.3317383" lon="8.4392864"><ele>317.3333333333333</ele><time>2026-05-01T08:30:46.938Z</time></trkpt><trkpt lat="44.331809" lon="8.4392685"><ele>318.0</ele><time>2026-05-01T08:30:47.937Z</time></trkpt><trkpt lat="44.3318731" lon="8.4392499"><ele>318.6666666666667</ele><time>2026-05-01T08:30:48.939Z</time></trkpt><trkpt lat="44.3319929" lon="8.4391738"><ele>319.33333333333337</ele><time>2026-05-01T08:30:50.939Z</time></trkpt><trkpt lat="44.3320536" lon="8.4391089"><ele>320.0</ele><time>2026-05-01T08:30:51.937Z</time></trkpt><trkpt lat="44.332108" lon="8.4390471"><ele>320.0</ele><time>2026-05-01T08:30:52.937Z</time></trkpt><trkpt lat="44.332173" lon="8.4389566"><ele>320.0</ele><time>2026-05-01T08:30:54.937Z</time></trkpt><trkpt lat="44.3321967" lon="8.4388139"><ele>320.0</ele><time>2026-05-01T08:30:56.938Z</time></trkpt><trkpt lat="44.3321464" lon="8.4386738"><ele>320.0</ele><time>2026-05-01T08:30:58.938Z</time></trkpt><trkpt lat="44.3320506" lon="8.4386118"><ele>320.0</ele><time>2026-05-01T08:31:00.939Z</time></trkpt><trkpt lat="44.3319556" lon="8.4385944"><ele>322.6</ele><time>2026-05-01T08:31:02.939Z</time></trkpt><trkpt lat="44.3318872" lon="8.4385328"><ele>325.2</ele><time>2026-05-01T08:31:04.938Z</time></trkpt><trkpt lat="44.3318594" lon="8.4383818"><ele>327.79999999999995</ele><time>2026-05-01T08:31:06.937Z</time></trkpt><trkpt lat="44.3318371" lon="8.4382813"><ele>330.4</ele><time>2026-05-01T08:31:07.938Z</time></trkpt><trkpt lat="44.3318087" lon="8.4381815"><ele>333.0</ele><time>2026-05-01T08:31:08.938Z</time></trkpt><trkpt lat="44.3317873" lon="8.4380309"><ele>335.2</ele><time>2026-05-01T08:31:10.938Z</time></trkpt><trkpt lat="44.3317854" lon="8.4378926"><ele>337.4</ele><time>2026-05-01T08:31:12.938Z</time></trkpt><trkpt lat="44.3318189" lon="8.437747"><ele>339.59999999999997</ele><time>2026-05-01T08:31:14.938Z</time></trkpt><trkpt lat="44.3318337" lon="8.4376308"><ele>341.79999999999995</ele><time>2026-05-01T08:31:16.939Z</time></trkpt><trkpt lat="44.3318414" lon="8.4374832"><ele>344.0</ele><time>2026-05-01T08:31:18.937Z</time></trkpt><trkpt lat="44.3318367" lon="8.4373308"><ele>344.0</ele><time>2026-05-01T08:31:20.938Z</time></trkpt><trkpt lat="44.3318381" lon="8.4372165"><ele>344.0</ele><time>2026-05-01T08:31:22.938Z</time></trkpt><trkpt lat="44.3319044" lon="8.4371928"><ele>344.0</ele><time>2026-05-01T08:31:25.938Z</time></trkpt><trkpt lat="44.3319284" lon="8.4373043"><ele>344.0</ele><time>2026-05-01T08:31:27.938Z</time></trkpt><trkpt lat="44.3319441" lon="8.4373963"><ele>344.0</ele><time>2026-05-01T08:31:28.938Z</time></trkpt><trkpt lat="44.332039" lon="8.4375657"><ele>344.00000000000006</ele><time>2026-05-01T08:31:30.937Z</time></trkpt><trkpt lat="44.3320846" lon="8.4376553"><ele>344.0</ele><time>2026-05-01T08:31:31.937Z</time></trkpt><trkpt lat="44.3321238" lon="8.4377474"><ele>344.0</ele><time>2026-05-01T08:31:32.939Z</time></trkpt><trkpt lat="44.3321513" lon="8.4378328"><ele>344.0</ele><time>2026-05-01T08:31:33.937Z</time></trkpt><trkpt lat="44.3321985" lon="8.4379423"><ele>344.0</ele><time>2026-05-01T08:31:35.938Z</time></trkpt><trkpt lat="44.3322632" lon="8.4379409"><ele>344.00000000000006</ele><time>2026-05-01T08:31:37.937Z</time></trkpt><trkpt lat="44.3322801" lon="8.4378484"><ele>344.0</ele><time>2026-05-01T08:31:39.938Z</time></trkpt><trkpt lat="44.3322508" lon="8.4377165"><ele>348.33333333333337</ele><time>2026-05-01T08:31:41.937Z</time></trkpt><trkpt lat="44.3322513" lon="8.4375959"><ele>352.6666666666667</ele><time>2026-05-01T08:31:43.938Z</time></trkpt><trkpt lat="44.332252" lon="8.4374563"><ele>357.0</ele><time>2026-05-01T08:31:45.938Z</time></trkpt><trkpt lat="44.3322429" lon="8.4373531"><ele>361.3333333333333</ele><time>2026-05-01T08:31:46.938Z</time></trkpt><trkpt lat="44.3322361" lon="8.437247"><ele>365.66666666666663</ele><time>2026-05-01T08:31:47.939Z</time></trkpt><trkpt lat="44.3322295" lon="8.4371312"><ele>370.0</ele><time>2026-05-01T08:31:48.939Z</time></trkpt><trkpt lat="44.3322342" lon="8.4370218"><ele>372.3333333333333</ele><time>2026-05-01T08:31:49.938Z</time></trkpt><trkpt lat="44.332236" lon="8.4369276"><ele>374.66666666666663</ele><time>2026-05-01T08:31:50.938Z</time></trkpt><trkpt lat="44.3322118" lon="8.4367642"><ele>377.0</ele><time>2026-05-01T08:31:52.937Z</time></trkpt><trkpt lat="44.3321797" lon="8.4366756"><ele>379.3333333333333</ele><time>2026-05-01T08:31:53.938Z</time></trkpt><trkpt lat="44.3321191" lon="8.4365778"><ele>381.6666666666667</ele><time>2026-05-01T08:31:54.938Z</time></trkpt><trkpt lat="44.3320639" lon="8.4364955"><ele>384.0</ele><time>2026-05-01T08:31:55.937Z</time></trkpt><trkpt lat="44.332022" lon="8.4364141"><ele>381.0</ele><time>2026-05-01T08:31:56.938Z</time></trkpt><trkpt lat="44.3319846" lon="8.4363233"><ele>378.0</ele><time>2026-05-01T08:31:57.939Z</time></trkpt><trkpt lat="44.3319564" lon="8.4362259"><ele>375.0</ele><time>2026-05-01T08:31:58.937Z</time></trkpt><trkpt lat="44.3319346" lon="8.4360521"><ele>372.0</ele><time>2026-05-01T08:32:00.937Z</time></trkpt><trkpt lat="44.3319337" lon="8.4359392"><ele>369.0</ele><time>2026-05-01T08:32:01.938Z</time></trkpt><trkpt lat="44.3319461" lon="8.4358433"><ele>366.0</ele><time>2026-05-01T08:32:02.938Z</time></trkpt><trkpt lat="44.3319674" lon="8.4357574"><ele>366.0</ele><time>2026-05-01T08:32:03.938Z</time></trkpt><trkpt lat="44.3319908" lon="8.4356641"><ele>366.0</ele><time>2026-05-01T08:32:04.937Z</time></trkpt><trkpt lat="44.3320062" lon="8.4354967"><ele>366.0</ele><time>2026-05-01T08:32:06.937Z</time></trkpt><trkpt lat="44.3320161" lon="8.4353484"><ele>366.0</ele><time>2026-05-01T08:32:08.937Z</time></trkpt><trkpt lat="44.3320482" lon="8.4352369"><ele>366.0</ele><time>2026-05-01T08:32:10.937Z</time></trkpt><trkpt lat="44.332127" lon="8.4351774"><ele>366.0</ele><time>2026-05-01T08:32:12.939Z</time></trkpt><trkpt lat="44.3321945" lon="8.4351669"><ele>366.0</ele><time>2026-05-01T08:32:13.937Z</time></trkpt><trkpt lat="44.3322674" lon="8.4351804"><ele>366.0</ele><time>2026-05-01T08:32:14.938Z</time></trkpt><trkpt lat="44.3323459" lon="8.4352001"><ele>366.0</ele><time>2026-05-01T08:32:15.938Z</time></trkpt><trkpt lat="44.3324278" lon="8.4352253"><ele>366.0</ele><time>2026-05-01T08:32:16.939Z</time></trkpt><trkpt lat="44.3325091" lon="8.4352431"><ele>366.0</ele><time>2026-05-01T08:32:17.938Z</time></trkpt><trkpt lat="44.332581" lon="8.4352471"><ele>366.6666666666667</ele><time>2026-05-01T08:32:18.938Z</time></trkpt><trkpt lat="44.3326538" lon="8.4352431"><ele>367.3333333333333</ele><time>2026-05-01T08:32:19.937Z</time></trkpt><trkpt lat="44.3327325" lon="8.4352257"><ele>368.0</ele><time>2026-05-01T08:32:20.937Z</time></trkpt><trkpt lat="44.3328146" lon="8.43518"><ele>368.66666666666663</ele><time>2026-05-01T08:32:21.937Z</time></trkpt><trkpt lat="44.332888" lon="8.4351366"><ele>369.3333333333333</ele><time>2026-05-01T08:32:22.937Z</time></trkpt><trkpt lat="44.3329526" lon="8.4350818"><ele>370.0</ele><time>2026-05-01T08:32:23.937Z</time></trkpt><trkpt lat="44.333015" lon="8.4350149"><ele>370.0</ele><time>2026-05-01T08:32:24.937Z</time></trkpt><trkpt lat="44.3330764" lon="8.4349355"><ele>370.0</ele><time>2026-05-01T08:32:25.937Z</time></trkpt><trkpt lat="44.3331337" lon="8.434833"><ele>370.0</ele><time>2026-05-01T08:32:26.938Z</time></trkpt><trkpt lat="44.3331834" lon="8.4347277"><ele>370.0</ele><time>2026-05-01T08:32:27.938Z</time></trkpt><trkpt lat="44.3332111" lon="8.4346221"><ele>370.0</ele><time>2026-05-01T08:32:28.937Z</time></trkpt><trkpt lat="44.3332423" lon="8.4345075"><ele>370.0</ele><time>2026-05-01T08:32:29.938Z</time></trkpt><trkpt lat="44.3332669" lon="8.4343909"><ele>370.0</ele><time>2026-05-01T08:32:30.939Z</time></trkpt><trkpt lat="44.333283" lon="8.4342671"><ele>370.0</ele><time>2026-05-01T08:32:31.938Z</time></trkpt><trkpt lat="44.3332804" lon="8.434123"><ele>370.0</ele><time>2026-05-01T08:32:32.937Z</time></trkpt><trkpt lat="44.3332706" lon="8.434"><ele>370.0</ele><time>2026-05-01T08:32:33.938Z</time></trkpt><trkpt lat="44.3332647" lon="8.433887"><ele>370.0</ele><time>2026-05-01T08:32:34.938Z</time></trkpt><trkpt lat="44.333265" lon="8.4337921"><ele>370.0</ele><time>2026-05-01T08:32:35.938Z</time></trkpt><trkpt lat="44.3332753" lon="8.433696"><ele>369.3333333333333</ele><time>2026-05-01T08:32:36.939Z</time></trkpt><trkpt lat="44.3332934" lon="8.433588"><ele>368.66666666666663</ele><time>2026-05-01T08:32:37.937Z</time></trkpt><trkpt lat="44.3333189" lon="8.4334713"><ele>368.0</ele><time>2026-05-01T08:32:38.938Z</time></trkpt><trkpt lat="44.3333377" lon="8.4333519"><ele>367.3333333333333</ele><time>2026-05-01T08:32:39.938Z</time></trkpt><trkpt lat="44.3333537" lon="8.4332418"><ele>366.6666666666667</ele><time>2026-05-01T08:32:40.938Z</time></trkpt><trkpt lat="44.3333653" lon="8.4330899"><ele>366.0</ele><time>2026-05-01T08:32:42.938Z</time></trkpt><trkpt lat="44.3333357" lon="8.4329532"><ele>366.0</ele><time>2026-05-01T08:32:44.938Z</time></trkpt><trkpt lat="44.333312" lon="8.4328632"><ele>366.0</ele><time>2026-05-01T08:32:45.938Z</time></trkpt><trkpt lat="44.3332766" lon="8.4327466"><ele>366.0</ele><time>2026-05-01T08:32:46.938Z</time></trkpt><trkpt lat="44.3332394" lon="8.4326382"><ele>366.0</ele><time>2026-05-01T08:32:47.938Z</time></trkpt><trkpt lat="44.3331995" lon="8.4325481"><ele>366.0</ele><time>2026-05-01T08:32:48.938Z</time></trkpt><trkpt lat="44.3331457" lon="8.4325008"><ele>366.0</ele><time>2026-05-01T08:32:49.937Z</time></trkpt><trkpt lat="44.3330874" lon="8.4324494"><ele>367.20000000000005</ele><time>2026-05-01T08:32:50.938Z</time></trkpt><trkpt lat="44.3330161" lon="8.4323721"><ele>368.40000000000003</ele><time>2026-05-01T08:32:52.938Z</time></trkpt><trkpt lat="44.3329962" lon="8.4322622"><ele>369.6</ele><time>2026-05-01T08:32:54.937Z</time></trkpt><trkpt lat="44.3330188" lon="8.4321253"><ele>370.8</ele><time>2026-05-01T08:32:56.937Z</time></trkpt><trkpt lat="44.3330761" lon="8.4319785"><ele>372.0</ele><time>2026-05-01T08:32:58.938Z</time></trkpt><trkpt lat="44.3331068" lon="8.4318978"><ele>372.0</ele><time>2026-05-01T08:32:59.938Z</time></trkpt><trkpt lat="44.3331545" lon="8.4318188"><ele>372.0</ele><time>2026-05-01T08:33:00.939Z</time></trkpt><trkpt lat="44.3331955" lon="8.4317352"><ele>372.0</ele><time>2026-05-01T08:33:01.939Z</time></trkpt><trkpt lat="44.3332431" lon="8.4316497"><ele>372.0</ele><time>2026-05-01T08:33:02.937Z</time></trkpt><trkpt lat="44.3332919" lon="8.4315617"><ele>372.0</ele><time>2026-05-01T08:33:03.939Z</time></trkpt><trkpt lat="44.3333435" lon="8.4314689"><ele>372.0</ele><time>2026-05-01T08:33:04.937Z</time></trkpt><trkpt lat="44.3333832" lon="8.4313865"><ele>372.5</ele><time>2026-05-01T08:33:05.937Z</time></trkpt><trkpt lat="44.3334132" lon="8.4313008"><ele>373.0</ele><time>2026-05-01T08:33:06.938Z</time></trkpt><trkpt lat="44.3334025" lon="8.4311612"><ele>373.5</ele><time>2026-05-01T08:33:07.939Z</time></trkpt><trkpt lat="44.333401" lon="8.431049"><ele>374.0</ele><time>2026-05-01T08:33:08.937Z</time></trkpt><trkpt lat="44.333402" lon="8.4309409"><ele>374.5</ele><time>2026-05-01T08:33:09.938Z</time></trkpt><trkpt lat="44.3334105" lon="8.4308294"><ele>375.0</ele><time>2026-05-01T08:33:10.938Z</time></trkpt><trkpt lat="44.3334178" lon="8.4307289"><ele>375.0</ele><time>2026-05-01T08:33:11.938Z</time></trkpt><trkpt lat="44.333432" lon="8.4306295"><ele>375.0</ele><time>2026-05-01T08:33:12.939Z</time></trkpt><trkpt lat="44.3334585" lon="8.4305474"><ele>375.0</ele><time>2026-05-01T08:33:13.939Z</time></trkpt><trkpt lat="44.3334947" lon="8.4304406"><ele>375.0</ele><time>2026-05-01T08:33:14.937Z</time></trkpt><trkpt lat="44.3335351" lon="8.4303248"><ele>375.0</ele><time>2026-05-01T08:33:15.938Z</time></trkpt><trkpt lat="44.333571" lon="8.4302244"><ele>375.0</ele><time>2026-05-01T08:33:16.939Z</time></trkpt><trkpt lat="44.3336055" lon="8.4301206"><ele>375.0</ele><time>2026-05-01T08:33:17.937Z</time></trkpt><trkpt lat="44.333639" lon="8.4300272"><ele>375.0</ele><time>2026-05-01T08:33:18.938Z</time></trkpt><trkpt lat="44.3336273" lon="8.4298603"><ele>375.0</ele><time>2026-05-01T08:33:20.937Z</time></trkpt><trkpt lat="44.3335509" lon="8.4296822"><ele>375.0</ele><time>2026-05-01T08:33:22.938Z</time></trkpt><trkpt lat="44.3334996" lon="8.4295796"><ele>375.0</ele><time>2026-05-01T08:33:23.939Z</time></trkpt><trkpt lat="44.3334563" lon="8.4294941"><ele>375.7142857142857</ele><time>2026-05-01T08:33:24.938Z</time></trkpt><trkpt lat="44.3334224" lon="8.4294048"><ele>376.4285714285714</ele><time>2026-05-01T08:33:25.937Z</time></trkpt><trkpt lat="44.3333797" lon="8.4293255"><ele>377.1428571428571</ele><time>2026-05-01T08:33:26.938Z</time></trkpt><trkpt lat="44.3333335" lon="8.4292653"><ele>377.8571428571429</ele><time>2026-05-01T08:33:27.937Z</time></trkpt><trkpt lat="44.3332754" lon="8.429213"><ele>378.57142857142856</ele><time>2026-05-01T08:33:28.937Z</time></trkpt><trkpt lat="44.3331909" lon="8.4291352"><ele>379.2857142857143</ele><time>2026-05-01T08:33:30.937Z</time></trkpt><trkpt lat="44.3331624" lon="8.4290543"><ele>380.0</ele><time>2026-05-01T08:33:32.938Z</time></trkpt><trkpt lat="44.3331454" lon="8.4289113"><ele>381.2</ele><time>2026-05-01T08:33:34.937Z</time></trkpt><trkpt lat="44.3331236" lon="8.4287438"><ele>382.4</ele><time>2026-05-01T08:33:36.939Z</time></trkpt><trkpt lat="44.3330669" lon="8.4285767"><ele>383.6</ele><time>2026-05-01T08:33:38.938Z</time></trkpt><trkpt lat="44.3330289" lon="8.428491"><ele>384.8</ele><time>2026-05-01T08:33:39.938Z</time></trkpt><trkpt lat="44.3329848" lon="8.4284013"><ele>386.0</ele><time>2026-05-01T08:33:40.937Z</time></trkpt><trkpt lat="44.332934" lon="8.4283206"><ele>385.99999999999994</ele><time>2026-05-01T08:33:41.938Z</time></trkpt><trkpt lat="44.3328779" lon="8.4282495"><ele>386.0</ele><time>2026-05-01T08:33:42.939Z</time></trkpt><trkpt lat="44.3328314" lon="8.428189"><ele>386.0</ele><time>2026-05-01T08:33:43.938Z</time></trkpt><trkpt lat="44.3327458" lon="8.4281317"><ele>386.0</ele><time>2026-05-01T08:33:45.938Z</time></trkpt><trkpt lat="44.3326103" lon="8.4281018"><ele>385.99999999999994</ele><time>2026-05-01T08:33:47.939Z</time></trkpt><trkpt lat="44.3325448" lon="8.4280825"><ele>386.0</ele><time>2026-05-01T08:33:48.938Z</time></trkpt><trkpt lat="44.3324263" lon="8.4280316"><ele>386.0</ele><time>2026-05-01T08:33:50.937Z</time></trkpt><trkpt lat="44.3323052" lon="8.4279798"><ele>386.0</ele><time>2026-05-01T08:33:52.938Z</time></trkpt><trkpt lat="44.3322391" lon="8.4279612"><ele>386.0</ele><time>2026-05-01T08:33:53.938Z</time></trkpt><trkpt lat="44.3321544" lon="8.4279534"><ele>386.0</ele><time>2026-05-01T08:33:54.938Z</time></trkpt><trkpt lat="44.3320707" lon="8.427965"><ele>386.0</ele><time>2026-05-01T08:33:55.937Z</time></trkpt><trkpt lat="44.3319785" lon="8.4279717"><ele>387.66666666666663</ele><time>2026-05-01T08:33:56.937Z</time></trkpt><trkpt lat="44.3318952" lon="8.4279631"><ele>389.3333333333333</ele><time>2026-05-01T08:33:57.937Z</time></trkpt><trkpt lat="44.3318189" lon="8.4279578"><ele>391.0</ele><time>2026-05-01T08:33:58.938Z</time></trkpt><trkpt lat="44.331747" lon="8.4279519"><ele>392.66666666666663</ele><time>2026-05-01T08:33:59.939Z</time></trkpt><trkpt lat="44.3316303" lon="8.4279004"><ele>394.3333333333333</ele><time>2026-05-01T08:34:01.939Z</time></trkpt><trkpt lat="44.33156" lon="8.4278519"><ele>396.0</ele><time>2026-05-01T08:34:03.938Z</time></trkpt><trkpt lat="44.3315178" lon="8.4277596"><ele>396.0</ele><time>2026-05-01T08:34:05.939Z</time></trkpt><trkpt lat="44.3315233" lon="8.4276414"><ele>396.0</ele><time>2026-05-01T08:34:07.937Z</time></trkpt><trkpt lat="44.3315597" lon="8.4275389"><ele>396.0</ele><time>2026-05-01T08:34:09.938Z</time></trkpt><trkpt lat="44.3316161" lon="8.4274406"><ele>396.0</ele><time>2026-05-01T08:34:11.938Z</time></trkpt><trkpt lat="44.3316978" lon="8.4273217"><ele>396.0</ele><time>2026-05-01T08:34:13.938Z</time></trkpt><trkpt lat="44.3317378" lon="8.4272473"><ele>396.0</ele><time>2026-05-01T08:34:14.937Z</time></trkpt><trkpt lat="44.331778" lon="8.4271558"><ele>395.14285714285717</ele><time>2026-05-01T08:34:15.938Z</time></trkpt><trkpt lat="44.3318096" lon="8.4270621"><ele>394.2857142857143</ele><time>2026-05-01T08:34:16.939Z</time></trkpt><trkpt lat="44.3318321" lon="8.4269639"><ele>393.42857142857144</ele><time>2026-05-01T08:34:17.938Z</time></trkpt><trkpt lat="44.3318443" lon="8.4268543"><ele>392.57142857142856</ele><time>2026-05-01T08:34:18.939Z</time></trkpt><trkpt lat="44.331868" lon="8.4267539"><ele>391.71428571428567</ele><time>2026-05-01T08:34:19.937Z</time></trkpt><trkpt lat="44.3319014" lon="8.4266703"><ele>390.85714285714283</ele><time>2026-05-01T08:34:20.937Z</time></trkpt><trkpt lat="44.3319374" lon="8.4265865"><ele>390.0</ele><time>2026-05-01T08:34:21.937Z</time></trkpt><trkpt lat="44.3319878" lon="8.4264847"><ele>390.0</ele><time>2026-05-01T08:34:22.937Z</time></trkpt><trkpt lat="44.3320351" lon="8.4263824"><ele>390.0</ele><time>2026-05-01T08:34:23.937Z</time></trkpt><trkpt lat="44.3320742" lon="8.4263084"><ele>390.0</ele><time>2026-05-01T08:34:24.938Z</time></trkpt><trkpt lat="44.3321229" lon="8.4261519"><ele>390.0</ele><time>2026-05-01T08:34:26.938Z</time></trkpt><trkpt lat="44.3321536" lon="8.4259922"><ele>390.0</ele><time>2026-05-01T08:34:28.937Z</time></trkpt><trkpt lat="44.3322027" lon="8.425862"><ele>388.6666666666667</ele><time>2026-05-01T08:34:30.937Z</time></trkpt><trkpt lat="44.3322544" lon="8.4258008"><ele>387.3333333333333</ele><time>2026-05-01T08:34:31.938Z</time></trkpt><trkpt lat="44.3323076" lon="8.4257407"><ele>386.0</ele><time>2026-05-01T08:34:32.937Z</time></trkpt><trkpt lat="44.3323831" lon="8.4256717"><ele>384.66666666666663</ele><time>2026-05-01T08:34:33.937Z</time></trkpt><trkpt lat="44.3324657" lon="8.4256061"><ele>383.3333333333333</ele><time>2026-05-01T08:34:34.937Z</time></trkpt><trkpt lat="44.3325477" lon="8.4255304"><ele>382.0</ele><time>2026-05-01T08:34:35.937Z</time></trkpt><trkpt lat="44.3326129" lon="8.4254701"><ele>382.0</ele><time>2026-05-01T08:34:36.939Z</time></trkpt><trkpt lat="44.3326724" lon="8.4254154"><ele>382.0</ele><time>2026-05-01T08:34:37.937Z</time></trkpt><trkpt lat="44.3327704" lon="8.4253014"><ele>382.0</ele><time>2026-05-01T08:34:39.938Z</time></trkpt><trkpt lat="44.3328066" lon="8.4252279"><ele>382.0</ele><time>2026-05-01T08:34:40.937Z</time></trkpt><trkpt lat="44.3328414" lon="8.4251432"><ele>382.0</ele><time>2026-05-01T08:34:41.937Z</time></trkpt><trkpt lat="44.3328666" lon="8.4250514"><ele>382.0</ele><time>2026-05-01T08:34:42.937Z</time></trkpt><trkpt lat="44.3328876" lon="8.4249538"><ele>382.0</ele><time>2026-05-01T08:34:43.937Z</time></trkpt><trkpt lat="44.332911" lon="8.4248652"><ele>382.0</ele><time>2026-05-01T08:34:44.938Z</time></trkpt><trkpt lat="44.3329032" lon="8.4247002"><ele>382.0</ele><time>2026-05-01T08:34:46.938Z</time></trkpt><trkpt lat="44.3328882" lon="8.424611"><ele>382.0</ele><time>2026-05-01T08:34:47.937Z</time></trkpt><trkpt lat="44.3328868" lon="8.424453"><ele>382.0</ele><time>2026-05-01T08:34:49.937Z</time></trkpt><trkpt lat="44.3328718" lon="8.4242952"><ele>380.0</ele><time>2026-05-01T08:34:51.937Z</time></trkpt><trkpt lat="44.3328656" lon="8.4241178"><ele>378.0</ele><time>2026-05-01T08:34:53.94Z</time></trkpt><trkpt lat="44.3328578" lon="8.4239995"><ele>376.0</ele><time>2026-05-01T08:34:54.938Z</time></trkpt><trkpt lat="44.3328597" lon="8.4238875"><ele>374.0</ele><time>2026-05-01T08:34:55.938Z</time></trkpt><trkpt lat="44.3328557" lon="8.4237677"><ele>372.0</ele><time>2026-05-01T08:34:56.938Z</time></trkpt><trkpt lat="44.3328603" lon="8.4236565"><ele>372.0</ele><time>2026-05-01T08:34:57.937Z</time></trkpt><trkpt lat="44.3328548" lon="8.4235523"><ele>372.0</ele><time>2026-05-01T08:34:58.939Z</time></trkpt><trkpt lat="44.3328384" lon="8.4234598"><ele>372.0</ele><time>2026-05-01T08:34:59.937Z</time></trkpt><trkpt lat="44.3328108" lon="8.4233736"><ele>372.0</ele><time>2026-05-01T08:35:00.937Z</time></trkpt><trkpt lat="44.3327631" lon="8.4233145"><ele>372.0</ele><time>2026-05-01T08:35:01.938Z</time></trkpt><trkpt lat="44.3326669" lon="8.4232241"><ele>372.0</ele><time>2026-05-01T08:35:03.937Z</time></trkpt><trkpt lat="44.332601" lon="8.4231835"><ele>372.0</ele><time>2026-05-01T08:35:04.937Z</time></trkpt><trkpt lat="44.332544" lon="8.4231412"><ele>372.0</ele><time>2026-05-01T08:35:05.937Z</time></trkpt><trkpt lat="44.3324333" lon="8.4230685"><ele>372.0</ele><time>2026-05-01T08:35:07.938Z</time></trkpt><trkpt lat="44.3323721" lon="8.4230304"><ele>372.0</ele><time>2026-05-01T08:35:08.937Z</time></trkpt><trkpt lat="44.3323161" lon="8.4229889"><ele>372.0</ele><time>2026-05-01T08:35:09.937Z</time></trkpt><trkpt lat="44.3322571" lon="8.422927"><ele>372.0</ele><time>2026-05-01T08:35:10.937Z</time></trkpt><trkpt lat="44.3321954" lon="8.4228608"><ele>370.1666666666667</ele><time>2026-05-01T08:35:11.938Z</time></trkpt><trkpt lat="44.3321277" lon="8.4227904"><ele>368.3333333333333</ele><time>2026-05-01T08:35:12.938Z</time></trkpt><trkpt lat="44.3320582" lon="8.4227168"><ele>366.5</ele><time>2026-05-01T08:35:13.938Z</time></trkpt><trkpt lat="44.3319963" lon="8.4226559"><ele>364.66666666666663</ele><time>2026-05-01T08:35:14.938Z</time></trkpt><trkpt lat="44.3319448" lon="8.4226046"><ele>362.8333333333333</ele><time>2026-05-01T08:35:15.937Z</time></trkpt><trkpt lat="44.3318513" lon="8.4225216"><ele>361.0</ele><time>2026-05-01T08:35:17.938Z</time></trkpt><trkpt lat="44.3317582" lon="8.4225147"><ele>361.0</ele><time>2026-05-01T08:35:19.939Z</time></trkpt><trkpt lat="44.3316546" lon="8.422546"><ele>361.0</ele><time>2026-05-01T08:35:21.937Z</time></trkpt><trkpt lat="44.3315667" lon="8.422564"><ele>361.0</ele><time>2026-05-01T08:35:23.937Z</time></trkpt><trkpt lat="44.3315318" lon="8.4224764"><ele>361.0</ele><time>2026-05-01T08:35:25.938Z</time></trkpt><trkpt lat="44.3315805" lon="8.4223839"><ele>361.0</ele><time>2026-05-01T08:35:27.938Z</time></trkpt><trkpt lat="44.3316547" lon="8.4223338"><ele>361.0</ele><time>2026-05-01T08:35:29.937Z</time></trkpt><trkpt lat="44.3317508" lon="8.4222588"><ele>361.0</ele><time>2026-05-01T08:35:31.937Z</time></trkpt><trkpt lat="44.331793" lon="8.4221739"><ele>361.0</ele><time>2026-05-01T08:35:32.937Z</time></trkpt><trkpt lat="44.331842" lon="8.4220953"><ele>361.0</ele><time>2026-05-01T08:35:33.938Z</time></trkpt><trkpt lat="44.3318823" lon="8.4220272"><ele>361.0</ele><time>2026-05-01T08:35:34.937Z</time></trkpt><trkpt lat="44.3319175" lon="8.421948"><ele>361.0</ele><time>2026-05-01T08:35:35.938Z</time></trkpt><trkpt lat="44.3319485" lon="8.4218629"><ele>361.0</ele><time>2026-05-01T08:35:36.937Z</time></trkpt><trkpt lat="44.3320003" lon="8.4217032"><ele>358.16666666666663</ele><time>2026-05-01T08:35:38.937Z</time></trkpt><trkpt lat="44.3320197" lon="8.4216099"><ele>355.3333333333333</ele><time>2026-05-01T08:35:39.937Z</time></trkpt><trkpt lat="44.3320377" lon="8.4215222"><ele>352.5</ele><time>2026-05-01T08:35:40.937Z</time></trkpt><trkpt lat="44.3320601" lon="8.4214309"><ele>349.6666666666667</ele><time>2026-05-01T08:35:41.938Z</time></trkpt><trkpt lat="44.332079" lon="8.4213349"><ele>346.83333333333337</ele><time>2026-05-01T08:35:42.937Z</time></trkpt><trkpt lat="44.332098" lon="8.4212493"><ele>344.0</ele><time>2026-05-01T08:35:43.938Z</time></trkpt><trkpt lat="44.3321272" lon="8.4210911"><ele>343.2</ele><time>2026-05-01T08:35:45.937Z</time></trkpt><trkpt lat="44.3321247" lon="8.4208933"><ele>342.4</ele><time>2026-05-01T08:35:47.938Z</time></trkpt><trkpt lat="44.3321217" lon="8.4207781"><ele>341.6</ele><time>2026-05-01T08:35:48.938Z</time></trkpt><trkpt lat="44.3321168" lon="8.4206289"><ele>340.8</ele><time>2026-05-01T08:35:49.937Z</time></trkpt><trkpt lat="44.3321219" lon="8.4205219"><ele>340.0</ele><time>2026-05-01T08:35:50.938Z</time></trkpt><trkpt lat="44.3321256" lon="8.4204037"><ele>340.0</ele><time>2026-05-01T08:35:51.939Z</time></trkpt><trkpt lat="44.3321329" lon="8.420304"><ele>340.0</ele><time>2026-05-01T08:35:52.938Z</time></trkpt><trkpt lat="44.3321606" lon="8.4201493"><ele>340.0</ele><time>2026-05-01T08:35:54.938Z</time></trkpt><trkpt lat="44.3322854" lon="8.4199257"><ele>340.0</ele><time>2026-05-01T08:35:57.938Z</time></trkpt><trkpt lat="44.332342" lon="8.419854"><ele>340.4</ele><time>2026-05-01T08:35:58.937Z</time></trkpt><trkpt lat="44.3323922" lon="8.4197793"><ele>340.8</ele><time>2026-05-01T08:35:59.938Z</time></trkpt><trkpt lat="44.3324722" lon="8.4196536"><ele>341.20000000000005</ele><time>2026-05-01T08:36:01.937Z</time></trkpt><trkpt lat="44.3325565" lon="8.4195558"><ele>341.6</ele><time>2026-05-01T08:36:03.938Z</time></trkpt><trkpt lat="44.3326398" lon="8.4194782"><ele>342.0</ele><time>2026-05-01T08:36:05.938Z</time></trkpt><trkpt lat="44.3327216" lon="8.4193774"><ele>342.1666666666667</ele><time>2026-05-01T08:36:07.938Z</time></trkpt><trkpt lat="44.3327589" lon="8.4193002"><ele>342.3333333333333</ele><time>2026-05-01T08:36:08.938Z</time></trkpt><trkpt lat="44.3328138" lon="8.4191653"><ele>342.5</ele><time>2026-05-01T08:36:10.938Z</time></trkpt><trkpt lat="44.3328437" lon="8.4190088"><ele>342.66666666666663</ele><time>2026-05-01T08:36:12.937Z</time></trkpt><trkpt lat="44.332843" lon="8.4189138"><ele>342.8333333333333</ele><time>2026-05-01T08:36:13.938Z</time></trkpt><trkpt lat="44.3328295" lon="8.4188251"><ele>343.0</ele><time>2026-05-01T08:36:14.937Z</time></trkpt><trkpt lat="44.3328134" lon="8.4187385"><ele>343.57142857142856</ele><time>2026-05-01T08:36:15.937Z</time></trkpt><trkpt lat="44.3327863" lon="8.4186411"><ele>344.1428571428571</ele><time>2026-05-01T08:36:16.938Z</time></trkpt><trkpt lat="44.3327481" lon="8.4185385"><ele>344.7142857142857</ele><time>2026-05-01T08:36:17.937Z</time></trkpt><trkpt lat="44.332707" lon="8.4184513"><ele>345.2857142857143</ele><time>2026-05-01T08:36:18.938Z</time></trkpt><trkpt lat="44.3326685" lon="8.4183802"><ele>345.85714285714283</ele><time>2026-05-01T08:36:19.937Z</time></trkpt><trkpt lat="44.3326113" lon="8.4183286"><ele>346.42857142857144</ele><time>2026-05-01T08:36:20.937Z</time></trkpt><trkpt lat="44.332556" lon="8.4182844"><ele>347.0</ele><time>2026-05-01T08:36:21.937Z</time></trkpt><trkpt lat="44.3324935" lon="8.4181826"><ele>347.0</ele><time>2026-05-01T08:36:23.937Z</time></trkpt><trkpt lat="44.3324817" lon="8.4180729"><ele>347.0</ele><time>2026-05-01T08:36:25.937Z</time></trkpt><trkpt lat="44.3325409" lon="8.4180226"><ele>347.0</ele><time>2026-05-01T08:36:27.937Z</time></trkpt><trkpt lat="44.3326136" lon="8.4180301"><ele>347.0</ele><time>2026-05-01T08:36:29.937Z</time></trkpt><trkpt lat="44.3327265" lon="8.4180574"><ele>347.0</ele><time>2026-05-01T08:36:31.937Z</time></trkpt><trkpt lat="44.3327923" lon="8.4180667"><ele>347.0</ele><time>2026-05-01T08:36:32.939Z</time></trkpt><trkpt lat="44.3328731" lon="8.4180654"><ele>347.0</ele><time>2026-05-01T08:36:33.937Z</time></trkpt><trkpt lat="44.3329382" lon="8.4180686"><ele>347.0</ele><time>2026-05-01T08:36:34.94Z</time></trkpt><trkpt lat="44.3330334" lon="8.4180595"><ele>347.0</ele><time>2026-05-01T08:36:36.938Z</time></trkpt><trkpt lat="44.3331189" lon="8.4180191"><ele>347.0</ele><time>2026-05-01T08:36:38.937Z</time></trkpt><trkpt lat="44.3331729" lon="8.4179244"><ele>347.0</ele><time>2026-05-01T08:36:40.939Z</time></trkpt><trkpt lat="44.3331807" lon="8.4177797"><ele>347.0</ele><time>2026-05-01T08:36:42.939Z</time></trkpt><trkpt lat="44.3332294" lon="8.4176562"><ele>348.6</ele><time>2026-05-01T08:36:44.937Z</time></trkpt><trkpt lat="44.3333202" lon="8.4175098"><ele>350.20000000000005</ele><time>2026-05-01T08:36:46.938Z</time></trkpt><trkpt lat="44.3333732" lon="8.4174344"><ele>351.8</ele><time>2026-05-01T08:36:47.938Z</time></trkpt><trkpt lat="44.3334329" lon="8.4173508"><ele>353.4</ele><time>2026-05-01T08:36:48.937Z</time></trkpt><trkpt lat="44.3334937" lon="8.4172756"><ele>355.0</ele><time>2026-05-01T08:36:49.937Z</time></trkpt><trkpt lat="44.3335463" lon="8.4172083"><ele>351.0</ele><time>2026-05-01T08:36:50.937Z</time></trkpt><trkpt lat="44.3336278" lon="8.417068"><ele>347.0</ele><time>2026-05-01T08:36:52.938Z</time></trkpt><trkpt lat="44.3336624" lon="8.4169138"><ele>343.0</ele><time>2026-05-01T08:36:54.938Z</time></trkpt><trkpt lat="44.3337075" lon="8.4167781"><ele>339.0</ele><time>2026-05-01T08:36:56.937Z</time></trkpt><trkpt lat="44.333787" lon="8.4166579"><ele>341.79999999999995</ele><time>2026-05-01T08:36:58.937Z</time></trkpt><trkpt lat="44.3338929" lon="8.4165738"><ele>344.59999999999997</ele><time>2026-05-01T08:37:00.937Z</time></trkpt><trkpt lat="44.3339546" lon="8.4165302"><ele>347.4</ele><time>2026-05-01T08:37:01.937Z</time></trkpt><trkpt lat="44.334043" lon="8.4164715"><ele>350.2</ele><time>2026-05-01T08:37:02.937Z</time></trkpt><trkpt lat="44.3341241" lon="8.4164282"><ele>353.0</ele><time>2026-05-01T08:37:03.937Z</time></trkpt><trkpt lat="44.3342031" lon="8.4163827"><ele>349.0</ele><time>2026-05-01T08:37:04.937Z</time></trkpt><trkpt lat="44.3342973" lon="8.4163158"><ele>345.0</ele><time>2026-05-01T08:37:05.938Z</time></trkpt><trkpt lat="44.33439" lon="8.4162665"><ele>341.0</ele><time>2026-05-01T08:37:06.938Z</time></trkpt><trkpt lat="44.3344656" lon="8.41621"><ele>337.0</ele><time>2026-05-01T08:37:07.938Z</time></trkpt><trkpt lat="44.3345408" lon="8.4161474"><ele>333.0</ele><time>2026-05-01T08:37:08.938Z</time></trkpt><trkpt lat="44.3346088" lon="8.4160849"><ele>333.0</ele><time>2026-05-01T08:37:09.937Z</time></trkpt><trkpt lat="44.3346903" lon="8.4160401"><ele>333.0</ele><time>2026-05-01T08:37:10.938Z</time></trkpt><trkpt lat="44.3347672" lon="8.4159895"><ele>333.0</ele><time>2026-05-01T08:37:11.937Z</time></trkpt><trkpt lat="44.334847" lon="8.4159299"><ele>333.0</ele><time>2026-05-01T08:37:12.937Z</time></trkpt><trkpt lat="44.3349288" lon="8.4158537"><ele>333.0</ele><time>2026-05-01T08:37:13.938Z</time></trkpt><trkpt lat="44.3350194" lon="8.41577"><ele>331.4</ele><time>2026-05-01T08:37:14.937Z</time></trkpt><trkpt lat="44.3351187" lon="8.4156933"><ele>329.79999999999995</ele><time>2026-05-01T08:37:15.937Z</time></trkpt><trkpt lat="44.3352046" lon="8.4156177"><ele>328.2</ele><time>2026-05-01T08:37:16.937Z</time></trkpt><trkpt lat="44.3352878" lon="8.4155448"><ele>326.6</ele><time>2026-05-01T08:37:17.938Z</time></trkpt><trkpt lat="44.3353742" lon="8.4154855"><ele>325.0</ele><time>2026-05-01T08:37:18.938Z</time></trkpt><trkpt lat="44.3354647" lon="8.4154056"><ele>325.0</ele><time>2026-05-01T08:37:19.938Z</time></trkpt><trkpt lat="44.3355526" lon="8.4153121"><ele>325.0</ele><time>2026-05-01T08:37:20.938Z</time></trkpt><trkpt lat="44.3356466" lon="8.4152197"><ele>325.0</ele><time>2026-05-01T08:37:21.938Z</time></trkpt><trkpt lat="44.3357332" lon="8.4151382"><ele>325.0</ele><time>2026-05-01T08:37:22.938Z</time></trkpt><trkpt lat="44.3358046" lon="8.4150617"><ele>325.0</ele><time>2026-05-01T08:37:23.938Z</time></trkpt><trkpt lat="44.3358689" lon="8.4149834"><ele>326.85714285714283</ele><time>2026-05-01T08:37:24.937Z</time></trkpt><trkpt lat="44.3359257" lon="8.4149158"><ele>328.7142857142857</ele><time>2026-05-01T08:37:25.938Z</time></trkpt><trkpt lat="44.3359756" lon="8.414847"><ele>330.57142857142856</ele><time>2026-05-01T08:37:26.937Z</time></trkpt><trkpt lat="44.3360114" lon="8.4147736"><ele>332.42857142857144</ele><time>2026-05-01T08:37:27.937Z</time></trkpt><trkpt lat="44.3360456" lon="8.4146901"><ele>334.2857142857143</ele><time>2026-05-01T08:37:28.937Z</time></trkpt><trkpt lat="44.3360738" lon="8.4145844"><ele>336.14285714285717</ele><time>2026-05-01T08:37:29.939Z</time></trkpt><trkpt lat="44.3360912" lon="8.4144745"><ele>338.0</ele><time>2026-05-01T08:37:30.939Z</time></trkpt><trkpt lat="44.3361191" lon="8.4143331"><ele>338.0</ele><time>2026-05-01T08:37:31.938Z</time></trkpt><trkpt lat="44.3361392" lon="8.4142018"><ele>338.0</ele><time>2026-05-01T08:37:32.938Z</time></trkpt><trkpt lat="44.3361666" lon="8.4140765"><ele>338.0</ele><time>2026-05-01T08:37:33.937Z</time></trkpt><trkpt lat="44.3361981" lon="8.4139555"><ele>338.0</ele><time>2026-05-01T08:37:34.938Z</time></trkpt><trkpt lat="44.3362301" lon="8.4138331"><ele>338.0</ele><time>2026-05-01T08:37:35.938Z</time></trkpt><trkpt lat="44.3362654" lon="8.413706"><ele>338.0</ele><time>2026-05-01T08:37:36.937Z</time></trkpt><trkpt lat="44.336286" lon="8.4135763"><ele>338.0</ele><time>2026-05-01T08:37:37.937Z</time></trkpt><trkpt lat="44.3363096" lon="8.413433"><ele>338.0</ele><time>2026-05-01T08:37:38.937Z</time></trkpt><trkpt lat="44.3363254" lon="8.4132998"><ele>338.0</ele><time>2026-05-01T08:37:39.938Z</time></trkpt><trkpt lat="44.3363336" lon="8.4131746"><ele>338.0</ele><time>2026-05-01T08:37:40.939Z</time></trkpt><trkpt lat="44.336339" lon="8.4130559"><ele>338.33333333333337</ele><time>2026-05-01T08:37:41.937Z</time></trkpt><trkpt lat="44.3363447" lon="8.4129383"><ele>338.6666666666667</ele><time>2026-05-01T08:37:42.938Z</time></trkpt><trkpt lat="44.3363501" lon="8.4128374"><ele>339.0</ele><time>2026-05-01T08:37:43.939Z</time></trkpt><trkpt lat="44.3363538" lon="8.412731"><ele>339.3333333333333</ele><time>2026-05-01T08:37:44.939Z</time></trkpt><trkpt lat="44.3364012" lon="8.4125703"><ele>339.66666666666663</ele><time>2026-05-01T08:37:46.939Z</time></trkpt><trkpt lat="44.3364332" lon="8.4124857"><ele>340.0</ele><time>2026-05-01T08:37:47.937Z</time></trkpt><trkpt lat="44.3365045" lon="8.4123252"><ele>341.2857142857143</ele><time>2026-05-01T08:37:49.937Z</time></trkpt><trkpt lat="44.3365466" lon="8.412245"><ele>342.57142857142856</ele><time>2026-05-01T08:37:50.939Z</time></trkpt><trkpt lat="44.3365928" lon="8.4121705"><ele>343.85714285714283</ele><time>2026-05-01T08:37:51.938Z</time></trkpt><trkpt lat="44.3366413" lon="8.4121004"><ele>345.1428571428571</ele><time>2026-05-01T08:37:52.938Z</time></trkpt><trkpt lat="44.33668" lon="8.4120288"><ele>346.42857142857144</ele><time>2026-05-01T08:37:53.938Z</time></trkpt><trkpt lat="44.3367057" lon="8.4119484"><ele>347.71428571428567</ele><time>2026-05-01T08:37:54.938Z</time></trkpt><trkpt lat="44.3367305" lon="8.4118596"><ele>349.0</ele><time>2026-05-01T08:37:55.937Z</time></trkpt><trkpt lat="44.3367496" lon="8.411769"><ele>350.0</ele><time>2026-05-01T08:37:57.937Z</time></trkpt><trkpt lat="44.3367919" lon="8.411675"><ele>351.0</ele><time>2026-05-01T08:38:58.938Z</time></trkpt><trkpt lat="44.3368517" lon="8.4115917"><ele>352.0</ele><time>2026-05-01T08:39:00.937Z</time></trkpt><trkpt lat="44.336917" lon="8.4114837"><ele>353.0</ele><time>2026-05-01T08:39:02.938Z</time></trkpt><trkpt lat="44.3369762" lon="8.411376"><ele>354.0</ele><time>2026-05-01T08:39:04.938Z</time></trkpt><trkpt lat="44.3370335" lon="8.4112717"><ele>354.0</ele><time>2026-05-01T08:39:06.938Z</time></trkpt><trkpt lat="44.3370787" lon="8.4111959"><ele>354.0</ele><time>2026-05-01T08:39:17.938Z</time></trkpt><trkpt lat="44.3371314" lon="8.4111288"><ele>354.0</ele><time>2026-05-01T08:39:20.937Z</time></trkpt><trkpt lat="44.3372371" lon="8.4110179"><ele>354.0</ele><time>2026-05-01T08:39:21.937Z</time></trkpt><trkpt lat="44.3372979" lon="8.4109713"><ele>354.0</ele><time>2026-05-01T08:39:22.938Z</time></trkpt><trkpt lat="44.3373462" lon="8.4109146"><ele>354.0</ele><time>2026-05-01T08:39:23.937Z</time></trkpt><trkpt lat="44.3373973" lon="8.4108412"><ele>353.6</ele><time>2026-05-01T08:39:24.937Z</time></trkpt><trkpt lat="44.3374792" lon="8.4107315"><ele>353.2</ele><time>2026-05-01T08:39:26.938Z</time></trkpt><trkpt lat="44.3375387" lon="8.4106265"><ele>352.8</ele><time>2026-05-01T08:39:28.938Z</time></trkpt><trkpt lat="44.3376343" lon="8.4105556"><ele>352.40000000000003</ele><time>2026-05-01T08:39:30.937Z</time></trkpt><trkpt lat="44.3376949" lon="8.4105213"><ele>352.0</ele><time>2026-05-01T08:39:31.938Z</time></trkpt><trkpt lat="44.3377872" lon="8.41047"><ele>352.0</ele><time>2026-05-01T08:39:33.938Z</time></trkpt><trkpt lat="44.3378495" lon="8.4104185"><ele>352.0</ele><time>2026-05-01T08:39:38.937Z</time></trkpt><trkpt lat="44.3378859" lon="8.4103395"><ele>352.0</ele><time>2026-05-01T08:39:40.937Z</time></trkpt><trkpt lat="44.3379287" lon="8.4102109"><ele>352.0</ele><time>2026-05-01T08:39:42.938Z</time></trkpt><trkpt lat="44.3379478" lon="8.4100673"><ele>352.0</ele><time>2026-05-01T08:39:44.938Z</time></trkpt><trkpt lat="44.3379647" lon="8.4098959"><ele>352.0</ele><time>2026-05-01T08:39:46.938Z</time></trkpt><trkpt lat="44.3379737" lon="8.409806"><ele>352.0</ele><time>2026-05-01T08:39:47.938Z</time></trkpt><trkpt lat="44.3379792" lon="8.4096894"><ele>352.0</ele><time>2026-05-01T08:39:49.937Z</time></trkpt><trkpt lat="44.3379782" lon="8.4095798"><ele>352.0</ele><time>2026-05-01T08:40:38.937Z</time></trkpt><trkpt lat="44.3379779" lon="8.409483"><ele>352.0</ele><time>2026-05-01T08:40:40.939Z</time></trkpt><trkpt lat="44.3379797" lon="8.4093864"><ele>352.0</ele><time>2026-05-01T08:40:43.937Z</time></trkpt><trkpt lat="44.3379738" lon="8.4092931"><ele>352.0</ele><time>2026-05-01T08:40:48.938Z</time></trkpt><trkpt lat="44.3379573" lon="8.4091714"><ele>352.16666666666663</ele><time>2026-05-01T08:40:50.939Z</time></trkpt><trkpt lat="44.3379393" lon="8.4090331"><ele>352.3333333333333</ele><time>2026-05-01T08:40:52.937Z</time></trkpt><trkpt lat="44.3379245" lon="8.4089002"><ele>352.5</ele><time>2026-05-01T08:40:54.938Z</time></trkpt><trkpt lat="44.3379213" lon="8.4088033"><ele>352.6666666666667</ele><time>2026-05-01T08:40:56.937Z</time></trkpt><trkpt lat="44.337911" lon="8.4086723"><ele>352.83333333333337</ele><time>2026-05-01T08:40:59.937Z</time></trkpt><trkpt lat="44.3379112" lon="8.4085839"><ele>353.0</ele><time>2026-05-01T08:41:01.937Z</time></trkpt><trkpt lat="44.3379032" lon="8.4084589"><ele>354.33333333333337</ele><time>2026-05-01T08:41:04.937Z</time></trkpt><trkpt lat="44.3378576" lon="8.4083437"><ele>355.6666666666667</ele><time>2026-05-01T08:41:08.938Z</time></trkpt><trkpt lat="44.3378233" lon="8.4082628"><ele>357.0</ele><time>2026-05-01T08:41:10.938Z</time></trkpt><trkpt lat="44.3378062" lon="8.4081711"><ele>358.3333333333333</ele><time>2026-05-01T08:41:12.938Z</time></trkpt><trkpt lat="44.3378106" lon="8.4080756"><ele>359.66666666666663</ele><time>2026-05-01T08:41:14.938Z</time></trkpt><trkpt lat="44.3378344" lon="8.4079931"><ele>361.0</ele><time>2026-05-01T08:41:16.937Z</time></trkpt><trkpt lat="44.3378749" lon="8.4078197"><ele>361.0</ele><time>2026-05-01T08:41:18.937Z</time></trkpt><trkpt lat="44.3378963" lon="8.4076983"><ele>361.0</ele><time>2026-05-01T08:41:19.937Z</time></trkpt><trkpt lat="44.3379086" lon="8.4075799"><ele>361.0</ele><time>2026-05-01T08:41:20.938Z</time></trkpt><trkpt lat="44.3379159" lon="8.4074757"><ele>361.0</ele><time>2026-05-01T08:41:21.937Z</time></trkpt><trkpt lat="44.3379182" lon="8.4073742"><ele>361.0</ele><time>2026-05-01T08:41:22.937Z</time></trkpt><trkpt lat="44.3379286" lon="8.4072828"><ele>361.0</ele><time>2026-05-01T08:41:23.938Z</time></trkpt><trkpt lat="44.3379542" lon="8.407112"><ele>361.0</ele><time>2026-05-01T08:41:25.938Z</time></trkpt><trkpt lat="44.3379651" lon="8.4070253"><ele>361.0</ele><time>2026-05-01T08:41:26.939Z</time></trkpt><trkpt lat="44.3379854" lon="8.4068553"><ele>361.0</ele><time>2026-05-01T08:41:28.937Z</time></trkpt><trkpt lat="44.3379975" lon="8.406746"><ele>361.0</ele><time>2026-05-01T08:41:29.938Z</time></trkpt><trkpt lat="44.3380143" lon="8.4066219"><ele>361.0</ele><time>2026-05-01T08:41:30.937Z</time></trkpt><trkpt lat="44.3380364" lon="8.4065052"><ele>361.0</ele><time>2026-05-01T08:41:31.937Z</time></trkpt><trkpt lat="44.3380552" lon="8.4063938"><ele>362.8333333333333</ele><time>2026-05-01T08:41:32.938Z</time></trkpt><trkpt lat="44.3380766" lon="8.40628"><ele>364.66666666666663</ele><time>2026-05-01T08:41:33.938Z</time></trkpt><trkpt lat="44.3380998" lon="8.4061836"><ele>366.5</ele><time>2026-05-01T08:41:34.938Z</time></trkpt><trkpt lat="44.3381376" lon="8.4060622"><ele>368.3333333333333</ele><time>2026-05-01T08:41:35.937Z</time></trkpt><trkpt lat="44.3381775" lon="8.4059459"><ele>370.1666666666667</ele><time>2026-05-01T08:41:36.938Z</time></trkpt><trkpt lat="44.3382088" lon="8.405838"><ele>372.0</ele><time>2026-05-01T08:41:37.937Z</time></trkpt><trkpt lat="44.338237" lon="8.4057318"><ele>372.0</ele><time>2026-05-01T08:41:38.938Z</time></trkpt><trkpt lat="44.3382511" lon="8.405629"><ele>372.0</ele><time>2026-05-01T08:41:39.939Z</time></trkpt><trkpt lat="44.3382618" lon="8.4055225"><ele>372.0</ele><time>2026-05-01T08:41:40.938Z</time></trkpt><trkpt lat="44.3382606" lon="8.4054344"><ele>372.0</ele><time>2026-05-01T08:41:41.939Z</time></trkpt><trkpt lat="44.338257" lon="8.4053436"><ele>372.0</ele><time>2026-05-01T08:41:42.937Z</time></trkpt><trkpt lat="44.3382498" lon="8.4051695"><ele>372.0</ele><time>2026-05-01T08:41:44.938Z</time></trkpt><trkpt lat="44.3382597" lon="8.4049747"><ele>373.28571428571433</ele><time>2026-05-01T08:41:46.938Z</time></trkpt><trkpt lat="44.3382758" lon="8.4048696"><ele>374.57142857142856</ele><time>2026-05-01T08:41:47.937Z</time></trkpt><trkpt lat="44.3382957" lon="8.4047792"><ele>375.8571428571429</ele><time>2026-05-01T08:41:48.937Z</time></trkpt><trkpt lat="44.33832" lon="8.4046874"><ele>377.14285714285717</ele><time>2026-05-01T08:41:49.938Z</time></trkpt><trkpt lat="44.33835" lon="8.4045961"><ele>378.42857142857144</ele><time>2026-05-01T08:41:50.937Z</time></trkpt><trkpt lat="44.3383778" lon="8.4045122"><ele>379.7142857142857</ele><time>2026-05-01T08:41:51.938Z</time></trkpt><trkpt lat="44.3383812" lon="8.4044172"><ele>381.0</ele><time>2026-05-01T08:41:52.938Z</time></trkpt><trkpt lat="44.3383893" lon="8.4043043"><ele>381.1666666666667</ele><time>2026-05-01T08:41:53.937Z</time></trkpt><trkpt lat="44.3383993" lon="8.4041896"><ele>381.3333333333333</ele><time>2026-05-01T08:41:54.938Z</time></trkpt><trkpt lat="44.3384106" lon="8.4040931"><ele>381.5</ele><time>2026-05-01T08:41:55.937Z</time></trkpt><trkpt lat="44.3384258" lon="8.4040041"><ele>381.66666666666663</ele><time>2026-05-01T08:41:56.938Z</time></trkpt><trkpt lat="44.3384481" lon="8.4039131"><ele>381.8333333333333</ele><time>2026-05-01T08:41:57.937Z</time></trkpt><trkpt lat="44.3384786" lon="8.403827"><ele>382.0</ele><time>2026-05-01T08:41:58.937Z</time></trkpt><trkpt lat="44.3385555" lon="8.4037228"><ele>382.16666666666663</ele><time>2026-05-01T08:42:00.937Z</time></trkpt><trkpt lat="44.3385674" lon="8.4035981"><ele>382.3333333333333</ele><time>2026-05-01T08:42:02.938Z</time></trkpt><trkpt lat="44.3385207" lon="8.4034768"><ele>382.5</ele><time>2026-05-01T08:42:04.937Z</time></trkpt><trkpt lat="44.3384827" lon="8.403398"><ele>382.6666666666667</ele><time>2026-05-01T08:42:05.938Z</time></trkpt><trkpt lat="44.338452" lon="8.4033085"><ele>382.83333333333337</ele><time>2026-05-01T08:42:06.938Z</time></trkpt><trkpt lat="44.3384325" lon="8.4032016"><ele>383.0</ele><time>2026-05-01T08:42:07.938Z</time></trkpt><trkpt lat="44.3384229" lon="8.4030963"><ele>383.0</ele><time>2026-05-01T08:42:08.938Z</time></trkpt><trkpt lat="44.3384203" lon="8.403002"><ele>383.0</ele><time>2026-05-01T08:42:09.938Z</time></trkpt><trkpt lat="44.3384198" lon="8.4028847"><ele>383.0</ele><time>2026-05-01T08:42:10.937Z</time></trkpt><trkpt lat="44.3384024" lon="8.4027858"><ele>383.0</ele><time>2026-05-01T08:42:11.938Z</time></trkpt><trkpt lat="44.3383669" lon="8.4026919"><ele>383.0</ele><time>2026-05-01T08:42:12.936Z</time></trkpt><trkpt lat="44.3383346" lon="8.402577"><ele>383.0</ele><time>2026-05-01T08:42:13.938Z</time></trkpt><trkpt lat="44.3382863" lon="8.4024693"><ele>383.0</ele><time>2026-05-01T08:42:14.937Z</time></trkpt><trkpt lat="44.3382409" lon="8.4023723"><ele>383.0</ele><time>2026-05-01T08:42:15.937Z</time></trkpt><trkpt lat="44.3382087" lon="8.4022823"><ele>383.0</ele><time>2026-05-01T08:42:16.937Z</time></trkpt><trkpt lat="44.3381849" lon="8.4021778"><ele>383.0</ele><time>2026-05-01T08:42:17.937Z</time></trkpt><trkpt lat="44.3381615" lon="8.4020825"><ele>383.0</ele><time>2026-05-01T08:42:18.937Z</time></trkpt><trkpt lat="44.338139" lon="8.4019851"><ele>383.0</ele><time>2026-05-01T08:42:19.937Z</time></trkpt><trkpt lat="44.3381166" lon="8.4018753"><ele>383.0</ele><time>2026-05-01T08:42:20.937Z</time></trkpt><trkpt lat="44.338091" lon="8.4017661"><ele>383.0</ele><time>2026-05-01T08:42:21.937Z</time></trkpt><trkpt lat="44.338062" lon="8.4016551"><ele>383.0</ele><time>2026-05-01T08:42:22.938Z</time></trkpt><trkpt lat="44.3380251" lon="8.4015482"><ele>383.0</ele><time>2026-05-01T08:42:23.937Z</time></trkpt><trkpt lat="44.3379828" lon="8.4014488"><ele>383.0</ele><time>2026-05-01T08:42:24.938Z</time></trkpt><trkpt lat="44.3379327" lon="8.4013605"><ele>383.0</ele><time>2026-05-01T08:42:25.937Z</time></trkpt><trkpt lat="44.3378601" lon="8.4012743"><ele>383.0</ele><time>2026-05-01T08:42:26.938Z</time></trkpt><trkpt lat="44.3377752" lon="8.4011892"><ele>383.0</ele><time>2026-05-01T08:42:27.937Z</time></trkpt><trkpt lat="44.3376884" lon="8.4011168"><ele>383.0</ele><time>2026-05-01T08:42:28.938Z</time></trkpt><trkpt lat="44.3376002" lon="8.4010564"><ele>383.0</ele><time>2026-05-01T08:42:29.937Z</time></trkpt><trkpt lat="44.3375183" lon="8.4010115"><ele>383.0</ele><time>2026-05-01T08:42:30.938Z</time></trkpt><trkpt lat="44.337443" lon="8.4009614"><ele>383.0</ele><time>2026-05-01T08:42:31.938Z</time></trkpt><trkpt lat="44.3373842" lon="8.4009159"><ele>383.0</ele><time>2026-05-01T08:42:32.937Z</time></trkpt><trkpt lat="44.3373261" lon="8.4008636"><ele>383.0</ele><time>2026-05-01T08:42:33.938Z</time></trkpt><trkpt lat="44.3372569" lon="8.400798"><ele>383.0</ele><time>2026-05-01T08:42:34.938Z</time></trkpt><trkpt lat="44.3371972" lon="8.4007528"><ele>383.0</ele><time>2026-05-01T08:42:35.938Z</time></trkpt><trkpt lat="44.3371344" lon="8.4007272"><ele>383.0</ele><time>2026-05-01T08:42:36.937Z</time></trkpt><trkpt lat="44.3370366" lon="8.4006973"><ele>379.2</ele><time>2026-05-01T08:42:38.937Z</time></trkpt><trkpt lat="44.3369653" lon="8.4006362"><ele>375.4</ele><time>2026-05-01T08:42:40.937Z</time></trkpt><trkpt lat="44.3369509" lon="8.400517"><ele>371.59999999999997</ele><time>2026-05-01T08:42:42.938Z</time></trkpt><trkpt lat="44.3369666" lon="8.4003424"><ele>367.79999999999995</ele><time>2026-05-01T08:42:44.938Z</time></trkpt><trkpt lat="44.3369822" lon="8.4002243"><ele>364.0</ele><time>2026-05-01T08:42:45.937Z</time></trkpt><trkpt lat="44.3369979" lon="8.4001044"><ele>363.8333333333333</ele><time>2026-05-01T08:42:46.937Z</time></trkpt><trkpt lat="44.3370115" lon="8.3999904"><ele>363.66666666666663</ele><time>2026-05-01T08:42:47.938Z</time></trkpt><trkpt lat="44.3370284" lon="8.3998809"><ele>363.5</ele><time>2026-05-01T08:42:48.938Z</time></trkpt><trkpt lat="44.337037" lon="8.3997615"><ele>363.3333333333333</ele><time>2026-05-01T08:42:49.937Z</time></trkpt><trkpt lat="44.3370378" lon="8.3996427"><ele>363.1666666666667</ele><time>2026-05-01T08:42:50.937Z</time></trkpt><trkpt lat="44.3370286" lon="8.3995187"><ele>363.0</ele><time>2026-05-01T08:42:51.938Z</time></trkpt><trkpt lat="44.3370045" lon="8.3993855"><ele>363.0</ele><time>2026-05-01T08:42:52.937Z</time></trkpt><trkpt lat="44.3369759" lon="8.3992737"><ele>363.0</ele><time>2026-05-01T08:42:53.938Z</time></trkpt><trkpt lat="44.3369462" lon="8.3991648"><ele>363.0</ele><time>2026-05-01T08:42:54.939Z</time></trkpt><trkpt lat="44.3369201" lon="8.3990659"><ele>363.0</ele><time>2026-05-01T08:42:55.938Z</time></trkpt><trkpt lat="44.3369141" lon="8.3989682"><ele>363.0</ele><time>2026-05-01T08:42:56.937Z</time></trkpt><trkpt lat="44.3369188" lon="8.3988567"><ele>363.0</ele><time>2026-05-01T08:42:57.937Z</time></trkpt><trkpt lat="44.3369188" lon="8.3987264"><ele>364.0</ele><time>2026-05-01T08:42:58.937Z</time></trkpt><trkpt lat="44.3369359" lon="8.3985627"><ele>365.0</ele><time>2026-05-01T08:43:00.938Z</time></trkpt><trkpt lat="44.3369342" lon="8.3984352"><ele>366.0</ele><time>2026-05-01T08:43:02.938Z</time></trkpt><trkpt lat="44.3368949" lon="8.3982501"><ele>367.0</ele><time>2026-05-01T08:43:04.938Z</time></trkpt><trkpt lat="44.3368476" lon="8.3981298"><ele>368.0</ele><time>2026-05-01T08:43:05.937Z</time></trkpt><trkpt lat="44.3367984" lon="8.3980243"><ele>369.0</ele><time>2026-05-01T08:43:06.937Z</time></trkpt><trkpt lat="44.3367324" lon="8.3979179"><ele>370.0</ele><time>2026-05-01T08:43:07.937Z</time></trkpt><trkpt lat="44.3366601" lon="8.3978051"><ele>371.0</ele><time>2026-05-01T08:43:08.937Z</time></trkpt><trkpt lat="44.3365924" lon="8.3977181"><ele>372.0</ele><time>2026-05-01T08:43:09.938Z</time></trkpt><trkpt lat="44.3365287" lon="8.3976532"><ele>373.0</ele><time>2026-05-01T08:43:10.937Z</time></trkpt><trkpt lat="44.3364655" lon="8.3975894"><ele>371.66666666666663</ele><time>2026-05-01T08:43:11.937Z</time></trkpt><trkpt lat="44.3363638" lon="8.3975092"><ele>370.3333333333333</ele><time>2026-05-01T08:43:13.937Z</time></trkpt><trkpt lat="44.3363138" lon="8.3974499"><ele>369.0</ele><time>2026-05-01T08:43:14.938Z</time></trkpt><trkpt lat="44.3362682" lon="8.3973769"><ele>367.6666666666667</ele><time>2026-05-01T08:43:15.938Z</time></trkpt><trkpt lat="44.3362174" lon="8.3972887"><ele>366.33333333333337</ele><time>2026-05-01T08:43:16.938Z</time></trkpt><trkpt lat="44.3361604" lon="8.3971933"><ele>365.0</ele><time>2026-05-01T08:43:17.939Z</time></trkpt><trkpt lat="44.3360989" lon="8.3970983"><ele>365.0</ele><time>2026-05-01T08:43:18.938Z</time></trkpt><trkpt lat="44.3360444" lon="8.397015"><ele>365.0</ele><time>2026-05-01T08:43:19.938Z</time></trkpt><trkpt lat="44.3359893" lon="8.3969299"><ele>365.0</ele><time>2026-05-01T08:43:20.937Z</time></trkpt><trkpt lat="44.3359311" lon="8.3968504"><ele>365.0</ele><time>2026-05-01T08:43:21.937Z</time></trkpt><trkpt lat="44.3358774" lon="8.3967803"><ele>365.0</ele><time>2026-05-01T08:43:22.937Z</time></trkpt><trkpt lat="44.3358165" lon="8.3967302"><ele>365.0</ele><time>2026-05-01T08:43:23.937Z</time></trkpt><trkpt lat="44.3357538" lon="8.3967095"><ele>365.0</ele><time>2026-05-01T08:43:24.937Z</time></trkpt><trkpt lat="44.3356884" lon="8.396708"><ele>365.0</ele><time>2026-05-01T08:43:25.937Z</time></trkpt><trkpt lat="44.335558" lon="8.3967467"><ele>365.0</ele><time>2026-05-01T08:43:27.937Z</time></trkpt><trkpt lat="44.3354912" lon="8.3967523"><ele>365.0</ele><time>2026-05-01T08:43:28.937Z</time></trkpt><trkpt lat="44.3354164" lon="8.3967634"><ele>365.0</ele><time>2026-05-01T08:43:29.937Z</time></trkpt><trkpt lat="44.3353445" lon="8.3967711"><ele>365.0</ele><time>2026-05-01T08:43:30.937Z</time></trkpt><trkpt lat="44.3352683" lon="8.3967873"><ele>363.0</ele><time>2026-05-01T08:43:31.937Z</time></trkpt><trkpt lat="44.3351957" lon="8.3967988"><ele>361.0</ele><time>2026-05-01T08:43:32.938Z</time></trkpt><trkpt lat="44.3351253" lon="8.3968208"><ele>359.0</ele><time>2026-05-01T08:43:33.938Z</time></trkpt><trkpt lat="44.335058" lon="8.3968422"><ele>357.0</ele><time>2026-05-01T08:43:34.937Z</time></trkpt><trkpt lat="44.3349528" lon="8.3968624"><ele>355.0</ele><time>2026-05-01T08:43:36.937Z</time></trkpt><trkpt lat="44.3348737" lon="8.3968437"><ele>353.0</ele><time>2026-05-01T08:43:38.937Z</time></trkpt><trkpt lat="44.3348277" lon="8.396776"><ele>353.0</ele><time>2026-05-01T08:43:40.937Z</time></trkpt><trkpt lat="44.3348524" lon="8.3966489"><ele>353.0</ele><time>2026-05-01T08:43:43.937Z</time></trkpt><trkpt lat="44.3349327" lon="8.3965489"><ele>353.0</ele><time>2026-05-01T08:43:45.937Z</time></trkpt><trkpt lat="44.3349922" lon="8.3965084"><ele>353.0</ele><time>2026-05-01T08:43:46.937Z</time></trkpt><trkpt lat="44.3350602" lon="8.39647"><ele>353.0</ele><time>2026-05-01T08:43:47.937Z</time></trkpt><trkpt lat="44.3351305" lon="8.396443"><ele>353.0</ele><time>2026-05-01T08:43:48.938Z</time></trkpt><trkpt lat="44.335257" lon="8.3964373"><ele>353.0</ele><time>2026-05-01T08:43:50.937Z</time></trkpt><trkpt lat="44.3353228" lon="8.3964367"><ele>353.0</ele><time>2026-05-01T08:43:51.937Z</time></trkpt><trkpt lat="44.3354033" lon="8.3964145"><ele>353.0</ele><time>2026-05-01T08:43:52.937Z</time></trkpt><trkpt lat="44.3354733" lon="8.396369"><ele>353.0</ele><time>2026-05-01T08:43:53.938Z</time></trkpt><trkpt lat="44.3355349" lon="8.3963033"><ele>353.0</ele><time>2026-05-01T08:43:54.938Z</time></trkpt><trkpt lat="44.3355779" lon="8.3962073"><ele>353.0</ele><time>2026-05-01T08:43:55.937Z</time></trkpt><trkpt lat="44.3356155" lon="8.3961075"><ele>354.0</ele><time>2026-05-01T08:43:56.937Z</time></trkpt><trkpt lat="44.3356528" lon="8.3960112"><ele>355.0</ele><time>2026-05-01T08:43:57.937Z</time></trkpt><trkpt lat="44.3356718" lon="8.3959136"><ele>356.0</ele><time>2026-05-01T08:43:58.937Z</time></trkpt><trkpt lat="44.3356776" lon="8.3957639"><ele>357.0</ele><time>2026-05-01T08:44:00.937Z</time></trkpt><trkpt lat="44.335662" lon="8.3956509"><ele>358.0</ele><time>2026-05-01T08:44:02.937Z</time></trkpt><trkpt lat="44.3356457" lon="8.3955577"><ele>359.0</ele><time>2026-05-01T08:44:18.937Z</time></trkpt><trkpt lat="44.3356458" lon="8.3954477"><ele>359.0</ele><time>2026-05-01T08:44:20.937Z</time></trkpt><trkpt lat="44.3356547" lon="8.3952957"><ele>359.0</ele><time>2026-05-01T08:44:22.938Z</time></trkpt><trkpt lat="44.3356412" lon="8.395154"><ele>359.0</ele><time>2026-05-01T08:44:24.937Z</time></trkpt><trkpt lat="44.3355531" lon="8.3950153"><ele>359.0</ele><time>2026-05-01T08:44:26.937Z</time></trkpt><trkpt lat="44.3354994" lon="8.3949503"><ele>359.0</ele><time>2026-05-01T08:44:27.937Z</time></trkpt><trkpt lat="44.3354258" lon="8.3948294"><ele>355.0</ele><time>2026-05-01T08:44:29.937Z</time></trkpt><trkpt lat="44.3353607" lon="8.3947307"><ele>351.0</ele><time>2026-05-01T08:44:31.938Z</time></trkpt><trkpt lat="44.3352758" lon="8.3946925"><ele>347.0</ele><time>2026-05-01T08:44:33.939Z</time></trkpt><trkpt lat="44.335192" lon="8.3946813"><ele>343.0</ele><time>2026-05-01T08:44:35.938Z</time></trkpt><trkpt lat="44.3351172" lon="8.3946467"><ele>339.0</ele><time>2026-05-01T08:44:37.937Z</time></trkpt><trkpt lat="44.3350971" lon="8.3945559"><ele>335.0</ele><time>2026-05-01T08:44:39.937Z</time></trkpt><trkpt lat="44.3351375" lon="8.3944659"><ele>335.0</ele><time>2026-05-01T08:44:41.937Z</time></trkpt><trkpt lat="44.3352126" lon="8.3943654"><ele>335.0</ele><time>2026-05-01T08:44:43.937Z</time></trkpt><trkpt lat="44.3353135" lon="8.3942953"><ele>335.0</ele><time>2026-05-01T08:44:45.938Z</time></trkpt><trkpt lat="44.3354226" lon="8.3942366"><ele>335.0</ele><time>2026-05-01T08:44:47.937Z</time></trkpt><trkpt lat="44.3355006" lon="8.3941277"><ele>335.0</ele><time>2026-05-01T08:44:49.938Z</time></trkpt><trkpt lat="44.3355558" lon="8.3939868"><ele>334.33333333333337</ele><time>2026-05-01T08:44:51.938Z</time></trkpt><trkpt lat="44.3355821" lon="8.3938427"><ele>333.6666666666667</ele><time>2026-05-01T08:44:53.938Z</time></trkpt><trkpt lat="44.33557" lon="8.3937019"><ele>333.0</ele><time>2026-05-01T08:44:55.939Z</time></trkpt><trkpt lat="44.3355307" lon="8.3936155"><ele>332.3333333333333</ele><time>2026-05-01T08:44:56.938Z</time></trkpt><trkpt lat="44.3354949" lon="8.3935241"><ele>331.66666666666663</ele><time>2026-05-01T08:44:57.937Z</time></trkpt><trkpt lat="44.3354613" lon="8.3934297"><ele>331.0</ele><time>2026-05-01T08:44:58.938Z</time></trkpt><trkpt lat="44.3354225" lon="8.3933114"><ele>331.0</ele><time>2026-05-01T08:44:59.938Z</time></trkpt><trkpt lat="44.3353808" lon="8.3931644"><ele>331.0</ele><time>2026-05-01T08:45:00.937Z</time></trkpt><trkpt lat="44.3353395" lon="8.3930033"><ele>331.0</ele><time>2026-05-01T08:45:01.937Z</time></trkpt><trkpt lat="44.3353063" lon="8.3928534"><ele>331.0</ele><time>2026-05-01T08:45:02.939Z</time></trkpt><trkpt lat="44.3352765" lon="8.3927291"><ele>331.0</ele><time>2026-05-01T08:45:03.937Z</time></trkpt><trkpt lat="44.3352401" lon="8.3926102"><ele>330.8</ele><time>2026-05-01T08:45:04.937Z</time></trkpt><trkpt lat="44.3352105" lon="8.3924579"><ele>330.6</ele><time>2026-05-01T08:45:05.937Z</time></trkpt><trkpt lat="44.3351782" lon="8.3923147"><ele>330.4</ele><time>2026-05-01T08:45:06.937Z</time></trkpt><trkpt lat="44.3351473" lon="8.3921893"><ele>330.2</ele><time>2026-05-01T08:45:07.937Z</time></trkpt><trkpt lat="44.3351182" lon="8.3920808"><ele>330.0</ele><time>2026-05-01T08:45:08.937Z</time></trkpt><trkpt lat="44.3350919" lon="8.3919876"><ele>330.5</ele><time>2026-05-01T08:45:09.937Z</time></trkpt><trkpt lat="44.3350652" lon="8.3919025"><ele>331.0</ele><time>2026-05-01T08:45:10.937Z</time></trkpt><trkpt lat="44.3350227" lon="8.3917643"><ele>331.5</ele><time>2026-05-01T08:45:12.938Z</time></trkpt><trkpt lat="44.3349783" lon="8.3916476"><ele>332.0</ele><time>2026-05-01T08:45:14.938Z</time></trkpt><trkpt lat="44.3349508" lon="8.3915582"><ele>332.5</ele><time>2026-05-01T08:45:16.937Z</time></trkpt><trkpt lat="44.3349269" lon="8.3914766"><ele>333.0</ele><time>2026-05-01T08:45:18.938Z</time></trkpt><trkpt lat="44.3349029" lon="8.3913646"><ele>333.0</ele><time>2026-05-01T08:45:21.937Z</time></trkpt><trkpt lat="44.3348895" lon="8.3912358"><ele>333.0</ele><time>2026-05-01T08:45:24.938Z</time></trkpt><trkpt lat="44.3348869" lon="8.3911334"><ele>333.0</ele><time>2026-05-01T08:45:26.938Z</time></trkpt><trkpt lat="44.334889" lon="8.391031"><ele>333.0</ele><time>2026-05-01T08:45:28.938Z</time></trkpt><trkpt lat="44.3348944" lon="8.3909219"><ele>333.0</ele><time>2026-05-01T08:45:30.937Z</time></trkpt><trkpt lat="44.3349084" lon="8.3908082"><ele>333.0</ele><time>2026-05-01T08:45:32.937Z</time></trkpt><trkpt lat="44.3349229" lon="8.3907043"><ele>333.0</ele><time>2026-05-01T08:45:34.938Z</time></trkpt><trkpt lat="44.3349484" lon="8.3905965"><ele>333.0</ele><time>2026-05-01T08:45:36.938Z</time></trkpt><trkpt lat="44.3349785" lon="8.3904827"><ele>333.0</ele><time>2026-05-01T08:45:38.938Z</time></trkpt><trkpt lat="44.3349914" lon="8.3903926"><ele>333.0</ele><time>2026-05-01T08:45:40.939Z</time></trkpt><trkpt lat="44.3349917" lon="8.3903012"><ele>333.0</ele><time>2026-05-01T08:45:42.939Z</time></trkpt><trkpt lat="44.3349848" lon="8.3901982"><ele>333.0</ele><time>2026-05-01T08:45:44.937Z</time></trkpt><trkpt lat="44.3349748" lon="8.390088"><ele>333.0</ele><time>2026-05-01T08:45:46.937Z</time></trkpt><trkpt lat="44.3349611" lon="8.3899619"><ele>333.0</ele><time>2026-05-01T08:45:48.937Z</time></trkpt><trkpt lat="44.3349544" lon="8.3898247"><ele>333.0</ele><time>2026-05-01T08:45:50.937Z</time></trkpt><trkpt lat="44.3349508" lon="8.3896891"><ele>333.0</ele><time>2026-05-01T08:45:52.937Z</time></trkpt><trkpt lat="44.33494" lon="8.3895685"><ele>333.0</ele><time>2026-05-01T08:45:54.939Z</time></trkpt><trkpt lat="44.3349276" lon="8.3894578"><ele>333.0</ele><time>2026-05-01T08:45:56.938Z</time></trkpt><trkpt lat="44.3348996" lon="8.3893402"><ele>333.0</ele><time>2026-05-01T08:45:58.939Z</time></trkpt><trkpt lat="44.334861" lon="8.3892281"><ele>333.0</ele><time>2026-05-01T08:46:00.938Z</time></trkpt><trkpt lat="44.3348137" lon="8.3891194"><ele>333.0</ele><time>2026-05-01T08:46:02.937Z</time></trkpt><trkpt lat="44.3347678" lon="8.3890413"><ele>333.0</ele><time>2026-05-01T08:46:04.938Z</time></trkpt><trkpt lat="44.3347198" lon="8.3889707"><ele>333.0</ele><time>2026-05-01T08:46:06.937Z</time></trkpt><trkpt lat="44.3346741" lon="8.3888896"><ele>334.8333333333333</ele><time>2026-05-01T08:46:08.938Z</time></trkpt><trkpt lat="44.3345833" lon="8.388773"><ele>336.6666666666667</ele><time>2026-05-01T08:46:10.937Z</time></trkpt><trkpt lat="44.3345275" lon="8.3887085"><ele>338.5</ele><time>2026-05-01T08:46:11.938Z</time></trkpt><trkpt lat="44.3344746" lon="8.3886529"><ele>340.33333333333337</ele><time>2026-05-01T08:46:12.937Z</time></trkpt><trkpt lat="44.3344191" lon="8.3886051"><ele>342.1666666666667</ele><time>2026-05-01T08:46:13.938Z</time></trkpt><trkpt lat="44.3343626" lon="8.3885658"><ele>344.0</ele><time>2026-05-01T08:46:14.937Z</time></trkpt><trkpt lat="44.3342903" lon="8.3885161"><ele>344.0</ele><time>2026-05-01T08:46:15.938Z</time></trkpt><trkpt lat="44.3342061" lon="8.3884653"><ele>344.0</ele><time>2026-05-01T08:46:16.938Z</time></trkpt><trkpt lat="44.3341276" lon="8.3884098"><ele>344.0</ele><time>2026-05-01T08:46:17.938Z</time></trkpt><trkpt lat="44.3340562" lon="8.3883567"><ele>344.0</ele><time>2026-05-01T08:46:18.937Z</time></trkpt><trkpt lat="44.3339857" lon="8.3883154"><ele>344.0</ele><time>2026-05-01T08:46:19.938Z</time></trkpt><trkpt lat="44.3339081" lon="8.388293"><ele>344.0</ele><time>2026-05-01T08:46:20.938Z</time></trkpt><trkpt lat="44.3338273" lon="8.3882794"><ele>341.5</ele><time>2026-05-01T08:46:21.937Z</time></trkpt><trkpt lat="44.3337491" lon="8.3882837"><ele>339.0</ele><time>2026-05-01T08:46:22.938Z</time></trkpt><trkpt lat="44.3336823" lon="8.3882897"><ele>336.5</ele><time>2026-05-01T08:46:23.938Z</time></trkpt><trkpt lat="44.3336159" lon="8.388289"><ele>334.0</ele><time>2026-05-01T08:46:24.937Z</time></trkpt><trkpt lat="44.3335258" lon="8.3882464"><ele>331.5</ele><time>2026-05-01T08:46:26.937Z</time></trkpt><trkpt lat="44.3334725" lon="8.3881324"><ele>329.0</ele><time>2026-05-01T08:46:28.937Z</time></trkpt><trkpt lat="44.3334578" lon="8.3880377"><ele>331.1666666666667</ele><time>2026-05-01T08:46:29.937Z</time></trkpt><trkpt lat="44.3334462" lon="8.3879196"><ele>333.33333333333337</ele><time>2026-05-01T08:46:30.938Z</time></trkpt><trkpt lat="44.3334264" lon="8.3878021"><ele>335.5</ele><time>2026-05-01T08:46:31.938Z</time></trkpt><trkpt lat="44.3333997" lon="8.3877037"><ele>337.6666666666667</ele><time>2026-05-01T08:46:32.937Z</time></trkpt><trkpt lat="44.3333677" lon="8.3876232"><ele>339.8333333333333</ele><time>2026-05-01T08:46:33.937Z</time></trkpt><trkpt lat="44.333332" lon="8.3875445"><ele>342.0</ele><time>2026-05-01T08:46:34.938Z</time></trkpt><trkpt lat="44.3332752" lon="8.3874782"><ele>342.0</ele><time>2026-05-01T08:46:35.939Z</time></trkpt><trkpt lat="44.3332183" lon="8.3874269"><ele>342.0</ele><time>2026-05-01T08:46:36.937Z</time></trkpt><trkpt lat="44.3331468" lon="8.3873401"><ele>342.0</ele><time>2026-05-01T08:46:38.938Z</time></trkpt><trkpt lat="44.3331373" lon="8.3872166"><ele>342.0</ele><time>2026-05-01T08:46:40.937Z</time></trkpt><trkpt lat="44.3331683" lon="8.3870877"><ele>342.0</ele><time>2026-05-01T08:46:42.937Z</time></trkpt><trkpt lat="44.3332049" lon="8.386982"><ele>342.0</ele><time>2026-05-01T08:46:44.938Z</time></trkpt><trkpt lat="44.3331776" lon="8.3868495"><ele>343.0</ele><time>2026-05-01T08:46:46.938Z</time></trkpt><trkpt lat="44.3331381" lon="8.3867511"><ele>344.0</ele><time>2026-05-01T08:46:48.937Z</time></trkpt><trkpt lat="44.3330939" lon="8.3866313"><ele>345.0</ele><time>2026-05-01T08:46:50.937Z</time></trkpt><trkpt lat="44.3330637" lon="8.3865098"><ele>346.0</ele><time>2026-05-01T08:46:52.937Z</time></trkpt><trkpt lat="44.3330574" lon="8.3863853"><ele>347.0</ele><time>2026-05-01T08:46:54.938Z</time></trkpt><trkpt lat="44.3330713" lon="8.3862641"><ele>348.0</ele><time>2026-05-01T08:46:56.937Z</time></trkpt><trkpt lat="44.3330686" lon="8.3861545"><ele>342.59999999999997</ele><time>2026-05-01T08:46:58.937Z</time></trkpt><trkpt lat="44.3330279" lon="8.3860508"><ele>337.2</ele><time>2026-05-01T08:47:00.938Z</time></trkpt><trkpt lat="44.3329465" lon="8.3859676"><ele>331.8</ele><time>2026-05-01T08:47:02.937Z</time></trkpt><trkpt lat="44.3328594" lon="8.3859074"><ele>326.4</ele><time>2026-05-01T08:47:04.938Z</time></trkpt><trkpt lat="44.3327853" lon="8.3858356"><ele>321.0</ele><time>2026-05-01T08:47:06.937Z</time></trkpt><trkpt lat="44.3327099" lon="8.3857656"><ele>321.0</ele><time>2026-05-01T08:47:08.938Z</time></trkpt><trkpt lat="44.332666" lon="8.3856737"><ele>321.0</ele><time>2026-05-01T08:47:10.938Z</time></trkpt><trkpt lat="44.3326834" lon="8.3855522"><ele>321.0</ele><time>2026-05-01T08:47:12.937Z</time></trkpt><trkpt lat="44.3327078" lon="8.3854656"><ele>321.0</ele><time>2026-05-01T08:47:13.938Z</time></trkpt><trkpt lat="44.3327359" lon="8.3853835"><ele>321.0</ele><time>2026-05-01T08:47:14.938Z</time></trkpt><trkpt lat="44.3327722" lon="8.3853114"><ele>321.0</ele><time>2026-05-01T08:47:15.937Z</time></trkpt><trkpt lat="44.3328377" lon="8.3851999"><ele>323.0</ele><time>2026-05-01T08:47:17.937Z</time></trkpt><trkpt lat="44.3328147" lon="8.3850712"><ele>325.0</ele><time>2026-05-01T08:47:19.937Z</time></trkpt><trkpt lat="44.3327287" lon="8.3850193"><ele>327.0</ele><time>2026-05-01T08:47:21.938Z</time></trkpt><trkpt lat="44.3326165" lon="8.3850328"><ele>329.0</ele><time>2026-05-01T08:47:23.938Z</time></trkpt><trkpt lat="44.3325382" lon="8.3851163"><ele>331.0</ele><time>2026-05-01T08:47:25.937Z</time></trkpt><trkpt lat="44.3325008" lon="8.3852203"><ele>331.0</ele><time>2026-05-01T08:47:27.939Z</time></trkpt><trkpt lat="44.332439" lon="8.3852444"><ele>331.0</ele><time>2026-05-01T08:47:29.939Z</time></trkpt><trkpt lat="44.3323787" lon="8.3851016"><ele>331.0</ele><time>2026-05-01T08:47:32.938Z</time></trkpt><trkpt lat="44.3323409" lon="8.3849871"><ele>331.0</ele><time>2026-05-01T08:47:33.937Z</time></trkpt><trkpt lat="44.3322907" lon="8.3848524"><ele>331.0</ele><time>2026-05-01T08:47:34.938Z</time></trkpt><trkpt lat="44.332226" lon="8.3846745"><ele>327.66666666666663</ele><time>2026-05-01T08:47:35.938Z</time></trkpt><trkpt lat="44.3321586" lon="8.3844774"><ele>324.3333333333333</ele><time>2026-05-01T08:47:36.937Z</time></trkpt><trkpt lat="44.3321073" lon="8.3842784"><ele>321.0</ele><time>2026-05-01T08:47:37.938Z</time></trkpt><trkpt lat="44.3320682" lon="8.3840706"><ele>321.0</ele><time>2026-05-01T08:47:38.938Z</time></trkpt><trkpt lat="44.3320364" lon="8.3838783"><ele>321.0</ele><time>2026-05-01T08:47:39.938Z</time></trkpt><trkpt lat="44.3320126" lon="8.3837023"><ele>321.0</ele><time>2026-05-01T08:47:40.937Z</time></trkpt><trkpt lat="44.3320088" lon="8.3835396"><ele>321.0</ele><time>2026-05-01T08:47:41.937Z</time></trkpt><trkpt lat="44.3320093" lon="8.3833751"><ele>321.0</ele><time>2026-05-01T08:47:42.938Z</time></trkpt><trkpt lat="44.3320476" lon="8.3831741"><ele>321.0</ele><time>2026-05-01T08:47:43.937Z</time></trkpt><trkpt lat="44.3321142" lon="8.3829681"><ele>321.0</ele><time>2026-05-01T08:47:44.937Z</time></trkpt><trkpt lat="44.3321694" lon="8.3827754"><ele>320.8</ele><time>2026-05-01T08:47:45.938Z</time></trkpt><trkpt lat="44.3322032" lon="8.3825969"><ele>320.6</ele><time>2026-05-01T08:47:46.938Z</time></trkpt><trkpt lat="44.332201" lon="8.3824391"><ele>320.4</ele><time>2026-05-01T08:47:47.937Z</time></trkpt><trkpt lat="44.3321921" lon="8.3822901"><ele>320.2</ele><time>2026-05-01T08:47:48.937Z</time></trkpt><trkpt lat="44.3321919" lon="8.3821599"><ele>320.0</ele><time>2026-05-01T08:47:49.938Z</time></trkpt><trkpt lat="44.3321985" lon="8.3820468"><ele>322.1666666666667</ele><time>2026-05-01T08:47:50.937Z</time></trkpt><trkpt lat="44.3322075" lon="8.3819557"><ele>324.33333333333337</ele><time>2026-05-01T08:47:51.937Z</time></trkpt><trkpt lat="44.3322454" lon="8.3818312"><ele>326.5</ele><time>2026-05-01T08:47:53.937Z</time></trkpt><trkpt lat="44.3322239" lon="8.3817217"><ele>328.6666666666667</ele><time>2026-05-01T08:47:55.938Z</time></trkpt><trkpt lat="44.3322066" lon="8.3816115"><ele>330.8333333333333</ele><time>2026-05-01T08:47:57.937Z</time></trkpt><trkpt lat="44.3321524" lon="8.3815568"><ele>333.0</ele><time>2026-05-01T08:47:59.937Z</time></trkpt><trkpt lat="44.3320982" lon="8.3815075"><ele>333.0</ele><time>2026-05-01T08:48:00.937Z</time></trkpt><trkpt lat="44.3320006" lon="8.3814431"><ele>333.0</ele><time>2026-05-01T08:48:02.939Z</time></trkpt><trkpt lat="44.33193" lon="8.3813482"><ele>333.0</ele><time>2026-05-01T08:48:04.937Z</time></trkpt><trkpt lat="44.3318516" lon="8.3812408"><ele>333.0</ele><time>2026-05-01T08:48:06.937Z</time></trkpt><trkpt lat="44.3317742" lon="8.3811221"><ele>333.0</ele><time>2026-05-01T08:48:08.937Z</time></trkpt><trkpt lat="44.3316962" lon="8.3810016"><ele>332.3333333333333</ele><time>2026-05-01T08:48:10.938Z</time></trkpt><trkpt lat="44.3316545" lon="8.3809356"><ele>331.6666666666667</ele><time>2026-05-01T08:48:11.937Z</time></trkpt><trkpt lat="44.3315669" lon="8.3808087"><ele>331.0</ele><time>2026-05-01T08:48:13.937Z</time></trkpt><trkpt lat="44.3315184" lon="8.3807475"><ele>330.33333333333337</ele><time>2026-05-01T08:48:14.937Z</time></trkpt><trkpt lat="44.3314673" lon="8.3806886"><ele>329.6666666666667</ele><time>2026-05-01T08:48:15.939Z</time></trkpt><trkpt lat="44.331419" lon="8.3806281"><ele>329.0</ele><time>2026-05-01T08:48:16.937Z</time></trkpt><trkpt lat="44.3313486" lon="8.3804848"><ele>327.33333333333337</ele><time>2026-05-01T08:48:18.939Z</time></trkpt><trkpt lat="44.3313189" lon="8.3804006"><ele>325.6666666666667</ele><time>2026-05-01T08:48:19.938Z</time></trkpt><trkpt lat="44.3312876" lon="8.380317"><ele>324.0</ele><time>2026-05-01T08:48:20.937Z</time></trkpt><trkpt lat="44.33125" lon="8.3802285"><ele>322.3333333333333</ele><time>2026-05-01T08:48:21.937Z</time></trkpt><trkpt lat="44.3311834" lon="8.3801224"><ele>320.66666666666663</ele><time>2026-05-01T08:48:22.938Z</time></trkpt><trkpt lat="44.3311007" lon="8.3800039"><ele>319.0</ele><time>2026-05-01T08:48:23.938Z</time></trkpt><trkpt lat="44.3310283" lon="8.3798816"><ele>319.0</ele><time>2026-05-01T08:48:24.937Z</time></trkpt><trkpt lat="44.3309667" lon="8.3797629"><ele>319.0</ele><time>2026-05-01T08:48:25.938Z</time></trkpt><trkpt lat="44.3309061" lon="8.3796624"><ele>319.0</ele><time>2026-05-01T08:48:26.937Z</time></trkpt><trkpt lat="44.3308397" lon="8.3795814"><ele>319.0</ele><time>2026-05-01T08:48:27.937Z</time></trkpt><trkpt lat="44.3307603" lon="8.3795172"><ele>319.0</ele><time>2026-05-01T08:48:28.937Z</time></trkpt><trkpt lat="44.3306737" lon="8.3794585"><ele>318.4</ele><time>2026-05-01T08:48:29.938Z</time></trkpt><trkpt lat="44.330581" lon="8.379407"><ele>317.79999999999995</ele><time>2026-05-01T08:48:30.937Z</time></trkpt><trkpt lat="44.3304925" lon="8.3793583"><ele>317.20000000000005</ele><time>2026-05-01T08:48:31.937Z</time></trkpt><trkpt lat="44.3304101" lon="8.3793079"><ele>316.6</ele><time>2026-05-01T08:48:32.937Z</time></trkpt><trkpt lat="44.330328" lon="8.3792612"><ele>316.0</ele><time>2026-05-01T08:48:33.939Z</time></trkpt><trkpt lat="44.3302505" lon="8.3791983"><ele>315.3333333333333</ele><time>2026-05-01T08:48:34.937Z</time></trkpt><trkpt lat="44.3301779" lon="8.3791376"><ele>314.66666666666663</ele><time>2026-05-01T08:48:35.938Z</time></trkpt><trkpt lat="44.3301069" lon="8.3790715"><ele>314.0</ele><time>2026-05-01T08:48:36.937Z</time></trkpt><trkpt lat="44.3300347" lon="8.3790229"><ele>313.3333333333333</ele><time>2026-05-01T08:48:37.937Z</time></trkpt><trkpt lat="44.3299572" lon="8.3789783"><ele>312.6666666666667</ele><time>2026-05-01T08:48:38.938Z</time></trkpt><trkpt lat="44.3298773" lon="8.3789511"><ele>312.0</ele><time>2026-05-01T08:48:39.937Z</time></trkpt><trkpt lat="44.3298004" lon="8.3789201"><ele>310.6666666666667</ele><time>2026-05-01T08:48:40.937Z</time></trkpt><trkpt lat="44.3297229" lon="8.3788934"><ele>309.3333333333333</ele><time>2026-05-01T08:48:41.938Z</time></trkpt><trkpt lat="44.3296488" lon="8.3788684"><ele>308.0</ele><time>2026-05-01T08:48:42.937Z</time></trkpt><trkpt lat="44.3295752" lon="8.3788428"><ele>306.66666666666663</ele><time>2026-05-01T08:48:43.937Z</time></trkpt><trkpt lat="44.3295026" lon="8.3788268"><ele>305.3333333333333</ele><time>2026-05-01T08:48:44.937Z</time></trkpt><trkpt lat="44.329423" lon="8.378845"><ele>304.0</ele><time>2026-05-01T08:48:45.938Z</time></trkpt><trkpt lat="44.3293368" lon="8.3788793"><ele>304.0</ele><time>2026-05-01T08:48:46.938Z</time></trkpt><trkpt lat="44.3292356" lon="8.3789264"><ele>304.0</ele><time>2026-05-01T08:48:47.938Z</time></trkpt><trkpt lat="44.3291138" lon="8.3789693"><ele>304.0</ele><time>2026-05-01T08:48:48.938Z</time></trkpt><trkpt lat="44.3289908" lon="8.3789903"><ele>304.0</ele><time>2026-05-01T08:48:49.937Z</time></trkpt><trkpt lat="44.3288689" lon="8.3789919"><ele>303.59999999999997</ele><time>2026-05-01T08:48:50.938Z</time></trkpt><trkpt lat="44.3287512" lon="8.3789986"><ele>303.2</ele><time>2026-05-01T08:48:51.938Z</time></trkpt><trkpt lat="44.3286394" lon="8.3790009"><ele>302.79999999999995</ele><time>2026-05-01T08:48:52.937Z</time></trkpt><trkpt lat="44.3285352" lon="8.378998"><ele>302.4</ele><time>2026-05-01T08:48:53.938Z</time></trkpt><trkpt lat="44.3284378" lon="8.3789879"><ele>302.0</ele><time>2026-05-01T08:48:54.937Z</time></trkpt><trkpt lat="44.3283467" lon="8.3789799"><ele>302.0</ele><time>2026-05-01T08:48:55.939Z</time></trkpt><trkpt lat="44.3282678" lon="8.3789905"><ele>302.0</ele><time>2026-05-01T08:48:56.938Z</time></trkpt><trkpt lat="44.3281997" lon="8.3790149"><ele>302.0</ele><time>2026-05-01T08:48:57.937Z</time></trkpt><trkpt lat="44.328134" lon="8.3790388"><ele>302.0</ele><time>2026-05-01T08:48:58.937Z</time></trkpt><trkpt lat="44.3280734" lon="8.3790652"><ele>302.0</ele><time>2026-05-01T08:48:59.938Z</time></trkpt><trkpt lat="44.3279543" lon="8.3791212"><ele>302.0</ele><time>2026-05-01T08:49:01.937Z</time></trkpt><trkpt lat="44.3278946" lon="8.37916"><ele>302.5</ele><time>2026-05-01T08:49:02.939Z</time></trkpt><trkpt lat="44.3278004" lon="8.3792667"><ele>303.0</ele><time>2026-05-01T08:49:04.938Z</time></trkpt><trkpt lat="44.3277515" lon="8.3793712"><ele>303.5</ele><time>2026-05-01T08:49:06.938Z</time></trkpt><trkpt lat="44.3277177" lon="8.3794562"><ele>304.0</ele><time>2026-05-01T08:49:09.938Z</time></trkpt><trkpt lat="44.327779" lon="8.3794288"><ele>304.5</ele><time>2026-05-01T08:50:31.938Z</time></trkpt><trkpt lat="44.3278232" lon="8.3793524"><ele>305.0</ele><time>2026-05-01T08:50:40.937Z</time></trkpt><trkpt lat="44.3278749" lon="8.3792824"><ele>305.0</ele><time>2026-05-01T08:50:47.937Z</time></trkpt><trkpt lat="44.3279132" lon="8.3793594"><ele>305.0</ele><time>2026-05-01T08:50:59.937Z</time></trkpt></trkseg><trkseg><trkpt lat="44.3337815" lon="8.3739189"><ele>313.0</ele><time>2026-05-01T09:47:25.943Z</time></trkpt><trkpt lat="44.3338254" lon="8.3738521"><ele>313.0</ele><time>2026-05-01T09:47:36.933Z</time></trkpt><trkpt lat="44.3338243" lon="8.3737573"><ele>313.0</ele><time>2026-05-01T09:47:43.934Z</time></trkpt><trkpt lat="44.3338666" lon="8.3736844"><ele>313.0</ele><time>2026-05-01T09:47:50.019Z</time></trkpt><trkpt lat="44.3339407" lon="8.3735909"><ele>313.0</ele><time>2026-05-01T09:48:31.934Z</time></trkpt><trkpt lat="44.3339905" lon="8.3734759"><ele>313.0</ele><time>2026-05-01T09:48:33.855Z</time></trkpt><trkpt lat="44.3340131" lon="8.373315"><ele>319.0</ele><time>2026-05-01T09:48:35.933Z</time></trkpt><trkpt lat="44.3340162" lon="8.373162"><ele>325.0</ele><time>2026-05-01T09:48:37.933Z</time></trkpt><trkpt lat="44.3340141" lon="8.3730409"><ele>331.0</ele><time>2026-05-01T09:48:39.934Z</time></trkpt><trkpt lat="44.3340845" lon="8.3731232"><ele>337.0</ele><time>2026-05-01T09:48:45.932Z</time></trkpt><trkpt lat="44.3341171" lon="8.3732739"><ele>343.0</ele><time>2026-05-01T09:48:47.933Z</time></trkpt><trkpt lat="44.3341493" lon="8.3733669"><ele>343.0</ele><time>2026-05-01T09:48:48.932Z</time></trkpt><trkpt lat="44.334188" lon="8.3734519"><ele>343.0</ele><time>2026-05-01T09:48:49.933Z</time></trkpt><trkpt lat="44.3342383" lon="8.3735563"><ele>343.0</ele><time>2026-05-01T09:48:50.932Z</time></trkpt><trkpt lat="44.3342935" lon="8.3736596"><ele>343.0</ele><time>2026-05-01T09:48:51.934Z</time></trkpt><trkpt lat="44.3343412" lon="8.3737497"><ele>343.0</ele><time>2026-05-01T09:48:52.932Z</time></trkpt><trkpt lat="44.3343843" lon="8.3738276"><ele>343.0</ele><time>2026-05-01T09:48:53.933Z</time></trkpt><trkpt lat="44.3344265" lon="8.3738931"><ele>342.5</ele><time>2026-05-01T09:48:54.932Z</time></trkpt><trkpt lat="44.3345038" lon="8.3740087"><ele>342.0</ele><time>2026-05-01T09:48:56.932Z</time></trkpt><trkpt lat="44.3345759" lon="8.3741117"><ele>341.5</ele><time>2026-05-01T09:48:58.932Z</time></trkpt><trkpt lat="44.3346531" lon="8.3742302"><ele>341.0</ele><time>2026-05-01T09:49:00.932Z</time></trkpt><trkpt lat="44.334741" lon="8.3743483"><ele>342.6666666666667</ele><time>2026-05-01T09:49:02.932Z</time></trkpt><trkpt lat="44.334805" lon="8.3744361"><ele>344.33333333333337</ele><time>2026-05-01T09:49:04.933Z</time></trkpt><trkpt lat="44.3348646" lon="8.3744897"><ele>346.0</ele><time>2026-05-01T09:49:07.932Z</time></trkpt><trkpt lat="44.334933" lon="8.3744852"><ele>347.6666666666667</ele><time>2026-05-01T09:49:27.932Z</time></trkpt><trkpt lat="44.3350107" lon="8.3743898"><ele>349.3333333333333</ele><time>2026-05-01T09:49:29.933Z</time></trkpt><trkpt lat="44.3350597" lon="8.3743098"><ele>351.0</ele><time>2026-05-01T09:49:30.933Z</time></trkpt><trkpt lat="44.3351204" lon="8.3742426"><ele>351.0</ele><time>2026-05-01T09:49:31.933Z</time></trkpt><trkpt lat="44.3351975" lon="8.3741876"><ele>351.0</ele><time>2026-05-01T09:49:32.933Z</time></trkpt><trkpt lat="44.3352954" lon="8.3741594"><ele>351.0</ele><time>2026-05-01T09:49:33.933Z</time></trkpt><trkpt lat="44.3354089" lon="8.3741583"><ele>351.0</ele><time>2026-05-01T09:49:34.932Z</time></trkpt><trkpt lat="44.3355175" lon="8.3741438"><ele>351.0</ele><time>2026-05-01T09:49:35.933Z</time></trkpt><trkpt lat="44.3356174" lon="8.3741053"><ele>349.5</ele><time>2026-05-01T09:49:36.932Z</time></trkpt><trkpt lat="44.3357055" lon="8.3740264"><ele>348.0</ele><time>2026-05-01T09:49:37.933Z</time></trkpt><trkpt lat="44.3357844" lon="8.373913"><ele>346.5</ele><time>2026-05-01T09:49:38.933Z</time></trkpt><trkpt lat="44.3358374" lon="8.3737737"><ele>345.0</ele><time>2026-05-01T09:49:39.932Z</time></trkpt><trkpt lat="44.335866" lon="8.3736072"><ele>345.0</ele><time>2026-05-01T09:49:40.933Z</time></trkpt><trkpt lat="44.3358785" lon="8.3734166"><ele>345.0</ele><time>2026-05-01T09:49:41.932Z</time></trkpt><trkpt lat="44.3358948" lon="8.373211"><ele>345.0</ele><time>2026-05-01T09:49:42.934Z</time></trkpt><trkpt lat="44.3359057" lon="8.3729638"><ele>343.3333333333333</ele><time>2026-05-01T09:49:43.934Z</time></trkpt><trkpt lat="44.3359281" lon="8.3727275"><ele>341.66666666666663</ele><time>2026-05-01T09:49:44.932Z</time></trkpt><trkpt lat="44.3359555" lon="8.3725099"><ele>340.0</ele><time>2026-05-01T09:49:45.932Z</time></trkpt><trkpt lat="44.3359776" lon="8.3723135"><ele>339.0</ele><time>2026-05-01T09:49:46.932Z</time></trkpt><trkpt lat="44.3360087" lon="8.3721289"><ele>338.0</ele><time>2026-05-01T09:49:47.934Z</time></trkpt><trkpt lat="44.3360443" lon="8.3719603"><ele>337.0</ele><time>2026-05-01T09:49:48.934Z</time></trkpt><trkpt lat="44.336073" lon="8.3718005"><ele>336.0</ele><time>2026-05-01T09:49:49.932Z</time></trkpt><trkpt lat="44.3361064" lon="8.3716585"><ele>336.0</ele><time>2026-05-01T09:49:50.933Z</time></trkpt><trkpt lat="44.3361497" lon="8.371535"><ele>336.0</ele><time>2026-05-01T09:49:51.933Z</time></trkpt><trkpt lat="44.3361943" lon="8.3714131"><ele>336.0</ele><time>2026-05-01T09:49:52.932Z</time></trkpt><trkpt lat="44.3362371" lon="8.3712844"><ele>336.0</ele><time>2026-05-01T09:49:53.933Z</time></trkpt><trkpt lat="44.3362933" lon="8.3711382"><ele>336.0</ele><time>2026-05-01T09:49:54.933Z</time></trkpt><trkpt lat="44.3363572" lon="8.3709843"><ele>337.0</ele><time>2026-05-01T09:49:55.933Z</time></trkpt><trkpt lat="44.3364311" lon="8.3708321"><ele>338.0</ele><time>2026-05-01T09:49:56.933Z</time></trkpt><trkpt lat="44.3365099" lon="8.3706841"><ele>339.0</ele><time>2026-05-01T09:49:57.933Z</time></trkpt><trkpt lat="44.3365822" lon="8.3705478"><ele>340.0</ele><time>2026-05-01T09:49:58.933Z</time></trkpt><trkpt lat="44.3366524" lon="8.3704159"><ele>341.5</ele><time>2026-05-01T09:49:59.932Z</time></trkpt><trkpt lat="44.336716" lon="8.3702777"><ele>343.0</ele><time>2026-05-01T09:50:00.933Z</time></trkpt><trkpt lat="44.3367628" lon="8.3701287"><ele>344.5</ele><time>2026-05-01T09:50:01.934Z</time></trkpt><trkpt lat="44.3367975" lon="8.3699712"><ele>346.0</ele><time>2026-05-01T09:50:02.933Z</time></trkpt><trkpt lat="44.3368086" lon="8.3698067"><ele>347.25</ele><time>2026-05-01T09:50:03.933Z</time></trkpt><trkpt lat="44.3367969" lon="8.3696377"><ele>348.5</ele><time>2026-05-01T09:50:04.933Z</time></trkpt><trkpt lat="44.3367713" lon="8.3694705"><ele>349.75</ele><time>2026-05-01T09:50:05.933Z</time></trkpt><trkpt lat="44.3367175" lon="8.3693114"><ele>351.0</ele><time>2026-05-01T09:50:06.934Z</time></trkpt><trkpt lat="44.33665" lon="8.3691596"><ele>351.0</ele><time>2026-05-01T09:50:07.933Z</time></trkpt><trkpt lat="44.3365746" lon="8.3690174"><ele>351.0</ele><time>2026-05-01T09:50:08.933Z</time></trkpt><trkpt lat="44.3364868" lon="8.3688919"><ele>351.0</ele><time>2026-05-01T09:50:09.932Z</time></trkpt><trkpt lat="44.3363788" lon="8.3687899"><ele>351.0</ele><time>2026-05-01T09:50:10.932Z</time></trkpt><trkpt lat="44.3362628" lon="8.3687033"><ele>353.0</ele><time>2026-05-01T09:50:11.933Z</time></trkpt><trkpt lat="44.3361486" lon="8.3686305"><ele>355.0</ele><time>2026-05-01T09:50:12.933Z</time></trkpt><trkpt lat="44.3360311" lon="8.3685446"><ele>357.0</ele><time>2026-05-01T09:50:13.933Z</time></trkpt><trkpt lat="44.3359202" lon="8.368458"><ele>359.0</ele><time>2026-05-01T09:50:14.932Z</time></trkpt><trkpt lat="44.3358113" lon="8.3683657"><ele>359.0</ele><time>2026-05-01T09:50:15.933Z</time></trkpt><trkpt lat="44.3357232" lon="8.3682519"><ele>359.0</ele><time>2026-05-01T09:50:16.932Z</time></trkpt><trkpt lat="44.335644" lon="8.3681332"><ele>359.0</ele><time>2026-05-01T09:50:17.933Z</time></trkpt><trkpt lat="44.3355645" lon="8.3680063"><ele>359.0</ele><time>2026-05-01T09:50:18.932Z</time></trkpt><trkpt lat="44.3354958" lon="8.3678669"><ele>355.75</ele><time>2026-05-01T09:50:19.932Z</time></trkpt><trkpt lat="44.3354567" lon="8.3677215"><ele>352.5</ele><time>2026-05-01T09:50:20.932Z</time></trkpt><trkpt lat="44.335422" lon="8.3675678"><ele>349.25</ele><time>2026-05-01T09:50:21.933Z</time></trkpt><trkpt lat="44.3353964" lon="8.3674107"><ele>346.0</ele><time>2026-05-01T09:50:22.933Z</time></trkpt><trkpt lat="44.3353845" lon="8.3672497"><ele>347.25</ele><time>2026-05-01T09:50:23.934Z</time></trkpt><trkpt lat="44.3353915" lon="8.367088"><ele>348.5</ele><time>2026-05-01T09:50:24.934Z</time></trkpt><trkpt lat="44.3353909" lon="8.3669213"><ele>349.75</ele><time>2026-05-01T09:50:25.932Z</time></trkpt><trkpt lat="44.3353901" lon="8.3667556"><ele>351.0</ele><time>2026-05-01T09:50:26.933Z</time></trkpt><trkpt lat="44.3353854" lon="8.3665979"><ele>351.0</ele><time>2026-05-01T09:50:27.932Z</time></trkpt><trkpt lat="44.3353838" lon="8.366435"><ele>351.0</ele><time>2026-05-01T09:50:28.933Z</time></trkpt><trkpt lat="44.3353751" lon="8.3662753"><ele>351.0</ele><time>2026-05-01T09:50:29.933Z</time></trkpt><trkpt lat="44.3353482" lon="8.3661066"><ele>351.0</ele><time>2026-05-01T09:50:30.933Z</time></trkpt><trkpt lat="44.3353066" lon="8.3659427"><ele>355.25</ele><time>2026-05-01T09:50:31.932Z</time></trkpt><trkpt lat="44.3352453" lon="8.3657855"><ele>359.5</ele><time>2026-05-01T09:50:32.932Z</time></trkpt><trkpt lat="44.3351712" lon="8.365641"><ele>363.75</ele><time>2026-05-01T09:50:33.933Z</time></trkpt><trkpt lat="44.3351048" lon="8.3654967"><ele>368.0</ele><time>2026-05-01T09:50:34.934Z</time></trkpt><trkpt lat="44.3350565" lon="8.365338"><ele>367.5</ele><time>2026-05-01T09:50:35.933Z</time></trkpt><trkpt lat="44.335031" lon="8.3651686"><ele>367.0</ele><time>2026-05-01T09:50:36.932Z</time></trkpt><trkpt lat="44.3350421" lon="8.3649781"><ele>366.5</ele><time>2026-05-01T09:50:37.932Z</time></trkpt><trkpt lat="44.3350786" lon="8.3647705"><ele>366.0</ele><time>2026-05-01T09:50:38.934Z</time></trkpt><trkpt lat="44.3351326" lon="8.3645646"><ele>366.0</ele><time>2026-05-01T09:50:39.932Z</time></trkpt><trkpt lat="44.3351866" lon="8.3643615"><ele>366.0</ele><time>2026-05-01T09:50:40.932Z</time></trkpt><trkpt lat="44.3352399" lon="8.3641649"><ele>366.0</ele><time>2026-05-01T09:50:41.932Z</time></trkpt><trkpt lat="44.3352871" lon="8.3639778"><ele>366.0</ele><time>2026-05-01T09:50:42.933Z</time></trkpt><trkpt lat="44.3353089" lon="8.3637903"><ele>367.5</ele><time>2026-05-01T09:50:43.933Z</time></trkpt><trkpt lat="44.3353024" lon="8.3636118"><ele>369.0</ele><time>2026-05-01T09:50:44.932Z</time></trkpt><trkpt lat="44.3352757" lon="8.3634462"><ele>370.5</ele><time>2026-05-01T09:50:45.933Z</time></trkpt><trkpt lat="44.3352444" lon="8.3632879"><ele>372.0</ele><time>2026-05-01T09:50:46.932Z</time></trkpt><trkpt lat="44.3352086" lon="8.3631428"><ele>374.20000000000005</ele><time>2026-05-01T09:50:47.932Z</time></trkpt><trkpt lat="44.3351719" lon="8.3630034"><ele>376.4</ele><time>2026-05-01T09:50:48.932Z</time></trkpt><trkpt lat="44.3351364" lon="8.3628643"><ele>378.6</ele><time>2026-05-01T09:50:49.933Z</time></trkpt><trkpt lat="44.3350993" lon="8.3627154"><ele>380.79999999999995</ele><time>2026-05-01T09:50:50.933Z</time></trkpt><trkpt lat="44.3350656" lon="8.3625637"><ele>383.0</ele><time>2026-05-01T09:50:51.932Z</time></trkpt><trkpt lat="44.3350258" lon="8.3623896"><ele>387.5</ele><time>2026-05-01T09:50:52.933Z</time></trkpt><trkpt lat="44.3349781" lon="8.3621959"><ele>392.0</ele><time>2026-05-01T09:50:53.932Z</time></trkpt><trkpt lat="44.3349359" lon="8.3620168"><ele>396.5</ele><time>2026-05-01T09:50:54.934Z</time></trkpt><trkpt lat="44.3348968" lon="8.3618636"><ele>401.0</ele><time>2026-05-01T09:50:55.933Z</time></trkpt><trkpt lat="44.3348592" lon="8.3617192"><ele>401.0</ele><time>2026-05-01T09:50:56.932Z</time></trkpt><trkpt lat="44.3348213" lon="8.3615748"><ele>401.0</ele><time>2026-05-01T09:50:57.932Z</time></trkpt><trkpt lat="44.3347819" lon="8.3614198"><ele>401.0</ele><time>2026-05-01T09:50:58.932Z</time></trkpt><trkpt lat="44.3347333" lon="8.3612435"><ele>401.0</ele><time>2026-05-01T09:50:59.933Z</time></trkpt><trkpt lat="44.3346919" lon="8.3610419"><ele>395.3333333333333</ele><time>2026-05-01T09:51:00.933Z</time></trkpt><trkpt lat="44.3346626" lon="8.3608299"><ele>389.66666666666663</ele><time>2026-05-01T09:51:01.932Z</time></trkpt><trkpt lat="44.3346473" lon="8.3606137"><ele>384.0</ele><time>2026-05-01T09:51:02.933Z</time></trkpt><trkpt lat="44.3346509" lon="8.3604053"><ele>379.6666666666667</ele><time>2026-05-01T09:51:03.932Z</time></trkpt><trkpt lat="44.3346706" lon="8.3601971"><ele>375.33333333333337</ele><time>2026-05-01T09:51:04.932Z</time></trkpt><trkpt lat="44.334705" lon="8.3599985"><ele>371.0</ele><time>2026-05-01T09:51:05.932Z</time></trkpt><trkpt lat="44.3347492" lon="8.3597876"><ele>381.33333333333337</ele><time>2026-05-01T09:51:06.932Z</time></trkpt><trkpt lat="44.3347925" lon="8.3595807"><ele>391.6666666666667</ele><time>2026-05-01T09:51:07.932Z</time></trkpt><trkpt lat="44.3348418" lon="8.3593739"><ele>402.0</ele><time>2026-05-01T09:51:08.932Z</time></trkpt><trkpt lat="44.3348881" lon="8.3591755"><ele>402.0</ele><time>2026-05-01T09:51:09.933Z</time></trkpt><trkpt lat="44.3349281" lon="8.3589949"><ele>402.0</ele><time>2026-05-01T09:51:10.932Z</time></trkpt><trkpt lat="44.3349658" lon="8.3588298"><ele>402.0</ele><time>2026-05-01T09:51:11.933Z</time></trkpt><trkpt lat="44.3350056" lon="8.3586879"><ele>402.0</ele><time>2026-05-01T09:51:12.933Z</time></trkpt><trkpt lat="44.3350398" lon="8.3585672"><ele>402.1666666666667</ele><time>2026-05-01T09:51:13.932Z</time></trkpt><trkpt lat="44.3350689" lon="8.3584563"><ele>402.33333333333337</ele><time>2026-05-01T09:51:14.932Z</time></trkpt><trkpt lat="44.3350936" lon="8.3583472"><ele>402.5</ele><time>2026-05-01T09:51:15.931Z</time></trkpt><trkpt lat="44.3351206" lon="8.358248"><ele>402.6666666666667</ele><time>2026-05-01T09:51:16.932Z</time></trkpt><trkpt lat="44.335143" lon="8.3581635"><ele>402.83333333333337</ele><time>2026-05-01T09:51:17.932Z</time></trkpt><trkpt lat="44.335133" lon="8.3579789"><ele>403.0</ele><time>2026-05-01T09:51:19.932Z</time></trkpt><trkpt lat="44.3350853" lon="8.3578805"><ele>403.0</ele><time>2026-05-01T09:51:20.933Z</time></trkpt><trkpt lat="44.3350163" lon="8.3577712"><ele>403.0</ele><time>2026-05-01T09:51:21.932Z</time></trkpt><trkpt lat="44.3349561" lon="8.3576504"><ele>403.0</ele><time>2026-05-01T09:51:22.933Z</time></trkpt><trkpt lat="44.3349027" lon="8.3574913"><ele>403.0</ele><time>2026-05-01T09:51:23.933Z</time></trkpt><trkpt lat="44.3348546" lon="8.3572857"><ele>406.33333333333337</ele><time>2026-05-01T09:51:24.932Z</time></trkpt><trkpt lat="44.3347984" lon="8.3570392"><ele>409.66666666666663</ele><time>2026-05-01T09:51:25.933Z</time></trkpt><trkpt lat="44.334736" lon="8.3567713"><ele>413.0</ele><time>2026-05-01T09:51:26.932Z</time></trkpt><trkpt lat="44.3346817" lon="8.3565292"><ele>409.75</ele><time>2026-05-01T09:51:27.932Z</time></trkpt><trkpt lat="44.3346337" lon="8.35631"><ele>406.5</ele><time>2026-05-01T09:51:28.932Z</time></trkpt><trkpt lat="44.334593" lon="8.3561203"><ele>403.25</ele><time>2026-05-01T09:51:29.932Z</time></trkpt><trkpt lat="44.3345587" lon="8.3559465"><ele>400.0</ele><time>2026-05-01T09:51:30.933Z</time></trkpt><trkpt lat="44.3345159" lon="8.3557685"><ele>400.0</ele><time>2026-05-01T09:51:31.932Z</time></trkpt><trkpt lat="44.3344733" lon="8.3555519"><ele>400.0</ele><time>2026-05-01T09:51:32.932Z</time></trkpt><trkpt lat="44.3344166" lon="8.3553253"><ele>400.0</ele><time>2026-05-01T09:51:33.932Z</time></trkpt><trkpt lat="44.3343671" lon="8.355113"><ele>403.5</ele><time>2026-05-01T09:51:34.932Z</time></trkpt><trkpt lat="44.3343155" lon="8.3549225"><ele>407.0</ele><time>2026-05-01T09:51:35.933Z</time></trkpt><trkpt lat="44.3342446" lon="8.3547496"><ele>410.5</ele><time>2026-05-01T09:51:36.933Z</time></trkpt><trkpt lat="44.3341424" lon="8.3545916"><ele>414.0</ele><time>2026-05-01T09:51:37.933Z</time></trkpt><trkpt lat="44.3340209" lon="8.3544564"><ele>415.5</ele><time>2026-05-01T09:51:38.932Z</time></trkpt><trkpt lat="44.3339007" lon="8.354342"><ele>417.0</ele><time>2026-05-01T09:51:39.933Z</time></trkpt><trkpt lat="44.333791" lon="8.3542461"><ele>418.5</ele><time>2026-05-01T09:51:40.933Z</time></trkpt><trkpt lat="44.3336901" lon="8.3541753"><ele>420.0</ele><time>2026-05-01T09:51:41.933Z</time></trkpt><trkpt lat="44.3336017" lon="8.3541105"><ele>420.0</ele><time>2026-05-01T09:51:42.932Z</time></trkpt><trkpt lat="44.3335188" lon="8.3540382"><ele>420.0</ele><time>2026-05-01T09:51:43.932Z</time></trkpt><trkpt lat="44.3334407" lon="8.3539717"><ele>420.0</ele><time>2026-05-01T09:51:44.932Z</time></trkpt><trkpt lat="44.3333712" lon="8.3539193"><ele>420.0</ele><time>2026-05-01T09:51:45.932Z</time></trkpt><trkpt lat="44.3333109" lon="8.3538682"><ele>420.0</ele><time>2026-05-01T09:51:46.933Z</time></trkpt><trkpt lat="44.3332131" lon="8.3538071"><ele>420.0</ele><time>2026-05-01T09:51:48.932Z</time></trkpt><trkpt lat="44.3331456" lon="8.3537776"><ele>423.8</ele><time>2026-05-01T09:51:50.932Z</time></trkpt><trkpt lat="44.3330842" lon="8.3537315"><ele>427.6</ele><time>2026-05-01T09:53:22.934Z</time></trkpt><trkpt lat="44.3329871" lon="8.3536696"><ele>431.4</ele><time>2026-05-01T09:53:24.933Z</time></trkpt><trkpt lat="44.3329102" lon="8.353623"><ele>435.2</ele><time>2026-05-01T09:53:25.932Z</time></trkpt><trkpt lat="44.3328354" lon="8.3535707"><ele>439.0</ele><time>2026-05-01T09:53:26.931Z</time></trkpt><trkpt lat="44.3327512" lon="8.3534709"><ele>441.00000000000006</ele><time>2026-05-01T09:53:27.934Z</time></trkpt><trkpt lat="44.3326821" lon="8.3533775"><ele>443.0</ele><time>2026-05-01T09:53:28.932Z</time></trkpt><trkpt lat="44.3326204" lon="8.3532809"><ele>445.0</ele><time>2026-05-01T09:53:29.933Z</time></trkpt><trkpt lat="44.332582" lon="8.3531803"><ele>447.0</ele><time>2026-05-01T09:53:30.931Z</time></trkpt><trkpt lat="44.332555" lon="8.3530703"><ele>449.00000000000006</ele><time>2026-05-01T09:53:31.932Z</time></trkpt><trkpt lat="44.3325281" lon="8.3529596"><ele>451.0</ele><time>2026-05-01T09:53:32.934Z</time></trkpt><trkpt lat="44.3325886" lon="8.3507613"><ele>450.8</ele><time>2026-05-01T09:53:44.932Z</time></trkpt><trkpt lat="44.3325687" lon="8.3506503"><ele>450.6</ele><time>2026-05-01T09:53:45.933Z</time></trkpt><trkpt lat="44.3325044" lon="8.3505256"><ele>450.4</ele><time>2026-05-01T09:53:46.933Z</time></trkpt><trkpt lat="44.332435" lon="8.3504019"><ele>450.2</ele><time>2026-05-01T09:53:47.932Z</time></trkpt><trkpt lat="44.3323476" lon="8.3502906"><ele>450.0</ele><time>2026-05-01T09:53:48.932Z</time></trkpt><trkpt lat="44.3322699" lon="8.350175"><ele>449.2</ele><time>2026-05-01T09:53:49.932Z</time></trkpt><trkpt lat="44.3321945" lon="8.3500789"><ele>448.4</ele><time>2026-05-01T09:53:50.933Z</time></trkpt><trkpt lat="44.3321215" lon="8.3499901"><ele>447.6</ele><time>2026-05-01T09:53:51.932Z</time></trkpt><trkpt lat="44.3320571" lon="8.3499189"><ele>446.8</ele><time>2026-05-01T09:53:52.932Z</time></trkpt><trkpt lat="44.3319801" lon="8.3498758"><ele>446.0</ele><time>2026-05-01T09:53:53.933Z</time></trkpt><trkpt lat="44.3318866" lon="8.3498385"><ele>446.0</ele><time>2026-05-01T09:53:54.932Z</time></trkpt><trkpt lat="44.3317854" lon="8.349807"><ele>446.0</ele><time>2026-05-01T09:53:55.932Z</time></trkpt><trkpt lat="44.3316862" lon="8.3497836"><ele>446.0</ele><time>2026-05-01T09:53:56.932Z</time></trkpt><trkpt lat="44.3315924" lon="8.3497847"><ele>446.0</ele><time>2026-05-01T09:53:57.933Z</time></trkpt><trkpt lat="44.3314665" lon="8.3498583"><ele>446.0</ele><time>2026-05-01T09:53:58.932Z</time></trkpt><trkpt lat="44.3313425" lon="8.3499419"><ele>444.0</ele><time>2026-05-01T09:53:59.932Z</time></trkpt><trkpt lat="44.3312125" lon="8.3500178"><ele>442.0</ele><time>2026-05-01T09:54:00.932Z</time></trkpt><trkpt lat="44.3310763" lon="8.3500898"><ele>440.0</ele><time>2026-05-01T09:54:01.933Z</time></trkpt><trkpt lat="44.3309493" lon="8.3501489"><ele>438.0</ele><time>2026-05-01T09:54:02.932Z</time></trkpt><trkpt lat="44.3308332" lon="8.3502038"><ele>438.0</ele><time>2026-05-01T09:54:03.932Z</time></trkpt><trkpt lat="44.3307286" lon="8.3502644"><ele>438.0</ele><time>2026-05-01T09:54:04.932Z</time></trkpt><trkpt lat="44.3306273" lon="8.3503584"><ele>438.0</ele><time>2026-05-01T09:54:05.933Z</time></trkpt><trkpt lat="44.3305251" lon="8.3504721"><ele>438.0</ele><time>2026-05-01T09:54:06.932Z</time></trkpt><trkpt lat="44.3304229" lon="8.3505832"><ele>440.25</ele><time>2026-05-01T09:54:07.932Z</time></trkpt><trkpt lat="44.3303249" lon="8.3506817"><ele>442.5</ele><time>2026-05-01T09:54:08.932Z</time></trkpt><trkpt lat="44.3302258" lon="8.3507695"><ele>444.75</ele><time>2026-05-01T09:54:09.933Z</time></trkpt><trkpt lat="44.3301247" lon="8.350851"><ele>447.0</ele><time>2026-05-01T09:54:10.932Z</time></trkpt><trkpt lat="44.3300214" lon="8.3509215"><ele>447.0</ele><time>2026-05-01T09:54:11.933Z</time></trkpt><trkpt lat="44.3299265" lon="8.3509759"><ele>447.00000000000006</ele><time>2026-05-01T09:54:12.933Z</time></trkpt><trkpt lat="44.3298396" lon="8.351022"><ele>447.00000000000006</ele><time>2026-05-01T09:54:13.933Z</time></trkpt><trkpt lat="44.3297662" lon="8.3510594"><ele>447.0</ele><time>2026-05-01T09:54:14.932Z</time></trkpt><trkpt lat="44.3297019" lon="8.3510941"><ele>447.0</ele><time>2026-05-01T09:54:15.932Z</time></trkpt><trkpt lat="44.3295923" lon="8.3511824"><ele>448.57142857142856</ele><time>2026-05-01T09:54:17.932Z</time></trkpt><trkpt lat="44.3295329" lon="8.3512335"><ele>450.1428571428571</ele><time>2026-05-01T09:54:18.933Z</time></trkpt><trkpt lat="44.3294708" lon="8.3512744"><ele>451.71428571428567</ele><time>2026-05-01T09:54:19.933Z</time></trkpt><trkpt lat="44.329404" lon="8.3513009"><ele>453.2857142857143</ele><time>2026-05-01T09:54:20.932Z</time></trkpt><trkpt lat="44.3293358" lon="8.3513121"><ele>454.8571428571429</ele><time>2026-05-01T09:54:21.933Z</time></trkpt><trkpt lat="44.3292568" lon="8.3513064"><ele>456.4285714285714</ele><time>2026-05-01T09:54:22.932Z</time></trkpt><trkpt lat="44.3291771" lon="8.3512833"><ele>458.0</ele><time>2026-05-01T09:54:23.933Z</time></trkpt><trkpt lat="44.3291066" lon="8.3512582"><ele>457.99999999999994</ele><time>2026-05-01T09:54:24.932Z</time></trkpt><trkpt lat="44.3290377" lon="8.3512335"><ele>458.0</ele><time>2026-05-01T09:54:25.932Z</time></trkpt><trkpt lat="44.3289617" lon="8.3512093"><ele>458.0</ele><time>2026-05-01T09:54:26.932Z</time></trkpt><trkpt lat="44.3288706" lon="8.3511839"><ele>458.0</ele><time>2026-05-01T09:54:27.933Z</time></trkpt><trkpt lat="44.3287665" lon="8.3511583"><ele>457.99999999999994</ele><time>2026-05-01T09:54:28.932Z</time></trkpt><trkpt lat="44.3286707" lon="8.3511337"><ele>458.0</ele><time>2026-05-01T09:54:29.933Z</time></trkpt><trkpt lat="44.3285912" lon="8.3511089"><ele>458.71428571428567</ele><time>2026-05-01T09:54:30.933Z</time></trkpt><trkpt lat="44.3285286" lon="8.3510847"><ele>459.42857142857144</ele><time>2026-05-01T09:54:31.933Z</time></trkpt><trkpt lat="44.3284563" lon="8.3510572"><ele>460.1428571428571</ele><time>2026-05-01T09:54:33.933Z</time></trkpt><trkpt lat="44.3283945" lon="8.3510374"><ele>460.85714285714283</ele><time>2026-05-01T09:54:39.932Z</time></trkpt><trkpt lat="44.3283412" lon="8.3510856"><ele>461.57142857142856</ele><time>2026-05-01T09:54:46.932Z</time></trkpt><trkpt lat="44.3284063" lon="8.3511007"><ele>462.2857142857143</ele><time>2026-05-01T09:54:49.932Z</time></trkpt><trkpt lat="44.3284739" lon="8.3510807"><ele>463.0</ele><time>2026-05-01T09:54:51.932Z</time></trkpt><trkpt lat="44.3286009" lon="8.3511154"><ele>463.0</ele><time>2026-05-01T09:54:53.932Z</time></trkpt><trkpt lat="44.3286808" lon="8.3511441"><ele>462.99999999999994</ele><time>2026-05-01T09:54:54.932Z</time></trkpt><trkpt lat="44.3287732" lon="8.3511665"><ele>462.99999999999994</ele><time>2026-05-01T09:54:55.932Z</time></trkpt><trkpt lat="44.3288721" lon="8.351191"><ele>463.0</ele><time>2026-05-01T09:54:56.932Z</time></trkpt><trkpt lat="44.3289668" lon="8.3512215"><ele>463.0</ele><time>2026-05-01T09:54:57.932Z</time></trkpt><trkpt lat="44.3290633" lon="8.3512528"><ele>462.0</ele><time>2026-05-01T09:54:58.932Z</time></trkpt><trkpt lat="44.3291597" lon="8.3512841"><ele>460.99999999999994</ele><time>2026-05-01T09:54:59.933Z</time></trkpt><trkpt lat="44.3292533" lon="8.3513087"><ele>459.99999999999994</ele><time>2026-05-01T09:55:00.933Z</time></trkpt><trkpt lat="44.3293417" lon="8.3513179"><ele>459.0</ele><time>2026-05-01T09:55:01.931Z</time></trkpt><trkpt lat="44.3294252" lon="8.3513034"><ele>458.0</ele><time>2026-05-01T09:55:02.933Z</time></trkpt><trkpt lat="44.3295091" lon="8.3512732"><ele>457.99999999999994</ele><time>2026-05-01T09:55:03.932Z</time></trkpt><trkpt lat="44.3295872" lon="8.3512151"><ele>458.0</ele><time>2026-05-01T09:55:04.933Z</time></trkpt><trkpt lat="44.3296496" lon="8.3511582"><ele>458.0</ele><time>2026-05-01T09:55:05.933Z</time></trkpt><trkpt lat="44.3297551" lon="8.3510887"><ele>458.0</ele><time>2026-05-01T09:55:07.931Z</time></trkpt><trkpt lat="44.3298337" lon="8.3510514"><ele>457.99999999999994</ele><time>2026-05-01T09:55:09.933Z</time></trkpt><trkpt lat="44.329821" lon="8.3509601"><ele>458.0</ele><time>2026-05-01T09:55:14.932Z</time></trkpt><trkpt lat="44.3297656" lon="8.3509012"><ele>458.0</ele><time>2026-05-01T09:55:16.933Z</time></trkpt><trkpt lat="44.3297242" lon="8.3508027"><ele>457.99999999999994</ele><time>2026-05-01T09:55:18.932Z</time></trkpt><trkpt lat="44.3297123" lon="8.3507106"><ele>457.99999999999994</ele><time>2026-05-01T09:55:19.931Z</time></trkpt><trkpt lat="44.3297169" lon="8.3505488"><ele>458.0</ele><time>2026-05-01T09:55:21.932Z</time></trkpt><trkpt lat="44.3297403" lon="8.3503705"><ele>458.0</ele><time>2026-05-01T09:55:23.934Z</time></trkpt><trkpt lat="44.3297706" lon="8.3501968"><ele>457.79999999999995</ele><time>2026-05-01T09:55:25.933Z</time></trkpt><trkpt lat="44.3297897" lon="8.3500409"><ele>457.59999999999997</ele><time>2026-05-01T09:55:27.931Z</time></trkpt><trkpt lat="44.3298138" lon="8.349904"><ele>457.40000000000003</ele><time>2026-05-01T09:55:29.932Z</time></trkpt><trkpt lat="44.3298154" lon="8.3497839"><ele>457.20000000000005</ele><time>2026-05-01T09:55:32.933Z</time></trkpt><trkpt lat="44.3297579" lon="8.3497"><ele>457.0</ele><time>2026-05-01T09:55:34.932Z</time></trkpt><trkpt lat="44.3296991" lon="8.3496493"><ele>456.50000000000006</ele><time>2026-05-01T09:55:35.933Z</time></trkpt><trkpt lat="44.329604" lon="8.3495693"><ele>456.0</ele><time>2026-05-01T09:55:37.931Z</time></trkpt><trkpt lat="44.3295192" lon="8.3494977"><ele>455.5</ele><time>2026-05-01T09:55:39.933Z</time></trkpt><trkpt lat="44.3294593" lon="8.3494617"><ele>455.0</ele><time>2026-05-01T09:55:40.931Z</time></trkpt><trkpt lat="44.3294017" lon="8.3494052"><ele>454.50000000000006</ele><time>2026-05-01T09:55:41.933Z</time></trkpt><trkpt lat="44.3293399" lon="8.3493625"><ele>454.0</ele><time>2026-05-01T09:55:42.932Z</time></trkpt><trkpt lat="44.3292689" lon="8.349315"><ele>454.00000000000006</ele><time>2026-05-01T09:55:43.931Z</time></trkpt><trkpt lat="44.3292116" lon="8.3492756"><ele>454.0</ele><time>2026-05-01T09:55:44.932Z</time></trkpt><trkpt lat="44.3291525" lon="8.3492276"><ele>454.0</ele><time>2026-05-01T09:55:45.933Z</time></trkpt><trkpt lat="44.3290528" lon="8.3491438"><ele>454.0</ele><time>2026-05-01T09:55:47.933Z</time></trkpt><trkpt lat="44.3289703" lon="8.3490598"><ele>454.00000000000006</ele><time>2026-05-01T09:55:49.932Z</time></trkpt><trkpt lat="44.3288898" lon="8.3490007"><ele>454.0</ele><time>2026-05-01T09:55:50.932Z</time></trkpt><trkpt lat="44.3288327" lon="8.3489485"><ele>456.2</ele><time>2026-05-01T09:55:51.932Z</time></trkpt><trkpt lat="44.3287435" lon="8.3488587"><ele>458.4</ele><time>2026-05-01T09:55:53.931Z</time></trkpt><trkpt lat="44.3286721" lon="8.348754"><ele>460.6</ele><time>2026-05-01T09:55:55.933Z</time></trkpt><trkpt lat="44.3285995" lon="8.3486524"><ele>462.8</ele><time>2026-05-01T09:55:57.932Z</time></trkpt><trkpt lat="44.3285374" lon="8.3485412"><ele>465.0</ele><time>2026-05-01T09:55:59.931Z</time></trkpt><trkpt lat="44.3284952" lon="8.3484561"><ele>465.0</ele><time>2026-05-01T09:56:00.933Z</time></trkpt><trkpt lat="44.3284317" lon="8.3483418"><ele>465.0</ele><time>2026-05-01T09:56:02.933Z</time></trkpt><trkpt lat="44.3283852" lon="8.3482283"><ele>465.0</ele><time>2026-05-01T09:56:04.931Z</time></trkpt><trkpt lat="44.3283882" lon="8.3480961"><ele>465.0</ele><time>2026-05-01T09:56:07.931Z</time></trkpt><trkpt lat="44.3283912" lon="8.3479997"><ele>465.0</ele><time>2026-05-01T09:56:09.932Z</time></trkpt><trkpt lat="44.3284497" lon="8.3479668"><ele>465.0</ele><time>2026-05-01T09:56:20.932Z</time></trkpt><trkpt lat="44.3283784" lon="8.3479736"><ele>465.0</ele><time>2026-05-01T09:57:57.933Z</time></trkpt><trkpt lat="44.3283564" lon="8.3480817"><ele>465.0</ele><time>2026-05-01T09:58:00.932Z</time></trkpt><trkpt lat="44.3283524" lon="8.3482134"><ele>465.0</ele><time>2026-05-01T09:58:03.931Z</time></trkpt><trkpt lat="44.3283792" lon="8.3482956"><ele>465.0</ele><time>2026-05-01T09:58:05.931Z</time></trkpt><trkpt lat="44.3284503" lon="8.3483892"><ele>465.0</ele><time>2026-05-01T09:58:07.931Z</time></trkpt><trkpt lat="44.3285137" lon="8.3485193"><ele>465.0</ele><time>2026-05-01T09:58:09.932Z</time></trkpt><trkpt lat="44.3285755" lon="8.3486196"><ele>465.0</ele><time>2026-05-01T09:58:11.931Z</time></trkpt><trkpt lat="44.3286417" lon="8.3487216"><ele>465.0</ele><time>2026-05-01T09:58:13.931Z</time></trkpt><trkpt lat="44.3287169" lon="8.3487968"><ele>465.0</ele><time>2026-05-01T09:58:15.932Z</time></trkpt><trkpt lat="44.328807" lon="8.3488529"><ele>465.0</ele><time>2026-05-01T09:58:17.933Z</time></trkpt><trkpt lat="44.3288883" lon="8.3489259"><ele>462.8</ele><time>2026-05-01T09:58:19.932Z</time></trkpt><trkpt lat="44.3289616" lon="8.3490127"><ele>460.6</ele><time>2026-05-01T09:58:21.931Z</time></trkpt><trkpt lat="44.3290433" lon="8.3491057"><ele>458.4</ele><time>2026-05-01T09:58:23.932Z</time></trkpt><trkpt lat="44.3290997" lon="8.3491538"><ele>456.2</ele><time>2026-05-01T09:58:24.931Z</time></trkpt><trkpt lat="44.3292091" lon="8.3492671"><ele>454.0</ele><time>2026-05-01T09:58:26.932Z</time></trkpt><trkpt lat="44.3292718" lon="8.3493117"><ele>454.0</ele><time>2026-05-01T09:58:27.932Z</time></trkpt><trkpt lat="44.3293772" lon="8.3494098"><ele>454.0</ele><time>2026-05-01T09:58:29.931Z</time></trkpt><trkpt lat="44.3294788" lon="8.3494959"><ele>454.0</ele><time>2026-05-01T09:58:31.931Z</time></trkpt><trkpt lat="44.329542" lon="8.3495261"><ele>454.0</ele><time>2026-05-01T09:58:32.931Z</time></trkpt><trkpt lat="44.3296173" lon="8.3496037"><ele>454.0</ele><time>2026-05-01T09:58:34.932Z</time></trkpt><trkpt lat="44.3297001" lon="8.3496706"><ele>452.00000000000006</ele><time>2026-05-01T09:58:36.933Z</time></trkpt><trkpt lat="44.3297768" lon="8.3497378"><ele>450.0</ele><time>2026-05-01T09:58:38.932Z</time></trkpt><trkpt lat="44.3297969" lon="8.3498421"><ele>448.0</ele><time>2026-05-01T09:58:40.931Z</time></trkpt><trkpt lat="44.3297953" lon="8.3499431"><ele>446.0</ele><time>2026-05-01T09:58:42.931Z</time></trkpt><trkpt lat="44.3297917" lon="8.3501045"><ele>444.00000000000006</ele><time>2026-05-01T09:58:44.932Z</time></trkpt><trkpt lat="44.3297787" lon="8.3501938"><ele>442.0</ele><time>2026-05-01T09:58:45.931Z</time></trkpt><trkpt lat="44.3297517" lon="8.350366"><ele>442.0</ele><time>2026-05-01T09:58:47.933Z</time></trkpt><trkpt lat="44.329726" lon="8.3505265"><ele>442.0</ele><time>2026-05-01T09:58:49.933Z</time></trkpt><trkpt lat="44.3296926" lon="8.350666"><ele>442.0</ele><time>2026-05-01T09:58:51.932Z</time></trkpt><trkpt lat="44.3296681" lon="8.3508268"><ele>442.0</ele><time>2026-05-01T09:58:53.933Z</time></trkpt><trkpt lat="44.3296328" lon="8.3509787"><ele>445.20000000000005</ele><time>2026-05-01T09:58:55.932Z</time></trkpt><trkpt lat="44.3296056" lon="8.3511049"><ele>448.40000000000003</ele><time>2026-05-01T09:58:57.932Z</time></trkpt><trkpt lat="44.3295604" lon="8.3511939"><ele>451.59999999999997</ele><time>2026-05-01T09:58:59.933Z</time></trkpt><trkpt lat="44.3294498" lon="8.3512942"><ele>454.79999999999995</ele><time>2026-05-01T09:59:01.933Z</time></trkpt><trkpt lat="44.3293709" lon="8.3513174"><ele>458.0</ele><time>2026-05-01T09:59:02.933Z</time></trkpt><trkpt lat="44.3292828" lon="8.3513055"><ele>458.0</ele><time>2026-05-01T09:59:03.933Z</time></trkpt><trkpt lat="44.3291598" lon="8.3512731"><ele>458.0</ele><time>2026-05-01T09:59:04.931Z</time></trkpt><trkpt lat="44.3290196" lon="8.3512327"><ele>458.0</ele><time>2026-05-01T09:59:05.932Z</time></trkpt><trkpt lat="44.3288703" lon="8.3511927"><ele>458.0</ele><time>2026-05-01T09:59:06.932Z</time></trkpt><trkpt lat="44.3287324" lon="8.3511557"><ele>459.0</ele><time>2026-05-01T09:59:07.932Z</time></trkpt><trkpt lat="44.3286165" lon="8.3511277"><ele>459.99999999999994</ele><time>2026-05-01T09:59:08.931Z</time></trkpt><trkpt lat="44.3285226" lon="8.3510998"><ele>460.99999999999994</ele><time>2026-05-01T09:59:09.931Z</time></trkpt><trkpt lat="44.3284392" lon="8.3510774"><ele>462.0</ele><time>2026-05-01T09:59:10.932Z</time></trkpt><trkpt lat="44.3283661" lon="8.3510378"><ele>463.0</ele><time>2026-05-01T09:59:11.931Z</time></trkpt><trkpt lat="44.3282893" lon="8.3509831"><ele>463.0</ele><time>2026-05-01T09:59:12.933Z</time></trkpt><trkpt lat="44.3282142" lon="8.3508918"><ele>463.0</ele><time>2026-05-01T09:59:13.932Z</time></trkpt><trkpt lat="44.3281234" lon="8.350768"><ele>463.0</ele><time>2026-05-01T09:59:14.932Z</time></trkpt><trkpt lat="44.3280021" lon="8.3506294"><ele>463.0</ele><time>2026-05-01T09:59:15.931Z</time></trkpt><trkpt lat="44.3278585" lon="8.3504893"><ele>467.33333333333337</ele><time>2026-05-01T09:59:16.931Z</time></trkpt><trkpt lat="44.3277263" lon="8.3503492"><ele>471.66666666666663</ele><time>2026-05-01T09:59:17.932Z</time></trkpt><trkpt lat="44.3276011" lon="8.3502192"><ele>476.0</ele><time>2026-05-01T09:59:18.933Z</time></trkpt><trkpt lat="44.3274781" lon="8.3500862"><ele>476.0</ele><time>2026-05-01T09:59:19.932Z</time></trkpt><trkpt lat="44.3273544" lon="8.3499475"><ele>476.0</ele><time>2026-05-01T09:59:20.931Z</time></trkpt><trkpt lat="44.3272207" lon="8.3498061"><ele>476.0</ele><time>2026-05-01T09:59:21.931Z</time></trkpt><trkpt lat="44.3270751" lon="8.3496659"><ele>480.0</ele><time>2026-05-01T09:59:22.932Z</time></trkpt><trkpt lat="44.3269358" lon="8.3495264"><ele>484.0</ele><time>2026-05-01T09:59:23.931Z</time></trkpt><trkpt lat="44.3268163" lon="8.3493969"><ele>488.0</ele><time>2026-05-01T09:59:24.933Z</time></trkpt><trkpt lat="44.3266959" lon="8.3492843"><ele>488.0</ele><time>2026-05-01T09:59:25.932Z</time></trkpt><trkpt lat="44.3265821" lon="8.3491833"><ele>488.0</ele><time>2026-05-01T09:59:26.932Z</time></trkpt><trkpt lat="44.3264834" lon="8.3490957"><ele>488.0</ele><time>2026-05-01T09:59:27.932Z</time></trkpt><trkpt lat="44.3263941" lon="8.3490227"><ele>488.0</ele><time>2026-05-01T09:59:28.933Z</time></trkpt><trkpt lat="44.3263137" lon="8.3489467"><ele>488.42857142857133</ele><time>2026-05-01T09:59:29.932Z</time></trkpt><trkpt lat="44.3262471" lon="8.3488806"><ele>488.85714285714283</ele><time>2026-05-01T09:59:30.932Z</time></trkpt><trkpt lat="44.3261883" lon="8.3488154"><ele>489.2857142857142</ele><time>2026-05-01T09:59:31.932Z</time></trkpt><trkpt lat="44.3261602" lon="8.3487245"><ele>489.71428571428567</ele><time>2026-05-01T09:59:33.933Z</time></trkpt><trkpt lat="44.3261706" lon="8.3486336"><ele>490.1428571428571</ele><time>2026-05-01T09:59:35.932Z</time></trkpt><trkpt lat="44.3261927" lon="8.3485269"><ele>490.57142857142856</ele><time>2026-05-01T09:59:37.932Z</time></trkpt><trkpt lat="44.3262135" lon="8.3484379"><ele>491.0</ele><time>2026-05-01T09:59:39.931Z</time></trkpt><trkpt lat="44.3262654" lon="8.3483866"><ele>489.8</ele><time>2026-05-01T09:59:41.931Z</time></trkpt><trkpt lat="44.3263696" lon="8.3483852"><ele>488.6</ele><time>2026-05-01T09:59:43.932Z</time></trkpt><trkpt lat="44.3265023" lon="8.3483836"><ele>487.4</ele><time>2026-05-01T09:59:45.932Z</time></trkpt><trkpt lat="44.3265793" lon="8.3483755"><ele>486.2</ele><time>2026-05-01T09:59:46.931Z</time></trkpt><trkpt lat="44.3266553" lon="8.3483739"><ele>485.0</ele><time>2026-05-01T09:59:47.931Z</time></trkpt><trkpt lat="44.3267282" lon="8.3483801"><ele>487.8</ele><time>2026-05-01T09:59:48.931Z</time></trkpt><trkpt lat="44.3268229" lon="8.3483987"><ele>490.6</ele><time>2026-05-01T09:59:50.932Z</time></trkpt><trkpt lat="44.3268862" lon="8.3484449"><ele>493.4</ele><time>2026-05-01T09:59:52.931Z</time></trkpt><trkpt lat="44.3269591" lon="8.3485282"><ele>496.2</ele><time>2026-05-01T09:59:54.931Z</time></trkpt><trkpt lat="44.3270796" lon="8.3486211"><ele>499.0</ele><time>2026-05-01T09:59:56.932Z</time></trkpt><trkpt lat="44.3271459" lon="8.348673"><ele>499.00000000000006</ele><time>2026-05-01T09:59:57.931Z</time></trkpt><trkpt lat="44.3272099" lon="8.3487218"><ele>499.0</ele><time>2026-05-01T09:59:58.931Z</time></trkpt><trkpt lat="44.3272752" lon="8.3487537"><ele>499.0</ele><time>2026-05-01T09:59:59.931Z</time></trkpt><trkpt lat="44.3273427" lon="8.3487655"><ele>499.0</ele><time>2026-05-01T10:00:00.931Z</time></trkpt><trkpt lat="44.3274552" lon="8.3487073"><ele>499.00000000000006</ele><time>2026-05-01T10:00:02.932Z</time></trkpt><trkpt lat="44.327502" lon="8.3486375"><ele>499.0</ele><time>2026-05-01T10:00:03.932Z</time></trkpt><trkpt lat="44.3275357" lon="8.3484933"><ele>498.2</ele><time>2026-05-01T10:00:05.932Z</time></trkpt><trkpt lat="44.3275249" lon="8.3483294"><ele>497.4</ele><time>2026-05-01T10:00:07.931Z</time></trkpt><trkpt lat="44.3274913" lon="8.3482315"><ele>496.6</ele><time>2026-05-01T10:00:08.932Z</time></trkpt><trkpt lat="44.3274391" lon="8.3481224"><ele>495.8</ele><time>2026-05-01T10:00:09.933Z</time></trkpt><trkpt lat="44.3273745" lon="8.348025"><ele>495.0</ele><time>2026-05-01T10:00:10.932Z</time></trkpt><trkpt lat="44.3273132" lon="8.3479208"><ele>494.1666666666667</ele><time>2026-05-01T10:00:11.933Z</time></trkpt><trkpt lat="44.3272601" lon="8.3478406"><ele>493.33333333333337</ele><time>2026-05-01T10:00:12.932Z</time></trkpt><trkpt lat="44.3272059" lon="8.3477638"><ele>492.5</ele><time>2026-05-01T10:00:13.933Z</time></trkpt><trkpt lat="44.3271558" lon="8.3476793"><ele>491.6666666666667</ele><time>2026-05-01T10:00:14.931Z</time></trkpt><trkpt lat="44.3271144" lon="8.347602"><ele>490.83333333333337</ele><time>2026-05-01T10:00:15.932Z</time></trkpt><trkpt lat="44.3270713" lon="8.3475304"><ele>490.0</ele><time>2026-05-01T10:00:16.932Z</time></trkpt><trkpt lat="44.3270111" lon="8.3474495"><ele>493.1666666666667</ele><time>2026-05-01T10:00:17.933Z</time></trkpt><trkpt lat="44.3269602" lon="8.3473698"><ele>496.33333333333337</ele><time>2026-05-01T10:00:18.932Z</time></trkpt><trkpt lat="44.3269141" lon="8.3472888"><ele>499.5</ele><time>2026-05-01T10:00:19.932Z</time></trkpt><trkpt lat="44.3268657" lon="8.3472196"><ele>502.66666666666663</ele><time>2026-05-01T10:00:20.932Z</time></trkpt><trkpt lat="44.3268164" lon="8.347132"><ele>505.8333333333333</ele><time>2026-05-01T10:00:21.933Z</time></trkpt><trkpt lat="44.3267698" lon="8.3470438"><ele>509.0</ele><time>2026-05-01T10:00:22.933Z</time></trkpt><trkpt lat="44.3267149" lon="8.3469649"><ele>508.99999999999994</ele><time>2026-05-01T10:00:23.932Z</time></trkpt><trkpt lat="44.3266582" lon="8.3468949"><ele>509.0</ele><time>2026-05-01T10:00:24.931Z</time></trkpt><trkpt lat="44.3266052" lon="8.3468227"><ele>509.0</ele><time>2026-05-01T10:00:25.931Z</time></trkpt><trkpt lat="44.3265567" lon="8.3467646"><ele>509.0</ele><time>2026-05-01T10:00:26.933Z</time></trkpt><trkpt lat="44.3264562" lon="8.3466659"><ele>508.99999999999994</ele><time>2026-05-01T10:00:28.931Z</time></trkpt><trkpt lat="44.3263936" lon="8.3466349"><ele>509.0</ele><time>2026-05-01T10:00:29.933Z</time></trkpt><trkpt lat="44.3263198" lon="8.3466106"><ele>510.66666666666663</ele><time>2026-05-01T10:00:30.931Z</time></trkpt><trkpt lat="44.3262398" lon="8.3466111"><ele>512.3333333333333</ele><time>2026-05-01T10:00:31.932Z</time></trkpt><trkpt lat="44.3261473" lon="8.3466104"><ele>514.0</ele><time>2026-05-01T10:00:32.931Z</time></trkpt><trkpt lat="44.3260515" lon="8.3466154"><ele>515.6666666666666</ele><time>2026-05-01T10:00:33.933Z</time></trkpt><trkpt lat="44.3259713" lon="8.3466179"><ele>517.3333333333334</ele><time>2026-05-01T10:00:34.932Z</time></trkpt><trkpt lat="44.3258839" lon="8.3466361"><ele>519.0</ele><time>2026-05-01T10:00:35.932Z</time></trkpt><trkpt lat="44.3257945" lon="8.346659"><ele>519.0</ele><time>2026-05-01T10:00:36.932Z</time></trkpt><trkpt lat="44.3257081" lon="8.3466813"><ele>519.0</ele><time>2026-05-01T10:00:37.931Z</time></trkpt><trkpt lat="44.3256249" lon="8.3466981"><ele>519.0</ele><time>2026-05-01T10:00:38.932Z</time></trkpt><trkpt lat="44.3255441" lon="8.3467125"><ele>519.0</ele><time>2026-05-01T10:00:39.931Z</time></trkpt><trkpt lat="44.3254652" lon="8.3467249"><ele>519.0</ele><time>2026-05-01T10:00:40.932Z</time></trkpt><trkpt lat="44.3253967" lon="8.3467244"><ele>519.0</ele><time>2026-05-01T10:00:41.932Z</time></trkpt><trkpt lat="44.3253191" lon="8.3467215"><ele>519.0</ele><time>2026-05-01T10:00:42.931Z</time></trkpt><trkpt lat="44.3252316" lon="8.3467123"><ele>519.0</ele><time>2026-05-01T10:00:43.931Z</time></trkpt><trkpt lat="44.3251369" lon="8.3466947"><ele>519.0</ele><time>2026-05-01T10:00:44.932Z</time></trkpt><trkpt lat="44.3250459" lon="8.3466774"><ele>519.0</ele><time>2026-05-01T10:00:45.932Z</time></trkpt><trkpt lat="44.3249598" lon="8.3466506"><ele>519.0</ele><time>2026-05-01T10:00:46.932Z</time></trkpt><trkpt lat="44.3248789" lon="8.3466163"><ele>519.0</ele><time>2026-05-01T10:00:47.932Z</time></trkpt><trkpt lat="44.324797" lon="8.3465772"><ele>520.6666666666666</ele><time>2026-05-01T10:00:48.932Z</time></trkpt><trkpt lat="44.3247251" lon="8.3465244"><ele>522.3333333333334</ele><time>2026-05-01T10:00:49.932Z</time></trkpt><trkpt lat="44.3246673" lon="8.3464821"><ele>524.0</ele><time>2026-05-01T10:00:50.931Z</time></trkpt><trkpt lat="44.3245975" lon="8.3464181"><ele>525.6666666666667</ele><time>2026-05-01T10:00:51.931Z</time></trkpt><trkpt lat="44.3245348" lon="8.3463498"><ele>527.3333333333334</ele><time>2026-05-01T10:00:52.931Z</time></trkpt><trkpt lat="44.324474" lon="8.3462793"><ele>529.0</ele><time>2026-05-01T10:00:53.931Z</time></trkpt><trkpt lat="44.3244255" lon="8.3462093"><ele>529.0</ele><time>2026-05-01T10:00:54.933Z</time></trkpt><trkpt lat="44.3243573" lon="8.3460805"><ele>529.0</ele><time>2026-05-01T10:00:56.932Z</time></trkpt><trkpt lat="44.3242877" lon="8.345979"><ele>529.0</ele><time>2026-05-01T10:00:58.932Z</time></trkpt><trkpt lat="44.3241736" lon="8.3458877"><ele>529.0</ele><time>2026-05-01T10:01:00.932Z</time></trkpt><trkpt lat="44.3241139" lon="8.3458464"><ele>529.0</ele><time>2026-05-01T10:01:01.931Z</time></trkpt><trkpt lat="44.3240019" lon="8.3457964"><ele>529.0</ele><time>2026-05-01T10:01:03.932Z</time></trkpt><trkpt lat="44.323904" lon="8.3457503"><ele>529.0</ele><time>2026-05-01T10:01:05.931Z</time></trkpt><trkpt lat="44.3238172" lon="8.3456617"><ele>529.0</ele><time>2026-05-01T10:01:07.931Z</time></trkpt><trkpt lat="44.3237096" lon="8.3456247"><ele>529.0</ele><time>2026-05-01T10:01:09.932Z</time></trkpt><trkpt lat="44.3236166" lon="8.3456735"><ele>529.0</ele><time>2026-05-01T10:01:11.932Z</time></trkpt><trkpt lat="44.3235164" lon="8.345776"><ele>533.8</ele><time>2026-05-01T10:01:13.932Z</time></trkpt><trkpt lat="44.3234645" lon="8.345842"><ele>538.5999999999999</ele><time>2026-05-01T10:01:14.931Z</time></trkpt><trkpt lat="44.3234078" lon="8.3459017"><ele>543.4</ele><time>2026-05-01T10:01:15.931Z</time></trkpt><trkpt lat="44.3233573" lon="8.3459636"><ele>548.1999999999999</ele><time>2026-05-01T10:01:16.931Z</time></trkpt><trkpt lat="44.3232756" lon="8.3460938"><ele>553.0</ele><time>2026-05-01T10:01:18.932Z</time></trkpt><trkpt lat="44.32324" lon="8.3462595"><ele>553.0</ele><time>2026-05-01T10:01:20.932Z</time></trkpt><trkpt lat="44.3232273" lon="8.3463478"><ele>553.0</ele><time>2026-05-01T10:01:21.933Z</time></trkpt><trkpt lat="44.323211" lon="8.346441"><ele>553.0</ele><time>2026-05-01T10:01:22.932Z</time></trkpt><trkpt lat="44.3231618" lon="8.3465815"><ele>553.0</ele><time>2026-05-01T10:01:24.932Z</time></trkpt><trkpt lat="44.3231061" lon="8.346735"><ele>553.0</ele><time>2026-05-01T10:01:26.933Z</time></trkpt><trkpt lat="44.3230455" lon="8.3468218"><ele>551.1666666666667</ele><time>2026-05-01T10:01:28.931Z</time></trkpt><trkpt lat="44.3230007" lon="8.3469049"><ele>549.3333333333334</ele><time>2026-05-01T10:01:30.932Z</time></trkpt><trkpt lat="44.3229351" lon="8.3469236"><ele>547.5</ele><time>2026-05-01T10:01:33.932Z</time></trkpt><trkpt lat="44.3228455" lon="8.3469447"><ele>545.6666666666666</ele><time>2026-05-01T10:01:35.932Z</time></trkpt><trkpt lat="44.3227319" lon="8.3469169"><ele>543.8333333333333</ele><time>2026-05-01T10:01:37.932Z</time></trkpt><trkpt lat="44.3226677" lon="8.3469005"><ele>542.0</ele><time>2026-05-01T10:01:38.932Z</time></trkpt><trkpt lat="44.3225478" lon="8.3469012"><ele>542.0</ele><time>2026-05-01T10:01:40.931Z</time></trkpt><trkpt lat="44.3224826" lon="8.3469046"><ele>542.0</ele><time>2026-05-01T10:01:41.931Z</time></trkpt><trkpt lat="44.3224053" lon="8.3468946"><ele>542.0</ele><time>2026-05-01T10:01:42.931Z</time></trkpt><trkpt lat="44.3223286" lon="8.3468833"><ele>542.0</ele><time>2026-05-01T10:01:43.931Z</time></trkpt><trkpt lat="44.3222535" lon="8.3468669"><ele>542.0</ele><time>2026-05-01T10:01:44.931Z</time></trkpt><trkpt lat="44.3221801" lon="8.3468607"><ele>542.0</ele><time>2026-05-01T10:01:45.931Z</time></trkpt><trkpt lat="44.3221115" lon="8.3468522"><ele>542.0</ele><time>2026-05-01T10:01:46.932Z</time></trkpt><trkpt lat="44.3220476" lon="8.3468422"><ele>538.6</ele><time>2026-05-01T10:01:47.931Z</time></trkpt><trkpt lat="44.3219533" lon="8.3468061"><ele>535.2</ele><time>2026-05-01T10:01:49.931Z</time></trkpt><trkpt lat="44.3218716" lon="8.3467343"><ele>531.8</ele><time>2026-05-01T10:01:51.933Z</time></trkpt><trkpt lat="44.3218192" lon="8.3466266"><ele>528.4</ele><time>2026-05-01T10:01:53.932Z</time></trkpt><trkpt lat="44.3218117" lon="8.3465386"><ele>525.0</ele><time>2026-05-01T10:01:54.932Z</time></trkpt><trkpt lat="44.3217928" lon="8.3463685"><ele>525.0</ele><time>2026-05-01T10:01:56.931Z</time></trkpt><trkpt lat="44.3217962" lon="8.3462197"><ele>525.0</ele><time>2026-05-01T10:01:58.931Z</time></trkpt><trkpt lat="44.3218229" lon="8.3460525"><ele>525.0</ele><time>2026-05-01T10:02:00.932Z</time></trkpt><trkpt lat="44.3218303" lon="8.3459455"><ele>525.0</ele><time>2026-05-01T10:02:01.934Z</time></trkpt><trkpt lat="44.3218434" lon="8.3458206"><ele>525.0</ele><time>2026-05-01T10:02:02.933Z</time></trkpt><trkpt lat="44.3218533" lon="8.3456859"><ele>525.0</ele><time>2026-05-01T10:02:03.931Z</time></trkpt><trkpt lat="44.321855" lon="8.3455459"><ele>525.0</ele><time>2026-05-01T10:02:04.932Z</time></trkpt><trkpt lat="44.3218699" lon="8.3454235"><ele>525.0</ele><time>2026-05-01T10:02:05.933Z</time></trkpt><trkpt lat="44.3218897" lon="8.3452986"><ele>525.0</ele><time>2026-05-01T10:02:06.932Z</time></trkpt><trkpt lat="44.3219103" lon="8.3451887"><ele>525.0</ele><time>2026-05-01T10:02:07.932Z</time></trkpt><trkpt lat="44.3219363" lon="8.3450802"><ele>525.0</ele><time>2026-05-01T10:02:08.933Z</time></trkpt><trkpt lat="44.3219588" lon="8.3449788"><ele>526.0</ele><time>2026-05-01T10:02:09.933Z</time></trkpt><trkpt lat="44.3219813" lon="8.3448932"><ele>527.0</ele><time>2026-05-01T10:02:10.932Z</time></trkpt><trkpt lat="44.3219672" lon="8.3447462"><ele>528.0</ele><time>2026-05-01T10:02:12.933Z</time></trkpt><trkpt lat="44.3218755" lon="8.3446866"><ele>529.0</ele><time>2026-05-01T10:02:14.932Z</time></trkpt><trkpt lat="44.3217696" lon="8.3446856"><ele>530.0</ele><time>2026-05-01T10:02:16.933Z</time></trkpt><trkpt lat="44.3216699" lon="8.3446644"><ele>533.0</ele><time>2026-05-01T10:02:18.932Z</time></trkpt><trkpt lat="44.3216296" lon="8.3445888"><ele>536.0</ele><time>2026-05-01T10:02:19.931Z</time></trkpt><trkpt lat="44.3215706" lon="8.344536"><ele>539.0</ele><time>2026-05-01T10:02:20.933Z</time></trkpt><trkpt lat="44.3214709" lon="8.3445098"><ele>542.0</ele><time>2026-05-01T10:02:22.932Z</time></trkpt><trkpt lat="44.3213834" lon="8.3445893"><ele>545.0</ele><time>2026-05-01T10:02:24.932Z</time></trkpt><trkpt lat="44.3213207" lon="8.3447287"><ele>545.0</ele><time>2026-05-01T10:02:26.932Z</time></trkpt><trkpt lat="44.3212792" lon="8.3448552"><ele>545.0</ele><time>2026-05-01T10:02:27.932Z</time></trkpt><trkpt lat="44.3212398" lon="8.3449722"><ele>545.0</ele><time>2026-05-01T10:02:28.932Z</time></trkpt><trkpt lat="44.3212232" lon="8.3450698"><ele>545.0</ele><time>2026-05-01T10:02:29.931Z</time></trkpt><trkpt lat="44.3211861" lon="8.3451488"><ele>545.0</ele><time>2026-05-01T10:02:30.932Z</time></trkpt><trkpt lat="44.3211343" lon="8.3452359"><ele>545.0</ele><time>2026-05-01T10:02:31.932Z</time></trkpt><trkpt lat="44.3210682" lon="8.3453092"><ele>545.0</ele><time>2026-05-01T10:02:32.932Z</time></trkpt><trkpt lat="44.3209987" lon="8.3453856"><ele>545.0</ele><time>2026-05-01T10:02:33.932Z</time></trkpt><trkpt lat="44.320927" lon="8.3454538"><ele>545.0</ele><time>2026-05-01T10:02:34.931Z</time></trkpt><trkpt lat="44.3208634" lon="8.3455361"><ele>545.0</ele><time>2026-05-01T10:02:35.931Z</time></trkpt><trkpt lat="44.3208207" lon="8.345622"><ele>545.0</ele><time>2026-05-01T10:02:36.932Z</time></trkpt><trkpt lat="44.3207846" lon="8.3457217"><ele>545.0</ele><time>2026-05-01T10:02:37.931Z</time></trkpt><trkpt lat="44.3207448" lon="8.3458128"><ele>547.5</ele><time>2026-05-01T10:02:38.931Z</time></trkpt><trkpt lat="44.3206538" lon="8.3459185"><ele>550.0</ele><time>2026-05-01T10:02:40.93Z</time></trkpt><trkpt lat="44.320582" lon="8.3459512"><ele>552.5</ele><time>2026-05-01T10:02:41.931Z</time></trkpt><trkpt lat="44.320501" lon="8.3459841"><ele>555.0</ele><time>2026-05-01T10:02:42.931Z</time></trkpt><trkpt lat="44.3204255" lon="8.3460271"><ele>557.5</ele><time>2026-05-01T10:02:43.932Z</time></trkpt><trkpt lat="44.3203656" lon="8.346091"><ele>560.0</ele><time>2026-05-01T10:02:44.932Z</time></trkpt><trkpt lat="44.3203226" lon="8.3461652"><ele>560.0</ele><time>2026-05-01T10:02:45.931Z</time></trkpt><trkpt lat="44.3203202" lon="8.3462731"><ele>560.0</ele><time>2026-05-01T10:02:46.931Z</time></trkpt><trkpt lat="44.3203325" lon="8.3463659"><ele>560.0</ele><time>2026-05-01T10:02:47.931Z</time></trkpt><trkpt lat="44.3203447" lon="8.3465307"><ele>560.0</ele><time>2026-05-01T10:02:49.932Z</time></trkpt><trkpt lat="44.3203369" lon="8.3466183"><ele>560.0</ele><time>2026-05-01T10:02:50.932Z</time></trkpt><trkpt lat="44.3203018" lon="8.3467261"><ele>560.0</ele><time>2026-05-01T10:02:51.932Z</time></trkpt><trkpt lat="44.3202692" lon="8.3468586"><ele>554.8</ele><time>2026-05-01T10:02:52.932Z</time></trkpt><trkpt lat="44.320238" lon="8.3469677"><ele>549.6</ele><time>2026-05-01T10:02:53.932Z</time></trkpt><trkpt lat="44.3201662" lon="8.3471112"><ele>544.4</ele><time>2026-05-01T10:02:55.932Z</time></trkpt><trkpt lat="44.3200805" lon="8.3472151"><ele>539.2</ele><time>2026-05-01T10:02:57.932Z</time></trkpt><trkpt lat="44.320029" lon="8.3472765"><ele>534.0</ele><time>2026-05-01T10:02:58.932Z</time></trkpt><trkpt lat="44.3199769" lon="8.3473421"><ele>531.0</ele><time>2026-05-01T10:02:59.932Z</time></trkpt><trkpt lat="44.3199304" lon="8.3474168"><ele>528.0</ele><time>2026-05-01T10:03:00.931Z</time></trkpt><trkpt lat="44.3198986" lon="8.3475031"><ele>525.0</ele><time>2026-05-01T10:03:01.931Z</time></trkpt><trkpt lat="44.3198747" lon="8.3475964"><ele>522.0</ele><time>2026-05-01T10:03:02.931Z</time></trkpt><trkpt lat="44.3198628" lon="8.34771"><ele>519.0</ele><time>2026-05-01T10:03:03.931Z</time></trkpt><trkpt lat="44.3198506" lon="8.3478606"><ele>516.0</ele><time>2026-05-01T10:03:05.931Z</time></trkpt><trkpt lat="44.3198213" lon="8.3480054"><ele>515.6666666666666</ele><time>2026-05-01T10:03:07.931Z</time></trkpt><trkpt lat="44.3197519" lon="8.3481017"><ele>515.3333333333334</ele><time>2026-05-01T10:03:09.932Z</time></trkpt><trkpt lat="44.3196709" lon="8.3480984"><ele>515.0</ele><time>2026-05-01T10:03:11.931Z</time></trkpt><trkpt lat="44.3196047" lon="8.3479892"><ele>514.6666666666667</ele><time>2026-05-01T10:03:13.932Z</time></trkpt><trkpt lat="44.319576" lon="8.347909"><ele>514.3333333333334</ele><time>2026-05-01T10:03:14.931Z</time></trkpt><trkpt lat="44.3195519" lon="8.3478043"><ele>514.0</ele><time>2026-05-01T10:03:15.932Z</time></trkpt><trkpt lat="44.3195266" lon="8.3476821"><ele>514.0</ele><time>2026-05-01T10:03:16.931Z</time></trkpt><trkpt lat="44.3194862" lon="8.3475794"><ele>514.0</ele><time>2026-05-01T10:03:17.931Z</time></trkpt><trkpt lat="44.3194362" lon="8.3474909"><ele>514.0</ele><time>2026-05-01T10:03:18.932Z</time></trkpt><trkpt lat="44.3193689" lon="8.3474236"><ele>514.0</ele><time>2026-05-01T10:03:19.931Z</time></trkpt><trkpt lat="44.3193115" lon="8.3473664"><ele>514.0</ele><time>2026-05-01T10:03:20.932Z</time></trkpt><trkpt lat="44.3192618" lon="8.3473039"><ele>514.0</ele><time>2026-05-01T10:03:21.931Z</time></trkpt><trkpt lat="44.3192156" lon="8.3472246"><ele>519.1666666666667</ele><time>2026-05-01T10:03:22.932Z</time></trkpt><trkpt lat="44.3191772" lon="8.3471457"><ele>524.3333333333334</ele><time>2026-05-01T10:03:23.931Z</time></trkpt><trkpt lat="44.3191396" lon="8.347051"><ele>529.5</ele><time>2026-05-01T10:03:24.932Z</time></trkpt><trkpt lat="44.3190861" lon="8.3469461"><ele>534.6666666666666</ele><time>2026-05-01T10:03:25.931Z</time></trkpt><trkpt lat="44.3190215" lon="8.3468579"><ele>539.8333333333333</ele><time>2026-05-01T10:03:26.931Z</time></trkpt><trkpt lat="44.3189558" lon="8.3467888"><ele>545.0</ele><time>2026-05-01T10:03:27.932Z</time></trkpt><trkpt lat="44.3189039" lon="8.3467371"><ele>544.2</ele><time>2026-05-01T10:03:28.932Z</time></trkpt><trkpt lat="44.3187949" lon="8.3466871"><ele>543.4</ele><time>2026-05-01T10:03:30.931Z</time></trkpt><trkpt lat="44.318731" lon="8.3466919"><ele>542.6</ele><time>2026-05-01T10:03:31.932Z</time></trkpt><trkpt lat="44.3185893" lon="8.3467298"><ele>541.8</ele><time>2026-05-01T10:03:33.932Z</time></trkpt><trkpt lat="44.3185026" lon="8.3467201"><ele>541.0</ele><time>2026-05-01T10:03:34.931Z</time></trkpt><trkpt lat="44.3184168" lon="8.3467365"><ele>541.0</ele><time>2026-05-01T10:03:35.932Z</time></trkpt><trkpt lat="44.3183316" lon="8.3467523"><ele>541.0</ele><time>2026-05-01T10:03:36.933Z</time></trkpt><trkpt lat="44.3182455" lon="8.3467915"><ele>541.0</ele><time>2026-05-01T10:03:37.931Z</time></trkpt><trkpt lat="44.318155" lon="8.34685"><ele>541.0</ele><time>2026-05-01T10:03:38.931Z</time></trkpt><trkpt lat="44.3180776" lon="8.3469006"><ele>541.0</ele><time>2026-05-01T10:03:39.931Z</time></trkpt><trkpt lat="44.3180071" lon="8.3469562"><ele>541.0</ele><time>2026-05-01T10:03:40.932Z</time></trkpt><trkpt lat="44.3179484" lon="8.3469941"><ele>539.0</ele><time>2026-05-01T10:03:41.932Z</time></trkpt><trkpt lat="44.3178472" lon="8.3469976"><ele>537.0</ele><time>2026-05-01T10:03:43.931Z</time></trkpt><trkpt lat="44.3177477" lon="8.3469513"><ele>535.0</ele><time>2026-05-01T10:03:45.931Z</time></trkpt><trkpt lat="44.3176491" lon="8.3468355"><ele>533.0</ele><time>2026-05-01T10:03:47.931Z</time></trkpt><trkpt lat="44.3175996" lon="8.3467546"><ele>531.0</ele><time>2026-05-01T10:03:48.932Z</time></trkpt><trkpt lat="44.3175411" lon="8.3466631"><ele>531.0</ele><time>2026-05-01T10:03:49.932Z</time></trkpt><trkpt lat="44.3174905" lon="8.346573"><ele>531.0</ele><time>2026-05-01T10:03:50.933Z</time></trkpt><trkpt lat="44.3174397" lon="8.3464902"><ele>531.0</ele><time>2026-05-01T10:03:51.931Z</time></trkpt><trkpt lat="44.317398" lon="8.3464144"><ele>531.0</ele><time>2026-05-01T10:03:52.932Z</time></trkpt><trkpt lat="44.3173022" lon="8.3463116"><ele>531.0</ele><time>2026-05-01T10:03:54.931Z</time></trkpt><trkpt lat="44.3172342" lon="8.3462656"><ele>531.0</ele><time>2026-05-01T10:03:55.931Z</time></trkpt><trkpt lat="44.3171578" lon="8.3462354"><ele>534.1666666666666</ele><time>2026-05-01T10:03:56.932Z</time></trkpt><trkpt lat="44.3170843" lon="8.3462069"><ele>537.3333333333334</ele><time>2026-05-01T10:03:57.931Z</time></trkpt><trkpt lat="44.3170048" lon="8.346192"><ele>540.5</ele><time>2026-05-01T10:03:58.932Z</time></trkpt><trkpt lat="44.3169315" lon="8.3461899"><ele>543.6666666666667</ele><time>2026-05-01T10:03:59.931Z</time></trkpt><trkpt lat="44.3168045" lon="8.3462063"><ele>546.8333333333334</ele><time>2026-05-01T10:04:01.931Z</time></trkpt><trkpt lat="44.3167342" lon="8.3462211"><ele>550.0</ele><time>2026-05-01T10:04:02.931Z</time></trkpt><trkpt lat="44.3166125" lon="8.3462527"><ele>550.0</ele><time>2026-05-01T10:04:04.932Z</time></trkpt><trkpt lat="44.3165099" lon="8.3463064"><ele>550.0</ele><time>2026-05-01T10:04:06.932Z</time></trkpt><trkpt lat="44.3163939" lon="8.3463457"><ele>550.0</ele><time>2026-05-01T10:04:08.931Z</time></trkpt><trkpt lat="44.3163183" lon="8.3463347"><ele>550.0</ele><time>2026-05-01T10:04:09.932Z</time></trkpt><trkpt lat="44.3162456" lon="8.3463276"><ele>550.0</ele><time>2026-05-01T10:04:10.931Z</time></trkpt><trkpt lat="44.3161098" lon="8.3463055"><ele>549.2</ele><time>2026-05-01T10:04:12.932Z</time></trkpt><trkpt lat="44.3160325" lon="8.3462864"><ele>548.4</ele><time>2026-05-01T10:04:13.931Z</time></trkpt><trkpt lat="44.315931" lon="8.3462262"><ele>547.6</ele><time>2026-05-01T10:04:15.932Z</time></trkpt><trkpt lat="44.3158252" lon="8.3461976"><ele>546.8</ele><time>2026-05-01T10:04:17.931Z</time></trkpt><trkpt lat="44.3157155" lon="8.3461024"><ele>546.0</ele><time>2026-05-01T10:04:19.931Z</time></trkpt><trkpt lat="44.3155991" lon="8.3460053"><ele>546.6666666666666</ele><time>2026-05-01T10:04:21.932Z</time></trkpt><trkpt lat="44.3155322" lon="8.3459451"><ele>547.3333333333334</ele><time>2026-05-01T10:04:22.932Z</time></trkpt><trkpt lat="44.3154731" lon="8.3458967"><ele>548.0</ele><time>2026-05-01T10:04:23.932Z</time></trkpt><trkpt lat="44.3154244" lon="8.345835"><ele>548.6666666666667</ele><time>2026-05-01T10:04:24.931Z</time></trkpt><trkpt lat="44.3153509" lon="8.3457397"><ele>549.3333333333334</ele><time>2026-05-01T10:04:26.931Z</time></trkpt><trkpt lat="44.3152891" lon="8.3456714"><ele>550.0</ele><time>2026-05-01T10:04:28.931Z</time></trkpt><trkpt lat="44.3152177" lon="8.3456222"><ele>550.0</ele><time>2026-05-01T10:04:30.931Z</time></trkpt><trkpt lat="44.3151457" lon="8.3456263"><ele>550.0</ele><time>2026-05-01T10:04:32.931Z</time></trkpt><trkpt lat="44.3150789" lon="8.3456791"><ele>550.0</ele><time>2026-05-01T10:04:34.931Z</time></trkpt><trkpt lat="44.3150466" lon="8.3457777"><ele>550.0</ele><time>2026-05-01T10:04:36.931Z</time></trkpt><trkpt lat="44.3150318" lon="8.3458793"><ele>550.0</ele><time>2026-05-01T10:04:38.932Z</time></trkpt><trkpt lat="44.3150083" lon="8.3459755"><ele>550.0</ele><time>2026-05-01T10:04:39.931Z</time></trkpt><trkpt lat="44.3149827" lon="8.3461483"><ele>550.0</ele><time>2026-05-01T10:04:41.931Z</time></trkpt><trkpt lat="44.3149581" lon="8.3462521"><ele>550.0</ele><time>2026-05-01T10:04:42.931Z</time></trkpt><trkpt lat="44.314942" lon="8.3463481"><ele>550.0</ele><time>2026-05-01T10:04:44.932Z</time></trkpt><trkpt lat="44.3148816" lon="8.3464181"><ele>550.0</ele><time>2026-05-01T10:04:46.932Z</time></trkpt><trkpt lat="44.3147795" lon="8.3464261"><ele>550.0</ele><time>2026-05-01T10:04:48.932Z</time></trkpt><trkpt lat="44.314689" lon="8.346393"><ele>550.0</ele><time>2026-05-01T10:04:50.931Z</time></trkpt><trkpt lat="44.3145872" lon="8.3463385"><ele>550.3333333333334</ele><time>2026-05-01T10:04:52.932Z</time></trkpt><trkpt lat="44.3145105" lon="8.3463183"><ele>550.6666666666667</ele><time>2026-05-01T10:04:54.931Z</time></trkpt><trkpt lat="44.3144526" lon="8.3464097"><ele>551.0</ele><time>2026-05-01T10:04:56.931Z</time></trkpt><trkpt lat="44.3144644" lon="8.346538"><ele>551.3333333333334</ele><time>2026-05-01T10:04:58.931Z</time></trkpt><trkpt lat="44.3144665" lon="8.346638"><ele>551.6666666666666</ele><time>2026-05-01T10:04:59.932Z</time></trkpt><trkpt lat="44.3144767" lon="8.3467374"><ele>552.0</ele><time>2026-05-01T10:05:00.932Z</time></trkpt><trkpt lat="44.314475" lon="8.3468302"><ele>552.0</ele><time>2026-05-01T10:05:01.931Z</time></trkpt><trkpt lat="44.3144792" lon="8.3469368"><ele>552.0</ele><time>2026-05-01T10:05:02.931Z</time></trkpt><trkpt lat="44.3144811" lon="8.3470262"><ele>552.0</ele><time>2026-05-01T10:05:03.932Z</time></trkpt><trkpt lat="44.3144453" lon="8.3471367"><ele>552.0</ele><time>2026-05-01T10:05:05.932Z</time></trkpt><trkpt lat="44.3143578" lon="8.3471741"><ele>552.0</ele><time>2026-05-01T10:05:07.931Z</time></trkpt><trkpt lat="44.3142499" lon="8.3471702"><ele>552.0</ele><time>2026-05-01T10:05:09.932Z</time></trkpt><trkpt lat="44.3141445" lon="8.347167"><ele>554.0</ele><time>2026-05-01T10:05:11.931Z</time></trkpt><trkpt lat="44.3140647" lon="8.3472535"><ele>556.0</ele><time>2026-05-01T10:05:13.931Z</time></trkpt><trkpt lat="44.3139849" lon="8.3474029"><ele>558.0</ele><time>2026-05-01T10:05:15.931Z</time></trkpt><trkpt lat="44.313933" lon="8.3475131"><ele>560.0</ele><time>2026-05-01T10:05:16.932Z</time></trkpt><trkpt lat="44.313902" lon="8.3476175"><ele>562.0</ele><time>2026-05-01T10:05:17.931Z</time></trkpt><trkpt lat="44.3138727" lon="8.3477239"><ele>562.0</ele><time>2026-05-01T10:05:18.931Z</time></trkpt><trkpt lat="44.313866" lon="8.3478819"><ele>562.0</ele><time>2026-05-01T10:05:20.932Z</time></trkpt><trkpt lat="44.3138606" lon="8.3479917"><ele>562.0</ele><time>2026-05-01T10:05:21.931Z</time></trkpt><trkpt lat="44.3138495" lon="8.3480896"><ele>562.0</ele><time>2026-05-01T10:05:22.931Z</time></trkpt><trkpt lat="44.3138342" lon="8.3481948"><ele>562.0</ele><time>2026-05-01T10:05:23.932Z</time></trkpt><trkpt lat="44.3138044" lon="8.3482809"><ele>562.0</ele><time>2026-05-01T10:05:24.931Z</time></trkpt><trkpt lat="44.3137732" lon="8.3484052"><ele>560.0</ele><time>2026-05-01T10:05:25.931Z</time></trkpt><trkpt lat="44.313738" lon="8.3485069"><ele>558.0</ele><time>2026-05-01T10:05:26.931Z</time></trkpt><trkpt lat="44.3136922" lon="8.3486136"><ele>556.0</ele><time>2026-05-01T10:05:27.932Z</time></trkpt><trkpt lat="44.3136507" lon="8.3487177"><ele>554.0</ele><time>2026-05-01T10:05:28.931Z</time></trkpt><trkpt lat="44.3135962" lon="8.3488144"><ele>552.0</ele><time>2026-05-01T10:05:29.932Z</time></trkpt><trkpt lat="44.3135665" lon="8.3489421"><ele>550.0</ele><time>2026-05-01T10:05:30.931Z</time></trkpt><trkpt lat="44.3135473" lon="8.349073"><ele>548.5</ele><time>2026-05-01T10:05:31.931Z</time></trkpt><trkpt lat="44.3135359" lon="8.3491875"><ele>547.0</ele><time>2026-05-01T10:05:32.93Z</time></trkpt><trkpt lat="44.3135314" lon="8.3493029"><ele>545.5</ele><time>2026-05-01T10:05:33.933Z</time></trkpt><trkpt lat="44.3135298" lon="8.3494093"><ele>544.0</ele><time>2026-05-01T10:05:34.931Z</time></trkpt><trkpt lat="44.3135271" lon="8.3495047"><ele>542.5</ele><time>2026-05-01T10:05:35.932Z</time></trkpt><trkpt lat="44.3135052" lon="8.3496408"><ele>541.0</ele><time>2026-05-01T10:05:37.931Z</time></trkpt><trkpt lat="44.3134749" lon="8.3497736"><ele>538.6666666666667</ele><time>2026-05-01T10:05:39.931Z</time></trkpt><trkpt lat="44.3134087" lon="8.3498844"><ele>536.3333333333334</ele><time>2026-05-01T10:05:41.932Z</time></trkpt><trkpt lat="44.3133718" lon="8.3499576"><ele>534.0</ele><time>2026-05-01T10:05:42.931Z</time></trkpt><trkpt lat="44.3133296" lon="8.3500293"><ele>531.6666666666666</ele><time>2026-05-01T10:05:43.931Z</time></trkpt><trkpt lat="44.3133077" lon="8.3501177"><ele>529.3333333333333</ele><time>2026-05-01T10:05:44.931Z</time></trkpt><trkpt lat="44.3132964" lon="8.3502058"><ele>527.0</ele><time>2026-05-01T10:05:45.932Z</time></trkpt><trkpt lat="44.313268" lon="8.350358"><ele>527.0</ele><time>2026-05-01T10:05:47.932Z</time></trkpt><trkpt lat="44.3132744" lon="8.3504606"><ele>527.0</ele><time>2026-05-01T10:05:49.932Z</time></trkpt><trkpt lat="44.3132409" lon="8.3506153"><ele>527.0</ele><time>2026-05-01T10:05:51.931Z</time></trkpt><trkpt lat="44.313198" lon="8.3507407"><ele>527.0</ele><time>2026-05-01T10:05:53.931Z</time></trkpt><trkpt lat="44.313166" lon="8.3508571"><ele>527.0</ele><time>2026-05-01T10:05:54.931Z</time></trkpt><trkpt lat="44.3131283" lon="8.3509435"><ele>526.0</ele><time>2026-05-01T10:05:55.931Z</time></trkpt><trkpt lat="44.3130804" lon="8.3510861"><ele>525.0</ele><time>2026-05-01T10:05:57.932Z</time></trkpt><trkpt lat="44.3130524" lon="8.3511709"><ele>524.0</ele><time>2026-05-01T10:05:58.931Z</time></trkpt><trkpt lat="44.3130377" lon="8.3512767"><ele>523.0</ele><time>2026-05-01T10:05:59.931Z</time></trkpt><trkpt lat="44.3130036" lon="8.3514304"><ele>522.0</ele><time>2026-05-01T10:06:01.932Z</time></trkpt><trkpt lat="44.3129471" lon="8.3515132"><ele>522.0</ele><time>2026-05-01T10:06:03.931Z</time></trkpt><trkpt lat="44.31288" lon="8.3515247"><ele>522.0</ele><time>2026-05-01T10:06:05.931Z</time></trkpt><trkpt lat="44.3127996" lon="8.3514784"><ele>522.0</ele><time>2026-05-01T10:06:15.931Z</time></trkpt><trkpt lat="44.3127242" lon="8.3514294"><ele>522.0</ele><time>2026-05-01T10:06:17.932Z</time></trkpt><trkpt lat="44.3126226" lon="8.3513395"><ele>522.0</ele><time>2026-05-01T10:06:19.931Z</time></trkpt><trkpt lat="44.3125569" lon="8.3512863"><ele>522.0</ele><time>2026-05-01T10:06:20.931Z</time></trkpt><trkpt lat="44.3124964" lon="8.351238"><ele>522.0</ele><time>2026-05-01T10:06:21.932Z</time></trkpt><trkpt lat="44.3124212" lon="8.3511778"><ele>522.0</ele><time>2026-05-01T10:06:22.932Z</time></trkpt><trkpt lat="44.3123457" lon="8.3511216"><ele>522.0</ele><time>2026-05-01T10:06:23.931Z</time></trkpt><trkpt lat="44.3122776" lon="8.3510625"><ele>522.0</ele><time>2026-05-01T10:06:24.932Z</time></trkpt><trkpt lat="44.3122166" lon="8.3510131"><ele>522.0</ele><time>2026-05-01T10:06:25.932Z</time></trkpt><trkpt lat="44.3121108" lon="8.3509513"><ele>522.0</ele><time>2026-05-01T10:06:27.931Z</time></trkpt><trkpt lat="44.3120504" lon="8.3509257"><ele>519.3333333333334</ele><time>2026-05-01T10:06:28.932Z</time></trkpt><trkpt lat="44.3119405" lon="8.3508975"><ele>516.6666666666666</ele><time>2026-05-01T10:06:30.931Z</time></trkpt><trkpt lat="44.3118718" lon="8.3508758"><ele>514.0</ele><time>2026-05-01T10:06:31.931Z</time></trkpt><trkpt lat="44.3118109" lon="8.3508529"><ele>511.3333333333333</ele><time>2026-05-01T10:06:32.931Z</time></trkpt><trkpt lat="44.3117344" lon="8.3508125"><ele>508.66666666666663</ele><time>2026-05-01T10:06:33.932Z</time></trkpt><trkpt lat="44.3116625" lon="8.3507748"><ele>506.0</ele><time>2026-05-01T10:06:34.932Z</time></trkpt><trkpt lat="44.3115808" lon="8.35074"><ele>506.0</ele><time>2026-05-01T10:06:35.933Z</time></trkpt><trkpt lat="44.3114533" lon="8.3507112"><ele>506.0</ele><time>2026-05-01T10:06:37.932Z</time></trkpt><trkpt lat="44.3113932" lon="8.3506834"><ele>506.0</ele><time>2026-05-01T10:06:38.932Z</time></trkpt><trkpt lat="44.3113017" lon="8.3506383"><ele>506.0</ele><time>2026-05-01T10:06:40.931Z</time></trkpt><trkpt lat="44.3112072" lon="8.3505397"><ele>506.0</ele><time>2026-05-01T10:06:42.931Z</time></trkpt><trkpt lat="44.3111539" lon="8.3504725"><ele>507.20000000000005</ele><time>2026-05-01T10:06:43.932Z</time></trkpt><trkpt lat="44.3111009" lon="8.3504231"><ele>508.40000000000003</ele><time>2026-05-01T10:06:44.932Z</time></trkpt><trkpt lat="44.3110134" lon="8.3503504"><ele>509.6</ele><time>2026-05-01T10:06:46.931Z</time></trkpt><trkpt lat="44.3109306" lon="8.3502541"><ele>510.8</ele><time>2026-05-01T10:06:48.933Z</time></trkpt><trkpt lat="44.3108771" lon="8.3501399"><ele>512.0</ele><time>2026-05-01T10:06:50.931Z</time></trkpt><trkpt lat="44.3107998" lon="8.3500562"><ele>512.0</ele><time>2026-05-01T10:06:52.932Z</time></trkpt><trkpt lat="44.3107067" lon="8.3500866"><ele>512.0</ele><time>2026-05-01T10:06:54.931Z</time></trkpt><trkpt lat="44.310629" lon="8.3502068"><ele>512.0</ele><time>2026-05-01T10:06:56.932Z</time></trkpt><trkpt lat="44.3106244" lon="8.3503617"><ele>512.0</ele><time>2026-05-01T10:06:58.93Z</time></trkpt><trkpt lat="44.3106273" lon="8.3504842"><ele>512.0</ele><time>2026-05-01T10:07:00.932Z</time></trkpt><trkpt lat="44.3105868" lon="8.3506143"><ele>508.40000000000003</ele><time>2026-05-01T10:07:02.931Z</time></trkpt><trkpt lat="44.3105183" lon="8.3507039"><ele>504.80000000000007</ele><time>2026-05-01T10:07:04.931Z</time></trkpt><trkpt lat="44.3104449" lon="8.3507805"><ele>501.2</ele><time>2026-05-01T10:07:06.931Z</time></trkpt><trkpt lat="44.3103773" lon="8.3508499"><ele>497.6</ele><time>2026-05-01T10:07:08.931Z</time></trkpt><trkpt lat="44.3103029" lon="8.3509186"><ele>494.0</ele><time>2026-05-01T10:07:10.931Z</time></trkpt><trkpt lat="44.3102131" lon="8.3510107"><ele>493.99999999999994</ele><time>2026-05-01T10:07:12.932Z</time></trkpt><trkpt lat="44.3101224" lon="8.3510735"><ele>494.0</ele><time>2026-05-01T10:07:14.931Z</time></trkpt><trkpt lat="44.3100316" lon="8.351102"><ele>494.0</ele><time>2026-05-01T10:07:16.93Z</time></trkpt><trkpt lat="44.3099687" lon="8.3511104"><ele>494.0</ele><time>2026-05-01T10:07:17.931Z</time></trkpt><trkpt lat="44.3099041" lon="8.3511131"><ele>493.99999999999994</ele><time>2026-05-01T10:07:18.932Z</time></trkpt><trkpt lat="44.309833" lon="8.3510945"><ele>494.0</ele><time>2026-05-01T10:07:19.931Z</time></trkpt><trkpt lat="44.3097551" lon="8.3510783"><ele>491.79999999999995</ele><time>2026-05-01T10:07:20.93Z</time></trkpt><trkpt lat="44.3096912" lon="8.3510305"><ele>489.59999999999997</ele><time>2026-05-01T10:07:21.932Z</time></trkpt><trkpt lat="44.3096134" lon="8.3509919"><ele>487.4</ele><time>2026-05-01T10:07:22.932Z</time></trkpt><trkpt lat="44.3094954" lon="8.3509133"><ele>485.2</ele><time>2026-05-01T10:07:24.93Z</time></trkpt><trkpt lat="44.3093888" lon="8.3508242"><ele>483.0</ele><time>2026-05-01T10:07:26.932Z</time></trkpt><trkpt lat="44.309336" lon="8.3507662"><ele>483.0</ele><time>2026-05-01T10:07:27.932Z</time></trkpt><trkpt lat="44.3092705" lon="8.3507044"><ele>483.0</ele><time>2026-05-01T10:07:28.931Z</time></trkpt><trkpt lat="44.3092222" lon="8.3506444"><ele>483.0</ele><time>2026-05-01T10:07:29.932Z</time></trkpt><trkpt lat="44.3091331" lon="8.3505338"><ele>483.0</ele><time>2026-05-01T10:07:31.931Z</time></trkpt><trkpt lat="44.3090392" lon="8.3504769"><ele>483.0</ele><time>2026-05-01T10:07:33.931Z</time></trkpt><trkpt lat="44.308976" lon="8.3505274"><ele>483.0</ele><time>2026-05-01T10:07:35.931Z</time></trkpt><trkpt lat="44.3089179" lon="8.3506488"><ele>483.0</ele><time>2026-05-01T10:07:37.932Z</time></trkpt><trkpt lat="44.3088818" lon="8.3508069"><ele>482.99999999999994</ele><time>2026-05-01T10:07:39.931Z</time></trkpt><trkpt lat="44.3088811" lon="8.35094"><ele>482.99999999999994</ele><time>2026-05-01T10:07:41.931Z</time></trkpt><trkpt lat="44.3088929" lon="8.3510498"><ele>483.0</ele><time>2026-05-01T10:07:43.931Z</time></trkpt><trkpt lat="44.3089477" lon="8.351167"><ele>483.0</ele><time>2026-05-01T10:07:45.931Z</time></trkpt><trkpt lat="44.3090311" lon="8.3512903"><ele>479.0</ele><time>2026-05-01T10:07:47.931Z</time></trkpt><trkpt lat="44.3091003" lon="8.3514357"><ele>474.99999999999994</ele><time>2026-05-01T10:07:49.931Z</time></trkpt><trkpt lat="44.3091628" lon="8.3515299"><ele>470.99999999999994</ele><time>2026-05-01T10:07:51.93Z</time></trkpt><trkpt lat="44.3092437" lon="8.3515628"><ele>467.0</ele><time>2026-05-01T10:07:53.931Z</time></trkpt><trkpt lat="44.3093407" lon="8.3515752"><ele>463.0</ele><time>2026-05-01T10:07:55.931Z</time></trkpt><trkpt lat="44.3094501" lon="8.3515864"><ele>463.0</ele><time>2026-05-01T10:07:57.931Z</time></trkpt><trkpt lat="44.3095473" lon="8.3516466"><ele>462.99999999999994</ele><time>2026-05-01T10:07:59.933Z</time></trkpt><trkpt lat="44.3096408" lon="8.3517327"><ele>462.99999999999994</ele><time>2026-05-01T10:08:01.932Z</time></trkpt><trkpt lat="44.3097299" lon="8.3518381"><ele>463.0</ele><time>2026-05-01T10:08:03.932Z</time></trkpt><trkpt lat="44.3097752" lon="8.3519532"><ele>463.0</ele><time>2026-05-01T10:08:06.931Z</time></trkpt><trkpt lat="44.3097093" lon="8.3520228"><ele>463.0</ele><time>2026-05-01T10:08:08.931Z</time></trkpt><trkpt lat="44.3095668" lon="8.3520288"><ele>462.99999999999994</ele><time>2026-05-01T10:08:10.933Z</time></trkpt><trkpt lat="44.3094675" lon="8.3520227"><ele>462.99999999999994</ele><time>2026-05-01T10:08:11.931Z</time></trkpt><trkpt lat="44.30937" lon="8.3520072"><ele>463.0</ele><time>2026-05-01T10:08:12.931Z</time></trkpt><trkpt lat="44.3092848" lon="8.3519933"><ele>463.0</ele><time>2026-05-01T10:08:13.931Z</time></trkpt><trkpt lat="44.3092017" lon="8.3519668"><ele>463.0</ele><time>2026-05-01T10:08:14.931Z</time></trkpt><trkpt lat="44.3091181" lon="8.3519565"><ele>462.99999999999994</ele><time>2026-05-01T10:08:15.93Z</time></trkpt><trkpt lat="44.3090479" lon="8.3519392"><ele>462.99999999999994</ele><time>2026-05-01T10:08:16.93Z</time></trkpt><trkpt lat="44.3089326" lon="8.3519455"><ele>463.0</ele><time>2026-05-01T10:08:18.932Z</time></trkpt><trkpt lat="44.3088327" lon="8.3518986"><ele>463.0</ele><time>2026-05-01T10:08:20.932Z</time></trkpt><trkpt lat="44.3087402" lon="8.3518549"><ele>460.2</ele><time>2026-05-01T10:08:22.931Z</time></trkpt><trkpt lat="44.3086613" lon="8.3517671"><ele>457.4</ele><time>2026-05-01T10:08:24.932Z</time></trkpt><trkpt lat="44.3086093" lon="8.3516507"><ele>454.59999999999997</ele><time>2026-05-01T10:08:26.932Z</time></trkpt><trkpt lat="44.3085304" lon="8.3514908"><ele>451.79999999999995</ele><time>2026-05-01T10:08:29.931Z</time></trkpt><trkpt lat="44.3084238" lon="8.351457"><ele>449.0</ele><time>2026-05-01T10:08:31.931Z</time></trkpt><trkpt lat="44.3083558" lon="8.3514568"><ele>449.0</ele><time>2026-05-01T10:08:32.93Z</time></trkpt><trkpt lat="44.3082728" lon="8.3514598"><ele>448.99999999999994</ele><time>2026-05-01T10:08:33.932Z</time></trkpt><trkpt lat="44.3082049" lon="8.3514868"><ele>449.0</ele><time>2026-05-01T10:08:34.931Z</time></trkpt><trkpt lat="44.3081352" lon="8.351514"><ele>449.0</ele><time>2026-05-01T10:08:35.931Z</time></trkpt><trkpt lat="44.308072" lon="8.3515553"><ele>448.99999999999994</ele><time>2026-05-01T10:08:36.931Z</time></trkpt><trkpt lat="44.3080012" lon="8.3515812"><ele>449.0</ele><time>2026-05-01T10:08:37.93Z</time></trkpt><trkpt lat="44.3079304" lon="8.3515898"><ele>449.0</ele><time>2026-05-01T10:08:38.931Z</time></trkpt><trkpt lat="44.3078005" lon="8.3515691"><ele>446.2</ele><time>2026-05-01T10:08:40.932Z</time></trkpt><trkpt lat="44.3077315" lon="8.3515479"><ele>443.4</ele><time>2026-05-01T10:08:41.931Z</time></trkpt><trkpt lat="44.3076603" lon="8.3514272"><ele>440.6</ele><time>2026-05-01T10:08:43.932Z</time></trkpt><trkpt lat="44.3075808" lon="8.3513259"><ele>437.8</ele><time>2026-05-01T10:08:45.932Z</time></trkpt><trkpt lat="44.3074886" lon="8.3512436"><ele>435.0</ele><time>2026-05-01T10:08:47.931Z</time></trkpt><trkpt lat="44.3073904" lon="8.351201"><ele>438.6</ele><time>2026-05-01T10:08:49.93Z</time></trkpt><trkpt lat="44.3072633" lon="8.3512259"><ele>442.2</ele><time>2026-05-01T10:08:51.931Z</time></trkpt><trkpt lat="44.3071932" lon="8.3512634"><ele>445.79999999999995</ele><time>2026-05-01T10:08:52.93Z</time></trkpt><trkpt lat="44.307127" lon="8.3512935"><ele>449.4</ele><time>2026-05-01T10:08:53.931Z</time></trkpt><trkpt lat="44.307066" lon="8.3513315"><ele>453.0</ele><time>2026-05-01T10:08:54.93Z</time></trkpt><trkpt lat="44.3069766" lon="8.3514234"><ele>453.0</ele><time>2026-05-01T10:08:56.931Z</time></trkpt><trkpt lat="44.3068986" lon="8.351523"><ele>452.99999999999994</ele><time>2026-05-01T10:08:58.931Z</time></trkpt><trkpt lat="44.306838" lon="8.3516771"><ele>452.99999999999994</ele><time>2026-05-01T10:09:00.931Z</time></trkpt><trkpt lat="44.3068058" lon="8.3517703"><ele>453.0</ele><time>2026-05-01T10:09:01.931Z</time></trkpt><trkpt lat="44.3067573" lon="8.3518639"><ele>453.0</ele><time>2026-05-01T10:09:02.931Z</time></trkpt><trkpt lat="44.3067152" lon="8.3519552"><ele>453.0</ele><time>2026-05-01T10:09:03.931Z</time></trkpt><trkpt lat="44.30667" lon="8.3520231"><ele>453.0</ele><time>2026-05-01T10:09:04.931Z</time></trkpt><trkpt lat="44.3066267" lon="8.3520963"><ele>453.0</ele><time>2026-05-01T10:09:05.933Z</time></trkpt><trkpt lat="44.3065744" lon="8.3521683"><ele>453.0</ele><time>2026-05-01T10:09:06.931Z</time></trkpt><trkpt lat="44.306524" lon="8.3522282"><ele>453.0</ele><time>2026-05-01T10:09:07.931Z</time></trkpt><trkpt lat="44.3064392" lon="8.3523528"><ele>453.0</ele><time>2026-05-01T10:09:09.932Z</time></trkpt><trkpt lat="44.3064234" lon="8.3524395"><ele>449.1666666666667</ele><time>2026-05-01T10:09:10.932Z</time></trkpt><trkpt lat="44.3064239" lon="8.3525395"><ele>445.33333333333337</ele><time>2026-05-01T10:09:11.931Z</time></trkpt><trkpt lat="44.3064287" lon="8.352635"><ele>441.5</ele><time>2026-05-01T10:09:12.931Z</time></trkpt><trkpt lat="44.3064402" lon="8.3528"><ele>437.6666666666667</ele><time>2026-05-01T10:09:14.931Z</time></trkpt><trkpt lat="44.3064611" lon="8.3528841"><ele>433.83333333333337</ele><time>2026-05-01T10:09:15.932Z</time></trkpt><trkpt lat="44.30648" lon="8.3530233"><ele>430.0</ele><time>2026-05-01T10:09:17.932Z</time></trkpt><trkpt lat="44.3064517" lon="8.353179"><ele>432.4</ele><time>2026-05-01T10:09:19.931Z</time></trkpt><trkpt lat="44.306364" lon="8.3533045"><ele>434.8</ele><time>2026-05-01T10:09:21.932Z</time></trkpt><trkpt lat="44.3062886" lon="8.3533591"><ele>437.20000000000005</ele><time>2026-05-01T10:09:22.931Z</time></trkpt><trkpt lat="44.3062319" lon="8.3534237"><ele>439.6</ele><time>2026-05-01T10:09:23.932Z</time></trkpt><trkpt lat="44.3061783" lon="8.3534831"><ele>442.0</ele><time>2026-05-01T10:09:24.932Z</time></trkpt><trkpt lat="44.3060795" lon="8.3535854"><ele>442.0</ele><time>2026-05-01T10:09:26.932Z</time></trkpt><trkpt lat="44.3059729" lon="8.3536485"><ele>442.00000000000006</ele><time>2026-05-01T10:09:28.93Z</time></trkpt><trkpt lat="44.3058618" lon="8.3536803"><ele>442.00000000000006</ele><time>2026-05-01T10:09:30.932Z</time></trkpt><trkpt lat="44.3057534" lon="8.353686"><ele>442.0</ele><time>2026-05-01T10:09:32.931Z</time></trkpt><trkpt lat="44.3056891" lon="8.3536742"><ele>442.0</ele><time>2026-05-01T10:09:33.931Z</time></trkpt><trkpt lat="44.3056259" lon="8.3536602"><ele>443.20000000000005</ele><time>2026-05-01T10:09:34.932Z</time></trkpt><trkpt lat="44.3055133" lon="8.353616"><ele>444.40000000000003</ele><time>2026-05-01T10:09:36.931Z</time></trkpt><trkpt lat="44.3053899" lon="8.3535938"><ele>445.59999999999997</ele><time>2026-05-01T10:09:38.931Z</time></trkpt><trkpt lat="44.305281" lon="8.3536072"><ele>446.79999999999995</ele><time>2026-05-01T10:09:40.931Z</time></trkpt><trkpt lat="44.3052187" lon="8.3536453"><ele>448.0</ele><time>2026-05-01T10:09:41.931Z</time></trkpt><trkpt lat="44.3051527" lon="8.3536972"><ele>448.00000000000006</ele><time>2026-05-01T10:09:42.932Z</time></trkpt><trkpt lat="44.3050776" lon="8.3537575"><ele>448.0</ele><time>2026-05-01T10:09:43.932Z</time></trkpt><trkpt lat="44.3050056" lon="8.3538125"><ele>448.0</ele><time>2026-05-01T10:09:44.932Z</time></trkpt><trkpt lat="44.3049343" lon="8.3538534"><ele>448.0</ele><time>2026-05-01T10:09:45.932Z</time></trkpt><trkpt lat="44.3048571" lon="8.3538944"><ele>448.00000000000006</ele><time>2026-05-01T10:09:46.932Z</time></trkpt><trkpt lat="44.3047781" lon="8.3539249"><ele>448.0</ele><time>2026-05-01T10:09:47.931Z</time></trkpt><trkpt lat="44.3047032" lon="8.3539656"><ele>445.1666666666667</ele><time>2026-05-01T10:09:48.931Z</time></trkpt><trkpt lat="44.3046361" lon="8.3539932"><ele>442.33333333333337</ele><time>2026-05-01T10:09:49.931Z</time></trkpt><trkpt lat="44.3045732" lon="8.3540218"><ele>439.5</ele><time>2026-05-01T10:09:50.932Z</time></trkpt><trkpt lat="44.3045074" lon="8.3540425"><ele>436.66666666666663</ele><time>2026-05-01T10:09:51.931Z</time></trkpt><trkpt lat="44.3043965" lon="8.3541083"><ele>433.8333333333333</ele><time>2026-05-01T10:09:53.932Z</time></trkpt><trkpt lat="44.3043383" lon="8.3542511"><ele>431.0</ele><time>2026-05-01T10:09:55.93Z</time></trkpt><trkpt lat="44.3043285" lon="8.3544003"><ele>431.0</ele><time>2026-05-01T10:09:57.931Z</time></trkpt><trkpt lat="44.3042968" lon="8.3545615"><ele>431.0</ele><time>2026-05-01T10:09:59.933Z</time></trkpt><trkpt lat="44.304248" lon="8.3547087"><ele>431.0</ele><time>2026-05-01T10:10:01.931Z</time></trkpt><trkpt lat="44.3041837" lon="8.3548154"><ele>431.0</ele><time>2026-05-01T10:10:03.932Z</time></trkpt><trkpt lat="44.3041177" lon="8.3549045"><ele>431.0</ele><time>2026-05-01T10:10:05.931Z</time></trkpt><trkpt lat="44.3040861" lon="8.3549886"><ele>428.8333333333333</ele><time>2026-05-01T10:10:06.932Z</time></trkpt><trkpt lat="44.3040611" lon="8.3550819"><ele>426.66666666666663</ele><time>2026-05-01T10:10:07.931Z</time></trkpt><trkpt lat="44.3040285" lon="8.3551667"><ele>424.5</ele><time>2026-05-01T10:10:08.931Z</time></trkpt><trkpt lat="44.304" lon="8.3552562"><ele>422.33333333333337</ele><time>2026-05-01T10:10:09.932Z</time></trkpt><trkpt lat="44.3039606" lon="8.3554186"><ele>420.1666666666667</ele><time>2026-05-01T10:10:11.932Z</time></trkpt><trkpt lat="44.3039159" lon="8.355561"><ele>418.0</ele><time>2026-05-01T10:10:13.931Z</time></trkpt><trkpt lat="44.3038648" lon="8.3556813"><ele>416.0</ele><time>2026-05-01T10:10:15.931Z</time></trkpt><trkpt lat="44.3038145" lon="8.355743"><ele>414.0</ele><time>2026-05-01T10:10:16.932Z</time></trkpt><trkpt lat="44.3037211" lon="8.3558294"><ele>412.0</ele><time>2026-05-01T10:10:18.933Z</time></trkpt><trkpt lat="44.3036263" lon="8.3559007"><ele>410.0</ele><time>2026-05-01T10:10:20.931Z</time></trkpt><trkpt lat="44.3035251" lon="8.3559367"><ele>408.0</ele><time>2026-05-01T10:10:22.931Z</time></trkpt><trkpt lat="44.3034574" lon="8.3559683"><ele>408.0</ele><time>2026-05-01T10:10:23.931Z</time></trkpt><trkpt lat="44.3033282" lon="8.3559879"><ele>408.0</ele><time>2026-05-01T10:10:25.932Z</time></trkpt><trkpt lat="44.3032664" lon="8.3559699"><ele>408.0</ele><time>2026-05-01T10:10:26.931Z</time></trkpt><trkpt lat="44.3031593" lon="8.35592"><ele>408.0</ele><time>2026-05-01T10:10:28.93Z</time></trkpt><trkpt lat="44.3030637" lon="8.3558364"><ele>408.0</ele><time>2026-05-01T10:10:30.932Z</time></trkpt><trkpt lat="44.3029921" lon="8.3557301"><ele>408.0</ele><time>2026-05-01T10:10:32.931Z</time></trkpt><trkpt lat="44.3029401" lon="8.3556135"><ele>408.0</ele><time>2026-05-01T10:10:34.93Z</time></trkpt><trkpt lat="44.3029016" lon="8.3554709"><ele>408.0</ele><time>2026-05-01T10:10:36.931Z</time></trkpt><trkpt lat="44.3028329" lon="8.3553611"><ele>408.0</ele><time>2026-05-01T10:10:38.93Z</time></trkpt><trkpt lat="44.3027511" lon="8.3553548"><ele>408.0</ele><time>2026-05-01T10:10:40.93Z</time></trkpt><trkpt lat="44.302697" lon="8.3554613"><ele>408.0</ele><time>2026-05-01T10:10:42.932Z</time></trkpt><trkpt lat="44.3026654" lon="8.3555828"><ele>408.0</ele><time>2026-05-01T10:10:44.931Z</time></trkpt><trkpt lat="44.3025942" lon="8.3556597"><ele>408.0</ele><time>2026-05-01T10:10:46.931Z</time></trkpt><trkpt lat="44.3024435" lon="8.3557147"><ele>408.0</ele><time>2026-05-01T10:10:48.932Z</time></trkpt><trkpt lat="44.3023613" lon="8.3557427"><ele>408.0</ele><time>2026-05-01T10:10:49.931Z</time></trkpt><trkpt lat="44.3022782" lon="8.3557752"><ele>409.8571428571429</ele><time>2026-05-01T10:10:50.932Z</time></trkpt><trkpt lat="44.3022071" lon="8.3558111"><ele>411.7142857142857</ele><time>2026-05-01T10:10:51.93Z</time></trkpt><trkpt lat="44.3021532" lon="8.3558713"><ele>413.57142857142856</ele><time>2026-05-01T10:10:52.932Z</time></trkpt><trkpt lat="44.3020983" lon="8.3559395"><ele>415.42857142857144</ele><time>2026-05-01T10:10:53.932Z</time></trkpt><trkpt lat="44.3020558" lon="8.3560164"><ele>417.2857142857143</ele><time>2026-05-01T10:10:54.932Z</time></trkpt><trkpt lat="44.3020075" lon="8.356093"><ele>419.14285714285717</ele><time>2026-05-01T10:10:55.931Z</time></trkpt><trkpt lat="44.3019734" lon="8.3561905"><ele>421.0</ele><time>2026-05-01T10:10:56.93Z</time></trkpt><trkpt lat="44.3019684" lon="8.3563507"><ele>417.6</ele><time>2026-05-01T10:10:58.933Z</time></trkpt><trkpt lat="44.3019547" lon="8.3565279"><ele>414.20000000000005</ele><time>2026-05-01T10:11:00.931Z</time></trkpt><trkpt lat="44.3019263" lon="8.3566178"><ele>410.79999999999995</ele><time>2026-05-01T10:11:01.931Z</time></trkpt><trkpt lat="44.3018697" lon="8.3567257"><ele>407.4</ele><time>2026-05-01T10:11:03.931Z</time></trkpt><trkpt lat="44.3018172" lon="8.3567885"><ele>404.0</ele><time>2026-05-01T10:11:04.932Z</time></trkpt><trkpt lat="44.3017134" lon="8.3568551"><ele>403.99999999999994</ele><time>2026-05-01T10:11:06.933Z</time></trkpt><trkpt lat="44.3016652" lon="8.3569164"><ele>404.0</ele><time>2026-05-01T10:11:07.933Z</time></trkpt><trkpt lat="44.3016259" lon="8.3569942"><ele>404.0</ele><time>2026-05-01T10:11:08.932Z</time></trkpt><trkpt lat="44.3016064" lon="8.3571016"><ele>404.0</ele><time>2026-05-01T10:11:09.931Z</time></trkpt><trkpt lat="44.3015893" lon="8.3572143"><ele>403.99999999999994</ele><time>2026-05-01T10:11:10.932Z</time></trkpt><trkpt lat="44.3015719" lon="8.3573251"><ele>404.0</ele><time>2026-05-01T10:11:11.932Z</time></trkpt><trkpt lat="44.3015431" lon="8.3574277"><ele>404.3333333333333</ele><time>2026-05-01T10:11:12.931Z</time></trkpt><trkpt lat="44.3015022" lon="8.357525"><ele>404.66666666666663</ele><time>2026-05-01T10:11:13.931Z</time></trkpt><trkpt lat="44.3014585" lon="8.3576243"><ele>405.0</ele><time>2026-05-01T10:11:14.93Z</time></trkpt><trkpt lat="44.3014107" lon="8.3577139"><ele>405.33333333333337</ele><time>2026-05-01T10:11:15.931Z</time></trkpt><trkpt lat="44.3013275" lon="8.357811"><ele>405.6666666666667</ele><time>2026-05-01T10:11:17.931Z</time></trkpt><trkpt lat="44.3012862" lon="8.3579074"><ele>406.0</ele><time>2026-05-01T10:11:19.93Z</time></trkpt><trkpt lat="44.3013167" lon="8.3579944"><ele>406.0</ele><time>2026-05-01T10:11:21.931Z</time></trkpt><trkpt lat="44.3013983" lon="8.3579703"><ele>406.0</ele><time>2026-05-01T10:11:24.93Z</time></trkpt><trkpt lat="44.3014889" lon="8.3578443"><ele>406.0</ele><time>2026-05-01T10:11:26.931Z</time></trkpt><trkpt lat="44.3015533" lon="8.3577647"><ele>406.0</ele><time>2026-05-01T10:11:27.932Z</time></trkpt><trkpt lat="44.3016185" lon="8.357687"><ele>406.0</ele><time>2026-05-01T10:11:28.931Z</time></trkpt><trkpt lat="44.3016581" lon="8.3576078"><ele>403.33333333333337</ele><time>2026-05-01T10:11:29.93Z</time></trkpt><trkpt lat="44.301708" lon="8.357536"><ele>400.6666666666667</ele><time>2026-05-01T10:11:30.931Z</time></trkpt><trkpt lat="44.3017563" lon="8.3574609"><ele>398.0</ele><time>2026-05-01T10:11:31.93Z</time></trkpt><trkpt lat="44.3018538" lon="8.3573677"><ele>395.33333333333337</ele><time>2026-05-01T10:11:33.931Z</time></trkpt><trkpt lat="44.3019071" lon="8.3573181"><ele>392.6666666666667</ele><time>2026-05-01T10:11:34.93Z</time></trkpt><trkpt lat="44.3019926" lon="8.3572543"><ele>390.0</ele><time>2026-05-01T10:11:36.932Z</time></trkpt><trkpt lat="44.3020774" lon="8.3572108"><ele>390.0</ele><time>2026-05-01T10:11:39.931Z</time></trkpt><trkpt lat="44.3021203" lon="8.3572925"><ele>390.0</ele><time>2026-05-01T10:11:41.931Z</time></trkpt><trkpt lat="44.3020683" lon="8.3573999"><ele>390.0</ele><time>2026-05-01T10:11:44.931Z</time></trkpt><trkpt lat="44.3020005" lon="8.3574277"><ele>390.0</ele><time>2026-05-01T10:11:46.931Z</time></trkpt><trkpt lat="44.3019287" lon="8.3574769"><ele>390.0</ele><time>2026-05-01T10:11:48.93Z</time></trkpt><trkpt lat="44.301872" lon="8.3575791"><ele>390.0</ele><time>2026-05-01T10:11:50.931Z</time></trkpt><trkpt lat="44.301837" lon="8.3576541"><ele>390.0</ele><time>2026-05-01T10:11:51.93Z</time></trkpt><trkpt lat="44.3018013" lon="8.3577889"><ele>390.0</ele><time>2026-05-01T10:11:53.931Z</time></trkpt><trkpt lat="44.3017763" lon="8.3579534"><ele>390.0</ele><time>2026-05-01T10:11:56.931Z</time></trkpt><trkpt lat="44.3017236" lon="8.3581095"><ele>390.0</ele><time>2026-05-01T10:11:58.931Z</time></trkpt><trkpt lat="44.3016867" lon="8.3581978"><ele>390.0</ele><time>2026-05-01T10:11:59.93Z</time></trkpt><trkpt lat="44.3016462" lon="8.3582982"><ele>388.8</ele><time>2026-05-01T10:12:00.93Z</time></trkpt><trkpt lat="44.3015637" lon="8.3584591"><ele>387.6</ele><time>2026-05-01T10:12:02.933Z</time></trkpt><trkpt lat="44.3014513" lon="8.3585318"><ele>386.4</ele><time>2026-05-01T10:12:04.932Z</time></trkpt><trkpt lat="44.3013799" lon="8.3585724"><ele>385.2</ele><time>2026-05-01T10:12:05.93Z</time></trkpt><trkpt lat="44.3013025" lon="8.3586006"><ele>384.0</ele><time>2026-05-01T10:12:06.931Z</time></trkpt><trkpt lat="44.3012393" lon="8.3586351"><ele>384.0</ele><time>2026-05-01T10:12:07.931Z</time></trkpt><trkpt lat="44.3011686" lon="8.3586571"><ele>384.0</ele><time>2026-05-01T10:12:08.931Z</time></trkpt><trkpt lat="44.301087" lon="8.3586878"><ele>384.0</ele><time>2026-05-01T10:12:09.931Z</time></trkpt><trkpt lat="44.3010075" lon="8.3587171"><ele>384.0</ele><time>2026-05-01T10:12:10.93Z</time></trkpt><trkpt lat="44.300925" lon="8.358736"><ele>384.0</ele><time>2026-05-01T10:12:11.931Z</time></trkpt><trkpt lat="44.3008537" lon="8.3587552"><ele>384.0</ele><time>2026-05-01T10:12:12.93Z</time></trkpt><trkpt lat="44.3007869" lon="8.3587608"><ele>384.0</ele><time>2026-05-01T10:12:13.931Z</time></trkpt><trkpt lat="44.3006773" lon="8.3587189"><ele>384.0</ele><time>2026-05-01T10:12:15.932Z</time></trkpt><trkpt lat="44.3005698" lon="8.358705"><ele>384.0</ele><time>2026-05-01T10:12:17.932Z</time></trkpt><trkpt lat="44.3004817" lon="8.3587424"><ele>384.0</ele><time>2026-05-01T10:12:19.931Z</time></trkpt><trkpt lat="44.3004419" lon="8.3588494"><ele>384.0</ele><time>2026-05-01T10:12:21.931Z</time></trkpt><trkpt lat="44.3004467" lon="8.3590084"><ele>384.25</ele><time>2026-05-01T10:12:23.931Z</time></trkpt><trkpt lat="44.3004595" lon="8.359185"><ele>384.5</ele><time>2026-05-01T10:12:25.933Z</time></trkpt><trkpt lat="44.3004756" lon="8.3593392"><ele>384.75</ele><time>2026-05-01T10:12:27.93Z</time></trkpt><trkpt lat="44.3004898" lon="8.35951"><ele>385.0</ele><time>2026-05-01T10:12:29.932Z</time></trkpt><trkpt lat="44.300515" lon="8.3596561"><ele>380.4</ele><time>2026-05-01T10:12:31.931Z</time></trkpt><trkpt lat="44.3005285" lon="8.3597715"><ele>375.8</ele><time>2026-05-01T10:12:33.931Z</time></trkpt><trkpt lat="44.3005132" lon="8.3599221"><ele>371.20000000000005</ele><time>2026-05-01T10:12:35.93Z</time></trkpt><trkpt lat="44.3005063" lon="8.3600511"><ele>366.6</ele><time>2026-05-01T10:12:37.931Z</time></trkpt><trkpt lat="44.3004756" lon="8.3601686"><ele>362.0</ele><time>2026-05-01T10:12:39.932Z</time></trkpt><trkpt lat="44.3004124" lon="8.3602535"><ele>362.0</ele><time>2026-05-01T10:12:41.932Z</time></trkpt><trkpt lat="44.3003294" lon="8.3603043"><ele>362.0</ele><time>2026-05-01T10:12:43.931Z</time></trkpt><trkpt lat="44.3002397" lon="8.3603461"><ele>362.0</ele><time>2026-05-01T10:12:45.93Z</time></trkpt><trkpt lat="44.3001401" lon="8.3603752"><ele>362.0</ele><time>2026-05-01T10:12:47.93Z</time></trkpt><trkpt lat="44.3000481" lon="8.3603687"><ele>362.0</ele><time>2026-05-01T10:12:49.931Z</time></trkpt><trkpt lat="44.2999264" lon="8.3603643"><ele>362.0</ele><time>2026-05-01T10:12:51.932Z</time></trkpt><trkpt lat="44.2998191" lon="8.3603687"><ele>362.0</ele><time>2026-05-01T10:12:53.931Z</time></trkpt><trkpt lat="44.2997155" lon="8.3604085"><ele>362.0</ele><time>2026-05-01T10:12:55.93Z</time></trkpt><trkpt lat="44.2996196" lon="8.3604434"><ele>362.0</ele><time>2026-05-01T10:12:57.931Z</time></trkpt><trkpt lat="44.2995201" lon="8.3604435"><ele>362.0</ele><time>2026-05-01T10:12:59.931Z</time></trkpt><trkpt lat="44.2994188" lon="8.3604107"><ele>364.0</ele><time>2026-05-01T10:13:01.932Z</time></trkpt><trkpt lat="44.2993105" lon="8.3603748"><ele>366.0</ele><time>2026-05-01T10:13:03.932Z</time></trkpt><trkpt lat="44.2992068" lon="8.3603876"><ele>368.0</ele><time>2026-05-01T10:13:05.93Z</time></trkpt><trkpt lat="44.2991053" lon="8.3604278"><ele>370.0</ele><time>2026-05-01T10:13:07.93Z</time></trkpt><trkpt lat="44.2990105" lon="8.3605218"><ele>372.0</ele><time>2026-05-01T10:13:09.931Z</time></trkpt><trkpt lat="44.2989412" lon="8.3606555"><ele>371.8333333333333</ele><time>2026-05-01T10:13:11.932Z</time></trkpt><trkpt lat="44.2988883" lon="8.3607562"><ele>371.6666666666667</ele><time>2026-05-01T10:13:13.931Z</time></trkpt><trkpt lat="44.2988171" lon="8.3608747"><ele>371.5</ele><time>2026-05-01T10:13:15.93Z</time></trkpt><trkpt lat="44.2987681" lon="8.3609536"><ele>371.33333333333337</ele><time>2026-05-01T10:13:17.93Z</time></trkpt><trkpt lat="44.2987454" lon="8.3610696"><ele>371.1666666666667</ele><time>2026-05-01T10:13:19.93Z</time></trkpt><trkpt lat="44.2987602" lon="8.3611692"><ele>371.0</ele><time>2026-05-01T10:13:21.931Z</time></trkpt><trkpt lat="44.2988018" lon="8.3613233"><ele>369.0</ele><time>2026-05-01T10:13:23.93Z</time></trkpt><trkpt lat="44.298829" lon="8.3614072"><ele>367.0</ele><time>2026-05-01T10:13:24.931Z</time></trkpt><trkpt lat="44.298863" lon="8.3615575"><ele>365.0</ele><time>2026-05-01T10:13:26.932Z</time></trkpt><trkpt lat="44.2988841" lon="8.3616925"><ele>363.0</ele><time>2026-05-01T10:13:28.93Z</time></trkpt><trkpt lat="44.2988861" lon="8.3618291"><ele>361.0</ele><time>2026-05-01T10:13:30.931Z</time></trkpt><trkpt lat="44.2988686" lon="8.3619842"><ele>361.0</ele><time>2026-05-01T10:13:32.931Z</time></trkpt><trkpt lat="44.2988254" lon="8.3621286"><ele>361.0</ele><time>2026-05-01T10:13:34.931Z</time></trkpt><trkpt lat="44.298797" lon="8.3622501"><ele>361.0</ele><time>2026-05-01T10:13:35.931Z</time></trkpt><trkpt lat="44.298775" lon="8.3623891"><ele>361.0</ele><time>2026-05-01T10:13:36.932Z</time></trkpt><trkpt lat="44.2987598" lon="8.3625303"><ele>361.0</ele><time>2026-05-01T10:13:37.932Z</time></trkpt><trkpt lat="44.2987493" lon="8.3626578"><ele>358.8</ele><time>2026-05-01T10:13:38.932Z</time></trkpt><trkpt lat="44.2987346" lon="8.3627828"><ele>356.6</ele><time>2026-05-01T10:13:39.933Z</time></trkpt><trkpt lat="44.2987159" lon="8.3629011"><ele>354.4</ele><time>2026-05-01T10:13:40.932Z</time></trkpt><trkpt lat="44.298697" lon="8.3630117"><ele>352.2</ele><time>2026-05-01T10:13:41.932Z</time></trkpt><trkpt lat="44.2986211" lon="8.3631367"><ele>350.0</ele><time>2026-05-01T10:13:43.93Z</time></trkpt><trkpt lat="44.2985118" lon="8.3632157"><ele>350.0</ele><time>2026-05-01T10:13:45.932Z</time></trkpt><trkpt lat="44.2984429" lon="8.3632325"><ele>350.0</ele><time>2026-05-01T10:13:46.931Z</time></trkpt><trkpt lat="44.2983629" lon="8.3632544"><ele>350.0</ele><time>2026-05-01T10:13:47.931Z</time></trkpt><trkpt lat="44.2982793" lon="8.3633087"><ele>350.0</ele><time>2026-05-01T10:13:48.93Z</time></trkpt><trkpt lat="44.298194" lon="8.3633748"><ele>350.0</ele><time>2026-05-01T10:13:49.931Z</time></trkpt><trkpt lat="44.2981143" lon="8.3634635"><ele>350.0</ele><time>2026-05-01T10:13:50.93Z</time></trkpt><trkpt lat="44.2980208" lon="8.3635552"><ele>350.0</ele><time>2026-05-01T10:13:51.93Z</time></trkpt><trkpt lat="44.2979678" lon="8.3636044"><ele>350.0</ele><time>2026-05-01T10:13:52.931Z</time></trkpt><trkpt lat="44.2979004" lon="8.363661"><ele>350.0</ele><time>2026-05-01T10:13:53.93Z</time></trkpt><trkpt lat="44.2978343" lon="8.363705"><ele>350.0</ele><time>2026-05-01T10:13:54.931Z</time></trkpt><trkpt lat="44.2977616" lon="8.3636974"><ele>350.0</ele><time>2026-05-01T10:13:55.93Z</time></trkpt><trkpt lat="44.2976883" lon="8.3637354"><ele>350.0</ele><time>2026-05-01T10:13:56.931Z</time></trkpt><trkpt lat="44.2976248" lon="8.3637761"><ele>350.0</ele><time>2026-05-01T10:13:57.931Z</time></trkpt><trkpt lat="44.2975615" lon="8.3638835"><ele>346.0</ele><time>2026-05-01T10:13:58.93Z</time></trkpt><trkpt lat="44.2975091" lon="8.3640065"><ele>342.0</ele><time>2026-05-01T10:13:59.931Z</time></trkpt><trkpt lat="44.2974498" lon="8.3641491"><ele>338.0</ele><time>2026-05-01T10:14:00.931Z</time></trkpt><trkpt lat="44.2973868" lon="8.3642871"><ele>334.0</ele><time>2026-05-01T10:14:01.932Z</time></trkpt><trkpt lat="44.2973261" lon="8.3644319"><ele>334.0</ele><time>2026-05-01T10:14:02.931Z</time></trkpt><trkpt lat="44.2972981" lon="8.3645786"><ele>334.0</ele><time>2026-05-01T10:14:03.93Z</time></trkpt><trkpt lat="44.2972636" lon="8.3647327"><ele>334.0</ele><time>2026-05-01T10:14:04.931Z</time></trkpt><trkpt lat="44.2972263" lon="8.364883"><ele>334.0</ele><time>2026-05-01T10:14:05.93Z</time></trkpt><trkpt lat="44.2971971" lon="8.3650361"><ele>335.0</ele><time>2026-05-01T10:14:06.931Z</time></trkpt><trkpt lat="44.297192" lon="8.3651804"><ele>336.0</ele><time>2026-05-01T10:14:07.931Z</time></trkpt><trkpt lat="44.2971824" lon="8.365305"><ele>337.0</ele><time>2026-05-01T10:14:08.93Z</time></trkpt><trkpt lat="44.2971624" lon="8.3654236"><ele>338.0</ele><time>2026-05-01T10:14:09.93Z</time></trkpt><trkpt lat="44.2971383" lon="8.3655258"><ele>339.0</ele><time>2026-05-01T10:14:10.932Z</time></trkpt><trkpt lat="44.2970975" lon="8.3656196"><ele>340.0</ele><time>2026-05-01T10:14:11.93Z</time></trkpt><trkpt lat="44.2970402" lon="8.3657086"><ele>337.5</ele><time>2026-05-01T10:14:12.931Z</time></trkpt><trkpt lat="44.2969706" lon="8.3658008"><ele>335.0</ele><time>2026-05-01T10:14:13.93Z</time></trkpt><trkpt lat="44.296903" lon="8.365909"><ele>332.5</ele><time>2026-05-01T10:14:14.93Z</time></trkpt><trkpt lat="44.2968457" lon="8.3659983"><ele>330.0</ele><time>2026-05-01T10:14:15.931Z</time></trkpt><trkpt lat="44.2968067" lon="8.3660845"><ele>327.5</ele><time>2026-05-01T10:14:16.931Z</time></trkpt><trkpt lat="44.2967876" lon="8.3661823"><ele>325.0</ele><time>2026-05-01T10:14:17.933Z</time></trkpt><trkpt lat="44.2967962" lon="8.3663263"><ele>323.2</ele><time>2026-05-01T10:14:18.931Z</time></trkpt><trkpt lat="44.2968126" lon="8.3664841"><ele>321.4</ele><time>2026-05-01T10:14:19.931Z</time></trkpt><trkpt lat="44.2968322" lon="8.3666443"><ele>319.6</ele><time>2026-05-01T10:14:20.931Z</time></trkpt><trkpt lat="44.296859" lon="8.3667912"><ele>317.8</ele><time>2026-05-01T10:14:21.93Z</time></trkpt><trkpt lat="44.2968873" lon="8.3669348"><ele>316.0</ele><time>2026-05-01T10:14:22.931Z</time></trkpt><trkpt lat="44.2969125" lon="8.3670721"><ele>315.16666666666663</ele><time>2026-05-01T10:14:23.932Z</time></trkpt><trkpt lat="44.2969326" lon="8.367204"><ele>314.3333333333333</ele><time>2026-05-01T10:14:24.93Z</time></trkpt><trkpt lat="44.2969576" lon="8.3673314"><ele>313.5</ele><time>2026-05-01T10:14:25.93Z</time></trkpt><trkpt lat="44.296975" lon="8.3674512"><ele>312.6666666666667</ele><time>2026-05-01T10:14:26.932Z</time></trkpt><trkpt lat="44.2969955" lon="8.3675589"><ele>311.83333333333337</ele><time>2026-05-01T10:14:27.931Z</time></trkpt><trkpt lat="44.29702" lon="8.3676686"><ele>311.0</ele><time>2026-05-01T10:14:28.93Z</time></trkpt><trkpt lat="44.2970343" lon="8.3677562"><ele>311.0</ele><time>2026-05-01T10:14:29.93Z</time></trkpt><trkpt lat="44.297043" lon="8.3678476"><ele>311.0</ele><time>2026-05-01T10:14:30.931Z</time></trkpt><trkpt lat="44.2970191" lon="8.3679324"><ele>311.0</ele><time>2026-05-01T10:14:31.932Z</time></trkpt><trkpt lat="44.2969713" lon="8.3680295"><ele>311.0</ele><time>2026-05-01T10:14:32.932Z</time></trkpt><trkpt lat="44.2969146" lon="8.3681495"><ele>311.0</ele><time>2026-05-01T10:14:33.931Z</time></trkpt><trkpt lat="44.2968636" lon="8.3682677"><ele>311.0</ele><time>2026-05-01T10:14:34.931Z</time></trkpt><trkpt lat="44.2968226" lon="8.3683413"><ele>307.2</ele><time>2026-05-01T10:14:35.932Z</time></trkpt><trkpt lat="44.2967339" lon="8.3684448"><ele>303.40000000000003</ele><time>2026-05-01T10:14:37.93Z</time></trkpt><trkpt lat="44.2966157" lon="8.368424"><ele>299.6</ele><time>2026-05-01T10:14:39.931Z</time></trkpt><trkpt lat="44.2965276" lon="8.3683842"><ele>295.8</ele><time>2026-05-01T10:14:40.932Z</time></trkpt><trkpt lat="44.2964502" lon="8.3683343"><ele>292.0</ele><time>2026-05-01T10:14:41.932Z</time></trkpt><trkpt lat="44.2963751" lon="8.3682832"><ele>295.0</ele><time>2026-05-01T10:14:42.932Z</time></trkpt><trkpt lat="44.296308" lon="8.3682233"><ele>298.0</ele><time>2026-05-01T10:14:43.933Z</time></trkpt><trkpt lat="44.2962372" lon="8.3681347"><ele>301.0</ele><time>2026-05-01T10:14:44.93Z</time></trkpt><trkpt lat="44.2961626" lon="8.3680489"><ele>304.0</ele><time>2026-05-01T10:14:45.931Z</time></trkpt><trkpt lat="44.296101" lon="8.3679499"><ele>307.0</ele><time>2026-05-01T10:14:46.932Z</time></trkpt><trkpt lat="44.2960508" lon="8.3678436"><ele>307.0</ele><time>2026-05-01T10:14:47.93Z</time></trkpt><trkpt lat="44.2960103" lon="8.3677598"><ele>307.0</ele><time>2026-05-01T10:14:48.931Z</time></trkpt><trkpt lat="44.2959546" lon="8.3676951"><ele>307.0</ele><time>2026-05-01T10:14:49.931Z</time></trkpt><trkpt lat="44.2958674" lon="8.3676285"><ele>307.0</ele><time>2026-05-01T10:14:50.93Z</time></trkpt><trkpt lat="44.2957671" lon="8.3675687"><ele>307.0</ele><time>2026-05-01T10:14:51.931Z</time></trkpt><trkpt lat="44.2956535" lon="8.3675118"><ele>301.8</ele><time>2026-05-01T10:14:52.93Z</time></trkpt><trkpt lat="44.2955458" lon="8.3674703"><ele>296.6</ele><time>2026-05-01T10:14:53.931Z</time></trkpt><trkpt lat="44.2954397" lon="8.3674298"><ele>291.40000000000003</ele><time>2026-05-01T10:14:54.93Z</time></trkpt><trkpt lat="44.2953387" lon="8.367396"><ele>286.2</ele><time>2026-05-01T10:14:55.931Z</time></trkpt><trkpt lat="44.2952437" lon="8.3673886"><ele>281.0</ele><time>2026-05-01T10:14:56.931Z</time></trkpt><trkpt lat="44.2951534" lon="8.3674004"><ele>281.0</ele><time>2026-05-01T10:14:57.93Z</time></trkpt><trkpt lat="44.2950676" lon="8.3674273"><ele>281.0</ele><time>2026-05-01T10:14:58.931Z</time></trkpt><trkpt lat="44.2949837" lon="8.367455"><ele>281.0</ele><time>2026-05-01T10:14:59.93Z</time></trkpt><trkpt lat="44.2949067" lon="8.3674712"><ele>281.0</ele><time>2026-05-01T10:15:00.931Z</time></trkpt><trkpt lat="44.294836" lon="8.3674801"><ele>281.0</ele><time>2026-05-01T10:15:01.93Z</time></trkpt><trkpt lat="44.2947333" lon="8.3674768"><ele>281.0</ele><time>2026-05-01T10:15:03.932Z</time></trkpt><trkpt lat="44.2946781" lon="8.3673655"><ele>277.6</ele><time>2026-05-01T10:15:05.931Z</time></trkpt><trkpt lat="44.294674" lon="8.3671756"><ele>274.20000000000005</ele><time>2026-05-01T10:15:07.932Z</time></trkpt><trkpt lat="44.2946962" lon="8.3670596"><ele>270.79999999999995</ele><time>2026-05-01T10:15:08.931Z</time></trkpt><trkpt lat="44.2947213" lon="8.3669426"><ele>267.4</ele><time>2026-05-01T10:15:09.931Z</time></trkpt><trkpt lat="44.2947364" lon="8.3668319"><ele>264.0</ele><time>2026-05-01T10:15:10.932Z</time></trkpt><trkpt lat="44.2947431" lon="8.366735"><ele>264.0</ele><time>2026-05-01T10:15:11.931Z</time></trkpt><trkpt lat="44.2947414" lon="8.3666389"><ele>264.0</ele><time>2026-05-01T10:15:12.932Z</time></trkpt><trkpt lat="44.2947315" lon="8.3665365"><ele>264.0</ele><time>2026-05-01T10:15:13.931Z</time></trkpt><trkpt lat="44.2947157" lon="8.3664407"><ele>264.0</ele><time>2026-05-01T10:15:14.931Z</time></trkpt><trkpt lat="44.2947" lon="8.3663461"><ele>264.0</ele><time>2026-05-01T10:15:15.932Z</time></trkpt><trkpt lat="44.2946839" lon="8.3662478"><ele>264.0</ele><time>2026-05-01T10:15:16.932Z</time></trkpt><trkpt lat="44.2946626" lon="8.3661546"><ele>264.0</ele><time>2026-05-01T10:15:17.93Z</time></trkpt><trkpt lat="44.2946437" lon="8.3660621"><ele>264.0</ele><time>2026-05-01T10:15:18.93Z</time></trkpt><trkpt lat="44.2946307" lon="8.3659578"><ele>264.0</ele><time>2026-05-01T10:15:19.93Z</time></trkpt><trkpt lat="44.294623" lon="8.3658474"><ele>264.0</ele><time>2026-05-01T10:15:20.93Z</time></trkpt><trkpt lat="44.2946134" lon="8.3657216"><ele>264.0</ele><time>2026-05-01T10:15:21.93Z</time></trkpt><trkpt lat="44.2946162" lon="8.3655869"><ele>264.0</ele><time>2026-05-01T10:15:22.931Z</time></trkpt><trkpt lat="44.294612" lon="8.3654685"><ele>264.0</ele><time>2026-05-01T10:15:23.932Z</time></trkpt><trkpt lat="44.2945971" lon="8.3653466"><ele>263.6666666666667</ele><time>2026-05-01T10:15:24.931Z</time></trkpt><trkpt lat="44.2945859" lon="8.3652412"><ele>263.3333333333333</ele><time>2026-05-01T10:15:25.931Z</time></trkpt><trkpt lat="44.2945669" lon="8.3651251"><ele>263.0</ele><time>2026-05-01T10:15:26.931Z</time></trkpt><trkpt lat="44.2945583" lon="8.3650089"><ele>262.66666666666663</ele><time>2026-05-01T10:15:27.931Z</time></trkpt><trkpt lat="44.2945444" lon="8.3649019"><ele>262.3333333333333</ele><time>2026-05-01T10:15:28.93Z</time></trkpt><trkpt lat="44.2945219" lon="8.3647989"><ele>262.0</ele><time>2026-05-01T10:15:29.93Z</time></trkpt><trkpt lat="44.2944788" lon="8.3646946"><ele>262.66666666666663</ele><time>2026-05-01T10:15:30.931Z</time></trkpt><trkpt lat="44.2944266" lon="8.364584"><ele>263.3333333333333</ele><time>2026-05-01T10:15:31.931Z</time></trkpt><trkpt lat="44.294374" lon="8.3644789"><ele>264.0</ele><time>2026-05-01T10:15:32.931Z</time></trkpt><trkpt lat="44.2943235" lon="8.3643757"><ele>264.6666666666667</ele><time>2026-05-01T10:15:33.93Z</time></trkpt><trkpt lat="44.2942777" lon="8.3642774"><ele>265.33333333333337</ele><time>2026-05-01T10:15:34.931Z</time></trkpt><trkpt lat="44.2942368" lon="8.3641824"><ele>266.0</ele><time>2026-05-01T10:15:35.93Z</time></trkpt><trkpt lat="44.2942016" lon="8.3640966"><ele>266.0</ele><time>2026-05-01T10:15:36.931Z</time></trkpt><trkpt lat="44.2941838" lon="8.3640097"><ele>266.0</ele><time>2026-05-01T10:15:37.932Z</time></trkpt><trkpt lat="44.2941672" lon="8.3638358"><ele>266.0</ele><time>2026-05-01T10:15:39.931Z</time></trkpt><trkpt lat="44.2941294" lon="8.363678"><ele>266.0</ele><time>2026-05-01T10:15:41.93Z</time></trkpt><trkpt lat="44.29407" lon="8.3636055"><ele>266.0</ele><time>2026-05-01T10:15:42.931Z</time></trkpt><trkpt lat="44.2940071" lon="8.3635173"><ele>267.6666666666667</ele><time>2026-05-01T10:15:43.931Z</time></trkpt><trkpt lat="44.2939382" lon="8.3634281"><ele>269.33333333333337</ele><time>2026-05-01T10:15:44.931Z</time></trkpt><trkpt lat="44.2938753" lon="8.3633464"><ele>271.0</ele><time>2026-05-01T10:15:45.932Z</time></trkpt><trkpt lat="44.2938226" lon="8.3632581"><ele>272.6666666666667</ele><time>2026-05-01T10:15:46.931Z</time></trkpt><trkpt lat="44.2937781" lon="8.363172"><ele>274.3333333333333</ele><time>2026-05-01T10:15:47.932Z</time></trkpt><trkpt lat="44.2937415" lon="8.3630843"><ele>276.0</ele><time>2026-05-01T10:15:48.93Z</time></trkpt><trkpt lat="44.2937143" lon="8.3629912"><ele>271.1666666666667</ele><time>2026-05-01T10:15:49.932Z</time></trkpt><trkpt lat="44.2936948" lon="8.3628831"><ele>266.3333333333333</ele><time>2026-05-01T10:15:50.931Z</time></trkpt><trkpt lat="44.293674" lon="8.3627699"><ele>261.5</ele><time>2026-05-01T10:15:51.931Z</time></trkpt><trkpt lat="44.2936586" lon="8.3626442"><ele>256.66666666666663</ele><time>2026-05-01T10:15:52.93Z</time></trkpt><trkpt lat="44.2936441" lon="8.3625226"><ele>251.83333333333331</ele><time>2026-05-01T10:15:53.931Z</time></trkpt><trkpt lat="44.2936123" lon="8.3623994"><ele>247.0</ele><time>2026-05-01T10:15:54.931Z</time></trkpt><trkpt lat="44.2935438" lon="8.3622659"><ele>249.6</ele><time>2026-05-01T10:15:55.932Z</time></trkpt><trkpt lat="44.2934518" lon="8.3621404"><ele>252.2</ele><time>2026-05-01T10:15:56.931Z</time></trkpt><trkpt lat="44.2933715" lon="8.3620263"><ele>254.8</ele><time>2026-05-01T10:15:57.931Z</time></trkpt><trkpt lat="44.2933006" lon="8.3619172"><ele>257.4</ele><time>2026-05-01T10:15:58.932Z</time></trkpt><trkpt lat="44.2932372" lon="8.3618246"><ele>260.0</ele><time>2026-05-01T10:15:59.93Z</time></trkpt><trkpt lat="44.2931838" lon="8.3617587"><ele>260.0</ele><time>2026-05-01T10:16:00.932Z</time></trkpt><trkpt lat="44.2931211" lon="8.3616164"><ele>260.0</ele><time>2026-05-01T10:16:02.931Z</time></trkpt><trkpt lat="44.2931157" lon="8.3615272"><ele>260.0</ele><time>2026-05-01T10:16:03.931Z</time></trkpt><trkpt lat="44.2931201" lon="8.3614236"><ele>260.0</ele><time>2026-05-01T10:16:04.932Z</time></trkpt><trkpt lat="44.2931204" lon="8.3613275"><ele>260.0</ele><time>2026-05-01T10:16:05.932Z</time></trkpt><trkpt lat="44.2930686" lon="8.3611956"><ele>260.0</ele><time>2026-05-01T10:16:07.931Z</time></trkpt><trkpt lat="44.292977" lon="8.3612329"><ele>253.4</ele><time>2026-05-01T10:16:09.93Z</time></trkpt><trkpt lat="44.2929505" lon="8.3614044"><ele>246.8</ele><time>2026-05-01T10:16:11.93Z</time></trkpt><trkpt lat="44.2929535" lon="8.3615276"><ele>240.2</ele><time>2026-05-01T10:16:12.93Z</time></trkpt><trkpt lat="44.2929745" lon="8.3616594"><ele>233.6</ele><time>2026-05-01T10:16:13.931Z</time></trkpt><trkpt lat="44.2930077" lon="8.3617757"><ele>227.0</ele><time>2026-05-01T10:16:14.932Z</time></trkpt><trkpt lat="44.2930537" lon="8.361881"><ele>230.33333333333334</ele><time>2026-05-01T10:16:15.93Z</time></trkpt><trkpt lat="44.2931039" lon="8.3619762"><ele>233.66666666666669</ele><time>2026-05-01T10:16:16.931Z</time></trkpt><trkpt lat="44.2931581" lon="8.3620641"><ele>237.0</ele><time>2026-05-01T10:16:17.93Z</time></trkpt><trkpt lat="44.2932132" lon="8.3621565"><ele>240.33333333333331</ele><time>2026-05-01T10:16:18.93Z</time></trkpt><trkpt lat="44.2932615" lon="8.3622431"><ele>243.66666666666666</ele><time>2026-05-01T10:16:19.93Z</time></trkpt><trkpt lat="44.2932945" lon="8.3623454"><ele>247.0</ele><time>2026-05-01T10:16:20.932Z</time></trkpt><trkpt lat="44.2933254" lon="8.3624487"><ele>246.99999999999997</ele><time>2026-05-01T10:16:21.931Z</time></trkpt><trkpt lat="44.2933433" lon="8.3625606"><ele>247.0</ele><time>2026-05-01T10:16:22.93Z</time></trkpt><trkpt lat="44.2933452" lon="8.3626941"><ele>247.0</ele><time>2026-05-01T10:16:23.932Z</time></trkpt><trkpt lat="44.2933425" lon="8.3628257"><ele>247.0</ele><time>2026-05-01T10:16:24.93Z</time></trkpt><trkpt lat="44.2933523" lon="8.362951"><ele>246.99999999999997</ele><time>2026-05-01T10:16:25.931Z</time></trkpt><trkpt lat="44.2933656" lon="8.3630688"><ele>247.0</ele><time>2026-05-01T10:16:26.93Z</time></trkpt><trkpt lat="44.293386" lon="8.3631877"><ele>245.49999999999997</ele><time>2026-05-01T10:16:27.931Z</time></trkpt><trkpt lat="44.2934105" lon="8.3633011"><ele>244.0</ele><time>2026-05-01T10:16:28.931Z</time></trkpt><trkpt lat="44.2934423" lon="8.3634062"><ele>242.5</ele><time>2026-05-01T10:16:29.931Z</time></trkpt><trkpt lat="44.2934641" lon="8.3635005"><ele>241.0</ele><time>2026-05-01T10:16:30.93Z</time></trkpt><trkpt lat="44.2934696" lon="8.363633"><ele>239.49999999999997</ele><time>2026-05-01T10:16:32.932Z</time></trkpt><trkpt lat="44.2934152" lon="8.3637521"><ele>238.0</ele><time>2026-05-01T10:16:34.93Z</time></trkpt><trkpt lat="44.2933654" lon="8.3638128"><ele>238.0</ele><time>2026-05-01T10:16:35.93Z</time></trkpt><trkpt lat="44.2933068" lon="8.3638973"><ele>238.0</ele><time>2026-05-01T10:16:36.931Z</time></trkpt><trkpt lat="44.2932545" lon="8.3639778"><ele>238.0</ele><time>2026-05-01T10:16:37.93Z</time></trkpt><trkpt lat="44.2932125" lon="8.3640625"><ele>238.0</ele><time>2026-05-01T10:16:38.931Z</time></trkpt><trkpt lat="44.2931886" lon="8.3641498"><ele>238.0</ele><time>2026-05-01T10:16:39.931Z</time></trkpt><trkpt lat="44.2931633" lon="8.3642484"><ele>238.0</ele><time>2026-05-01T10:16:40.932Z</time></trkpt><trkpt lat="44.2931448" lon="8.3643429"><ele>238.0</ele><time>2026-05-01T10:16:41.931Z</time></trkpt><trkpt lat="44.293131" lon="8.3644363"><ele>237.99999999999997</ele><time>2026-05-01T10:16:42.931Z</time></trkpt><trkpt lat="44.2931254" lon="8.3645406"><ele>238.0</ele><time>2026-05-01T10:16:43.931Z</time></trkpt><trkpt lat="44.2931226" lon="8.364646"><ele>238.0</ele><time>2026-05-01T10:16:44.932Z</time></trkpt><trkpt lat="44.2931234" lon="8.3647478"><ele>238.0</ele><time>2026-05-01T10:16:45.931Z</time></trkpt><trkpt lat="44.2931166" lon="8.3648426"><ele>237.99999999999997</ele><time>2026-05-01T10:16:46.931Z</time></trkpt><trkpt lat="44.2931122" lon="8.3650049"><ele>238.0</ele><time>2026-05-01T10:16:48.931Z</time></trkpt><trkpt lat="44.2931101" lon="8.3651397"><ele>238.0</ele><time>2026-05-01T10:16:50.931Z</time></trkpt><trkpt lat="44.2931149" lon="8.3652777"><ele>238.0</ele><time>2026-05-01T10:16:52.931Z</time></trkpt><trkpt lat="44.2931148" lon="8.3654281"><ele>238.0</ele><time>2026-05-01T10:16:54.93Z</time></trkpt><trkpt lat="44.2931249" lon="8.3655854"><ele>238.0</ele><time>2026-05-01T10:16:56.93Z</time></trkpt><trkpt lat="44.2930838" lon="8.3657124"><ele>238.0</ele><time>2026-05-01T10:16:58.932Z</time></trkpt><trkpt lat="44.2930101" lon="8.3657938"><ele>237.8</ele><time>2026-05-01T10:17:00.93Z</time></trkpt><trkpt lat="44.2929974" lon="8.3659152"><ele>237.60000000000002</ele><time>2026-05-01T10:17:02.931Z</time></trkpt><trkpt lat="44.2930571" lon="8.3660657"><ele>237.39999999999998</ele><time>2026-05-01T10:17:04.932Z</time></trkpt><trkpt lat="44.2930763" lon="8.3661913"><ele>237.2</ele><time>2026-05-01T10:17:05.93Z</time></trkpt><trkpt lat="44.2930969" lon="8.3663189"><ele>237.0</ele><time>2026-05-01T10:17:06.93Z</time></trkpt><trkpt lat="44.2931041" lon="8.3664442"><ele>236.33333333333334</ele><time>2026-05-01T10:17:07.93Z</time></trkpt><trkpt lat="44.2931094" lon="8.3665707"><ele>235.66666666666669</ele><time>2026-05-01T10:17:08.93Z</time></trkpt><trkpt lat="44.2931059" lon="8.3666929"><ele>235.0</ele><time>2026-05-01T10:17:09.932Z</time></trkpt><trkpt lat="44.2931018" lon="8.3668162"><ele>234.33333333333334</ele><time>2026-05-01T10:17:10.932Z</time></trkpt><trkpt lat="44.2930923" lon="8.3669296"><ele>233.66666666666669</ele><time>2026-05-01T10:17:11.93Z</time></trkpt><trkpt lat="44.2930672" lon="8.3670281"><ele>233.0</ele><time>2026-05-01T10:17:12.931Z</time></trkpt><trkpt lat="44.2930372" lon="8.3671298"><ele>232.8</ele><time>2026-05-01T10:17:13.931Z</time></trkpt><trkpt lat="44.2930264" lon="8.3672345"><ele>232.60000000000002</ele><time>2026-05-01T10:17:14.931Z</time></trkpt><trkpt lat="44.2930399" lon="8.3673558"><ele>232.39999999999998</ele><time>2026-05-01T10:17:15.93Z</time></trkpt><trkpt lat="44.2930612" lon="8.3674979"><ele>232.2</ele><time>2026-05-01T10:17:16.931Z</time></trkpt><trkpt lat="44.2930839" lon="8.3676458"><ele>232.0</ele><time>2026-05-01T10:17:17.931Z</time></trkpt><trkpt lat="44.2930965" lon="8.3677863"><ele>232.0</ele><time>2026-05-01T10:17:18.931Z</time></trkpt><trkpt lat="44.2931021" lon="8.3679321"><ele>232.0</ele><time>2026-05-01T10:17:19.93Z</time></trkpt><trkpt lat="44.2931134" lon="8.3680625"><ele>232.0</ele><time>2026-05-01T10:17:20.931Z</time></trkpt><trkpt lat="44.2931339" lon="8.3681752"><ele>232.0</ele><time>2026-05-01T10:17:21.932Z</time></trkpt><trkpt lat="44.2931411" lon="8.368327"><ele>232.0</ele><time>2026-05-01T10:17:23.931Z</time></trkpt><trkpt lat="44.2930737" lon="8.3683979"><ele>226.83333333333331</ele><time>2026-05-01T10:17:25.931Z</time></trkpt><trkpt lat="44.293018" lon="8.3682843"><ele>221.66666666666666</ele><time>2026-05-01T10:17:27.931Z</time></trkpt><trkpt lat="44.2930063" lon="8.3681744"><ele>216.5</ele><time>2026-05-01T10:17:28.93Z</time></trkpt><trkpt lat="44.2929891" lon="8.3680605"><ele>211.33333333333331</ele><time>2026-05-01T10:17:29.932Z</time></trkpt><trkpt lat="44.2929495" lon="8.3679573"><ele>206.16666666666666</ele><time>2026-05-01T10:17:30.931Z</time></trkpt><trkpt lat="44.2928981" lon="8.367859"><ele>201.0</ele><time>2026-05-01T10:17:31.931Z</time></trkpt><trkpt lat="44.2928267" lon="8.367747"><ele>201.0</ele><time>2026-05-01T10:17:32.931Z</time></trkpt><trkpt lat="44.2927521" lon="8.3676206"><ele>201.0</ele><time>2026-05-01T10:17:33.931Z</time></trkpt><trkpt lat="44.2926738" lon="8.3675163"><ele>201.0</ele><time>2026-05-01T10:17:34.93Z</time></trkpt><trkpt lat="44.2925984" lon="8.3674077"><ele>201.0</ele><time>2026-05-01T10:17:35.93Z</time></trkpt><trkpt lat="44.2925352" lon="8.3672998"><ele>201.0</ele><time>2026-05-01T10:17:36.93Z</time></trkpt><trkpt lat="44.2924821" lon="8.3671951"><ele>201.83333333333334</ele><time>2026-05-01T10:17:37.931Z</time></trkpt><trkpt lat="44.2924347" lon="8.3670866"><ele>202.66666666666669</ele><time>2026-05-01T10:17:38.932Z</time></trkpt><trkpt lat="44.2923946" lon="8.3669849"><ele>203.5</ele><time>2026-05-01T10:17:39.93Z</time></trkpt><trkpt lat="44.292353" lon="8.3668855"><ele>204.33333333333334</ele><time>2026-05-01T10:17:40.932Z</time></trkpt><trkpt lat="44.2923132" lon="8.3667848"><ele>205.16666666666669</ele><time>2026-05-01T10:17:41.931Z</time></trkpt><trkpt lat="44.2922829" lon="8.3666812"><ele>206.0</ele><time>2026-05-01T10:17:42.931Z</time></trkpt><trkpt lat="44.2922546" lon="8.3665854"><ele>206.66666666666669</ele><time>2026-05-01T10:17:43.93Z</time></trkpt><trkpt lat="44.2922392" lon="8.3664814"><ele>207.33333333333334</ele><time>2026-05-01T10:17:44.931Z</time></trkpt><trkpt lat="44.2922291" lon="8.3663799"><ele>208.0</ele><time>2026-05-01T10:17:45.932Z</time></trkpt><trkpt lat="44.2922408" lon="8.3662769"><ele>208.66666666666669</ele><time>2026-05-01T10:17:46.931Z</time></trkpt><trkpt lat="44.2922675" lon="8.3661882"><ele>209.33333333333334</ele><time>2026-05-01T10:17:47.93Z</time></trkpt><trkpt lat="44.2922742" lon="8.3660992"><ele>210.0</ele><time>2026-05-01T10:17:48.93Z</time></trkpt><trkpt lat="44.2922029" lon="8.3659938"><ele>202.8</ele><time>2026-05-01T10:17:50.932Z</time></trkpt><trkpt lat="44.2921255" lon="8.366054"><ele>195.6</ele><time>2026-05-01T10:17:52.93Z</time></trkpt><trkpt lat="44.2921271" lon="8.3661893"><ele>188.39999999999998</ele><time>2026-05-01T10:17:53.93Z</time></trkpt><trkpt lat="44.2921289" lon="8.366338"><ele>181.2</ele><time>2026-05-01T10:17:54.931Z</time></trkpt><trkpt lat="44.2921391" lon="8.366505"><ele>174.0</ele><time>2026-05-01T10:17:55.931Z</time></trkpt><trkpt lat="44.2921525" lon="8.3666531"><ele>173.2</ele><time>2026-05-01T10:17:56.931Z</time></trkpt><trkpt lat="44.2921711" lon="8.3667906"><ele>172.39999999999998</ele><time>2026-05-01T10:17:57.931Z</time></trkpt><trkpt lat="44.2921704" lon="8.3669222"><ele>171.6</ele><time>2026-05-01T10:17:58.932Z</time></trkpt><trkpt lat="44.2921458" lon="8.3670633"><ele>170.8</ele><time>2026-05-01T10:17:59.931Z</time></trkpt><trkpt lat="44.2920986" lon="8.367202"><ele>170.0</ele><time>2026-05-01T10:18:00.932Z</time></trkpt><trkpt lat="44.2920562" lon="8.3673355"><ele>169.2</ele><time>2026-05-01T10:18:01.93Z</time></trkpt><trkpt lat="44.2920342" lon="8.3674676"><ele>168.4</ele><time>2026-05-01T10:18:02.93Z</time></trkpt><trkpt lat="44.2920389" lon="8.3675944"><ele>167.60000000000002</ele><time>2026-05-01T10:18:03.93Z</time></trkpt><trkpt lat="44.292077" lon="8.3677118"><ele>166.8</ele><time>2026-05-01T10:18:04.931Z</time></trkpt><trkpt lat="44.2921444" lon="8.3678174"><ele>166.0</ele><time>2026-05-01T10:18:05.93Z</time></trkpt><trkpt lat="44.2922343" lon="8.3679157"><ele>171.25</ele><time>2026-05-01T10:18:06.93Z</time></trkpt><trkpt lat="44.2923311" lon="8.3680207"><ele>176.5</ele><time>2026-05-01T10:18:07.93Z</time></trkpt><trkpt lat="44.2924233" lon="8.3681335"><ele>181.75</ele><time>2026-05-01T10:18:08.931Z</time></trkpt><trkpt lat="44.2925046" lon="8.3682569"><ele>187.0</ele><time>2026-05-01T10:18:09.93Z</time></trkpt><trkpt lat="44.2925764" lon="8.3683866"><ele>187.0</ele><time>2026-05-01T10:18:10.93Z</time></trkpt><trkpt lat="44.292636" lon="8.3685323"><ele>187.0</ele><time>2026-05-01T10:18:11.93Z</time></trkpt><trkpt lat="44.2926842" lon="8.3686809"><ele>187.0</ele><time>2026-05-01T10:18:12.93Z</time></trkpt><trkpt lat="44.2927329" lon="8.3688297"><ele>187.0</ele><time>2026-05-01T10:18:13.931Z</time></trkpt><trkpt lat="44.2927766" lon="8.3689847"><ele>183.39999999999998</ele><time>2026-05-01T10:18:14.932Z</time></trkpt><trkpt lat="44.2928185" lon="8.3691218"><ele>179.79999999999998</ele><time>2026-05-01T10:18:15.932Z</time></trkpt><trkpt lat="44.2928604" lon="8.3692555"><ele>176.2</ele><time>2026-05-01T10:18:16.93Z</time></trkpt><trkpt lat="44.2929002" lon="8.36938"><ele>172.6</ele><time>2026-05-01T10:18:17.93Z</time></trkpt><trkpt lat="44.2929532" lon="8.3694831"><ele>169.0</ele><time>2026-05-01T10:18:18.931Z</time></trkpt><trkpt lat="44.2930179" lon="8.3695552"><ele>171.83333333333334</ele><time>2026-05-01T10:18:19.93Z</time></trkpt><trkpt lat="44.2930956" lon="8.3696181"><ele>174.66666666666669</ele><time>2026-05-01T10:18:21.931Z</time></trkpt><trkpt lat="44.29317" lon="8.3695876"><ele>177.5</ele><time>2026-05-01T10:21:32.929Z</time></trkpt><trkpt lat="44.2932408" lon="8.3695727"><ele>180.33333333333334</ele><time>2026-05-01T10:21:34.93Z</time></trkpt><trkpt lat="44.2933159" lon="8.3695427"><ele>183.16666666666666</ele><time>2026-05-01T10:21:36.929Z</time></trkpt><trkpt lat="44.2933925" lon="8.3695363"><ele>186.0</ele><time>2026-05-01T10:21:38.93Z</time></trkpt><trkpt lat="44.2934481" lon="8.3695955"><ele>181.16666666666666</ele><time>2026-05-01T10:21:40.931Z</time></trkpt><trkpt lat="44.2934602" lon="8.3696932"><ele>176.33333333333334</ele><time>2026-05-01T10:21:42.93Z</time></trkpt><trkpt lat="44.2934226" lon="8.3697849"><ele>171.5</ele><time>2026-05-01T10:21:44.93Z</time></trkpt><trkpt lat="44.2933609" lon="8.3698507"><ele>166.66666666666669</ele><time>2026-05-01T10:21:46.929Z</time></trkpt><trkpt lat="44.2932614" lon="8.3698727"><ele>161.83333333333334</ele><time>2026-05-01T10:21:48.929Z</time></trkpt><trkpt lat="44.2931535" lon="8.3698661"><ele>157.0</ele><time>2026-05-01T10:21:50.93Z</time></trkpt><trkpt lat="44.2930479" lon="8.3698623"><ele>154.6</ele><time>2026-05-01T10:21:52.931Z</time></trkpt><trkpt lat="44.2929428" lon="8.3698496"><ele>152.2</ele><time>2026-05-01T10:21:54.929Z</time></trkpt><trkpt lat="44.2928438" lon="8.3698035"><ele>149.8</ele><time>2026-05-01T10:21:56.929Z</time></trkpt><trkpt lat="44.2927486" lon="8.3697027"><ele>147.4</ele><time>2026-05-01T10:21:58.929Z</time></trkpt><trkpt lat="44.292706" lon="8.3696361"><ele>145.0</ele><time>2026-05-01T10:21:59.93Z</time></trkpt><trkpt lat="44.2926549" lon="8.3695709"><ele>148.42857142857144</ele><time>2026-05-01T10:22:00.93Z</time></trkpt><trkpt lat="44.2926033" lon="8.3695072"><ele>151.85714285714286</ele><time>2026-05-01T10:22:01.929Z</time></trkpt><trkpt lat="44.2925461" lon="8.3694517"><ele>155.28571428571428</ele><time>2026-05-01T10:22:02.93Z</time></trkpt><trkpt lat="44.2924885" lon="8.3694009"><ele>158.71428571428572</ele><time>2026-05-01T10:22:03.929Z</time></trkpt><trkpt lat="44.2924269" lon="8.3693632"><ele>162.14285714285714</ele><time>2026-05-01T10:22:04.93Z</time></trkpt><trkpt lat="44.2923709" lon="8.3693141"><ele>165.57142857142858</ele><time>2026-05-01T10:22:05.93Z</time></trkpt><trkpt lat="44.2923169" lon="8.3692555"><ele>169.0</ele><time>2026-05-01T10:22:06.931Z</time></trkpt><trkpt lat="44.2922735" lon="8.3691896"><ele>163.83333333333334</ele><time>2026-05-01T10:22:07.93Z</time></trkpt><trkpt lat="44.2922308" lon="8.36912"><ele>158.66666666666669</ele><time>2026-05-01T10:22:08.931Z</time></trkpt><trkpt lat="44.292173" lon="8.3689817"><ele>153.5</ele><time>2026-05-01T10:22:10.931Z</time></trkpt><trkpt lat="44.2921059" lon="8.3688994"><ele>148.33333333333334</ele><time>2026-05-01T10:22:12.93Z</time></trkpt><trkpt lat="44.2920184" lon="8.3689268"><ele>143.16666666666666</ele><time>2026-05-01T10:22:14.929Z</time></trkpt><trkpt lat="44.2920308" lon="8.3690429"><ele>138.0</ele><time>2026-05-01T10:22:16.929Z</time></trkpt><trkpt lat="44.2921048" lon="8.369184"><ele>138.0</ele><time>2026-05-01T10:22:18.929Z</time></trkpt><trkpt lat="44.292158" lon="8.3692767"><ele>138.0</ele><time>2026-05-01T10:22:19.93Z</time></trkpt><trkpt lat="44.2922124" lon="8.3693667"><ele>138.0</ele><time>2026-05-01T10:22:20.93Z</time></trkpt><trkpt lat="44.2922692" lon="8.3694606"><ele>138.0</ele><time>2026-05-01T10:22:21.93Z</time></trkpt><trkpt lat="44.292326" lon="8.3695587"><ele>138.0</ele><time>2026-05-01T10:22:22.93Z</time></trkpt><trkpt lat="44.2923857" lon="8.3696467"><ele>138.0</ele><time>2026-05-01T10:22:23.931Z</time></trkpt><trkpt lat="44.2924468" lon="8.3697334"><ele>139.16666666666666</ele><time>2026-05-01T10:22:24.929Z</time></trkpt><trkpt lat="44.2925057" lon="8.3698145"><ele>140.33333333333334</ele><time>2026-05-01T10:22:25.929Z</time></trkpt><trkpt lat="44.2925549" lon="8.3699034"><ele>141.5</ele><time>2026-05-01T10:22:26.93Z</time></trkpt><trkpt lat="44.2925947" lon="8.3699981"><ele>142.66666666666669</ele><time>2026-05-01T10:22:27.93Z</time></trkpt><trkpt lat="44.2926369" lon="8.3700962"><ele>143.83333333333334</ele><time>2026-05-01T10:22:28.93Z</time></trkpt><trkpt lat="44.2926705" lon="8.370205"><ele>145.0</ele><time>2026-05-01T10:22:29.93Z</time></trkpt><trkpt lat="44.2926961" lon="8.3703102"><ele>145.0</ele><time>2026-05-01T10:22:30.93Z</time></trkpt><trkpt lat="44.2927245" lon="8.3704228"><ele>145.0</ele><time>2026-05-01T10:22:31.93Z</time></trkpt><trkpt lat="44.2927489" lon="8.370529"><ele>145.0</ele><time>2026-05-01T10:22:32.93Z</time></trkpt><trkpt lat="44.2927706" lon="8.3706345"><ele>145.0</ele><time>2026-05-01T10:22:33.931Z</time></trkpt><trkpt lat="44.2927951" lon="8.3707393"><ele>145.0</ele><time>2026-05-01T10:22:34.93Z</time></trkpt><trkpt lat="44.2928222" lon="8.37084"><ele>145.0</ele><time>2026-05-01T10:22:35.93Z</time></trkpt><trkpt lat="44.2928664" lon="8.3709246"><ele>144.16666666666669</ele><time>2026-05-01T10:22:36.931Z</time></trkpt><trkpt lat="44.2929226" lon="8.370988"><ele>143.33333333333334</ele><time>2026-05-01T10:22:37.929Z</time></trkpt><trkpt lat="44.2929947" lon="8.3710293"><ele>142.5</ele><time>2026-05-01T10:22:38.929Z</time></trkpt><trkpt lat="44.2930802" lon="8.3710454"><ele>141.66666666666666</ele><time>2026-05-01T10:22:39.93Z</time></trkpt><trkpt lat="44.2931751" lon="8.3710542"><ele>140.83333333333331</ele><time>2026-05-01T10:22:40.93Z</time></trkpt><trkpt lat="44.2932736" lon="8.3710583"><ele>140.0</ele><time>2026-05-01T10:22:41.93Z</time></trkpt><trkpt lat="44.2933657" lon="8.3710645"><ele>140.0</ele><time>2026-05-01T10:22:42.93Z</time></trkpt><trkpt lat="44.2934564" lon="8.3710683"><ele>140.0</ele><time>2026-05-01T10:22:43.93Z</time></trkpt><trkpt lat="44.2935427" lon="8.3710638"><ele>140.0</ele><time>2026-05-01T10:22:44.93Z</time></trkpt><trkpt lat="44.293625" lon="8.3710598"><ele>140.0</ele><time>2026-05-01T10:22:45.932Z</time></trkpt><trkpt lat="44.2936997" lon="8.3710864"><ele>140.0</ele><time>2026-05-01T10:22:46.93Z</time></trkpt><trkpt lat="44.2937751" lon="8.3711043"><ele>140.0</ele><time>2026-05-01T10:22:47.931Z</time></trkpt><trkpt lat="44.2938399" lon="8.3711349"><ele>140.0</ele><time>2026-05-01T10:22:48.929Z</time></trkpt><trkpt lat="44.2939028" lon="8.371184"><ele>140.0</ele><time>2026-05-01T10:22:49.93Z</time></trkpt><trkpt lat="44.2939597" lon="8.3712521"><ele>140.0</ele><time>2026-05-01T10:22:50.931Z</time></trkpt><trkpt lat="44.2940141" lon="8.371352"><ele>140.0</ele><time>2026-05-01T10:22:51.93Z</time></trkpt><trkpt lat="44.2940625" lon="8.3714632"><ele>140.0</ele><time>2026-05-01T10:22:52.931Z</time></trkpt><trkpt lat="44.2941082" lon="8.3715745"><ele>140.0</ele><time>2026-05-01T10:22:53.931Z</time></trkpt><trkpt lat="44.2941485" lon="8.3716769"><ele>138.33333333333331</ele><time>2026-05-01T10:22:54.93Z</time></trkpt><trkpt lat="44.2941905" lon="8.3717527"><ele>136.66666666666666</ele><time>2026-05-01T10:22:55.93Z</time></trkpt><trkpt lat="44.2942444" lon="8.3718048"><ele>135.0</ele><time>2026-05-01T10:22:56.93Z</time></trkpt><trkpt lat="44.2943199" lon="8.3718336"><ele>133.33333333333334</ele><time>2026-05-01T10:22:57.93Z</time></trkpt><trkpt lat="44.2944281" lon="8.3718357"><ele>131.66666666666669</ele><time>2026-05-01T10:22:58.931Z</time></trkpt><trkpt lat="44.2945372" lon="8.371843"><ele>130.0</ele><time>2026-05-01T10:22:59.931Z</time></trkpt><trkpt lat="44.2946518" lon="8.371863"><ele>133.4</ele><time>2026-05-01T10:23:00.929Z</time></trkpt><trkpt lat="44.2947584" lon="8.3718912"><ele>136.8</ele><time>2026-05-01T10:23:01.931Z</time></trkpt><trkpt lat="44.2948653" lon="8.3719143"><ele>140.2</ele><time>2026-05-01T10:23:02.93Z</time></trkpt><trkpt lat="44.2949632" lon="8.3719317"><ele>143.6</ele><time>2026-05-01T10:23:03.932Z</time></trkpt><trkpt lat="44.2950593" lon="8.371959"><ele>147.0</ele><time>2026-05-01T10:23:04.929Z</time></trkpt><trkpt lat="44.2951498" lon="8.3720049"><ele>147.0</ele><time>2026-05-01T10:23:05.93Z</time></trkpt><trkpt lat="44.2952373" lon="8.3720622"><ele>147.0</ele><time>2026-05-01T10:23:06.93Z</time></trkpt><trkpt lat="44.295324" lon="8.3721182"><ele>147.0</ele><time>2026-05-01T10:23:07.929Z</time></trkpt><trkpt lat="44.2954078" lon="8.3721667"><ele>147.0</ele><time>2026-05-01T10:23:08.93Z</time></trkpt><trkpt lat="44.2954853" lon="8.3722358"><ele>147.0</ele><time>2026-05-01T10:23:09.931Z</time></trkpt><trkpt lat="44.2955509" lon="8.3723178"><ele>143.79999999999998</ele><time>2026-05-01T10:23:10.931Z</time></trkpt><trkpt lat="44.2956207" lon="8.3724187"><ele>140.6</ele><time>2026-05-01T10:23:11.931Z</time></trkpt><trkpt lat="44.2956957" lon="8.3725367"><ele>137.39999999999998</ele><time>2026-05-01T10:23:12.93Z</time></trkpt><trkpt lat="44.295778" lon="8.372652"><ele>134.2</ele><time>2026-05-01T10:23:13.931Z</time></trkpt><trkpt lat="44.295861" lon="8.3727584"><ele>131.0</ele><time>2026-05-01T10:23:14.93Z</time></trkpt><trkpt lat="44.2959548" lon="8.3728571"><ele>131.0</ele><time>2026-05-01T10:23:15.931Z</time></trkpt><trkpt lat="44.2960634" lon="8.3729649"><ele>131.0</ele><time>2026-05-01T10:23:16.931Z</time></trkpt><trkpt lat="44.2961754" lon="8.3730766"><ele>131.0</ele><time>2026-05-01T10:23:17.93Z</time></trkpt><trkpt lat="44.2962912" lon="8.3731795"><ele>131.0</ele><time>2026-05-01T10:23:18.931Z</time></trkpt><trkpt lat="44.296403" lon="8.3732767"><ele>127.5</ele><time>2026-05-01T10:23:19.93Z</time></trkpt><trkpt lat="44.2965106" lon="8.373367"><ele>124.0</ele><time>2026-05-01T10:23:20.929Z</time></trkpt><trkpt lat="44.2966114" lon="8.3734527"><ele>120.5</ele><time>2026-05-01T10:23:21.931Z</time></trkpt><trkpt lat="44.2967131" lon="8.373524"><ele>117.0</ele><time>2026-05-01T10:23:22.93Z</time></trkpt><trkpt lat="44.2968153" lon="8.3735825"><ele>117.0</ele><time>2026-05-01T10:23:23.93Z</time></trkpt><trkpt lat="44.2969191" lon="8.3736133"><ele>117.0</ele><time>2026-05-01T10:23:24.931Z</time></trkpt><trkpt lat="44.2970043" lon="8.3736441"><ele>117.0</ele><time>2026-05-01T10:23:25.929Z</time></trkpt><trkpt lat="44.2970734" lon="8.3736745"><ele>117.0</ele><time>2026-05-01T10:23:26.93Z</time></trkpt><trkpt lat="44.2971384" lon="8.3737158"><ele>117.0</ele><time>2026-05-01T10:23:27.93Z</time></trkpt><trkpt lat="44.2971903" lon="8.3737723"><ele>117.0</ele><time>2026-05-01T10:23:28.93Z</time></trkpt><trkpt lat="44.2972317" lon="8.3738481"><ele>115.16666666666667</ele><time>2026-05-01T10:23:29.931Z</time></trkpt><trkpt lat="44.2972619" lon="8.3739579"><ele>113.33333333333334</ele><time>2026-05-01T10:23:30.93Z</time></trkpt><trkpt lat="44.2972991" lon="8.3740792"><ele>111.5</ele><time>2026-05-01T10:23:31.93Z</time></trkpt><trkpt lat="44.2973394" lon="8.3741889"><ele>109.66666666666667</ele><time>2026-05-01T10:23:32.93Z</time></trkpt><trkpt lat="44.2973826" lon="8.3742797"><ele>107.83333333333334</ele><time>2026-05-01T10:23:33.931Z</time></trkpt><trkpt lat="44.2974382" lon="8.3743441"><ele>106.0</ele><time>2026-05-01T10:23:34.93Z</time></trkpt><trkpt lat="44.297515" lon="8.3743832"><ele>106.00000000000001</ele><time>2026-05-01T10:23:35.929Z</time></trkpt><trkpt lat="44.2976076" lon="8.3744099"><ele>106.0</ele><time>2026-05-01T10:23:36.93Z</time></trkpt><trkpt lat="44.2976931" lon="8.3744432"><ele>106.0</ele><time>2026-05-01T10:23:37.93Z</time></trkpt><trkpt lat="44.2977661" lon="8.3744909"><ele>106.0</ele><time>2026-05-01T10:23:38.929Z</time></trkpt><trkpt lat="44.2978201" lon="8.3745437"><ele>106.00000000000001</ele><time>2026-05-01T10:23:39.93Z</time></trkpt><trkpt lat="44.2978664" lon="8.3746868"><ele>106.0</ele><time>2026-05-01T10:23:41.929Z</time></trkpt><trkpt lat="44.2978454" lon="8.374943"><ele>110.0</ele><time>2026-05-01T10:23:43.93Z</time></trkpt><trkpt lat="44.2978258" lon="8.3751117"><ele>114.0</ele><time>2026-05-01T10:23:44.929Z</time></trkpt><trkpt lat="44.2978027" lon="8.3753026"><ele>118.0</ele><time>2026-05-01T10:23:45.929Z</time></trkpt><trkpt lat="44.2977734" lon="8.3754611"><ele>122.0</ele><time>2026-05-01T10:23:46.93Z</time></trkpt><trkpt lat="44.2977527" lon="8.3756182"><ele>122.6</ele><time>2026-05-01T10:23:47.929Z</time></trkpt><trkpt lat="44.2977223" lon="8.3757634"><ele>123.19999999999999</ele><time>2026-05-01T10:23:48.93Z</time></trkpt><trkpt lat="44.297691" lon="8.3758984"><ele>123.8</ele><time>2026-05-01T10:23:49.931Z</time></trkpt><trkpt lat="44.2976614" lon="8.3760368"><ele>124.4</ele><time>2026-05-01T10:23:50.929Z</time></trkpt><trkpt lat="44.297642" lon="8.3761693"><ele>125.0</ele><time>2026-05-01T10:23:51.931Z</time></trkpt><trkpt lat="44.2976363" lon="8.3762959"><ele>124.66666666666666</ele><time>2026-05-01T10:23:52.929Z</time></trkpt><trkpt lat="44.2976508" lon="8.3764157"><ele>124.33333333333333</ele><time>2026-05-01T10:23:53.93Z</time></trkpt><trkpt lat="44.2976817" lon="8.3765279"><ele>124.0</ele><time>2026-05-01T10:23:54.929Z</time></trkpt><trkpt lat="44.2977327" lon="8.3766278"><ele>123.66666666666666</ele><time>2026-05-01T10:23:55.931Z</time></trkpt><trkpt lat="44.2978005" lon="8.3767153"><ele>123.33333333333333</ele><time>2026-05-01T10:23:56.93Z</time></trkpt><trkpt lat="44.2978627" lon="8.3768097"><ele>123.0</ele><time>2026-05-01T10:23:57.93Z</time></trkpt><trkpt lat="44.2978986" lon="8.3769069"><ele>123.0</ele><time>2026-05-01T10:23:58.929Z</time></trkpt><trkpt lat="44.2979236" lon="8.3770004"><ele>123.0</ele><time>2026-05-01T10:23:59.93Z</time></trkpt><trkpt lat="44.2979183" lon="8.3770974"><ele>123.0</ele><time>2026-05-01T10:24:00.93Z</time></trkpt><trkpt lat="44.2979108" lon="8.3772134"><ele>123.0</ele><time>2026-05-01T10:24:01.93Z</time></trkpt><trkpt lat="44.2978987" lon="8.3773418"><ele>123.0</ele><time>2026-05-01T10:24:02.929Z</time></trkpt><trkpt lat="44.2978923" lon="8.377499"><ele>123.0</ele><time>2026-05-01T10:24:03.93Z</time></trkpt><trkpt lat="44.2978845" lon="8.3776353"><ele>123.4</ele><time>2026-05-01T10:24:04.93Z</time></trkpt><trkpt lat="44.297874" lon="8.3777745"><ele>123.80000000000001</ele><time>2026-05-01T10:24:05.93Z</time></trkpt><trkpt lat="44.2978553" lon="8.3779039"><ele>124.2</ele><time>2026-05-01T10:24:06.931Z</time></trkpt><trkpt lat="44.2978303" lon="8.3780369"><ele>124.6</ele><time>2026-05-01T10:24:07.929Z</time></trkpt><trkpt lat="44.2978065" lon="8.3781619"><ele>125.0</ele><time>2026-05-01T10:24:08.93Z</time></trkpt><trkpt lat="44.2977879" lon="8.3782794"><ele>124.28571428571428</ele><time>2026-05-01T10:24:09.929Z</time></trkpt><trkpt lat="44.2977904" lon="8.3783903"><ele>123.57142857142858</ele><time>2026-05-01T10:24:10.93Z</time></trkpt><trkpt lat="44.2978073" lon="8.3784925"><ele>122.85714285714286</ele><time>2026-05-01T10:24:11.929Z</time></trkpt><trkpt lat="44.2978227" lon="8.3785908"><ele>122.14285714285714</ele><time>2026-05-01T10:24:12.929Z</time></trkpt><trkpt lat="44.297817" lon="8.3786862"><ele>121.42857142857142</ele><time>2026-05-01T10:24:13.929Z</time></trkpt><trkpt lat="44.2978023" lon="8.3787805"><ele>120.71428571428572</ele><time>2026-05-01T10:24:14.93Z</time></trkpt><trkpt lat="44.2977728" lon="8.3788647"><ele>120.0</ele><time>2026-05-01T10:24:15.929Z</time></trkpt><trkpt lat="44.2977265" lon="8.3789285"><ele>115.4</ele><time>2026-05-01T10:24:16.929Z</time></trkpt><trkpt lat="44.2976513" lon="8.3789876"><ele>110.8</ele><time>2026-05-01T10:24:17.929Z</time></trkpt><trkpt lat="44.2975701" lon="8.3790294"><ele>106.19999999999999</ele><time>2026-05-01T10:24:18.929Z</time></trkpt><trkpt lat="44.297485" lon="8.3790567"><ele>101.6</ele><time>2026-05-01T10:24:19.93Z</time></trkpt><trkpt lat="44.2973877" lon="8.3790778"><ele>97.0</ele><time>2026-05-01T10:24:20.933Z</time></trkpt><trkpt lat="44.2972804" lon="8.3790873"><ele>99.0</ele><time>2026-05-01T10:24:21.929Z</time></trkpt><trkpt lat="44.2971811" lon="8.3790932"><ele>101.0</ele><time>2026-05-01T10:24:22.929Z</time></trkpt><trkpt lat="44.2970845" lon="8.379103"><ele>102.99999999999999</ele><time>2026-05-01T10:24:23.931Z</time></trkpt><trkpt lat="44.2969854" lon="8.3791309"><ele>105.0</ele><time>2026-05-01T10:24:24.93Z</time></trkpt><trkpt lat="44.2968797" lon="8.3791789"><ele>107.0</ele><time>2026-05-01T10:24:25.931Z</time></trkpt><trkpt lat="44.2967836" lon="8.3792322"><ele>107.0</ele><time>2026-05-01T10:24:26.93Z</time></trkpt><trkpt lat="44.2966913" lon="8.3792807"><ele>106.99999999999999</ele><time>2026-05-01T10:24:27.929Z</time></trkpt><trkpt lat="44.2966024" lon="8.3793258"><ele>106.99999999999999</ele><time>2026-05-01T10:24:28.931Z</time></trkpt><trkpt lat="44.2965227" lon="8.3793561"><ele>107.0</ele><time>2026-05-01T10:24:29.929Z</time></trkpt><trkpt lat="44.2964354" lon="8.3793823"><ele>107.0</ele><time>2026-05-01T10:24:30.932Z</time></trkpt><trkpt lat="44.2963503" lon="8.3794156"><ele>108.0</ele><time>2026-05-01T10:24:31.93Z</time></trkpt><trkpt lat="44.2962754" lon="8.3794614"><ele>108.99999999999999</ele><time>2026-05-01T10:24:32.93Z</time></trkpt><trkpt lat="44.2962189" lon="8.3795304"><ele>109.99999999999999</ele><time>2026-05-01T10:24:33.93Z</time></trkpt><trkpt lat="44.2961784" lon="8.3796304"><ele>111.0</ele><time>2026-05-01T10:24:34.93Z</time></trkpt><trkpt lat="44.2961411" lon="8.3797841"><ele>112.0</ele><time>2026-05-01T10:24:35.929Z</time></trkpt><trkpt lat="44.2960993" lon="8.3799509"><ele>112.0</ele><time>2026-05-01T10:24:36.931Z</time></trkpt><trkpt lat="44.2960552" lon="8.3801038"><ele>111.99999999999999</ele><time>2026-05-01T10:24:37.93Z</time></trkpt><trkpt lat="44.2960109" lon="8.3802501"><ele>111.99999999999999</ele><time>2026-05-01T10:24:38.929Z</time></trkpt><trkpt lat="44.2959841" lon="8.3804028"><ele>112.0</ele><time>2026-05-01T10:24:39.932Z</time></trkpt><trkpt lat="44.2959636" lon="8.3805417"><ele>112.0</ele><time>2026-05-01T10:24:40.931Z</time></trkpt><trkpt lat="44.2959244" lon="8.3806726"><ele>111.50000000000001</ele><time>2026-05-01T10:24:41.931Z</time></trkpt><trkpt lat="44.2958807" lon="8.3807812"><ele>111.0</ele><time>2026-05-01T10:24:42.929Z</time></trkpt><trkpt lat="44.2958396" lon="8.3808773"><ele>110.5</ele><time>2026-05-01T10:24:43.93Z</time></trkpt><trkpt lat="44.295796" lon="8.3809453"><ele>110.0</ele><time>2026-05-01T10:24:44.931Z</time></trkpt><trkpt lat="44.295679" lon="8.3809964"><ele>109.50000000000001</ele><time>2026-05-01T10:24:46.929Z</time></trkpt><trkpt lat="44.2955983" lon="8.3809932"><ele>109.0</ele><time>2026-05-01T10:24:47.929Z</time></trkpt><trkpt lat="44.2955268" lon="8.3810251"><ele>109.00000000000001</ele><time>2026-05-01T10:24:48.929Z</time></trkpt><trkpt lat="44.2954573" lon="8.3810779"><ele>109.0</ele><time>2026-05-01T10:24:49.931Z</time></trkpt><trkpt lat="44.2953858" lon="8.3811696"><ele>109.0</ele><time>2026-05-01T10:24:50.93Z</time></trkpt><trkpt lat="44.2953239" lon="8.3812698"><ele>109.0</ele><time>2026-05-01T10:24:51.929Z</time></trkpt><trkpt lat="44.2952695" lon="8.3813471"><ele>109.00000000000001</ele><time>2026-05-01T10:24:52.93Z</time></trkpt><trkpt lat="44.2952254" lon="8.3814121"><ele>109.0</ele><time>2026-05-01T10:24:53.929Z</time></trkpt><trkpt lat="44.295171" lon="8.3814597"><ele>105.66666666666667</ele><time>2026-05-01T10:24:54.93Z</time></trkpt><trkpt lat="44.2951042" lon="8.3815005"><ele>102.33333333333334</ele><time>2026-05-01T10:24:55.931Z</time></trkpt><trkpt lat="44.2950197" lon="8.3815352"><ele>99.0</ele><time>2026-05-01T10:24:56.931Z</time></trkpt><trkpt lat="44.2949348" lon="8.3815574"><ele>95.66666666666667</ele><time>2026-05-01T10:24:57.929Z</time></trkpt><trkpt lat="44.2948534" lon="8.3815586"><ele>92.33333333333334</ele><time>2026-05-01T10:24:58.93Z</time></trkpt><trkpt lat="44.2947766" lon="8.3815711"><ele>89.0</ele><time>2026-05-01T10:24:59.929Z</time></trkpt><trkpt lat="44.2947046" lon="8.3816"><ele>89.0</ele><time>2026-05-01T10:25:00.929Z</time></trkpt><trkpt lat="44.2946297" lon="8.3816509"><ele>89.0</ele><time>2026-05-01T10:25:01.929Z</time></trkpt><trkpt lat="44.2945456" lon="8.3817028"><ele>89.0</ele><time>2026-05-01T10:25:02.93Z</time></trkpt><trkpt lat="44.2944534" lon="8.3817555"><ele>89.0</ele><time>2026-05-01T10:25:03.929Z</time></trkpt><trkpt lat="44.2943592" lon="8.3818078"><ele>89.0</ele><time>2026-05-01T10:25:04.929Z</time></trkpt><trkpt lat="44.2942666" lon="8.3818755"><ele>89.0</ele><time>2026-05-01T10:25:05.93Z</time></trkpt><trkpt lat="44.2941844" lon="8.3819625"><ele>89.0</ele><time>2026-05-01T10:25:06.929Z</time></trkpt><trkpt lat="44.2940955" lon="8.3820605"><ele>89.0</ele><time>2026-05-01T10:25:07.929Z</time></trkpt><trkpt lat="44.2939776" lon="8.3822014"><ele>89.0</ele><time>2026-05-01T10:25:08.929Z</time></trkpt><trkpt lat="44.2938531" lon="8.3823361"><ele>85.75</ele><time>2026-05-01T10:25:09.929Z</time></trkpt><trkpt lat="44.2937298" lon="8.3824679"><ele>82.5</ele><time>2026-05-01T10:25:10.929Z</time></trkpt><trkpt lat="44.293616" lon="8.3825908"><ele>79.25</ele><time>2026-05-01T10:25:11.929Z</time></trkpt><trkpt lat="44.2935065" lon="8.3827067"><ele>76.0</ele><time>2026-05-01T10:25:12.929Z</time></trkpt><trkpt lat="44.2934063" lon="8.3828153"><ele>76.0</ele><time>2026-05-01T10:25:13.929Z</time></trkpt><trkpt lat="44.2933197" lon="8.3829311"><ele>76.0</ele><time>2026-05-01T10:25:14.93Z</time></trkpt><trkpt lat="44.2932427" lon="8.3830572"><ele>76.0</ele><time>2026-05-01T10:25:15.929Z</time></trkpt><trkpt lat="44.2931741" lon="8.3831854"><ele>76.0</ele><time>2026-05-01T10:25:16.93Z</time></trkpt><trkpt lat="44.2931085" lon="8.3833086"><ele>76.39999999999999</ele><time>2026-05-01T10:25:17.929Z</time></trkpt><trkpt lat="44.2930447" lon="8.3834117"><ele>76.8</ele><time>2026-05-01T10:25:18.929Z</time></trkpt><trkpt lat="44.2929721" lon="8.3834967"><ele>77.19999999999999</ele><time>2026-05-01T10:25:19.931Z</time></trkpt><trkpt lat="44.2928848" lon="8.3835763"><ele>77.6</ele><time>2026-05-01T10:25:20.93Z</time></trkpt><trkpt lat="44.2927925" lon="8.3836697"><ele>78.0</ele><time>2026-05-01T10:25:21.929Z</time></trkpt><trkpt lat="44.2926838" lon="8.3837717"><ele>77.5</ele><time>2026-05-01T10:25:22.929Z</time></trkpt><trkpt lat="44.2925715" lon="8.3838768"><ele>77.0</ele><time>2026-05-01T10:25:23.929Z</time></trkpt><trkpt lat="44.2924534" lon="8.3839995"><ele>76.5</ele><time>2026-05-01T10:25:24.928Z</time></trkpt><trkpt lat="44.2923388" lon="8.3841178"><ele>76.0</ele><time>2026-05-01T10:25:25.93Z</time></trkpt><trkpt lat="44.2922298" lon="8.3842307"><ele>76.0</ele><time>2026-05-01T10:25:26.93Z</time></trkpt><trkpt lat="44.2921273" lon="8.384333"><ele>76.0</ele><time>2026-05-01T10:25:27.929Z</time></trkpt><trkpt lat="44.2920281" lon="8.3844379"><ele>76.0</ele><time>2026-05-01T10:25:28.929Z</time></trkpt><trkpt lat="44.2919295" lon="8.3845479"><ele>76.0</ele><time>2026-05-01T10:25:29.93Z</time></trkpt><trkpt lat="44.2918266" lon="8.384669"><ele>72.5</ele><time>2026-05-01T10:25:30.93Z</time></trkpt><trkpt lat="44.2917297" lon="8.3848009"><ele>69.0</ele><time>2026-05-01T10:25:31.93Z</time></trkpt><trkpt lat="44.2916314" lon="8.3849434"><ele>65.5</ele><time>2026-05-01T10:25:32.929Z</time></trkpt><trkpt lat="44.2915421" lon="8.3850819"><ele>62.0</ele><time>2026-05-01T10:25:33.929Z</time></trkpt><trkpt lat="44.2914553" lon="8.3852153"><ele>61.75</ele><time>2026-05-01T10:25:34.93Z</time></trkpt><trkpt lat="44.2913762" lon="8.3853524"><ele>61.5</ele><time>2026-05-01T10:25:35.93Z</time></trkpt><trkpt lat="44.2913003" lon="8.3854752"><ele>61.25</ele><time>2026-05-01T10:25:36.93Z</time></trkpt><trkpt lat="44.2912278" lon="8.3856"><ele>61.0</ele><time>2026-05-01T10:25:37.929Z</time></trkpt><trkpt lat="44.2911601" lon="8.3857246"><ele>61.0</ele><time>2026-05-01T10:25:38.93Z</time></trkpt><trkpt lat="44.2911002" lon="8.3858334"><ele>60.99999999999999</ele><time>2026-05-01T10:25:39.929Z</time></trkpt><trkpt lat="44.2910444" lon="8.3859378"><ele>60.99999999999999</ele><time>2026-05-01T10:25:40.929Z</time></trkpt><trkpt lat="44.2909952" lon="8.3860495"><ele>61.0</ele><time>2026-05-01T10:25:41.93Z</time></trkpt><trkpt lat="44.290967" lon="8.3861716"><ele>61.0</ele><time>2026-05-01T10:25:42.931Z</time></trkpt><trkpt lat="44.2909257" lon="8.3863045"><ele>60.8</ele><time>2026-05-01T10:25:43.929Z</time></trkpt><trkpt lat="44.2908843" lon="8.3864452"><ele>60.599999999999994</ele><time>2026-05-01T10:25:44.931Z</time></trkpt><trkpt lat="44.2908351" lon="8.386591"><ele>60.4</ele><time>2026-05-01T10:25:45.929Z</time></trkpt><trkpt lat="44.2907869" lon="8.386727"><ele>60.2</ele><time>2026-05-01T10:25:46.93Z</time></trkpt><trkpt lat="44.2907442" lon="8.3868524"><ele>60.0</ele><time>2026-05-01T10:25:47.929Z</time></trkpt><trkpt lat="44.2907184" lon="8.3869773"><ele>60.0</ele><time>2026-05-01T10:25:48.929Z</time></trkpt><trkpt lat="44.2907174" lon="8.3871015"><ele>60.0</ele><time>2026-05-01T10:25:49.929Z</time></trkpt><trkpt lat="44.2907201" lon="8.3872169"><ele>60.0</ele><time>2026-05-01T10:25:50.929Z</time></trkpt><trkpt lat="44.2907199" lon="8.387311"><ele>60.0</ele><time>2026-05-01T10:25:51.931Z</time></trkpt><trkpt lat="44.2906682" lon="8.38744"><ele>60.0</ele><time>2026-05-01T10:25:53.929Z</time></trkpt><trkpt lat="44.2905476" lon="8.387505"><ele>59.8</ele><time>2026-05-01T10:25:55.929Z</time></trkpt><trkpt lat="44.2904583" lon="8.3875631"><ele>59.6</ele><time>2026-05-01T10:25:56.93Z</time></trkpt><trkpt lat="44.2903576" lon="8.3876179"><ele>59.400000000000006</ele><time>2026-05-01T10:25:57.929Z</time></trkpt><trkpt lat="44.2902639" lon="8.3876668"><ele>59.2</ele><time>2026-05-01T10:25:58.929Z</time></trkpt><trkpt lat="44.2901868" lon="8.3877349"><ele>59.0</ele><time>2026-05-01T10:25:59.93Z</time></trkpt><trkpt lat="44.2901258" lon="8.3878205"><ele>59.0</ele><time>2026-05-01T10:26:00.93Z</time></trkpt><trkpt lat="44.2900782" lon="8.3879124"><ele>59.00000000000001</ele><time>2026-05-01T10:26:01.931Z</time></trkpt><trkpt lat="44.2900359" lon="8.3881457"><ele>59.00000000000001</ele><time>2026-05-01T10:26:03.929Z</time></trkpt><trkpt lat="44.2900339" lon="8.3882594"><ele>59.0</ele><time>2026-05-01T10:26:04.929Z</time></trkpt><trkpt lat="44.2900431" lon="8.38835"><ele>59.0</ele><time>2026-05-01T10:26:05.93Z</time></trkpt><trkpt lat="44.2900545" lon="8.3884368"><ele>59.00000000000001</ele><time>2026-05-01T10:26:06.93Z</time></trkpt><trkpt lat="44.2900772" lon="8.3885656"><ele>59.0</ele><time>2026-05-01T10:26:08.929Z</time></trkpt><trkpt lat="44.2901153" lon="8.3886499"><ele>59.0</ele><time>2026-05-01T10:26:10.931Z</time></trkpt><trkpt lat="44.2901635" lon="8.3887212"><ele>59.0</ele><time>2026-05-01T10:26:12.93Z</time></trkpt><trkpt lat="44.2901872" lon="8.3888044"><ele>59.00000000000001</ele><time>2026-05-01T10:26:13.929Z</time></trkpt><trkpt lat="44.2902171" lon="8.3889087"><ele>59.0</ele><time>2026-05-01T10:26:14.929Z</time></trkpt><trkpt lat="44.2902512" lon="8.3890346"><ele>58.800000000000004</ele><time>2026-05-01T10:26:15.929Z</time></trkpt><trkpt lat="44.2903018" lon="8.3891785"><ele>58.60000000000001</ele><time>2026-05-01T10:26:16.93Z</time></trkpt><trkpt lat="44.2903554" lon="8.3893069"><ele>58.4</ele><time>2026-05-01T10:26:17.929Z</time></trkpt><trkpt lat="44.2904085" lon="8.3894262"><ele>58.2</ele><time>2026-05-01T10:26:18.93Z</time></trkpt><trkpt lat="44.2904488" lon="8.3895403"><ele>58.0</ele><time>2026-05-01T10:26:19.93Z</time></trkpt><trkpt lat="44.2904812" lon="8.3896581"><ele>58.0</ele><time>2026-05-01T10:26:20.929Z</time></trkpt><trkpt lat="44.2905049" lon="8.3898202"><ele>58.0</ele><time>2026-05-01T10:26:21.929Z</time></trkpt><trkpt lat="44.2905392" lon="8.3899957"><ele>58.0</ele><time>2026-05-01T10:26:22.929Z</time></trkpt><trkpt lat="44.2905774" lon="8.3901634"><ele>58.0</ele><time>2026-05-01T10:26:23.929Z</time></trkpt><trkpt lat="44.290612" lon="8.3903214"><ele>57.4</ele><time>2026-05-01T10:26:24.93Z</time></trkpt><trkpt lat="44.2906511" lon="8.3904708"><ele>56.8</ele><time>2026-05-01T10:26:25.929Z</time></trkpt><trkpt lat="44.2906813" lon="8.3906131"><ele>56.2</ele><time>2026-05-01T10:26:26.929Z</time></trkpt><trkpt lat="44.2906997" lon="8.3907695"><ele>55.6</ele><time>2026-05-01T10:26:27.929Z</time></trkpt><trkpt lat="44.2907049" lon="8.390931"><ele>55.0</ele><time>2026-05-01T10:26:28.931Z</time></trkpt><trkpt lat="44.2906935" lon="8.3910932"><ele>55.0</ele><time>2026-05-01T10:26:29.929Z</time></trkpt><trkpt lat="44.2906565" lon="8.3912615"><ele>55.0</ele><time>2026-05-01T10:26:30.929Z</time></trkpt><trkpt lat="44.2906038" lon="8.3914419"><ele>55.0</ele><time>2026-05-01T10:26:31.929Z</time></trkpt><trkpt lat="44.290528" lon="8.3916453"><ele>55.0</ele><time>2026-05-01T10:26:32.93Z</time></trkpt><trkpt lat="44.2904501" lon="8.3918339"><ele>55.25</ele><time>2026-05-01T10:26:33.929Z</time></trkpt><trkpt lat="44.290373" lon="8.3920108"><ele>55.5</ele><time>2026-05-01T10:26:34.929Z</time></trkpt><trkpt lat="44.2903039" lon="8.3921899"><ele>55.75</ele><time>2026-05-01T10:26:35.929Z</time></trkpt><trkpt lat="44.2902312" lon="8.3923774"><ele>56.0</ele><time>2026-05-01T10:26:36.929Z</time></trkpt><trkpt lat="44.2901624" lon="8.3925599"><ele>55.0</ele><time>2026-05-01T10:26:37.93Z</time></trkpt><trkpt lat="44.2900953" lon="8.3927361"><ele>54.0</ele><time>2026-05-01T10:26:38.93Z</time></trkpt><trkpt lat="44.2900338" lon="8.3928993"><ele>53.0</ele><time>2026-05-01T10:26:39.929Z</time></trkpt><trkpt lat="44.2899854" lon="8.3930587"><ele>52.0</ele><time>2026-05-01T10:26:40.93Z</time></trkpt><trkpt lat="44.2899433" lon="8.3932349"><ele>52.0</ele><time>2026-05-01T10:26:41.929Z</time></trkpt><trkpt lat="44.289911" lon="8.3934212"><ele>52.0</ele><time>2026-05-01T10:26:42.93Z</time></trkpt><trkpt lat="44.2898859" lon="8.3936144"><ele>52.0</ele><time>2026-05-01T10:26:43.929Z</time></trkpt><trkpt lat="44.2898691" lon="8.393798"><ele>52.0</ele><time>2026-05-01T10:26:44.929Z</time></trkpt><trkpt lat="44.2898556" lon="8.3939721"><ele>51.5</ele><time>2026-05-01T10:26:45.93Z</time></trkpt><trkpt lat="44.289853" lon="8.3941385"><ele>51.0</ele><time>2026-05-01T10:26:46.929Z</time></trkpt><trkpt lat="44.2898661" lon="8.3942925"><ele>50.5</ele><time>2026-05-01T10:26:47.929Z</time></trkpt><trkpt lat="44.289893" lon="8.3944409"><ele>50.0</ele><time>2026-05-01T10:26:48.929Z</time></trkpt><trkpt lat="44.2899501" lon="8.3945959"><ele>48.66666666666667</ele><time>2026-05-01T10:26:49.93Z</time></trkpt><trkpt lat="44.2900365" lon="8.3947759"><ele>47.333333333333336</ele><time>2026-05-01T10:26:50.93Z</time></trkpt><trkpt lat="44.2901388" lon="8.3949807"><ele>46.0</ele><time>2026-05-01T10:26:51.93Z</time></trkpt><trkpt lat="44.2902331" lon="8.3951818"><ele>46.0</ele><time>2026-05-01T10:26:52.93Z</time></trkpt><trkpt lat="44.29033" lon="8.395379"><ele>46.0</ele><time>2026-05-01T10:26:53.93Z</time></trkpt><trkpt lat="44.2904294" lon="8.3955706"><ele>46.0</ele><time>2026-05-01T10:26:54.929Z</time></trkpt><trkpt lat="44.2905174" lon="8.3957472"><ele>48.75</ele><time>2026-05-01T10:26:55.929Z</time></trkpt><trkpt lat="44.2905937" lon="8.3959263"><ele>51.5</ele><time>2026-05-01T10:26:56.929Z</time></trkpt><trkpt lat="44.29065" lon="8.3961011"><ele>54.25</ele><time>2026-05-01T10:26:57.929Z</time></trkpt><trkpt lat="44.2906849" lon="8.3962751"><ele>57.0</ele><time>2026-05-01T10:26:58.93Z</time></trkpt><trkpt lat="44.2906959" lon="8.3964384"><ele>57.0</ele><time>2026-05-01T10:26:59.929Z</time></trkpt><trkpt lat="44.2906819" lon="8.3966019"><ele>57.0</ele><time>2026-05-01T10:27:00.93Z</time></trkpt><trkpt lat="44.2906586" lon="8.3967915"><ele>57.0</ele><time>2026-05-01T10:27:01.93Z</time></trkpt><trkpt lat="44.2906277" lon="8.3969877"><ele>57.0</ele><time>2026-05-01T10:27:02.93Z</time></trkpt><trkpt lat="44.2905937" lon="8.3971671"><ele>54.75</ele><time>2026-05-01T10:27:03.929Z</time></trkpt><trkpt lat="44.2905542" lon="8.3973261"><ele>52.5</ele><time>2026-05-01T10:27:04.931Z</time></trkpt><trkpt lat="44.2905169" lon="8.3974686"><ele>50.25</ele><time>2026-05-01T10:27:05.93Z</time></trkpt><trkpt lat="44.2905088" lon="8.3976155"><ele>48.0</ele><time>2026-05-01T10:27:06.929Z</time></trkpt><trkpt lat="44.2905293" lon="8.3977866"><ele>48.0</ele><time>2026-05-01T10:27:07.929Z</time></trkpt><trkpt lat="44.2905691" lon="8.3979725"><ele>48.0</ele><time>2026-05-01T10:27:08.929Z</time></trkpt><trkpt lat="44.2906139" lon="8.3981555"><ele>48.0</ele><time>2026-05-01T10:27:09.929Z</time></trkpt><trkpt lat="44.290672" lon="8.3983305"><ele>48.0</ele><time>2026-05-01T10:27:10.929Z</time></trkpt><trkpt lat="44.290755" lon="8.3985031"><ele>48.25</ele><time>2026-05-01T10:27:11.929Z</time></trkpt><trkpt lat="44.2908427" lon="8.3986523"><ele>48.5</ele><time>2026-05-01T10:27:12.93Z</time></trkpt><trkpt lat="44.2909322" lon="8.3987961"><ele>48.75</ele><time>2026-05-01T10:27:13.929Z</time></trkpt><trkpt lat="44.2910148" lon="8.3989431"><ele>49.0</ele><time>2026-05-01T10:27:14.93Z</time></trkpt><trkpt lat="44.2910919" lon="8.3990864"><ele>47.99999999999999</ele><time>2026-05-01T10:27:15.93Z</time></trkpt><trkpt lat="44.2911571" lon="8.3992096"><ele>47.0</ele><time>2026-05-01T10:27:16.929Z</time></trkpt><trkpt lat="44.2912156" lon="8.3993155"><ele>46.0</ele><time>2026-05-01T10:27:17.93Z</time></trkpt><trkpt lat="44.2912645" lon="8.3994019"><ele>45.0</ele><time>2026-05-01T10:27:18.929Z</time></trkpt><trkpt lat="44.2913031" lon="8.3994727"><ele>44.0</ele><time>2026-05-01T10:27:19.929Z</time></trkpt><trkpt lat="44.2913358" lon="8.3995936"><ele>43.0</ele><time>2026-05-01T10:27:21.929Z</time></trkpt><trkpt lat="44.2912634" lon="8.3996979"><ele>43.0</ele><time>2026-05-01T10:27:23.929Z</time></trkpt><trkpt lat="44.2911993" lon="8.3997544"><ele>43.0</ele><time>2026-05-01T10:27:24.929Z</time></trkpt><trkpt lat="44.2911344" lon="8.3998088"><ele>43.0</ele><time>2026-05-01T10:27:25.93Z</time></trkpt><trkpt lat="44.2910748" lon="8.3998615"><ele>43.0</ele><time>2026-05-01T10:27:26.929Z</time></trkpt><trkpt lat="44.2910319" lon="8.3999314"><ele>43.0</ele><time>2026-05-01T10:27:27.929Z</time></trkpt><trkpt lat="44.2910234" lon="8.4000938"><ele>43.0</ele><time>2026-05-01T10:27:29.93Z</time></trkpt><trkpt lat="44.291061" lon="8.4001715"><ele>43.0</ele><time>2026-05-01T10:27:30.93Z</time></trkpt><trkpt lat="44.2911282" lon="8.4002514"><ele>43.0</ele><time>2026-05-01T10:27:31.929Z</time></trkpt><trkpt lat="44.2912152" lon="8.4003569"><ele>43.0</ele><time>2026-05-01T10:27:32.93Z</time></trkpt><trkpt lat="44.2913172" lon="8.4004808"><ele>43.0</ele><time>2026-05-01T10:27:33.93Z</time></trkpt><trkpt lat="44.2914169" lon="8.4005932"><ele>41.5</ele><time>2026-05-01T10:27:34.93Z</time></trkpt><trkpt lat="44.2915169" lon="8.4007024"><ele>40.0</ele><time>2026-05-01T10:27:35.93Z</time></trkpt><trkpt lat="44.2916067" lon="8.4008068"><ele>38.5</ele><time>2026-05-01T10:27:36.93Z</time></trkpt><trkpt lat="44.2917059" lon="8.4009139"><ele>37.0</ele><time>2026-05-01T10:27:37.93Z</time></trkpt><trkpt lat="44.2918136" lon="8.4010204"><ele>37.0</ele><time>2026-05-01T10:27:38.929Z</time></trkpt><trkpt lat="44.2919137" lon="8.401123"><ele>37.0</ele><time>2026-05-01T10:27:39.93Z</time></trkpt><trkpt lat="44.2920103" lon="8.4012225"><ele>37.0</ele><time>2026-05-01T10:27:40.929Z</time></trkpt><trkpt lat="44.2921067" lon="8.4013162"><ele>37.0</ele><time>2026-05-01T10:27:41.93Z</time></trkpt><trkpt lat="44.292203" lon="8.4014103"><ele>37.2</ele><time>2026-05-01T10:27:42.93Z</time></trkpt><trkpt lat="44.2922955" lon="8.4015039"><ele>37.400000000000006</ele><time>2026-05-01T10:27:43.93Z</time></trkpt><trkpt lat="44.292386" lon="8.4015914"><ele>37.599999999999994</ele><time>2026-05-01T10:27:44.93Z</time></trkpt><trkpt lat="44.2924745" lon="8.401672"><ele>37.8</ele><time>2026-05-01T10:27:45.93Z</time></trkpt><trkpt lat="44.2925596" lon="8.4017562"><ele>38.0</ele><time>2026-05-01T10:27:46.929Z</time></trkpt><trkpt lat="44.2926403" lon="8.4018371"><ele>38.0</ele><time>2026-05-01T10:27:47.929Z</time></trkpt><trkpt lat="44.2927088" lon="8.4019308"><ele>38.0</ele><time>2026-05-01T10:27:48.93Z</time></trkpt><trkpt lat="44.2927597" lon="8.4020381"><ele>38.0</ele><time>2026-05-01T10:27:49.93Z</time></trkpt><trkpt lat="44.2927931" lon="8.4021528"><ele>38.0</ele><time>2026-05-01T10:27:50.93Z</time></trkpt><trkpt lat="44.292811" lon="8.402283"><ele>38.0</ele><time>2026-05-01T10:27:51.929Z</time></trkpt><trkpt lat="44.2928097" lon="8.4024189"><ele>38.75</ele><time>2026-05-01T10:27:52.929Z</time></trkpt><trkpt lat="44.2928081" lon="8.4025795"><ele>39.5</ele><time>2026-05-01T10:27:53.929Z</time></trkpt><trkpt lat="44.2928209" lon="8.4027488"><ele>40.25</ele><time>2026-05-01T10:27:54.929Z</time></trkpt><trkpt lat="44.2928621" lon="8.4029365"><ele>41.0</ele><time>2026-05-01T10:27:55.93Z</time></trkpt><trkpt lat="44.2929324" lon="8.4031294"><ele>41.5</ele><time>2026-05-01T10:27:56.929Z</time></trkpt><trkpt lat="44.2930012" lon="8.4032968"><ele>42.0</ele><time>2026-05-01T10:27:57.929Z</time></trkpt><trkpt lat="44.2930568" lon="8.4034346"><ele>42.5</ele><time>2026-05-01T10:27:58.93Z</time></trkpt><trkpt lat="44.2931075" lon="8.4035621"><ele>43.0</ele><time>2026-05-01T10:27:59.929Z</time></trkpt><trkpt lat="44.2931554" lon="8.4036913"><ele>40.25</ele><time>2026-05-01T10:28:00.929Z</time></trkpt><trkpt lat="44.2931894" lon="8.4038294"><ele>37.5</ele><time>2026-05-01T10:28:01.929Z</time></trkpt><trkpt lat="44.293202" lon="8.4039813"><ele>34.75</ele><time>2026-05-01T10:28:02.929Z</time></trkpt><trkpt lat="44.2932036" lon="8.4041497"><ele>32.0</ele><time>2026-05-01T10:28:03.929Z</time></trkpt><trkpt lat="44.2932039" lon="8.4043182"><ele>31.75</ele><time>2026-05-01T10:28:04.929Z</time></trkpt><trkpt lat="44.2931976" lon="8.4044805"><ele>31.5</ele><time>2026-05-01T10:28:05.929Z</time></trkpt><trkpt lat="44.2931864" lon="8.4046468"><ele>31.25</ele><time>2026-05-01T10:28:06.929Z</time></trkpt><trkpt lat="44.2931751" lon="8.4048195"><ele>31.0</ele><time>2026-05-01T10:28:07.93Z</time></trkpt><trkpt lat="44.2931546" lon="8.4050031"><ele>30.75</ele><time>2026-05-01T10:28:08.929Z</time></trkpt><trkpt lat="44.2931305" lon="8.4051861"><ele>30.5</ele><time>2026-05-01T10:28:09.931Z</time></trkpt><trkpt lat="44.2931006" lon="8.4053561"><ele>30.25</ele><time>2026-05-01T10:28:10.93Z</time></trkpt><trkpt lat="44.2930719" lon="8.4055216"><ele>30.0</ele><time>2026-05-01T10:28:11.931Z</time></trkpt><trkpt lat="44.2930396" lon="8.4056867"><ele>30.0</ele><time>2026-05-01T10:28:12.929Z</time></trkpt><trkpt lat="44.2930061" lon="8.4058527"><ele>30.0</ele><time>2026-05-01T10:28:13.929Z</time></trkpt><trkpt lat="44.2929587" lon="8.4060366"><ele>30.0</ele><time>2026-05-01T10:28:14.93Z</time></trkpt><trkpt lat="44.2929069" lon="8.4062317"><ele>30.0</ele><time>2026-05-01T10:28:15.93Z</time></trkpt><trkpt lat="44.2928482" lon="8.4064256"><ele>29.5</ele><time>2026-05-01T10:28:16.93Z</time></trkpt><trkpt lat="44.2927894" lon="8.4066137"><ele>29.0</ele><time>2026-05-01T10:28:17.929Z</time></trkpt><trkpt lat="44.2927287" lon="8.4067905"><ele>28.5</ele><time>2026-05-01T10:28:18.928Z</time></trkpt><trkpt lat="44.2926731" lon="8.4069613"><ele>28.0</ele><time>2026-05-01T10:28:19.929Z</time></trkpt><trkpt lat="44.2926138" lon="8.4071295"><ele>27.5</ele><time>2026-05-01T10:28:20.929Z</time></trkpt><trkpt lat="44.2925572" lon="8.4073074"><ele>27.0</ele><time>2026-05-01T10:28:21.929Z</time></trkpt><trkpt lat="44.292497" lon="8.4074923"><ele>26.5</ele><time>2026-05-01T10:28:22.93Z</time></trkpt><trkpt lat="44.2924337" lon="8.4076766"><ele>26.0</ele><time>2026-05-01T10:28:23.929Z</time></trkpt><trkpt lat="44.2923768" lon="8.407856"><ele>26.25</ele><time>2026-05-01T10:28:24.93Z</time></trkpt><trkpt lat="44.2923203" lon="8.4080352"><ele>26.5</ele><time>2026-05-01T10:28:25.929Z</time></trkpt><trkpt lat="44.2922594" lon="8.4082127"><ele>26.75</ele><time>2026-05-01T10:28:26.931Z</time></trkpt><trkpt lat="44.2922007" lon="8.4083918"><ele>27.0</ele><time>2026-05-01T10:28:27.93Z</time></trkpt><trkpt lat="44.292144" lon="8.4085605"><ele>26.25</ele><time>2026-05-01T10:28:28.929Z</time></trkpt><trkpt lat="44.2920903" lon="8.4087121"><ele>25.5</ele><time>2026-05-01T10:28:29.93Z</time></trkpt><trkpt lat="44.2920362" lon="8.4088596"><ele>24.75</ele><time>2026-05-01T10:28:30.93Z</time></trkpt><trkpt lat="44.2919788" lon="8.4090252"><ele>24.0</ele><time>2026-05-01T10:28:31.929Z</time></trkpt><trkpt lat="44.2919227" lon="8.4092027"><ele>24.0</ele><time>2026-05-01T10:28:32.928Z</time></trkpt><trkpt lat="44.2918628" lon="8.4093835"><ele>24.0</ele><time>2026-05-01T10:28:33.929Z</time></trkpt><trkpt lat="44.2917993" lon="8.4095687"><ele>24.0</ele><time>2026-05-01T10:28:34.929Z</time></trkpt><trkpt lat="44.2917341" lon="8.4097611"><ele>24.0</ele><time>2026-05-01T10:28:35.93Z</time></trkpt><trkpt lat="44.2916784" lon="8.4099417"><ele>24.0</ele><time>2026-05-01T10:28:36.929Z</time></trkpt><trkpt lat="44.2916223" lon="8.4101055"><ele>24.0</ele><time>2026-05-01T10:28:37.929Z</time></trkpt><trkpt lat="44.2915676" lon="8.4102606"><ele>24.0</ele><time>2026-05-01T10:28:38.928Z</time></trkpt><trkpt lat="44.2915211" lon="8.4104079"><ele>24.0</ele><time>2026-05-01T10:28:39.929Z</time></trkpt><trkpt lat="44.2914714" lon="8.4105676"><ele>24.0</ele><time>2026-05-01T10:28:40.928Z</time></trkpt><trkpt lat="44.2914269" lon="8.4107236"><ele>24.0</ele><time>2026-05-01T10:28:41.93Z</time></trkpt><trkpt lat="44.2913709" lon="8.4108855"><ele>24.0</ele><time>2026-05-01T10:28:42.929Z</time></trkpt><trkpt lat="44.2912967" lon="8.41108"><ele>24.0</ele><time>2026-05-01T10:28:43.929Z</time></trkpt><trkpt lat="44.2912197" lon="8.4112912"><ele>23.333333333333332</ele><time>2026-05-01T10:28:44.93Z</time></trkpt><trkpt lat="44.2911578" lon="8.4115069"><ele>22.666666666666664</ele><time>2026-05-01T10:28:45.929Z</time></trkpt><trkpt lat="44.2911109" lon="8.411729"><ele>22.0</ele><time>2026-05-01T10:28:46.93Z</time></trkpt><trkpt lat="44.2910615" lon="8.4119772"><ele>22.0</ele><time>2026-05-01T10:28:47.929Z</time></trkpt><trkpt lat="44.2910173" lon="8.4122223"><ele>22.0</ele><time>2026-05-01T10:28:48.929Z</time></trkpt><trkpt lat="44.2909754" lon="8.4124712"><ele>22.0</ele><time>2026-05-01T10:28:49.929Z</time></trkpt><trkpt lat="44.2909394" lon="8.4127102"><ele>22.0</ele><time>2026-05-01T10:28:50.929Z</time></trkpt><trkpt lat="44.2909141" lon="8.4129514"><ele>22.0</ele><time>2026-05-01T10:28:51.929Z</time></trkpt><trkpt lat="44.290887" lon="8.4131832"><ele>22.0</ele><time>2026-05-01T10:28:52.929Z</time></trkpt><trkpt lat="44.2908625" lon="8.4134248"><ele>21.333333333333332</ele><time>2026-05-01T10:28:53.929Z</time></trkpt><trkpt lat="44.2908361" lon="8.4136638"><ele>20.666666666666668</ele><time>2026-05-01T10:28:54.931Z</time></trkpt><trkpt lat="44.2908086" lon="8.4139036"><ele>20.0</ele><time>2026-05-01T10:28:55.929Z</time></trkpt><trkpt lat="44.2907821" lon="8.4141391"><ele>20.0</ele><time>2026-05-01T10:28:56.929Z</time></trkpt><trkpt lat="44.2907559" lon="8.4143621"><ele>20.0</ele><time>2026-05-01T10:28:57.929Z</time></trkpt><trkpt lat="44.2907318" lon="8.4145754"><ele>20.0</ele><time>2026-05-01T10:28:58.93Z</time></trkpt><trkpt lat="44.2907084" lon="8.4147884"><ele>20.333333333333336</ele><time>2026-05-01T10:28:59.93Z</time></trkpt><trkpt lat="44.2906844" lon="8.415002"><ele>20.666666666666668</ele><time>2026-05-01T10:29:00.928Z</time></trkpt><trkpt lat="44.290659" lon="8.4152174"><ele>21.0</ele><time>2026-05-01T10:29:01.93Z</time></trkpt><trkpt lat="44.2906344" lon="8.415427"><ele>20.5</ele><time>2026-05-01T10:29:02.929Z</time></trkpt><trkpt lat="44.2906116" lon="8.4156167"><ele>20.0</ele><time>2026-05-01T10:29:03.931Z</time></trkpt><trkpt lat="44.2905938" lon="8.4157848"><ele>19.5</ele><time>2026-05-01T10:29:04.93Z</time></trkpt><trkpt lat="44.2905751" lon="8.4159324"><ele>19.0</ele><time>2026-05-01T10:29:05.928Z</time></trkpt><trkpt lat="44.2905582" lon="8.4160695"><ele>19.0</ele><time>2026-05-01T10:29:06.929Z</time></trkpt><trkpt lat="44.2905411" lon="8.4161992"><ele>19.0</ele><time>2026-05-01T10:29:07.93Z</time></trkpt><trkpt lat="44.2905244" lon="8.416337"><ele>19.0</ele><time>2026-05-01T10:29:08.929Z</time></trkpt><trkpt lat="44.2905034" lon="8.4164989"><ele>19.0</ele><time>2026-05-01T10:29:09.929Z</time></trkpt><trkpt lat="44.2904746" lon="8.4166722"><ele>19.0</ele><time>2026-05-01T10:29:10.929Z</time></trkpt><trkpt lat="44.2904228" lon="8.4168662"><ele>18.666666666666664</ele><time>2026-05-01T10:29:11.929Z</time></trkpt><trkpt lat="44.2903714" lon="8.4170751"><ele>18.333333333333332</ele><time>2026-05-01T10:29:12.93Z</time></trkpt><trkpt lat="44.2903139" lon="8.4172941"><ele>18.0</ele><time>2026-05-01T10:29:13.93Z</time></trkpt><trkpt lat="44.2902538" lon="8.417524"><ele>18.0</ele><time>2026-05-01T10:29:14.93Z</time></trkpt><trkpt lat="44.2901989" lon="8.4177411"><ele>18.0</ele><time>2026-05-01T10:29:15.929Z</time></trkpt><trkpt lat="44.2901474" lon="8.4179526"><ele>18.0</ele><time>2026-05-01T10:29:16.929Z</time></trkpt><trkpt lat="44.2900974" lon="8.4181651"><ele>17.333333333333332</ele><time>2026-05-01T10:29:17.93Z</time></trkpt><trkpt lat="44.2900358" lon="8.4183773"><ele>16.666666666666664</ele><time>2026-05-01T10:29:18.93Z</time></trkpt><trkpt lat="44.2899718" lon="8.4185963"><ele>16.0</ele><time>2026-05-01T10:29:19.929Z</time></trkpt><trkpt lat="44.2899044" lon="8.4188339"><ele>16.0</ele><time>2026-05-01T10:29:20.929Z</time></trkpt><trkpt lat="44.2898359" lon="8.4190834"><ele>16.0</ele><time>2026-05-01T10:29:21.929Z</time></trkpt><trkpt lat="44.2897681" lon="8.4193309"><ele>16.0</ele><time>2026-05-01T10:29:22.93Z</time></trkpt><trkpt lat="44.2897065" lon="8.419567"><ele>15.666666666666666</ele><time>2026-05-01T10:29:23.931Z</time></trkpt><trkpt lat="44.2896426" lon="8.4197995"><ele>15.333333333333332</ele><time>2026-05-01T10:29:24.93Z</time></trkpt><trkpt lat="44.2895861" lon="8.4200408"><ele>15.0</ele><time>2026-05-01T10:29:25.93Z</time></trkpt><trkpt lat="44.2895314" lon="8.4202876"><ele>14.333333333333332</ele><time>2026-05-01T10:29:26.929Z</time></trkpt><trkpt lat="44.2894799" lon="8.4205375"><ele>13.666666666666666</ele><time>2026-05-01T10:29:27.929Z</time></trkpt><trkpt lat="44.2894239" lon="8.4207884"><ele>13.0</ele><time>2026-05-01T10:29:28.93Z</time></trkpt><trkpt lat="44.2893697" lon="8.4210313"><ele>13.0</ele><time>2026-05-01T10:29:29.929Z</time></trkpt><trkpt lat="44.289316" lon="8.4212577"><ele>13.0</ele><time>2026-05-01T10:29:30.93Z</time></trkpt><trkpt lat="44.2892643" lon="8.421488"><ele>13.0</ele><time>2026-05-01T10:29:31.929Z</time></trkpt><trkpt lat="44.2892061" lon="8.4217094"><ele>13.0</ele><time>2026-05-01T10:29:32.929Z</time></trkpt><trkpt lat="44.2891466" lon="8.4219248"><ele>13.0</ele><time>2026-05-01T10:29:33.929Z</time></trkpt><trkpt lat="44.2890794" lon="8.4221357"><ele>13.0</ele><time>2026-05-01T10:29:34.929Z</time></trkpt><trkpt lat="44.2890121" lon="8.422346"><ele>13.333333333333332</ele><time>2026-05-01T10:29:35.929Z</time></trkpt><trkpt lat="44.2889542" lon="8.4225604"><ele>13.666666666666668</ele><time>2026-05-01T10:29:36.929Z</time></trkpt><trkpt lat="44.2888926" lon="8.4227431"><ele>14.0</ele><time>2026-05-01T10:29:37.929Z</time></trkpt><trkpt lat="44.2888198" lon="8.4229156"><ele>13.333333333333334</ele><time>2026-05-01T10:29:38.929Z</time></trkpt><trkpt lat="44.2887329" lon="8.4230682"><ele>12.666666666666668</ele><time>2026-05-01T10:29:39.929Z</time></trkpt><trkpt lat="44.2886229" lon="8.4232202"><ele>12.0</ele><time>2026-05-01T10:29:40.928Z</time></trkpt><trkpt lat="44.2884905" lon="8.4233664"><ele>12.0</ele><time>2026-05-01T10:29:41.93Z</time></trkpt><trkpt lat="44.2883588" lon="8.4234932"><ele>12.0</ele><time>2026-05-01T10:29:42.93Z</time></trkpt><trkpt lat="44.2882298" lon="8.4236293"><ele>12.0</ele><time>2026-05-01T10:29:43.929Z</time></trkpt><trkpt lat="44.2881045" lon="8.4237927"><ele>11.666666666666666</ele><time>2026-05-01T10:29:44.929Z</time></trkpt><trkpt lat="44.2879856" lon="8.4239812"><ele>11.333333333333332</ele><time>2026-05-01T10:29:45.929Z</time></trkpt><trkpt lat="44.2878766" lon="8.4241746"><ele>11.0</ele><time>2026-05-01T10:29:46.929Z</time></trkpt><trkpt lat="44.2877746" lon="8.4243593"><ele>11.0</ele><time>2026-05-01T10:29:47.93Z</time></trkpt><trkpt lat="44.2876808" lon="8.4245395"><ele>11.0</ele><time>2026-05-01T10:29:48.928Z</time></trkpt><trkpt lat="44.2875833" lon="8.4246997"><ele>11.0</ele><time>2026-05-01T10:29:49.929Z</time></trkpt><trkpt lat="44.2874807" lon="8.4248711"><ele>11.0</ele><time>2026-05-01T10:29:50.93Z</time></trkpt><trkpt lat="44.2873824" lon="8.4250655"><ele>11.0</ele><time>2026-05-01T10:29:51.928Z</time></trkpt><trkpt lat="44.2872753" lon="8.4252535"><ele>11.0</ele><time>2026-05-01T10:29:52.93Z</time></trkpt><trkpt lat="44.2871723" lon="8.4254286"><ele>10.75</ele><time>2026-05-01T10:29:53.929Z</time></trkpt><trkpt lat="44.2870785" lon="8.4255994"><ele>10.5</ele><time>2026-05-01T10:29:54.929Z</time></trkpt><trkpt lat="44.2869906" lon="8.425766"><ele>10.25</ele><time>2026-05-01T10:29:55.929Z</time></trkpt><trkpt lat="44.2868999" lon="8.4259256"><ele>10.0</ele><time>2026-05-01T10:29:56.93Z</time></trkpt><trkpt lat="44.2868059" lon="8.4260895"><ele>10.0</ele><time>2026-05-01T10:29:57.929Z</time></trkpt><trkpt lat="44.2867117" lon="8.4262527"><ele>10.0</ele><time>2026-05-01T10:29:58.93Z</time></trkpt><trkpt lat="44.2866198" lon="8.4264183"><ele>10.0</ele><time>2026-05-01T10:29:59.931Z</time></trkpt><trkpt lat="44.2865245" lon="8.426586"><ele>10.0</ele><time>2026-05-01T10:30:00.929Z</time></trkpt><trkpt lat="44.2864343" lon="8.4267461"><ele>10.0</ele><time>2026-05-01T10:30:01.929Z</time></trkpt><trkpt lat="44.2863483" lon="8.4269046"><ele>10.0</ele><time>2026-05-01T10:30:02.929Z</time></trkpt><trkpt lat="44.2862606" lon="8.4270603"><ele>10.0</ele><time>2026-05-01T10:30:03.929Z</time></trkpt><trkpt lat="44.2861727" lon="8.4272256"><ele>9.75</ele><time>2026-05-01T10:30:04.929Z</time></trkpt><trkpt lat="44.2860856" lon="8.427389"><ele>9.5</ele><time>2026-05-01T10:30:05.929Z</time></trkpt><trkpt lat="44.2859986" lon="8.4275471"><ele>9.25</ele><time>2026-05-01T10:30:06.93Z</time></trkpt><trkpt lat="44.2859148" lon="8.4276931"><ele>9.0</ele><time>2026-05-01T10:30:07.93Z</time></trkpt><trkpt lat="44.28584" lon="8.4278283"><ele>9.0</ele><time>2026-05-01T10:30:08.929Z</time></trkpt><trkpt lat="44.2857709" lon="8.4279553"><ele>9.0</ele><time>2026-05-01T10:30:09.93Z</time></trkpt><trkpt lat="44.285703" lon="8.4280766"><ele>9.0</ele><time>2026-05-01T10:30:10.928Z</time></trkpt><trkpt lat="44.2856398" lon="8.42818"><ele>9.0</ele><time>2026-05-01T10:30:11.929Z</time></trkpt><trkpt lat="44.2855813" lon="8.4282841"><ele>9.0</ele><time>2026-05-01T10:30:12.928Z</time></trkpt><trkpt lat="44.285523" lon="8.4283853"><ele>9.0</ele><time>2026-05-01T10:30:13.929Z</time></trkpt><trkpt lat="44.2854629" lon="8.4284947"><ele>9.0</ele><time>2026-05-01T10:30:14.93Z</time></trkpt><trkpt lat="44.2853957" lon="8.4286147"><ele>9.0</ele><time>2026-05-01T10:30:15.929Z</time></trkpt><trkpt lat="44.2853252" lon="8.4287475"><ele>9.0</ele><time>2026-05-01T10:30:16.928Z</time></trkpt><trkpt lat="44.2852409" lon="8.4288924"><ele>9.0</ele><time>2026-05-01T10:30:17.929Z</time></trkpt><trkpt lat="44.2851466" lon="8.4290387"><ele>9.0</ele><time>2026-05-01T10:30:18.93Z</time></trkpt><trkpt lat="44.2850581" lon="8.4291887"><ele>9.0</ele><time>2026-05-01T10:30:19.929Z</time></trkpt><trkpt lat="44.2849785" lon="8.4293418"><ele>9.0</ele><time>2026-05-01T10:30:20.928Z</time></trkpt><trkpt lat="44.2848984" lon="8.4294842"><ele>9.0</ele><time>2026-05-01T10:30:21.929Z</time></trkpt><trkpt lat="44.2848207" lon="8.4296129"><ele>9.0</ele><time>2026-05-01T10:30:22.928Z</time></trkpt><trkpt lat="44.2847461" lon="8.4297364"><ele>9.0</ele><time>2026-05-01T10:30:23.929Z</time></trkpt><trkpt lat="44.28468" lon="8.4298503"><ele>9.0</ele><time>2026-05-01T10:30:24.929Z</time></trkpt><trkpt lat="44.2846198" lon="8.4299638"><ele>9.0</ele><time>2026-05-01T10:30:25.929Z</time></trkpt><trkpt lat="44.2845672" lon="8.4300657"><ele>9.0</ele><time>2026-05-01T10:30:26.93Z</time></trkpt><trkpt lat="44.2845188" lon="8.4301569"><ele>9.0</ele><time>2026-05-01T10:30:27.93Z</time></trkpt><trkpt lat="44.2844664" lon="8.4302447"><ele>9.0</ele><time>2026-05-01T10:30:28.929Z</time></trkpt><trkpt lat="44.2843831" lon="8.4303579"><ele>9.0</ele><time>2026-05-01T10:30:30.929Z</time></trkpt><trkpt lat="44.2843053" lon="8.4303559"><ele>9.0</ele><time>2026-05-01T10:30:32.929Z</time></trkpt><trkpt lat="44.2841836" lon="8.4302372"><ele>9.0</ele><time>2026-05-01T10:30:34.929Z</time></trkpt><trkpt lat="44.2840322" lon="8.430048"><ele>9.0</ele><time>2026-05-01T10:30:36.929Z</time></trkpt><trkpt lat="44.2839325" lon="8.4299028"><ele>9.0</ele><time>2026-05-01T10:30:37.929Z</time></trkpt><trkpt lat="44.2838379" lon="8.4297613"><ele>9.0</ele><time>2026-05-01T10:30:38.93Z</time></trkpt><trkpt lat="44.283751" lon="8.4296368"><ele>9.0</ele><time>2026-05-01T10:30:39.929Z</time></trkpt><trkpt lat="44.2836691" lon="8.4295249"><ele>9.0</ele><time>2026-05-01T10:30:40.929Z</time></trkpt><trkpt lat="44.2835912" lon="8.4294247"><ele>9.0</ele><time>2026-05-01T10:30:41.929Z</time></trkpt><trkpt lat="44.2835218" lon="8.4293272"><ele>9.0</ele><time>2026-05-01T10:30:42.93Z</time></trkpt><trkpt lat="44.2834608" lon="8.4292399"><ele>9.0</ele><time>2026-05-01T10:30:43.928Z</time></trkpt><trkpt lat="44.2833953" lon="8.4291456"><ele>9.0</ele><time>2026-05-01T10:30:44.929Z</time></trkpt><trkpt lat="44.2833325" lon="8.4290645"><ele>9.0</ele><time>2026-05-01T10:30:45.929Z</time></trkpt><trkpt lat="44.2832741" lon="8.4289694"><ele>9.0</ele><time>2026-05-01T10:30:46.928Z</time></trkpt><trkpt lat="44.2832192" lon="8.4288858"><ele>9.0</ele><time>2026-05-01T10:30:47.929Z</time></trkpt><trkpt lat="44.2831675" lon="8.4287999"><ele>9.0</ele><time>2026-05-01T10:30:48.93Z</time></trkpt><trkpt lat="44.2830887" lon="8.4286754"><ele>10.0</ele><time>2026-05-01T10:30:50.929Z</time></trkpt><trkpt lat="44.2830304" lon="8.4285242"><ele>11.0</ele><time>2026-05-01T10:30:52.929Z</time></trkpt><trkpt lat="44.2829904" lon="8.428416"><ele>11.999999999999998</ele><time>2026-05-01T10:30:53.929Z</time></trkpt><trkpt lat="44.2829388" lon="8.4282862"><ele>13.0</ele><time>2026-05-01T10:30:54.93Z</time></trkpt><trkpt lat="44.2828644" lon="8.4281536"><ele>14.0</ele><time>2026-05-01T10:30:55.93Z</time></trkpt><trkpt lat="44.2827776" lon="8.4280115"><ele>14.6</ele><time>2026-05-01T10:30:56.928Z</time></trkpt><trkpt lat="44.2826881" lon="8.427871"><ele>15.2</ele><time>2026-05-01T10:30:57.929Z</time></trkpt><trkpt lat="44.2826068" lon="8.4277499"><ele>15.799999999999999</ele><time>2026-05-01T10:30:58.929Z</time></trkpt><trkpt lat="44.2825411" lon="8.427653"><ele>16.4</ele><time>2026-05-01T10:30:59.928Z</time></trkpt><trkpt lat="44.2824948" lon="8.427582"><ele>17.0</ele><time>2026-05-01T10:31:00.928Z</time></trkpt><trkpt lat="44.2824225" lon="8.4274756"><ele>17.0</ele><time>2026-05-01T10:31:02.93Z</time></trkpt><trkpt lat="44.2823601" lon="8.4274461"><ele>17.0</ele><time>2026-05-01T10:31:04.928Z</time></trkpt><trkpt lat="44.2823453" lon="8.4275691"><ele>17.0</ele><time>2026-05-01T10:31:06.93Z</time></trkpt><trkpt lat="44.2823923" lon="8.4276861"><ele>17.0</ele><time>2026-05-01T10:31:08.929Z</time></trkpt><trkpt lat="44.2824657" lon="8.4277807"><ele>17.0</ele><time>2026-05-01T10:31:09.929Z</time></trkpt><trkpt lat="44.2825361" lon="8.4278887"><ele>16.4</ele><time>2026-05-01T10:31:10.93Z</time></trkpt><trkpt lat="44.2826064" lon="8.4280056"><ele>15.799999999999999</ele><time>2026-05-01T10:31:11.93Z</time></trkpt><trkpt lat="44.2826732" lon="8.4281125"><ele>15.2</ele><time>2026-05-01T10:31:12.93Z</time></trkpt><trkpt lat="44.2827337" lon="8.4282065"><ele>14.6</ele><time>2026-05-01T10:31:13.929Z</time></trkpt><trkpt lat="44.2827871" lon="8.4282972"><ele>14.0</ele><time>2026-05-01T10:31:14.929Z</time></trkpt><trkpt lat="44.2828392" lon="8.42838"><ele>14.000000000000002</ele><time>2026-05-01T10:31:15.928Z</time></trkpt><trkpt lat="44.282885" lon="8.4284581"><ele>14.0</ele><time>2026-05-01T10:31:16.929Z</time></trkpt><trkpt lat="44.2829246" lon="8.4285308"><ele>14.0</ele><time>2026-05-01T10:31:17.929Z</time></trkpt><trkpt lat="44.2829779" lon="8.42861"><ele>14.0</ele><time>2026-05-01T10:31:20.929Z</time></trkpt><trkpt lat="44.2830604" lon="8.4286761"><ele>14.000000000000002</ele><time>2026-05-01T10:31:22.93Z</time></trkpt><trkpt lat="44.2831176" lon="8.4287301"><ele>14.0</ele><time>2026-05-01T10:31:23.93Z</time></trkpt><trkpt lat="44.2831771" lon="8.4288103"><ele>13.0</ele><time>2026-05-01T10:31:24.928Z</time></trkpt><trkpt lat="44.2832392" lon="8.4289045"><ele>11.999999999999998</ele><time>2026-05-01T10:31:25.929Z</time></trkpt><trkpt lat="44.2833054" lon="8.4290004"><ele>11.0</ele><time>2026-05-01T10:31:26.929Z</time></trkpt><trkpt lat="44.2833746" lon="8.4291132"><ele>10.0</ele><time>2026-05-01T10:31:27.928Z</time></trkpt><trkpt lat="44.2834524" lon="8.4292251"><ele>9.0</ele><time>2026-05-01T10:31:28.929Z</time></trkpt><trkpt lat="44.2835321" lon="8.4293441"><ele>9.0</ele><time>2026-05-01T10:31:29.93Z</time></trkpt><trkpt lat="44.283623" lon="8.429463"><ele>9.0</ele><time>2026-05-01T10:31:30.929Z</time></trkpt><trkpt lat="44.2836905" lon="8.4295483"><ele>9.0</ele><time>2026-05-01T10:31:31.929Z</time></trkpt><trkpt lat="44.2837746" lon="8.4296421"><ele>9.0</ele><time>2026-05-01T10:31:32.93Z</time></trkpt><trkpt lat="44.2838456" lon="8.4297578"><ele>9.0</ele><time>2026-05-01T10:31:33.929Z</time></trkpt><trkpt lat="44.283907" lon="8.4298715"><ele>9.0</ele><time>2026-05-01T10:31:34.929Z</time></trkpt><trkpt lat="44.2839765" lon="8.4299784"><ele>9.0</ele><time>2026-05-01T10:31:35.928Z</time></trkpt><trkpt lat="44.2840477" lon="8.430073"><ele>9.0</ele><time>2026-05-01T10:31:36.929Z</time></trkpt><trkpt lat="44.2841099" lon="8.4301672"><ele>9.0</ele><time>2026-05-01T10:31:37.929Z</time></trkpt><trkpt lat="44.2841489" lon="8.4302581"><ele>9.0</ele><time>2026-05-01T10:31:38.93Z</time></trkpt><trkpt lat="44.2842152" lon="8.430384"><ele>9.166666666666666</ele><time>2026-05-01T10:31:40.929Z</time></trkpt><trkpt lat="44.2842788" lon="8.4304938"><ele>9.333333333333334</ele><time>2026-05-01T10:31:43.929Z</time></trkpt><trkpt lat="44.2843702" lon="8.430605"><ele>9.5</ele><time>2026-05-01T10:31:45.928Z</time></trkpt><trkpt lat="44.2844251" lon="8.4306608"><ele>9.666666666666668</ele><time>2026-05-01T10:31:46.93Z</time></trkpt><trkpt lat="44.2844739" lon="8.430731"><ele>9.833333333333334</ele><time>2026-05-01T10:31:47.93Z</time></trkpt><trkpt lat="44.2845444" lon="8.4308016"><ele>10.0</ele><time>2026-05-01T10:31:48.929Z</time></trkpt><trkpt lat="44.2845929" lon="8.4308579"><ele>10.0</ele><time>2026-05-01T10:31:49.929Z</time></trkpt><trkpt lat="44.2846424" lon="8.4309208"><ele>10.0</ele><time>2026-05-01T10:31:50.928Z</time></trkpt><trkpt lat="44.2846881" lon="8.4309854"><ele>10.0</ele><time>2026-05-01T10:31:51.928Z</time></trkpt><trkpt lat="44.2847294" lon="8.4310536"><ele>10.0</ele><time>2026-05-01T10:31:52.93Z</time></trkpt><trkpt lat="44.2847806" lon="8.4311251"><ele>10.0</ele><time>2026-05-01T10:31:53.929Z</time></trkpt><trkpt lat="44.2848546" lon="8.4312247"><ele>10.0</ele><time>2026-05-01T10:31:54.928Z</time></trkpt><trkpt lat="44.2849453" lon="8.4313553"><ele>9.0</ele><time>2026-05-01T10:31:55.929Z</time></trkpt><trkpt lat="44.2850453" lon="8.4315021"><ele>8.0</ele><time>2026-05-01T10:31:56.929Z</time></trkpt><trkpt lat="44.2851636" lon="8.4316776"><ele>7.0</ele><time>2026-05-01T10:31:57.93Z</time></trkpt><trkpt lat="44.285284" lon="8.4318574"><ele>7.0</ele><time>2026-05-01T10:31:58.928Z</time></trkpt><trkpt lat="44.2853976" lon="8.4320202"><ele>7.0</ele><time>2026-05-01T10:31:59.929Z</time></trkpt><trkpt lat="44.285492" lon="8.4321786"><ele>7.0</ele><time>2026-05-01T10:32:00.929Z</time></trkpt><trkpt lat="44.2855847" lon="8.4323295"><ele>7.25</ele><time>2026-05-01T10:32:01.929Z</time></trkpt><trkpt lat="44.2856662" lon="8.4324769"><ele>7.5</ele><time>2026-05-01T10:32:02.929Z</time></trkpt><trkpt lat="44.2857401" lon="8.4326156"><ele>7.75</ele><time>2026-05-01T10:32:03.928Z</time></trkpt><trkpt lat="44.2858126" lon="8.4327404"><ele>8.0</ele><time>2026-05-01T10:32:04.929Z</time></trkpt><trkpt lat="44.2858832" lon="8.4328392"><ele>8.0</ele><time>2026-05-01T10:32:05.929Z</time></trkpt><trkpt lat="44.2859403" lon="8.4329217"><ele>8.0</ele><time>2026-05-01T10:32:06.929Z</time></trkpt><trkpt lat="44.2859795" lon="8.4329987"><ele>8.0</ele><time>2026-05-01T10:32:07.931Z</time></trkpt><trkpt lat="44.2859676" lon="8.4331735"><ele>8.0</ele><time>2026-05-01T10:32:09.929Z</time></trkpt><trkpt lat="44.2859218" lon="8.433264"><ele>8.0</ele><time>2026-05-01T10:32:10.929Z</time></trkpt><trkpt lat="44.2858145" lon="8.4333839"><ele>8.0</ele><time>2026-05-01T10:32:11.928Z</time></trkpt><trkpt lat="44.2856943" lon="8.433506"><ele>8.0</ele><time>2026-05-01T10:32:12.929Z</time></trkpt><trkpt lat="44.2855475" lon="8.4336504"><ele>8.0</ele><time>2026-05-01T10:32:13.929Z</time></trkpt><trkpt lat="44.2853996" lon="8.4338157"><ele>8.333333333333332</ele><time>2026-05-01T10:32:14.928Z</time></trkpt><trkpt lat="44.2852572" lon="8.433984"><ele>8.666666666666666</ele><time>2026-05-01T10:32:15.928Z</time></trkpt><trkpt lat="44.2851176" lon="8.4341468"><ele>9.0</ele><time>2026-05-01T10:32:16.928Z</time></trkpt><trkpt lat="44.2850109" lon="8.434304"><ele>9.0</ele><time>2026-05-01T10:32:17.929Z</time></trkpt><trkpt lat="44.2849022" lon="8.4344747"><ele>9.0</ele><time>2026-05-01T10:32:18.93Z</time></trkpt><trkpt lat="44.2848102" lon="8.4346456"><ele>9.0</ele><time>2026-05-01T10:32:19.928Z</time></trkpt><trkpt lat="44.2847374" lon="8.4348093"><ele>8.2</ele><time>2026-05-01T10:32:20.928Z</time></trkpt><trkpt lat="44.2846788" lon="8.434954"><ele>7.4</ele><time>2026-05-01T10:32:21.929Z</time></trkpt><trkpt lat="44.2846296" lon="8.4350659"><ele>6.6</ele><time>2026-05-01T10:32:22.929Z</time></trkpt><trkpt lat="44.2845859" lon="8.4351617"><ele>5.8</ele><time>2026-05-01T10:32:23.928Z</time></trkpt><trkpt lat="44.2846049" lon="8.4353115"><ele>5.0</ele><time>2026-05-01T10:32:25.931Z</time></trkpt><trkpt lat="44.2846589" lon="8.4353702"><ele>5.0</ele><time>2026-05-01T10:32:26.929Z</time></trkpt><trkpt lat="44.2847406" lon="8.43542"><ele>5.0</ele><time>2026-05-01T10:32:27.929Z</time></trkpt><trkpt lat="44.2848507" lon="8.4354906"><ele>5.0</ele><time>2026-05-01T10:32:28.929Z</time></trkpt><trkpt lat="44.2849798" lon="8.4355943"><ele>5.0</ele><time>2026-05-01T10:32:29.93Z</time></trkpt><trkpt lat="44.2851245" lon="8.4357233"><ele>6.333333333333334</ele><time>2026-05-01T10:32:30.93Z</time></trkpt><trkpt lat="44.2852795" lon="8.4358578"><ele>7.666666666666667</ele><time>2026-05-01T10:32:31.928Z</time></trkpt><trkpt lat="44.2854433" lon="8.4360163"><ele>9.0</ele><time>2026-05-01T10:32:32.929Z</time></trkpt><trkpt lat="44.285611" lon="8.436182"><ele>9.666666666666666</ele><time>2026-05-01T10:32:33.93Z</time></trkpt><trkpt lat="44.2857792" lon="8.4363528"><ele>10.333333333333332</ele><time>2026-05-01T10:32:34.929Z</time></trkpt><trkpt lat="44.2859347" lon="8.4365272"><ele>11.0</ele><time>2026-05-01T10:32:35.93Z</time></trkpt><trkpt lat="44.2860906" lon="8.4367135"><ele>11.0</ele><time>2026-05-01T10:32:36.929Z</time></trkpt><trkpt lat="44.28624" lon="8.4369182"><ele>11.0</ele><time>2026-05-01T10:32:37.93Z</time></trkpt><trkpt lat="44.2863933" lon="8.4371473"><ele>11.0</ele><time>2026-05-01T10:32:38.928Z</time></trkpt><trkpt lat="44.2865412" lon="8.4373807"><ele>12.333333333333332</ele><time>2026-05-01T10:32:39.929Z</time></trkpt><trkpt lat="44.2866782" lon="8.4375998"><ele>13.666666666666666</ele><time>2026-05-01T10:32:40.929Z</time></trkpt><trkpt lat="44.2868017" lon="8.4378128"><ele>15.0</ele><time>2026-05-01T10:32:41.928Z</time></trkpt><trkpt lat="44.2869137" lon="8.4380297"><ele>15.0</ele><time>2026-05-01T10:32:42.929Z</time></trkpt><trkpt lat="44.287012" lon="8.438257"><ele>15.0</ele><time>2026-05-01T10:32:43.928Z</time></trkpt><trkpt lat="44.2871061" lon="8.4384958"><ele>15.0</ele><time>2026-05-01T10:32:44.929Z</time></trkpt><trkpt lat="44.2871984" lon="8.4387308"><ele>17.666666666666668</ele><time>2026-05-01T10:32:45.93Z</time></trkpt><trkpt lat="44.2872837" lon="8.4389422"><ele>20.333333333333336</ele><time>2026-05-01T10:32:46.93Z</time></trkpt><trkpt lat="44.2873767" lon="8.4391556"><ele>23.0</ele><time>2026-05-01T10:32:47.929Z</time></trkpt><trkpt lat="44.2874655" lon="8.4393607"><ele>23.0</ele><time>2026-05-01T10:32:48.93Z</time></trkpt><trkpt lat="44.2875393" lon="8.4395335"><ele>23.0</ele><time>2026-05-01T10:32:49.93Z</time></trkpt><trkpt lat="44.287618" lon="8.4397047"><ele>23.0</ele><time>2026-05-01T10:32:50.929Z</time></trkpt><trkpt lat="44.2876853" lon="8.4398774"><ele>23.0</ele><time>2026-05-01T10:32:51.928Z</time></trkpt><trkpt lat="44.2877251" lon="8.4400444"><ele>23.0</ele><time>2026-05-01T10:32:52.93Z</time></trkpt><trkpt lat="44.2877705" lon="8.4402006"><ele>23.0</ele><time>2026-05-01T10:32:53.928Z</time></trkpt><trkpt lat="44.287814" lon="8.4403457"><ele>23.0</ele><time>2026-05-01T10:32:54.928Z</time></trkpt><trkpt lat="44.2878658" lon="8.4404928"><ele>23.0</ele><time>2026-05-01T10:32:55.929Z</time></trkpt><trkpt lat="44.2879156" lon="8.4406321"><ele>23.0</ele><time>2026-05-01T10:32:56.93Z</time></trkpt><trkpt lat="44.2879769" lon="8.4407858"><ele>23.0</ele><time>2026-05-01T10:32:57.929Z</time></trkpt><trkpt lat="44.2880343" lon="8.4409516"><ele>23.0</ele><time>2026-05-01T10:32:58.929Z</time></trkpt><trkpt lat="44.2881204" lon="8.4411752"><ele>23.0</ele><time>2026-05-01T10:32:59.928Z</time></trkpt><trkpt lat="44.2881948" lon="8.4414151"><ele>23.333333333333336</ele><time>2026-05-01T10:33:00.928Z</time></trkpt><trkpt lat="44.2882653" lon="8.4416433"><ele>23.666666666666668</ele><time>2026-05-01T10:33:01.928Z</time></trkpt><trkpt lat="44.2883266" lon="8.441848"><ele>24.0</ele><time>2026-05-01T10:33:02.929Z</time></trkpt><trkpt lat="44.2883896" lon="8.442029"><ele>24.0</ele><time>2026-05-01T10:33:03.929Z</time></trkpt><trkpt lat="44.2884418" lon="8.4421935"><ele>24.0</ele><time>2026-05-01T10:33:04.931Z</time></trkpt><trkpt lat="44.288476" lon="8.4423556"><ele>24.0</ele><time>2026-05-01T10:33:05.928Z</time></trkpt><trkpt lat="44.2884994" lon="8.4425201"><ele>24.0</ele><time>2026-05-01T10:33:06.929Z</time></trkpt><trkpt lat="44.2884867" lon="8.4426892"><ele>24.0</ele><time>2026-05-01T10:33:07.929Z</time></trkpt><trkpt lat="44.2884488" lon="8.4429021"><ele>24.0</ele><time>2026-05-01T10:33:08.928Z</time></trkpt><trkpt lat="44.2883929" lon="8.4431236"><ele>24.0</ele><time>2026-05-01T10:33:09.93Z</time></trkpt><trkpt lat="44.2883331" lon="8.443354"><ele>24.666666666666664</ele><time>2026-05-01T10:33:10.93Z</time></trkpt><trkpt lat="44.2882603" lon="8.4436009"><ele>25.333333333333332</ele><time>2026-05-01T10:33:11.928Z</time></trkpt><trkpt lat="44.2881713" lon="8.4438332"><ele>26.0</ele><time>2026-05-01T10:33:12.928Z</time></trkpt><trkpt lat="44.2880771" lon="8.4440374"><ele>26.0</ele><time>2026-05-01T10:33:13.929Z</time></trkpt><trkpt lat="44.2879881" lon="8.4442345"><ele>26.0</ele><time>2026-05-01T10:33:14.93Z</time></trkpt><trkpt lat="44.2879025" lon="8.4444164"><ele>26.0</ele><time>2026-05-01T10:33:15.931Z</time></trkpt><trkpt lat="44.287822" lon="8.4445815"><ele>25.6</ele><time>2026-05-01T10:33:16.93Z</time></trkpt><trkpt lat="44.2877426" lon="8.4447363"><ele>25.200000000000003</ele><time>2026-05-01T10:33:17.929Z</time></trkpt><trkpt lat="44.2876763" lon="8.44487"><ele>24.799999999999997</ele><time>2026-05-01T10:33:18.93Z</time></trkpt><trkpt lat="44.2876167" lon="8.4450012"><ele>24.4</ele><time>2026-05-01T10:33:19.93Z</time></trkpt><trkpt lat="44.2875685" lon="8.4450849"><ele>24.0</ele><time>2026-05-01T10:33:20.93Z</time></trkpt><trkpt lat="44.2875051" lon="8.4451568"><ele>24.0</ele><time>2026-05-01T10:33:21.929Z</time></trkpt><trkpt lat="44.2874398" lon="8.445209"><ele>24.0</ele><time>2026-05-01T10:33:22.928Z</time></trkpt><trkpt lat="44.2873792" lon="8.44525"><ele>24.0</ele><time>2026-05-01T10:33:23.929Z</time></trkpt><trkpt lat="44.2872903" lon="8.4453308"><ele>24.0</ele><time>2026-05-01T10:33:25.929Z</time></trkpt><trkpt lat="44.2871943" lon="8.4454458"><ele>24.0</ele><time>2026-05-01T10:33:27.928Z</time></trkpt><trkpt lat="44.2871707" lon="8.4455335"><ele>24.0</ele><time>2026-05-01T10:33:28.93Z</time></trkpt><trkpt lat="44.2872012" lon="8.4457254"><ele>23.5</ele><time>2026-05-01T10:33:30.928Z</time></trkpt><trkpt lat="44.2872487" lon="8.4458341"><ele>23.0</ele><time>2026-05-01T10:33:31.929Z</time></trkpt><trkpt lat="44.2873091" lon="8.4459565"><ele>22.5</ele><time>2026-05-01T10:33:32.928Z</time></trkpt><trkpt lat="44.2873872" lon="8.4461195"><ele>22.0</ele><time>2026-05-01T10:33:33.93Z</time></trkpt><trkpt lat="44.2874579" lon="8.4462737"><ele>20.666666666666664</ele><time>2026-05-01T10:33:34.93Z</time></trkpt><trkpt lat="44.287533" lon="8.4464412"><ele>19.333333333333332</ele><time>2026-05-01T10:33:35.928Z</time></trkpt><trkpt lat="44.2876211" lon="8.446615"><ele>18.0</ele><time>2026-05-01T10:33:36.93Z</time></trkpt><trkpt lat="44.2878406" lon="8.4470038"><ele>16.333333333333332</ele><time>2026-05-01T10:33:38.929Z</time></trkpt><trkpt lat="44.2879621" lon="8.4471988"><ele>14.666666666666666</ele><time>2026-05-01T10:33:39.929Z</time></trkpt><trkpt lat="44.2880821" lon="8.44739"><ele>13.0</ele><time>2026-05-01T10:33:40.929Z</time></trkpt><trkpt lat="44.2882051" lon="8.4475763"><ele>13.666666666666666</ele><time>2026-05-01T10:33:41.929Z</time></trkpt><trkpt lat="44.2883246" lon="8.4477588"><ele>14.333333333333332</ele><time>2026-05-01T10:33:42.928Z</time></trkpt><trkpt lat="44.2884413" lon="8.4479378"><ele>15.0</ele><time>2026-05-01T10:33:43.928Z</time></trkpt><trkpt lat="44.2885564" lon="8.4481126"><ele>15.0</ele><time>2026-05-01T10:33:44.929Z</time></trkpt><trkpt lat="44.2886688" lon="8.4482925"><ele>15.0</ele><time>2026-05-01T10:33:45.929Z</time></trkpt><trkpt lat="44.2887853" lon="8.4484678"><ele>15.0</ele><time>2026-05-01T10:33:46.928Z</time></trkpt><trkpt lat="44.2889071" lon="8.4486536"><ele>14.333333333333332</ele><time>2026-05-01T10:33:47.93Z</time></trkpt><trkpt lat="44.2890485" lon="8.4488456"><ele>13.666666666666666</ele><time>2026-05-01T10:33:48.929Z</time></trkpt><trkpt lat="44.2892155" lon="8.4490307"><ele>13.0</ele><time>2026-05-01T10:33:49.93Z</time></trkpt><trkpt lat="44.2893871" lon="8.449205"><ele>13.0</ele><time>2026-05-01T10:33:50.929Z</time></trkpt><trkpt lat="44.2895519" lon="8.449377"><ele>13.0</ele><time>2026-05-01T10:33:51.929Z</time></trkpt><trkpt lat="44.2897224" lon="8.4495488"><ele>13.0</ele><time>2026-05-01T10:33:52.928Z</time></trkpt><trkpt lat="44.2898901" lon="8.4497036"><ele>12.666666666666666</ele><time>2026-05-01T10:33:53.928Z</time></trkpt><trkpt lat="44.2900577" lon="8.4498461"><ele>12.333333333333332</ele><time>2026-05-01T10:33:54.93Z</time></trkpt><trkpt lat="44.2902305" lon="8.4499822"><ele>12.0</ele><time>2026-05-01T10:33:55.93Z</time></trkpt><trkpt lat="44.2903974" lon="8.4501146"><ele>12.0</ele><time>2026-05-01T10:33:56.929Z</time></trkpt><trkpt lat="44.2905691" lon="8.4502312"><ele>12.0</ele><time>2026-05-01T10:33:57.931Z</time></trkpt><trkpt lat="44.290742" lon="8.4503271"><ele>12.0</ele><time>2026-05-01T10:33:58.928Z</time></trkpt><trkpt lat="44.2909049" lon="8.4504053"><ele>12.333333333333332</ele><time>2026-05-01T10:33:59.93Z</time></trkpt><trkpt lat="44.2910663" lon="8.4504623"><ele>12.666666666666666</ele><time>2026-05-01T10:34:00.93Z</time></trkpt><trkpt lat="44.291222" lon="8.4504995"><ele>13.0</ele><time>2026-05-01T10:34:01.929Z</time></trkpt><trkpt lat="44.2913734" lon="8.4505227"><ele>13.0</ele><time>2026-05-01T10:34:02.929Z</time></trkpt><trkpt lat="44.2915288" lon="8.4505396"><ele>13.0</ele><time>2026-05-01T10:34:03.929Z</time></trkpt><trkpt lat="44.2916766" lon="8.4505551"><ele>13.0</ele><time>2026-05-01T10:34:04.929Z</time></trkpt><trkpt lat="44.2918206" lon="8.4505736"><ele>13.0</ele><time>2026-05-01T10:34:05.928Z</time></trkpt><trkpt lat="44.292094" lon="8.4506194"><ele>13.0</ele><time>2026-05-01T10:34:07.929Z</time></trkpt><trkpt lat="44.292231" lon="8.4506529"><ele>13.0</ele><time>2026-05-01T10:34:08.928Z</time></trkpt><trkpt lat="44.2923658" lon="8.4507043"><ele>13.0</ele><time>2026-05-01T10:34:09.929Z</time></trkpt><trkpt lat="44.2925044" lon="8.4507756"><ele>13.0</ele><time>2026-05-01T10:34:10.928Z</time></trkpt><trkpt lat="44.2926415" lon="8.4508586"><ele>12.333333333333332</ele><time>2026-05-01T10:34:11.93Z</time></trkpt><trkpt lat="44.2927738" lon="8.450964"><ele>11.666666666666666</ele><time>2026-05-01T10:34:12.93Z</time></trkpt><trkpt lat="44.2928985" lon="8.4510834"><ele>11.0</ele><time>2026-05-01T10:34:13.928Z</time></trkpt><trkpt lat="44.2930255" lon="8.4512196"><ele>10.333333333333332</ele><time>2026-05-01T10:34:14.929Z</time></trkpt><trkpt lat="44.2931443" lon="8.4513687"><ele>9.666666666666666</ele><time>2026-05-01T10:34:15.93Z</time></trkpt><trkpt lat="44.2932564" lon="8.4515277"><ele>9.0</ele><time>2026-05-01T10:34:16.928Z</time></trkpt><trkpt lat="44.2933555" lon="8.4516833"><ele>9.0</ele><time>2026-05-01T10:34:17.929Z</time></trkpt><trkpt lat="44.2934481" lon="8.4518254"><ele>9.0</ele><time>2026-05-01T10:34:18.93Z</time></trkpt><trkpt lat="44.2935323" lon="8.451961"><ele>9.0</ele><time>2026-05-01T10:34:19.928Z</time></trkpt><trkpt lat="44.2936055" lon="8.4520833"><ele>9.0</ele><time>2026-05-01T10:34:20.929Z</time></trkpt><trkpt lat="44.2936548" lon="8.4521937"><ele>9.0</ele><time>2026-05-01T10:34:21.93Z</time></trkpt><trkpt lat="44.2936797" lon="8.4523071"><ele>9.0</ele><time>2026-05-01T10:34:22.929Z</time></trkpt><trkpt lat="44.2936603" lon="8.4524211"><ele>9.0</ele><time>2026-05-01T10:34:23.928Z</time></trkpt><trkpt lat="44.2936143" lon="8.4525373"><ele>9.0</ele><time>2026-05-01T10:34:24.928Z</time></trkpt><trkpt lat="44.2935542" lon="8.4526427"><ele>9.0</ele><time>2026-05-01T10:34:25.929Z</time></trkpt><trkpt lat="44.2935006" lon="8.4527324"><ele>9.0</ele><time>2026-05-01T10:34:26.929Z</time></trkpt><trkpt lat="44.2934697" lon="8.4528188"><ele>8.6</ele><time>2026-05-01T10:34:27.928Z</time></trkpt><trkpt lat="44.293503" lon="8.452971"><ele>8.2</ele><time>2026-05-01T10:34:29.928Z</time></trkpt><trkpt lat="44.2935472" lon="8.4530469"><ele>7.799999999999999</ele><time>2026-05-01T10:34:30.928Z</time></trkpt><trkpt lat="44.2936062" lon="8.4531382"><ele>7.3999999999999995</ele><time>2026-05-01T10:34:31.929Z</time></trkpt><trkpt lat="44.2936782" lon="8.4532401"><ele>7.0</ele><time>2026-05-01T10:34:32.929Z</time></trkpt><trkpt lat="44.2937489" lon="8.453334"><ele>7.0</ele><time>2026-05-01T10:34:33.929Z</time></trkpt><trkpt lat="44.2938275" lon="8.4534294"><ele>6.999999999999999</ele><time>2026-05-01T10:34:34.928Z</time></trkpt><trkpt lat="44.2939078" lon="8.4535244"><ele>6.999999999999999</ele><time>2026-05-01T10:34:35.929Z</time></trkpt><trkpt lat="44.2939788" lon="8.4536242"><ele>7.0</ele><time>2026-05-01T10:34:36.928Z</time></trkpt><trkpt lat="44.2940455" lon="8.453724"><ele>7.0</ele><time>2026-05-01T10:34:37.928Z</time></trkpt><trkpt lat="44.2941136" lon="8.4538187"><ele>7.500000000000001</ele><time>2026-05-01T10:34:38.929Z</time></trkpt><trkpt lat="44.2941788" lon="8.4539094"><ele>8.0</ele><time>2026-05-01T10:34:39.928Z</time></trkpt><trkpt lat="44.2942434" lon="8.4539904"><ele>8.5</ele><time>2026-05-01T10:34:40.928Z</time></trkpt><trkpt lat="44.2943073" lon="8.4540667"><ele>9.0</ele><time>2026-05-01T10:34:41.929Z</time></trkpt><trkpt lat="44.2943676" lon="8.4541439"><ele>9.5</ele><time>2026-05-01T10:34:42.928Z</time></trkpt><trkpt lat="44.2944342" lon="8.4542298"><ele>10.0</ele><time>2026-05-01T10:34:43.928Z</time></trkpt><trkpt lat="44.2944946" lon="8.4543267"><ele>10.0</ele><time>2026-05-01T10:34:44.928Z</time></trkpt><trkpt lat="44.294547" lon="8.454431"><ele>10.0</ele><time>2026-05-01T10:34:45.929Z</time></trkpt><trkpt lat="44.2945882" lon="8.4545353"><ele>10.0</ele><time>2026-05-01T10:34:46.929Z</time></trkpt><trkpt lat="44.2946311" lon="8.4546378"><ele>10.0</ele><time>2026-05-01T10:34:47.929Z</time></trkpt><trkpt lat="44.294687" lon="8.4547196"><ele>10.0</ele><time>2026-05-01T10:34:48.931Z</time></trkpt><trkpt lat="44.2947514" lon="8.4548065"><ele>10.0</ele><time>2026-05-01T10:34:49.928Z</time></trkpt><trkpt lat="44.2948075" lon="8.4548999"><ele>9.833333333333334</ele><time>2026-05-01T10:34:50.928Z</time></trkpt><trkpt lat="44.294868" lon="8.4549901"><ele>9.666666666666668</ele><time>2026-05-01T10:34:51.928Z</time></trkpt><trkpt lat="44.2949316" lon="8.4550786"><ele>9.5</ele><time>2026-05-01T10:34:52.929Z</time></trkpt><trkpt lat="44.2949897" lon="8.4551689"><ele>9.333333333333334</ele><time>2026-05-01T10:34:53.929Z</time></trkpt><trkpt lat="44.2950485" lon="8.4552564"><ele>9.166666666666666</ele><time>2026-05-01T10:34:54.929Z</time></trkpt><trkpt lat="44.2951134" lon="8.4553261"><ele>9.0</ele><time>2026-05-01T10:34:55.929Z</time></trkpt><trkpt lat="44.2951873" lon="8.4553795"><ele>9.0</ele><time>2026-05-01T10:34:56.929Z</time></trkpt><trkpt lat="44.2952621" lon="8.4554492"><ele>9.0</ele><time>2026-05-01T10:34:57.929Z</time></trkpt><trkpt lat="44.2953414" lon="8.4555282"><ele>9.0</ele><time>2026-05-01T10:34:58.928Z</time></trkpt><trkpt lat="44.2954095" lon="8.4556388"><ele>9.0</ele><time>2026-05-01T10:34:59.928Z</time></trkpt><trkpt lat="44.2954777" lon="8.4557581"><ele>9.0</ele><time>2026-05-01T10:35:00.928Z</time></trkpt><trkpt lat="44.295551" lon="8.4558821"><ele>8.8</ele><time>2026-05-01T10:35:01.93Z</time></trkpt><trkpt lat="44.2956235" lon="8.4560032"><ele>8.600000000000001</ele><time>2026-05-01T10:35:02.928Z</time></trkpt><trkpt lat="44.2956945" lon="8.4561266"><ele>8.4</ele><time>2026-05-01T10:35:03.929Z</time></trkpt><trkpt lat="44.2957632" lon="8.4562494"><ele>8.200000000000001</ele><time>2026-05-01T10:35:04.93Z</time></trkpt><trkpt lat="44.2958308" lon="8.456373"><ele>8.0</ele><time>2026-05-01T10:35:05.929Z</time></trkpt><trkpt lat="44.2958981" lon="8.4564887"><ele>8.0</ele><time>2026-05-01T10:35:06.929Z</time></trkpt><trkpt lat="44.2959579" lon="8.4565924"><ele>8.0</ele><time>2026-05-01T10:35:07.929Z</time></trkpt><trkpt lat="44.2960126" lon="8.4566878"><ele>8.0</ele><time>2026-05-01T10:35:08.928Z</time></trkpt><trkpt lat="44.2960666" lon="8.4567875"><ele>8.0</ele><time>2026-05-01T10:35:09.93Z</time></trkpt><trkpt lat="44.2961319" lon="8.4568937"><ele>8.0</ele><time>2026-05-01T10:35:10.929Z</time></trkpt><trkpt lat="44.2962075" lon="8.4570081"><ele>8.0</ele><time>2026-05-01T10:35:11.928Z</time></trkpt><trkpt lat="44.2962858" lon="8.4571342"><ele>8.0</ele><time>2026-05-01T10:35:12.929Z</time></trkpt><trkpt lat="44.2963608" lon="8.4572631"><ele>8.0</ele><time>2026-05-01T10:35:13.928Z</time></trkpt><trkpt lat="44.2964387" lon="8.4573876"><ele>8.0</ele><time>2026-05-01T10:35:14.928Z</time></trkpt><trkpt lat="44.2965114" lon="8.4575158"><ele>8.0</ele><time>2026-05-01T10:35:15.928Z</time></trkpt><trkpt lat="44.2965866" lon="8.4576413"><ele>8.0</ele><time>2026-05-01T10:35:16.929Z</time></trkpt><trkpt lat="44.2966589" lon="8.4577715"><ele>8.0</ele><time>2026-05-01T10:35:17.929Z</time></trkpt><trkpt lat="44.296736" lon="8.4579081"><ele>8.0</ele><time>2026-05-01T10:35:18.928Z</time></trkpt><trkpt lat="44.2968108" lon="8.4580364"><ele>8.5</ele><time>2026-05-01T10:35:19.928Z</time></trkpt><trkpt lat="44.2968852" lon="8.4581681"><ele>9.0</ele><time>2026-05-01T10:35:20.928Z</time></trkpt><trkpt lat="44.2969628" lon="8.4583009"><ele>9.5</ele><time>2026-05-01T10:35:21.928Z</time></trkpt><trkpt lat="44.2970452" lon="8.4584365"><ele>10.0</ele><time>2026-05-01T10:35:22.929Z</time></trkpt><trkpt lat="44.2971286" lon="8.4585877"><ele>10.0</ele><time>2026-05-01T10:35:23.929Z</time></trkpt><trkpt lat="44.2972203" lon="8.458738"><ele>10.0</ele><time>2026-05-01T10:35:24.93Z</time></trkpt><trkpt lat="44.2973167" lon="8.4588977"><ele>10.0</ele><time>2026-05-01T10:35:25.929Z</time></trkpt><trkpt lat="44.2974105" lon="8.4590541"><ele>10.0</ele><time>2026-05-01T10:35:26.93Z</time></trkpt><trkpt lat="44.2974977" lon="8.4592061"><ele>9.75</ele><time>2026-05-01T10:35:27.93Z</time></trkpt><trkpt lat="44.2975799" lon="8.4593596"><ele>9.5</ele><time>2026-05-01T10:35:28.928Z</time></trkpt><trkpt lat="44.2976645" lon="8.459521"><ele>9.25</ele><time>2026-05-01T10:35:29.93Z</time></trkpt><trkpt lat="44.2977468" lon="8.459682"><ele>9.0</ele><time>2026-05-01T10:35:30.93Z</time></trkpt><trkpt lat="44.2978293" lon="8.4598494"><ele>9.0</ele><time>2026-05-01T10:35:31.929Z</time></trkpt><trkpt lat="44.2979147" lon="8.4600161"><ele>9.0</ele><time>2026-05-01T10:35:32.928Z</time></trkpt><trkpt lat="44.2979941" lon="8.4601782"><ele>9.0</ele><time>2026-05-01T10:35:33.928Z</time></trkpt><trkpt lat="44.2980641" lon="8.4603406"><ele>9.0</ele><time>2026-05-01T10:35:34.929Z</time></trkpt><trkpt lat="44.2981345" lon="8.4605071"><ele>9.0</ele><time>2026-05-01T10:35:35.929Z</time></trkpt><trkpt lat="44.2982039" lon="8.4606758"><ele>9.0</ele><time>2026-05-01T10:35:36.93Z</time></trkpt><trkpt lat="44.2982742" lon="8.4608583"><ele>9.0</ele><time>2026-05-01T10:35:37.929Z</time></trkpt><trkpt lat="44.2983471" lon="8.461064"><ele>9.0</ele><time>2026-05-01T10:35:38.929Z</time></trkpt><trkpt lat="44.2984242" lon="8.4612862"><ele>9.0</ele><time>2026-05-01T10:35:39.929Z</time></trkpt><trkpt lat="44.2984916" lon="8.4614994"><ele>9.0</ele><time>2026-05-01T10:35:40.93Z</time></trkpt><trkpt lat="44.2985526" lon="8.4616911"><ele>9.0</ele><time>2026-05-01T10:35:41.928Z</time></trkpt><trkpt lat="44.2986067" lon="8.4618595"><ele>9.0</ele><time>2026-05-01T10:35:42.929Z</time></trkpt><trkpt lat="44.2986494" lon="8.4619896"><ele>9.0</ele><time>2026-05-01T10:35:43.929Z</time></trkpt><trkpt lat="44.2986796" lon="8.462081"><ele>9.0</ele><time>2026-05-01T10:35:44.93Z</time></trkpt><trkpt lat="44.2987089" lon="8.4621779"><ele>9.0</ele><time>2026-05-01T10:35:46.929Z</time></trkpt><trkpt lat="44.2987394" lon="8.4622998"><ele>9.0</ele><time>2026-05-01T10:35:50.93Z</time></trkpt><trkpt lat="44.2987693" lon="8.4624142"><ele>9.0</ele><time>2026-05-01T10:35:53.93Z</time></trkpt><trkpt lat="44.2987686" lon="8.4625619"><ele>9.0</ele><time>2026-05-01T10:35:57.929Z</time></trkpt><trkpt lat="44.2987512" lon="8.4626471"><ele>9.0</ele><time>2026-05-01T10:35:58.928Z</time></trkpt><trkpt lat="44.2987249" lon="8.462749"><ele>9.0</ele><time>2026-05-01T10:35:59.928Z</time></trkpt><trkpt lat="44.2986926" lon="8.4628615"><ele>9.0</ele><time>2026-05-01T10:36:00.928Z</time></trkpt><trkpt lat="44.2986808" lon="8.4629882"><ele>8.75</ele><time>2026-05-01T10:36:01.929Z</time></trkpt><trkpt lat="44.2986839" lon="8.4631183"><ele>8.5</ele><time>2026-05-01T10:36:02.928Z</time></trkpt><trkpt lat="44.2987187" lon="8.4632513"><ele>8.25</ele><time>2026-05-01T10:36:03.93Z</time></trkpt><trkpt lat="44.2987843" lon="8.4633976"><ele>8.0</ele><time>2026-05-01T10:36:04.928Z</time></trkpt><trkpt lat="44.2988757" lon="8.4635614"><ele>8.0</ele><time>2026-05-01T10:36:05.928Z</time></trkpt><trkpt lat="44.2989923" lon="8.463766"><ele>8.0</ele><time>2026-05-01T10:36:06.929Z</time></trkpt><trkpt lat="44.2991262" lon="8.4639973"><ele>8.0</ele><time>2026-05-01T10:36:07.929Z</time></trkpt><trkpt lat="44.2992569" lon="8.4642248"><ele>8.0</ele><time>2026-05-01T10:36:08.929Z</time></trkpt><trkpt lat="44.2993742" lon="8.4644368"><ele>8.0</ele><time>2026-05-01T10:36:09.929Z</time></trkpt><trkpt lat="44.2994878" lon="8.4646355"><ele>8.0</ele><time>2026-05-01T10:36:10.929Z</time></trkpt><trkpt lat="44.2995964" lon="8.4648292"><ele>8.333333333333332</ele><time>2026-05-01T10:36:11.929Z</time></trkpt><trkpt lat="44.299706" lon="8.4650264"><ele>8.666666666666666</ele><time>2026-05-01T10:36:12.928Z</time></trkpt><trkpt lat="44.2998161" lon="8.4652202"><ele>9.0</ele><time>2026-05-01T10:36:13.928Z</time></trkpt><trkpt lat="44.2999311" lon="8.4654094"><ele>9.0</ele><time>2026-05-01T10:36:14.929Z</time></trkpt><trkpt lat="44.3000484" lon="8.4655877"><ele>9.0</ele><time>2026-05-01T10:36:15.93Z</time></trkpt><trkpt lat="44.3001718" lon="8.4657668"><ele>9.0</ele><time>2026-05-01T10:36:16.929Z</time></trkpt><trkpt lat="44.3002989" lon="8.4659521"><ele>9.0</ele><time>2026-05-01T10:36:17.928Z</time></trkpt><trkpt lat="44.300425" lon="8.4661375"><ele>9.0</ele><time>2026-05-01T10:36:18.929Z</time></trkpt><trkpt lat="44.3005447" lon="8.4663218"><ele>9.0</ele><time>2026-05-01T10:36:19.928Z</time></trkpt><trkpt lat="44.3006559" lon="8.4665091"><ele>9.333333333333334</ele><time>2026-05-01T10:36:20.929Z</time></trkpt><trkpt lat="44.3007561" lon="8.4667044"><ele>9.666666666666668</ele><time>2026-05-01T10:36:21.929Z</time></trkpt><trkpt lat="44.300853" lon="8.4669028"><ele>10.0</ele><time>2026-05-01T10:36:22.928Z</time></trkpt><trkpt lat="44.3009475" lon="8.4670884"><ele>10.333333333333334</ele><time>2026-05-01T10:36:23.929Z</time></trkpt><trkpt lat="44.3010457" lon="8.4672734"><ele>10.666666666666666</ele><time>2026-05-01T10:36:24.929Z</time></trkpt><trkpt lat="44.3011416" lon="8.4674552"><ele>11.0</ele><time>2026-05-01T10:36:25.929Z</time></trkpt><trkpt lat="44.3012428" lon="8.4676339"><ele>11.0</ele><time>2026-05-01T10:36:26.929Z</time></trkpt><trkpt lat="44.3013412" lon="8.4677996"><ele>11.0</ele><time>2026-05-01T10:36:27.929Z</time></trkpt><trkpt lat="44.3014399" lon="8.4679661"><ele>11.0</ele><time>2026-05-01T10:36:28.929Z</time></trkpt><trkpt lat="44.3015343" lon="8.4681322"><ele>11.0</ele><time>2026-05-01T10:36:29.929Z</time></trkpt><trkpt lat="44.3016287" lon="8.4682974"><ele>11.0</ele><time>2026-05-01T10:36:30.928Z</time></trkpt><trkpt lat="44.3017199" lon="8.4684483"><ele>11.0</ele><time>2026-05-01T10:36:31.928Z</time></trkpt><trkpt lat="44.3018016" lon="8.4685837"><ele>11.0</ele><time>2026-05-01T10:36:32.929Z</time></trkpt><trkpt lat="44.3018933" lon="8.4686942"><ele>11.0</ele><time>2026-05-01T10:36:33.929Z</time></trkpt><trkpt lat="44.3019975" lon="8.4687817"><ele>11.0</ele><time>2026-05-01T10:36:34.928Z</time></trkpt><trkpt lat="44.3021046" lon="8.4688372"><ele>11.0</ele><time>2026-05-01T10:36:35.929Z</time></trkpt><trkpt lat="44.3022083" lon="8.4688743"><ele>11.0</ele><time>2026-05-01T10:36:36.929Z</time></trkpt><trkpt lat="44.3023012" lon="8.4689035"><ele>11.0</ele><time>2026-05-01T10:36:37.928Z</time></trkpt><trkpt lat="44.3023772" lon="8.4689343"><ele>11.0</ele><time>2026-05-01T10:36:38.928Z</time></trkpt><trkpt lat="44.3024461" lon="8.468963"><ele>11.0</ele><time>2026-05-01T10:36:39.929Z</time></trkpt><trkpt lat="44.3025112" lon="8.468987"><ele>11.0</ele><time>2026-05-01T10:36:40.93Z</time></trkpt><trkpt lat="44.3025741" lon="8.4690158"><ele>11.0</ele><time>2026-05-01T10:36:42.928Z</time></trkpt><trkpt lat="44.3026448" lon="8.469081"><ele>11.0</ele><time>2026-05-01T10:36:44.929Z</time></trkpt><trkpt lat="44.3026606" lon="8.4692564"><ele>11.0</ele><time>2026-05-01T10:36:46.928Z</time></trkpt><trkpt lat="44.3026557" lon="8.4693655"><ele>11.0</ele><time>2026-05-01T10:36:47.929Z</time></trkpt><trkpt lat="44.3026553" lon="8.4695733"><ele>11.0</ele><time>2026-05-01T10:36:48.929Z</time></trkpt><trkpt lat="44.302644" lon="8.4697244"><ele>11.0</ele><time>2026-05-01T10:36:49.929Z</time></trkpt><trkpt lat="44.3026275" lon="8.469855"><ele>11.0</ele><time>2026-05-01T10:36:50.928Z</time></trkpt><trkpt lat="44.3026068" lon="8.4699556"><ele>11.0</ele><time>2026-05-01T10:36:51.928Z</time></trkpt><trkpt lat="44.3025883" lon="8.4700463"><ele>11.5</ele><time>2026-05-01T10:36:53.929Z</time></trkpt><trkpt lat="44.3025588" lon="8.4701646"><ele>12.0</ele><time>2026-05-01T10:36:55.929Z</time></trkpt><trkpt lat="44.3025783" lon="8.4702827"><ele>12.5</ele><time>2026-05-01T10:36:57.928Z</time></trkpt><trkpt lat="44.3026822" lon="8.4702851"><ele>13.0</ele><time>2026-05-01T10:36:59.93Z</time></trkpt><trkpt lat="44.3027452" lon="8.4702394"><ele>13.500000000000002</ele><time>2026-05-01T10:37:00.929Z</time></trkpt><trkpt lat="44.3028038" lon="8.4701963"><ele>14.0</ele><time>2026-05-01T10:37:01.929Z</time></trkpt><trkpt lat="44.3028754" lon="8.4701705"><ele>14.0</ele><time>2026-05-01T10:37:02.928Z</time></trkpt><trkpt lat="44.3029901" lon="8.4702357"><ele>14.0</ele><time>2026-05-01T10:37:03.929Z</time></trkpt><trkpt lat="44.3030925" lon="8.4702588"><ele>14.0</ele><time>2026-05-01T10:37:04.929Z</time></trkpt><trkpt lat="44.3032122" lon="8.4702953"><ele>14.0</ele><time>2026-05-01T10:37:05.928Z</time></trkpt><trkpt lat="44.3033368" lon="8.4703407"><ele>14.5</ele><time>2026-05-01T10:37:06.928Z</time></trkpt><trkpt lat="44.3034618" lon="8.4703742"><ele>15.0</ele><time>2026-05-01T10:37:07.929Z</time></trkpt><trkpt lat="44.3035898" lon="8.4703997"><ele>15.5</ele><time>2026-05-01T10:37:08.928Z</time></trkpt><trkpt lat="44.3037207" lon="8.4704407"><ele>16.0</ele><time>2026-05-01T10:37:09.928Z</time></trkpt><trkpt lat="44.3038482" lon="8.4704834"><ele>17.0</ele><time>2026-05-01T10:37:10.928Z</time></trkpt><trkpt lat="44.3039591" lon="8.4705051"><ele>18.0</ele><time>2026-05-01T10:37:11.93Z</time></trkpt><trkpt lat="44.3040641" lon="8.4705384"><ele>19.0</ele><time>2026-05-01T10:37:12.929Z</time></trkpt><trkpt lat="44.3041537" lon="8.4705631"><ele>20.0</ele><time>2026-05-01T10:37:13.928Z</time></trkpt><trkpt lat="44.3042376" lon="8.4705896"><ele>21.0</ele><time>2026-05-01T10:37:14.929Z</time></trkpt><trkpt lat="44.3043027" lon="8.4706525"><ele>21.0</ele><time>2026-05-01T10:37:15.929Z</time></trkpt><trkpt lat="44.3043636" lon="8.4707066"><ele>21.0</ele><time>2026-05-01T10:37:16.928Z</time></trkpt><trkpt lat="44.3044442" lon="8.4707174"><ele>21.0</ele><time>2026-05-01T10:37:17.928Z</time></trkpt><trkpt lat="44.304535" lon="8.4707023"><ele>21.0</ele><time>2026-05-01T10:37:18.928Z</time></trkpt><trkpt lat="44.3046331" lon="8.4706975"><ele>21.0</ele><time>2026-05-01T10:37:19.929Z</time></trkpt><trkpt lat="44.3047456" lon="8.4707098"><ele>19.75</ele><time>2026-05-01T10:37:20.928Z</time></trkpt><trkpt lat="44.3048557" lon="8.4707595"><ele>18.5</ele><time>2026-05-01T10:37:21.93Z</time></trkpt><trkpt lat="44.3049786" lon="8.4707929"><ele>17.25</ele><time>2026-05-01T10:37:22.929Z</time></trkpt><trkpt lat="44.3050806" lon="8.4708372"><ele>16.0</ele><time>2026-05-01T10:37:23.928Z</time></trkpt><trkpt lat="44.3051926" lon="8.4708621"><ele>16.0</ele><time>2026-05-01T10:37:24.929Z</time></trkpt><trkpt lat="44.305301" lon="8.4708782"><ele>16.0</ele><time>2026-05-01T10:37:25.928Z</time></trkpt><trkpt lat="44.3054279" lon="8.4708857"><ele>16.0</ele><time>2026-05-01T10:37:26.929Z</time></trkpt><trkpt lat="44.3055653" lon="8.4708846"><ele>16.0</ele><time>2026-05-01T10:37:27.929Z</time></trkpt><trkpt lat="44.3056965" lon="8.4708891"><ele>16.0</ele><time>2026-05-01T10:37:28.928Z</time></trkpt><trkpt lat="44.3058154" lon="8.4708971"><ele>16.0</ele><time>2026-05-01T10:37:29.928Z</time></trkpt><trkpt lat="44.3059179" lon="8.4709174"><ele>16.0</ele><time>2026-05-01T10:37:30.929Z</time></trkpt><trkpt lat="44.3060146" lon="8.4709546"><ele>16.0</ele><time>2026-05-01T10:37:31.929Z</time></trkpt><trkpt lat="44.3061014" lon="8.4710259"><ele>16.0</ele><time>2026-05-01T10:37:32.929Z</time></trkpt><trkpt lat="44.3061863" lon="8.4711245"><ele>16.0</ele><time>2026-05-01T10:37:33.928Z</time></trkpt><trkpt lat="44.3062571" lon="8.4712656"><ele>16.0</ele><time>2026-05-01T10:37:34.928Z</time></trkpt><trkpt lat="44.3063275" lon="8.4714055"><ele>16.0</ele><time>2026-05-01T10:37:35.928Z</time></trkpt><trkpt lat="44.3063977" lon="8.4715385"><ele>16.0</ele><time>2026-05-01T10:37:36.929Z</time></trkpt><trkpt lat="44.3064772" lon="8.4716215"><ele>14.8</ele><time>2026-05-01T10:37:37.929Z</time></trkpt><trkpt lat="44.3065672" lon="8.4716945"><ele>13.600000000000001</ele><time>2026-05-01T10:37:38.929Z</time></trkpt><trkpt lat="44.3066636" lon="8.4717388"><ele>12.4</ele><time>2026-05-01T10:37:39.929Z</time></trkpt><trkpt lat="44.3067742" lon="8.4717569"><ele>11.2</ele><time>2026-05-01T10:37:40.929Z</time></trkpt><trkpt lat="44.3068929" lon="8.4717459"><ele>10.0</ele><time>2026-05-01T10:37:41.929Z</time></trkpt><trkpt lat="44.3070218" lon="8.4717108"><ele>10.0</ele><time>2026-05-01T10:37:42.929Z</time></trkpt><trkpt lat="44.3071656" lon="8.4716593"><ele>10.0</ele><time>2026-05-01T10:37:43.928Z</time></trkpt><trkpt lat="44.3073161" lon="8.4715925"><ele>10.0</ele><time>2026-05-01T10:37:44.928Z</time></trkpt><trkpt lat="44.307476" lon="8.4715179"><ele>10.0</ele><time>2026-05-01T10:37:45.928Z</time></trkpt><trkpt lat="44.3076203" lon="8.4714566"><ele>10.0</ele><time>2026-05-01T10:37:46.929Z</time></trkpt><trkpt lat="44.3077543" lon="8.4714044"><ele>10.0</ele><time>2026-05-01T10:37:47.929Z</time></trkpt><trkpt lat="44.3078778" lon="8.471358"><ele>10.0</ele><time>2026-05-01T10:37:48.929Z</time></trkpt><trkpt lat="44.3079897" lon="8.4713183"><ele>10.8</ele><time>2026-05-01T10:37:49.928Z</time></trkpt><trkpt lat="44.3080978" lon="8.4712782"><ele>11.6</ele><time>2026-05-01T10:37:50.928Z</time></trkpt><trkpt lat="44.3081988" lon="8.4712413"><ele>12.399999999999999</ele><time>2026-05-01T10:37:51.928Z</time></trkpt><trkpt lat="44.3082987" lon="8.4712092"><ele>13.2</ele><time>2026-05-01T10:37:52.929Z</time></trkpt><trkpt lat="44.3084019" lon="8.4711795"><ele>14.0</ele><time>2026-05-01T10:37:53.93Z</time></trkpt><trkpt lat="44.3084968" lon="8.4711689"><ele>14.000000000000002</ele><time>2026-05-01T10:37:54.929Z</time></trkpt><trkpt lat="44.3085885" lon="8.4711685"><ele>14.0</ele><time>2026-05-01T10:37:55.929Z</time></trkpt><trkpt lat="44.3086591" lon="8.4711858"><ele>14.0</ele><time>2026-05-01T10:37:56.928Z</time></trkpt><trkpt lat="44.308733" lon="8.4712363"><ele>14.0</ele><time>2026-05-01T10:37:57.93Z</time></trkpt><trkpt lat="44.3087758" lon="8.4713297"><ele>14.000000000000002</ele><time>2026-05-01T10:37:58.929Z</time></trkpt><trkpt lat="44.3088257" lon="8.4714305"><ele>14.0</ele><time>2026-05-01T10:37:59.928Z</time></trkpt><trkpt lat="44.3088385" lon="8.4715824"><ele>14.5</ele><time>2026-05-01T10:38:00.928Z</time></trkpt><trkpt lat="44.3088627" lon="8.471736"><ele>15.0</ele><time>2026-05-01T10:38:01.929Z</time></trkpt><trkpt lat="44.3088851" lon="8.4719013"><ele>15.5</ele><time>2026-05-01T10:38:02.928Z</time></trkpt><trkpt lat="44.3089169" lon="8.4720839"><ele>16.0</ele><time>2026-05-01T10:38:03.929Z</time></trkpt><trkpt lat="44.3089493" lon="8.4722763"><ele>17.5</ele><time>2026-05-01T10:38:04.929Z</time></trkpt><trkpt lat="44.3089816" lon="8.4724851"><ele>19.0</ele><time>2026-05-01T10:38:05.928Z</time></trkpt><trkpt lat="44.3090101" lon="8.4726793"><ele>20.5</ele><time>2026-05-01T10:38:06.929Z</time></trkpt><trkpt lat="44.3090366" lon="8.4728677"><ele>22.0</ele><time>2026-05-01T10:38:07.929Z</time></trkpt><trkpt lat="44.3090578" lon="8.473043"><ele>22.0</ele><time>2026-05-01T10:38:08.928Z</time></trkpt><trkpt lat="44.3090766" lon="8.4732114"><ele>22.0</ele><time>2026-05-01T10:38:09.928Z</time></trkpt><trkpt lat="44.3090955" lon="8.4733641"><ele>22.0</ele><time>2026-05-01T10:38:10.929Z</time></trkpt><trkpt lat="44.3091184" lon="8.473511"><ele>22.0</ele><time>2026-05-01T10:38:11.929Z</time></trkpt><trkpt lat="44.3091386" lon="8.4736616"><ele>21.333333333333332</ele><time>2026-05-01T10:38:12.929Z</time></trkpt><trkpt lat="44.3091592" lon="8.4737743"><ele>20.666666666666664</ele><time>2026-05-01T10:38:13.93Z</time></trkpt><trkpt lat="44.3091787" lon="8.473884"><ele>20.0</ele><time>2026-05-01T10:38:14.929Z</time></trkpt><trkpt lat="44.3091924" lon="8.4739709"><ele>19.333333333333332</ele><time>2026-05-01T10:38:15.928Z</time></trkpt><trkpt lat="44.3092352" lon="8.4740655"><ele>18.666666666666668</ele><time>2026-05-01T10:39:39.929Z</time></trkpt><trkpt lat="44.3092563" lon="8.4741874"><ele>18.0</ele><time>2026-05-01T10:39:41.928Z</time></trkpt><trkpt lat="44.3092912" lon="8.4743834"><ele>18.0</ele><time>2026-05-01T10:39:43.929Z</time></trkpt><trkpt lat="44.3093123" lon="8.4745112"><ele>18.0</ele><time>2026-05-01T10:39:44.928Z</time></trkpt><trkpt lat="44.3093294" lon="8.4746317"><ele>18.0</ele><time>2026-05-01T10:39:45.928Z</time></trkpt><trkpt lat="44.3093481" lon="8.47475"><ele>18.0</ele><time>2026-05-01T10:39:46.928Z</time></trkpt><trkpt lat="44.3093611" lon="8.4748437"><ele>18.0</ele><time>2026-05-01T10:39:47.929Z</time></trkpt><trkpt lat="44.3093857" lon="8.4750192"><ele>16.833333333333332</ele><time>2026-05-01T10:39:49.928Z</time></trkpt><trkpt lat="44.3094008" lon="8.4751075"><ele>15.666666666666666</ele><time>2026-05-01T10:39:50.929Z</time></trkpt><trkpt lat="44.3094559" lon="8.4752336"><ele>14.5</ele><time>2026-05-01T10:39:52.929Z</time></trkpt><trkpt lat="44.3095674" lon="8.4752542"><ele>13.333333333333332</ele><time>2026-05-01T10:39:54.928Z</time></trkpt><trkpt lat="44.3096406" lon="8.4752332"><ele>12.166666666666666</ele><time>2026-05-01T10:39:55.928Z</time></trkpt><trkpt lat="44.3097126" lon="8.475201"><ele>11.0</ele><time>2026-05-01T10:39:56.928Z</time></trkpt><trkpt lat="44.3097782" lon="8.475171"><ele>10.8</ele><time>2026-05-01T10:39:57.928Z</time></trkpt><trkpt lat="44.309887" lon="8.4752042"><ele>10.600000000000001</ele><time>2026-05-01T10:39:59.928Z</time></trkpt><trkpt lat="44.3099222" lon="8.4753026"><ele>10.4</ele><time>2026-05-01T10:40:00.929Z</time></trkpt><trkpt lat="44.3099419" lon="8.4754158"><ele>10.2</ele><time>2026-05-01T10:40:01.928Z</time></trkpt><trkpt lat="44.3099632" lon="8.4755414"><ele>10.0</ele><time>2026-05-01T10:40:02.929Z</time></trkpt><trkpt lat="44.3099841" lon="8.4756703"><ele>10.333333333333334</ele><time>2026-05-01T10:40:03.929Z</time></trkpt><trkpt lat="44.3100053" lon="8.4757861"><ele>10.666666666666668</ele><time>2026-05-01T10:40:04.928Z</time></trkpt><trkpt lat="44.3100258" lon="8.4759011"><ele>11.0</ele><time>2026-05-01T10:40:05.929Z</time></trkpt><trkpt lat="44.3100453" lon="8.4760182"><ele>11.333333333333334</ele><time>2026-05-01T10:40:06.928Z</time></trkpt><trkpt lat="44.3100741" lon="8.4761444"><ele>11.666666666666666</ele><time>2026-05-01T10:40:07.929Z</time></trkpt><trkpt lat="44.3100986" lon="8.4762623"><ele>12.0</ele><time>2026-05-01T10:40:08.93Z</time></trkpt><trkpt lat="44.3101239" lon="8.4763727"><ele>12.714285714285714</ele><time>2026-05-01T10:40:09.928Z</time></trkpt><trkpt lat="44.3101487" lon="8.4764828"><ele>13.428571428571427</ele><time>2026-05-01T10:40:10.928Z</time></trkpt><trkpt lat="44.3101741" lon="8.4765982"><ele>14.142857142857142</ele><time>2026-05-01T10:40:11.928Z</time></trkpt><trkpt lat="44.3102031" lon="8.4766972"><ele>14.857142857142856</ele><time>2026-05-01T10:40:12.928Z</time></trkpt><trkpt lat="44.3102262" lon="8.4767904"><ele>15.571428571428571</ele><time>2026-05-01T10:40:13.929Z</time></trkpt><trkpt lat="44.310247" lon="8.4768802"><ele>16.285714285714285</ele><time>2026-05-01T10:40:14.928Z</time></trkpt><trkpt lat="44.3102774" lon="8.4769576"><ele>17.0</ele><time>2026-05-01T10:40:15.928Z</time></trkpt><trkpt lat="44.3103638" lon="8.4770518"><ele>17.0</ele><time>2026-05-01T10:40:17.929Z</time></trkpt><trkpt lat="44.3104619" lon="8.4769757"><ele>17.0</ele><time>2026-05-01T10:40:19.928Z</time></trkpt><trkpt lat="44.3105165" lon="8.4769259"><ele>17.0</ele><time>2026-05-01T10:40:20.929Z</time></trkpt><trkpt lat="44.3105806" lon="8.4768693"><ele>17.0</ele><time>2026-05-01T10:40:21.928Z</time></trkpt><trkpt lat="44.3106498" lon="8.4768196"><ele>17.0</ele><time>2026-05-01T10:40:22.928Z</time></trkpt><trkpt lat="44.3107086" lon="8.47678"><ele>17.0</ele><time>2026-05-01T10:40:23.929Z</time></trkpt><trkpt lat="44.310811" lon="8.4767276"><ele>17.2</ele><time>2026-05-01T10:40:25.929Z</time></trkpt><trkpt lat="44.3109014" lon="8.4768266"><ele>17.4</ele><time>2026-05-01T10:40:27.928Z</time></trkpt><trkpt lat="44.3109613" lon="8.4769503"><ele>17.6</ele><time>2026-05-01T10:40:29.929Z</time></trkpt><trkpt lat="44.3110133" lon="8.4770632"><ele>17.8</ele><time>2026-05-01T10:40:31.93Z</time></trkpt><trkpt lat="44.311064" lon="8.4771523"><ele>18.0</ele><time>2026-05-01T10:40:34.928Z</time></trkpt><trkpt lat="44.3111113" lon="8.4772326"><ele>18.0</ele><time>2026-05-01T10:40:37.93Z</time></trkpt><trkpt lat="44.3111177" lon="8.4773258"><ele>18.0</ele><time>2026-05-01T10:40:39.929Z</time></trkpt><trkpt lat="44.3110868" lon="8.4774185"><ele>18.0</ele><time>2026-05-01T10:40:41.928Z</time></trkpt><trkpt lat="44.311036" lon="8.4774804"><ele>18.0</ele><time>2026-05-01T10:40:43.928Z</time></trkpt><trkpt lat="44.3109612" lon="8.4775846"><ele>18.0</ele><time>2026-05-01T10:40:45.929Z</time></trkpt><trkpt lat="44.3109122" lon="8.4777207"><ele>18.0</ele><time>2026-05-01T10:40:47.929Z</time></trkpt><trkpt lat="44.3108975" lon="8.4778751"><ele>18.0</ele><time>2026-05-01T10:40:49.929Z</time></trkpt><trkpt lat="44.3109589" lon="8.4780166"><ele>18.0</ele><time>2026-05-01T10:40:51.928Z</time></trkpt><trkpt lat="44.3110792" lon="8.4780324"><ele>18.0</ele><time>2026-05-01T10:40:53.928Z</time></trkpt><trkpt lat="44.3111408" lon="8.4779902"><ele>18.0</ele><time>2026-05-01T10:40:54.928Z</time></trkpt><trkpt lat="44.3111956" lon="8.4779278"><ele>18.0</ele><time>2026-05-01T10:40:55.929Z</time></trkpt><trkpt lat="44.3112377" lon="8.4778407"><ele>18.0</ele><time>2026-05-01T10:40:56.929Z</time></trkpt><trkpt lat="44.3112854" lon="8.4777534"><ele>18.0</ele><time>2026-05-01T10:40:57.928Z</time></trkpt><trkpt lat="44.3113401" lon="8.4776991"><ele>18.0</ele><time>2026-05-01T10:40:58.93Z</time></trkpt><trkpt lat="44.3114819" lon="8.477618"><ele>18.0</ele><time>2026-05-01T10:41:00.928Z</time></trkpt><trkpt lat="44.3115537" lon="8.4775285"><ele>18.0</ele><time>2026-05-01T10:41:01.928Z</time></trkpt><trkpt lat="44.3116416" lon="8.4774513"><ele>17.6</ele><time>2026-05-01T10:41:02.929Z</time></trkpt><trkpt lat="44.3117247" lon="8.4773742"><ele>17.200000000000003</ele><time>2026-05-01T10:41:03.928Z</time></trkpt><trkpt lat="44.3118151" lon="8.4772932"><ele>16.8</ele><time>2026-05-01T10:41:04.929Z</time></trkpt><trkpt lat="44.3119057" lon="8.4772121"><ele>16.400000000000002</ele><time>2026-05-01T10:41:05.929Z</time></trkpt><trkpt lat="44.3119849" lon="8.4771297"><ele>16.0</ele><time>2026-05-01T10:41:06.928Z</time></trkpt><trkpt lat="44.3120622" lon="8.4770392"><ele>15.8</ele><time>2026-05-01T10:41:07.929Z</time></trkpt><trkpt lat="44.3121604" lon="8.4769582"><ele>15.600000000000001</ele><time>2026-05-01T10:41:08.928Z</time></trkpt><trkpt lat="44.3122571" lon="8.4769548"><ele>15.4</ele><time>2026-05-01T10:41:11.928Z</time></trkpt><trkpt lat="44.3123927" lon="8.476989"><ele>15.2</ele><time>2026-05-01T10:41:12.928Z</time></trkpt><trkpt lat="44.3124662" lon="8.4769961"><ele>15.0</ele><time>2026-05-01T10:41:13.929Z</time></trkpt><trkpt lat="44.3125368" lon="8.4769858"><ele>15.833333333333334</ele><time>2026-05-01T10:41:14.928Z</time></trkpt><trkpt lat="44.3126162" lon="8.4769662"><ele>16.666666666666668</ele><time>2026-05-01T10:41:15.928Z</time></trkpt><trkpt lat="44.3126892" lon="8.4769275"><ele>17.5</ele><time>2026-05-01T10:41:17.928Z</time></trkpt><trkpt lat="44.3127054" lon="8.4768077"><ele>18.333333333333336</ele><time>2026-05-01T10:41:20.928Z</time></trkpt><trkpt lat="44.3127049" lon="8.476691"><ele>19.166666666666668</ele><time>2026-05-01T10:41:22.929Z</time></trkpt><trkpt lat="44.3127101" lon="8.4765813"><ele>20.0</ele><time>2026-05-01T10:41:24.928Z</time></trkpt><trkpt lat="44.3127494" lon="8.4764835"><ele>20.0</ele><time>2026-05-01T10:41:26.928Z</time></trkpt><trkpt lat="44.312806" lon="8.4764328"><ele>20.0</ele><time>2026-05-01T10:41:28.928Z</time></trkpt><trkpt lat="44.312867" lon="8.476376"><ele>20.0</ele><time>2026-05-01T10:41:30.928Z</time></trkpt><trkpt lat="44.3129278" lon="8.4763224"><ele>20.0</ele><time>2026-05-01T10:41:32.928Z</time></trkpt><trkpt lat="44.3129833" lon="8.4762747"><ele>20.0</ele><time>2026-05-01T10:41:34.929Z</time></trkpt><trkpt lat="44.3130414" lon="8.4762239"><ele>20.0</ele><time>2026-05-01T10:41:36.929Z</time></trkpt><trkpt lat="44.3131065" lon="8.4761479"><ele>20.0</ele><time>2026-05-01T10:41:39.928Z</time></trkpt><trkpt lat="44.3131708" lon="8.4761179"><ele>19.428571428571427</ele><time>2026-05-01T10:41:43.928Z</time></trkpt><trkpt lat="44.3131404" lon="8.4760286"><ele>18.857142857142858</ele><time>2026-05-01T10:41:50.928Z</time></trkpt><trkpt lat="44.3130772" lon="8.4759849"><ele>18.285714285714285</ele><time>2026-05-01T10:41:54.928Z</time></trkpt><trkpt lat="44.3130237" lon="8.4759279"><ele>17.714285714285715</ele><time>2026-05-01T10:41:57.929Z</time></trkpt><trkpt lat="44.3131044" lon="8.4759498"><ele>17.142857142857142</ele><time>2026-05-01T10:44:17.928Z</time></trkpt><trkpt lat="44.3131632" lon="8.4759901"><ele>16.57142857142857</ele><time>2026-05-01T10:44:29.929Z</time></trkpt><trkpt lat="44.3131253" lon="8.4760625"><ele>16.0</ele><time>2026-05-01T10:44:44.929Z</time></trkpt><trkpt lat="44.3130756" lon="8.4761424"><ele>14.0</ele><time>2026-05-01T10:44:51.933Z</time></trkpt><trkpt lat="44.3130169" lon="8.4761935"><ele>16.0</ele><time>2026-05-01T10:44:58.931Z</time></trkpt><trkpt lat="44.3129844" lon="8.4760995"><ele>16.0</ele><time>2026-05-01T10:45:39.856Z</time></trkpt><trkpt lat="44.312958" lon="8.4761817"><ele>16.0</ele><time>2026-05-01T10:48:52.922Z</time></trkpt></trkseg></trk></gpx>